<?xml version="1.0" encoding="UTF-8" standalone="no" ?>
<gpx xmlns="http://www.topografix.com/GPX/1/1" creator="www.cicloide.com" version="1.1" xmlns:xsi="http://www.w3.org/2001/XMLSchema-instance" xsi:schemaLocation="http://www.topografix.com/GPX/1/1 http://www.topografix.com/GPX/1/1/gpx.xsd">
  <trk>
    <name>www.cicloide.com 11356</name>
    <desc>www.cicloide.com 11356</desc>
    <trkseg>
      <trkpt lat="42.459765000" lon="-2.464078000">
        <ele>402.50</ele>
        <time>2012-12-01T08:58:02Z</time>
      </trkpt>
      <trkpt lat="42.459771000" lon="-2.464049000">
        <ele>402.50</ele>
        <time>2012-12-01T08:58:02Z</time>
      </trkpt>
      <trkpt lat="42.459760000" lon="-2.464051000">
        <ele>402.50</ele>
        <time>2012-12-01T08:58:04Z</time>
      </trkpt>
      <trkpt lat="42.459695000" lon="-2.464043000">
        <ele>402.60</ele>
        <time>2012-12-01T08:58:07Z</time>
      </trkpt>
      <trkpt lat="42.459680000" lon="-2.464038000">
        <ele>402.70</ele>
        <time>2012-12-01T08:58:09Z</time>
      </trkpt>
      <trkpt lat="42.459638000" lon="-2.464013000">
        <ele>402.80</ele>
        <time>2012-12-01T08:58:11Z</time>
      </trkpt>
      <trkpt lat="42.459501000" lon="-2.463984000">
        <ele>403.30</ele>
        <time>2012-12-01T08:58:18Z</time>
      </trkpt>
      <trkpt lat="42.459438000" lon="-2.463981000">
        <ele>403.50</ele>
        <time>2012-12-01T08:58:21Z</time>
      </trkpt>
      <trkpt lat="42.459345000" lon="-2.463941000">
        <ele>404.00</ele>
        <time>2012-12-01T08:58:27Z</time>
      </trkpt>
      <trkpt lat="42.459315000" lon="-2.463938000">
        <ele>404.10</ele>
        <time>2012-12-01T08:58:28Z</time>
      </trkpt>
      <trkpt lat="42.459248000" lon="-2.463971000">
        <ele>404.30</ele>
        <time>2012-12-01T08:58:30Z</time>
      </trkpt>
      <trkpt lat="42.459225000" lon="-2.464001000">
        <ele>404.30</ele>
        <time>2012-12-01T08:58:30Z</time>
      </trkpt>
      <trkpt lat="42.459211000" lon="-2.464034000">
        <ele>404.30</ele>
        <time>2012-12-01T08:58:32Z</time>
      </trkpt>
      <trkpt lat="42.459123000" lon="-2.464348000">
        <ele>403.60</ele>
        <time>2012-12-01T08:58:42Z</time>
      </trkpt>
      <trkpt lat="42.459111000" lon="-2.464408000">
        <ele>403.40</ele>
        <time>2012-12-01T08:58:44Z</time>
      </trkpt>
      <trkpt lat="42.459093000" lon="-2.464463000">
        <ele>403.20</ele>
        <time>2012-12-01T08:58:46Z</time>
      </trkpt>
      <trkpt lat="42.459078000" lon="-2.464584000">
        <ele>402.90</ele>
        <time>2012-12-01T08:58:49Z</time>
      </trkpt>
      <trkpt lat="42.459075000" lon="-2.464653000">
        <ele>402.80</ele>
        <time>2012-12-01T08:58:51Z</time>
      </trkpt>
      <trkpt lat="42.459063000" lon="-2.464719000">
        <ele>402.80</ele>
        <time>2012-12-01T08:58:53Z</time>
      </trkpt>
      <trkpt lat="42.459011000" lon="-2.464891000">
        <ele>403.00</ele>
        <time>2012-12-01T08:59:00Z</time>
      </trkpt>
      <trkpt lat="42.458985000" lon="-2.465056000">
        <ele>403.10</ele>
        <time>2012-12-01T08:59:05Z</time>
      </trkpt>
      <trkpt lat="42.458978000" lon="-2.465076000">
        <ele>403.10</ele>
        <time>2012-12-01T08:59:07Z</time>
      </trkpt>
      <trkpt lat="42.458978000" lon="-2.465086000">
        <ele>403.10</ele>
        <time>2012-12-01T08:59:08Z</time>
      </trkpt>
      <trkpt lat="42.458990000" lon="-2.465096000">
        <ele>403.10</ele>
        <time>2012-12-01T08:59:10Z</time>
      </trkpt>
      <trkpt lat="42.458995000" lon="-2.465103000">
        <ele>403.10</ele>
        <time>2012-12-01T08:59:12Z</time>
      </trkpt>
      <trkpt lat="42.459005000" lon="-2.465109000">
        <ele>403.10</ele>
        <time>2012-12-01T08:59:14Z</time>
      </trkpt>
      <trkpt lat="42.459010000" lon="-2.465113000">
        <ele>403.00</ele>
        <time>2012-12-01T08:59:14Z</time>
      </trkpt>
      <trkpt lat="42.459018000" lon="-2.465118000">
        <ele>403.00</ele>
        <time>2012-12-01T08:59:17Z</time>
      </trkpt>
      <trkpt lat="42.459028000" lon="-2.465128000">
        <ele>403.00</ele>
        <time>2012-12-01T08:59:19Z</time>
      </trkpt>
      <trkpt lat="42.459030000" lon="-2.465133000">
        <ele>403.00</ele>
        <time>2012-12-01T08:59:21Z</time>
      </trkpt>
      <trkpt lat="42.459033000" lon="-2.465138000">
        <ele>402.90</ele>
        <time>2012-12-01T08:59:22Z</time>
      </trkpt>
      <trkpt lat="42.459038000" lon="-2.465149000">
        <ele>402.90</ele>
        <time>2012-12-01T08:59:24Z</time>
      </trkpt>
      <trkpt lat="42.459035000" lon="-2.465186000">
        <ele>402.90</ele>
        <time>2012-12-01T08:59:33Z</time>
      </trkpt>
      <trkpt lat="42.459026000" lon="-2.465204000">
        <ele>402.90</ele>
        <time>2012-12-01T08:59:38Z</time>
      </trkpt>
      <trkpt lat="42.459025000" lon="-2.465206000">
        <ele>403.00</ele>
        <time>2012-12-01T08:59:38Z</time>
      </trkpt>
      <trkpt lat="42.459020000" lon="-2.465209000">
        <ele>403.00</ele>
        <time>2012-12-01T08:59:40Z</time>
      </trkpt>
      <trkpt lat="42.459016000" lon="-2.465216000">
        <ele>403.00</ele>
        <time>2012-12-01T08:59:43Z</time>
      </trkpt>
      <trkpt lat="42.459016000" lon="-2.465221000">
        <ele>403.00</ele>
        <time>2012-12-01T08:59:47Z</time>
      </trkpt>
      <trkpt lat="42.459013000" lon="-2.465221000">
        <ele>403.00</ele>
        <time>2012-12-01T08:59:48Z</time>
      </trkpt>
      <trkpt lat="42.459013000" lon="-2.465223000">
        <ele>403.00</ele>
        <time>2012-12-01T08:59:50Z</time>
      </trkpt>
      <trkpt lat="42.459011000" lon="-2.465224000">
        <ele>403.00</ele>
        <time>2012-12-01T08:59:50Z</time>
      </trkpt>
      <trkpt lat="42.459013000" lon="-2.465226000">
        <ele>403.00</ele>
        <time>2012-12-01T08:59:52Z</time>
      </trkpt>
      <trkpt lat="42.459011000" lon="-2.465226000">
        <ele>403.00</ele>
        <time>2012-12-01T08:59:52Z</time>
      </trkpt>
      <trkpt lat="42.459010000" lon="-2.465229000">
        <ele>403.00</ele>
        <time>2012-12-01T08:59:57Z</time>
      </trkpt>
      <trkpt lat="42.459006000" lon="-2.465231000">
        <ele>403.00</ele>
        <time>2012-12-01T09:00:01Z</time>
      </trkpt>
      <trkpt lat="42.459006000" lon="-2.465233000">
        <ele>403.00</ele>
        <time>2012-12-01T09:00:04Z</time>
      </trkpt>
      <trkpt lat="42.459008000" lon="-2.465234000">
        <ele>403.00</ele>
        <time>2012-12-01T09:00:04Z</time>
      </trkpt>
      <trkpt lat="42.459008000" lon="-2.465248000">
        <ele>403.00</ele>
        <time>2012-12-01T09:00:11Z</time>
      </trkpt>
      <trkpt lat="42.459010000" lon="-2.465249000">
        <ele>403.00</ele>
        <time>2012-12-01T09:00:11Z</time>
      </trkpt>
      <trkpt lat="42.459010000" lon="-2.465253000">
        <ele>403.00</ele>
        <time>2012-12-01T09:00:15Z</time>
      </trkpt>
      <trkpt lat="42.459013000" lon="-2.465254000">
        <ele>403.00</ele>
        <time>2012-12-01T09:00:18Z</time>
      </trkpt>
      <trkpt lat="42.459016000" lon="-2.465258000">
        <ele>403.00</ele>
        <time>2012-12-01T09:00:18Z</time>
      </trkpt>
      <trkpt lat="42.459021000" lon="-2.465259000">
        <ele>403.00</ele>
        <time>2012-12-01T09:00:20Z</time>
      </trkpt>
      <trkpt lat="42.459023000" lon="-2.465261000">
        <ele>403.00</ele>
        <time>2012-12-01T09:00:22Z</time>
      </trkpt>
      <trkpt lat="42.459030000" lon="-2.465259000">
        <ele>403.00</ele>
        <time>2012-12-01T09:00:25Z</time>
      </trkpt>
      <trkpt lat="42.459031000" lon="-2.465259000">
        <ele>402.90</ele>
        <time>2012-12-01T09:00:27Z</time>
      </trkpt>
      <trkpt lat="42.459036000" lon="-2.465258000">
        <ele>402.90</ele>
        <time>2012-12-01T09:00:29Z</time>
      </trkpt>
      <trkpt lat="42.459038000" lon="-2.465256000">
        <ele>402.90</ele>
        <time>2012-12-01T09:00:30Z</time>
      </trkpt>
      <trkpt lat="42.459048000" lon="-2.465253000">
        <ele>402.90</ele>
        <time>2012-12-01T09:00:34Z</time>
      </trkpt>
      <trkpt lat="42.459050000" lon="-2.465249000">
        <ele>402.90</ele>
        <time>2012-12-01T09:00:35Z</time>
      </trkpt>
      <trkpt lat="42.459055000" lon="-2.465246000">
        <ele>402.90</ele>
        <time>2012-12-01T09:00:37Z</time>
      </trkpt>
      <trkpt lat="42.459056000" lon="-2.465243000">
        <ele>402.90</ele>
        <time>2012-12-01T09:00:39Z</time>
      </trkpt>
      <trkpt lat="42.459055000" lon="-2.465234000">
        <ele>402.90</ele>
        <time>2012-12-01T09:00:44Z</time>
      </trkpt>
      <trkpt lat="42.459053000" lon="-2.465233000">
        <ele>402.90</ele>
        <time>2012-12-01T09:00:44Z</time>
      </trkpt>
      <trkpt lat="42.459053000" lon="-2.465229000">
        <ele>402.90</ele>
        <time>2012-12-01T09:00:46Z</time>
      </trkpt>
      <trkpt lat="42.459051000" lon="-2.465228000">
        <ele>402.90</ele>
        <time>2012-12-01T09:00:46Z</time>
      </trkpt>
      <trkpt lat="42.459051000" lon="-2.465223000">
        <ele>402.90</ele>
        <time>2012-12-01T09:00:49Z</time>
      </trkpt>
      <trkpt lat="42.459053000" lon="-2.465223000">
        <ele>402.90</ele>
        <time>2012-12-01T09:00:51Z</time>
      </trkpt>
      <trkpt lat="42.459050000" lon="-2.465219000">
        <ele>402.90</ele>
        <time>2012-12-01T09:00:53Z</time>
      </trkpt>
      <trkpt lat="42.459041000" lon="-2.465214000">
        <ele>402.90</ele>
        <time>2012-12-01T09:00:55Z</time>
      </trkpt>
      <trkpt lat="42.459031000" lon="-2.465213000">
        <ele>402.90</ele>
        <time>2012-12-01T09:01:00Z</time>
      </trkpt>
      <trkpt lat="42.459030000" lon="-2.465211000">
        <ele>402.90</ele>
        <time>2012-12-01T09:01:02Z</time>
      </trkpt>
      <trkpt lat="42.459028000" lon="-2.465211000">
        <ele>402.90</ele>
        <time>2012-12-01T09:01:07Z</time>
      </trkpt>
      <trkpt lat="42.459028000" lon="-2.465213000">
        <ele>402.90</ele>
        <time>2012-12-01T09:01:07Z</time>
      </trkpt>
      <trkpt lat="42.459030000" lon="-2.465213000">
        <ele>402.90</ele>
        <time>2012-12-01T09:01:09Z</time>
      </trkpt>
      <trkpt lat="42.459028000" lon="-2.465213000">
        <ele>402.90</ele>
        <time>2012-12-01T09:01:10Z</time>
      </trkpt>
      <trkpt lat="42.459025000" lon="-2.465211000">
        <ele>403.00</ele>
        <time>2012-12-01T09:01:10Z</time>
      </trkpt>
      <trkpt lat="42.459023000" lon="-2.465211000">
        <ele>403.00</ele>
        <time>2012-12-01T09:01:12Z</time>
      </trkpt>
      <trkpt lat="42.459025000" lon="-2.465211000">
        <ele>403.00</ele>
        <time>2012-12-01T09:01:12Z</time>
      </trkpt>
      <trkpt lat="42.459025000" lon="-2.465213000">
        <ele>403.00</ele>
        <time>2012-12-01T09:01:14Z</time>
      </trkpt>
      <trkpt lat="42.459028000" lon="-2.465214000">
        <ele>403.00</ele>
        <time>2012-12-01T09:01:19Z</time>
      </trkpt>
      <trkpt lat="42.459030000" lon="-2.465214000">
        <ele>402.90</ele>
        <time>2012-12-01T09:01:21Z</time>
      </trkpt>
      <trkpt lat="42.459050000" lon="-2.465214000">
        <ele>402.90</ele>
        <time>2012-12-01T09:01:24Z</time>
      </trkpt>
      <trkpt lat="42.459056000" lon="-2.465216000">
        <ele>402.90</ele>
        <time>2012-12-01T09:01:26Z</time>
      </trkpt>
      <trkpt lat="42.459065000" lon="-2.465216000">
        <ele>402.80</ele>
        <time>2012-12-01T09:01:26Z</time>
      </trkpt>
      <trkpt lat="42.459086000" lon="-2.465219000">
        <ele>402.80</ele>
        <time>2012-12-01T09:01:29Z</time>
      </trkpt>
      <trkpt lat="42.459093000" lon="-2.465221000">
        <ele>402.70</ele>
        <time>2012-12-01T09:01:31Z</time>
      </trkpt>
      <trkpt lat="42.459111000" lon="-2.465221000">
        <ele>402.70</ele>
        <time>2012-12-01T09:01:35Z</time>
      </trkpt>
      <trkpt lat="42.459116000" lon="-2.465223000">
        <ele>402.70</ele>
        <time>2012-12-01T09:01:35Z</time>
      </trkpt>
      <trkpt lat="42.459121000" lon="-2.465224000">
        <ele>402.60</ele>
        <time>2012-12-01T09:01:36Z</time>
      </trkpt>
      <trkpt lat="42.459133000" lon="-2.465229000">
        <ele>402.60</ele>
        <time>2012-12-01T09:01:40Z</time>
      </trkpt>
      <trkpt lat="42.459135000" lon="-2.465233000">
        <ele>402.60</ele>
        <time>2012-12-01T09:01:42Z</time>
      </trkpt>
      <trkpt lat="42.459131000" lon="-2.465233000">
        <ele>402.60</ele>
        <time>2012-12-01T09:01:43Z</time>
      </trkpt>
      <trkpt lat="42.459133000" lon="-2.465234000">
        <ele>402.60</ele>
        <time>2012-12-01T09:01:45Z</time>
      </trkpt>
      <trkpt lat="42.459128000" lon="-2.465233000">
        <ele>402.60</ele>
        <time>2012-12-01T09:01:47Z</time>
      </trkpt>
      <trkpt lat="42.459130000" lon="-2.465234000">
        <ele>402.60</ele>
        <time>2012-12-01T09:01:49Z</time>
      </trkpt>
      <trkpt lat="42.459128000" lon="-2.465233000">
        <ele>402.60</ele>
        <time>2012-12-01T09:01:52Z</time>
      </trkpt>
      <trkpt lat="42.459128000" lon="-2.465231000">
        <ele>402.60</ele>
        <time>2012-12-01T09:01:52Z</time>
      </trkpt>
      <trkpt lat="42.459110000" lon="-2.465226000">
        <ele>402.60</ele>
        <time>2012-12-01T09:01:59Z</time>
      </trkpt>
      <trkpt lat="42.459110000" lon="-2.465224000">
        <ele>402.60</ele>
        <time>2012-12-01T09:02:01Z</time>
      </trkpt>
      <trkpt lat="42.459108000" lon="-2.465224000">
        <ele>402.70</ele>
        <time>2012-12-01T09:02:01Z</time>
      </trkpt>
      <trkpt lat="42.459095000" lon="-2.465223000">
        <ele>402.70</ele>
        <time>2012-12-01T09:02:22Z</time>
      </trkpt>
      <trkpt lat="42.459095000" lon="-2.465221000">
        <ele>402.70</ele>
        <time>2012-12-01T09:02:22Z</time>
      </trkpt>
      <trkpt lat="42.459093000" lon="-2.465221000">
        <ele>402.70</ele>
        <time>2012-12-01T09:02:24Z</time>
      </trkpt>
      <trkpt lat="42.459095000" lon="-2.465221000">
        <ele>402.70</ele>
        <time>2012-12-01T09:02:25Z</time>
      </trkpt>
      <trkpt lat="42.459098000" lon="-2.465233000">
        <ele>402.70</ele>
        <time>2012-12-01T09:02:36Z</time>
      </trkpt>
      <trkpt lat="42.459098000" lon="-2.465231000">
        <ele>402.70</ele>
        <time>2012-12-01T09:02:41Z</time>
      </trkpt>
      <trkpt lat="42.459100000" lon="-2.465231000">
        <ele>402.70</ele>
        <time>2012-12-01T09:02:44Z</time>
      </trkpt>
      <trkpt lat="42.459101000" lon="-2.465228000">
        <ele>402.70</ele>
        <time>2012-12-01T09:02:48Z</time>
      </trkpt>
      <trkpt lat="42.459108000" lon="-2.465228000">
        <ele>402.70</ele>
        <time>2012-12-01T09:02:53Z</time>
      </trkpt>
      <trkpt lat="42.459111000" lon="-2.465223000">
        <ele>402.70</ele>
        <time>2012-12-01T09:02:58Z</time>
      </trkpt>
      <trkpt lat="42.459100000" lon="-2.465216000">
        <ele>402.70</ele>
        <time>2012-12-01T09:03:00Z</time>
      </trkpt>
      <trkpt lat="42.459076000" lon="-2.465206000">
        <ele>402.70</ele>
        <time>2012-12-01T09:03:02Z</time>
      </trkpt>
      <trkpt lat="42.459071000" lon="-2.465203000">
        <ele>402.80</ele>
        <time>2012-12-01T09:03:04Z</time>
      </trkpt>
      <trkpt lat="42.459070000" lon="-2.465203000">
        <ele>402.80</ele>
        <time>2012-12-01T09:03:05Z</time>
      </trkpt>
      <trkpt lat="42.459080000" lon="-2.465208000">
        <ele>402.80</ele>
        <time>2012-12-01T09:03:07Z</time>
      </trkpt>
      <trkpt lat="42.459088000" lon="-2.465211000">
        <ele>402.80</ele>
        <time>2012-12-01T09:03:07Z</time>
      </trkpt>
      <trkpt lat="42.459098000" lon="-2.465214000">
        <ele>402.70</ele>
        <time>2012-12-01T09:03:09Z</time>
      </trkpt>
      <trkpt lat="42.459120000" lon="-2.465221000">
        <ele>402.70</ele>
        <time>2012-12-01T09:03:11Z</time>
      </trkpt>
      <trkpt lat="42.459126000" lon="-2.465224000">
        <ele>402.60</ele>
        <time>2012-12-01T09:03:12Z</time>
      </trkpt>
      <trkpt lat="42.459151000" lon="-2.465229000">
        <ele>402.60</ele>
        <time>2012-12-01T09:03:14Z</time>
      </trkpt>
      <trkpt lat="42.459166000" lon="-2.465231000">
        <ele>402.50</ele>
        <time>2012-12-01T09:03:14Z</time>
      </trkpt>
      <trkpt lat="42.459175000" lon="-2.465229000">
        <ele>402.50</ele>
        <time>2012-12-01T09:03:16Z</time>
      </trkpt>
      <trkpt lat="42.459175000" lon="-2.465228000">
        <ele>402.40</ele>
        <time>2012-12-01T09:03:16Z</time>
      </trkpt>
      <trkpt lat="42.459173000" lon="-2.465224000">
        <ele>402.40</ele>
        <time>2012-12-01T09:03:18Z</time>
      </trkpt>
      <trkpt lat="42.459168000" lon="-2.465221000">
        <ele>402.40</ele>
        <time>2012-12-01T09:03:19Z</time>
      </trkpt>
      <trkpt lat="42.459156000" lon="-2.465216000">
        <ele>402.50</ele>
        <time>2012-12-01T09:03:19Z</time>
      </trkpt>
      <trkpt lat="42.459136000" lon="-2.465204000">
        <ele>402.50</ele>
        <time>2012-12-01T09:03:23Z</time>
      </trkpt>
      <trkpt lat="42.459135000" lon="-2.465201000">
        <ele>402.50</ele>
        <time>2012-12-01T09:03:23Z</time>
      </trkpt>
      <trkpt lat="42.459138000" lon="-2.465199000">
        <ele>402.50</ele>
        <time>2012-12-01T09:03:24Z</time>
      </trkpt>
      <trkpt lat="42.459163000" lon="-2.465198000">
        <ele>402.50</ele>
        <time>2012-12-01T09:03:28Z</time>
      </trkpt>
      <trkpt lat="42.459170000" lon="-2.465186000">
        <ele>402.50</ele>
        <time>2012-12-01T09:03:33Z</time>
      </trkpt>
      <trkpt lat="42.459171000" lon="-2.465184000">
        <ele>402.40</ele>
        <time>2012-12-01T09:03:33Z</time>
      </trkpt>
      <trkpt lat="42.459168000" lon="-2.465181000">
        <ele>402.40</ele>
        <time>2012-12-01T09:03:37Z</time>
      </trkpt>
      <trkpt lat="42.459163000" lon="-2.465179000">
        <ele>402.40</ele>
        <time>2012-12-01T09:03:37Z</time>
      </trkpt>
      <trkpt lat="42.459160000" lon="-2.465178000">
        <ele>402.50</ele>
        <time>2012-12-01T09:03:38Z</time>
      </trkpt>
      <trkpt lat="42.459156000" lon="-2.465176000">
        <ele>402.50</ele>
        <time>2012-12-01T09:03:40Z</time>
      </trkpt>
      <trkpt lat="42.459150000" lon="-2.465171000">
        <ele>402.50</ele>
        <time>2012-12-01T09:03:42Z</time>
      </trkpt>
      <trkpt lat="42.459145000" lon="-2.465171000">
        <ele>402.50</ele>
        <time>2012-12-01T09:03:45Z</time>
      </trkpt>
      <trkpt lat="42.459145000" lon="-2.465173000">
        <ele>402.50</ele>
        <time>2012-12-01T09:03:47Z</time>
      </trkpt>
      <trkpt lat="42.459143000" lon="-2.465173000">
        <ele>402.50</ele>
        <time>2012-12-01T09:03:49Z</time>
      </trkpt>
      <trkpt lat="42.459143000" lon="-2.465176000">
        <ele>402.50</ele>
        <time>2012-12-01T09:03:51Z</time>
      </trkpt>
      <trkpt lat="42.459145000" lon="-2.465178000">
        <ele>402.50</ele>
        <time>2012-12-01T09:03:52Z</time>
      </trkpt>
      <trkpt lat="42.459143000" lon="-2.465178000">
        <ele>402.50</ele>
        <time>2012-12-01T09:03:52Z</time>
      </trkpt>
      <trkpt lat="42.459143000" lon="-2.465183000">
        <ele>402.50</ele>
        <time>2012-12-01T09:04:05Z</time>
      </trkpt>
      <trkpt lat="42.459148000" lon="-2.465184000">
        <ele>402.50</ele>
        <time>2012-12-01T09:04:06Z</time>
      </trkpt>
      <trkpt lat="42.459153000" lon="-2.465188000">
        <ele>402.50</ele>
        <time>2012-12-01T09:04:08Z</time>
      </trkpt>
      <trkpt lat="42.459156000" lon="-2.465193000">
        <ele>402.50</ele>
        <time>2012-12-01T09:04:10Z</time>
      </trkpt>
      <trkpt lat="42.459163000" lon="-2.465198000">
        <ele>402.50</ele>
        <time>2012-12-01T09:04:13Z</time>
      </trkpt>
      <trkpt lat="42.459166000" lon="-2.465198000">
        <ele>402.50</ele>
        <time>2012-12-01T09:04:15Z</time>
      </trkpt>
      <trkpt lat="42.459170000" lon="-2.465196000">
        <ele>402.50</ele>
        <time>2012-12-01T09:04:15Z</time>
      </trkpt>
      <trkpt lat="42.459173000" lon="-2.465194000">
        <ele>402.40</ele>
        <time>2012-12-01T09:04:17Z</time>
      </trkpt>
      <trkpt lat="42.459180000" lon="-2.465194000">
        <ele>402.40</ele>
        <time>2012-12-01T09:04:18Z</time>
      </trkpt>
      <trkpt lat="42.459183000" lon="-2.465198000">
        <ele>402.40</ele>
        <time>2012-12-01T09:04:20Z</time>
      </trkpt>
      <trkpt lat="42.459183000" lon="-2.465201000">
        <ele>402.40</ele>
        <time>2012-12-01T09:04:22Z</time>
      </trkpt>
      <trkpt lat="42.459186000" lon="-2.465203000">
        <ele>402.40</ele>
        <time>2012-12-01T09:04:24Z</time>
      </trkpt>
      <trkpt lat="42.459190000" lon="-2.465203000">
        <ele>402.40</ele>
        <time>2012-12-01T09:04:24Z</time>
      </trkpt>
      <trkpt lat="42.459195000" lon="-2.465206000">
        <ele>402.40</ele>
        <time>2012-12-01T09:04:25Z</time>
      </trkpt>
      <trkpt lat="42.459200000" lon="-2.465209000">
        <ele>402.30</ele>
        <time>2012-12-01T09:04:27Z</time>
      </trkpt>
      <trkpt lat="42.459205000" lon="-2.465213000">
        <ele>402.30</ele>
        <time>2012-12-01T09:04:27Z</time>
      </trkpt>
      <trkpt lat="42.459213000" lon="-2.465216000">
        <ele>402.30</ele>
        <time>2012-12-01T09:04:29Z</time>
      </trkpt>
      <trkpt lat="42.459228000" lon="-2.465218000">
        <ele>402.30</ele>
        <time>2012-12-01T09:04:32Z</time>
      </trkpt>
      <trkpt lat="42.459233000" lon="-2.465218000">
        <ele>402.20</ele>
        <time>2012-12-01T09:04:34Z</time>
      </trkpt>
      <trkpt lat="42.459238000" lon="-2.465219000">
        <ele>402.20</ele>
        <time>2012-12-01T09:04:34Z</time>
      </trkpt>
      <trkpt lat="42.459251000" lon="-2.465218000">
        <ele>402.20</ele>
        <time>2012-12-01T09:04:39Z</time>
      </trkpt>
      <trkpt lat="42.459253000" lon="-2.465218000">
        <ele>402.10</ele>
        <time>2012-12-01T09:04:41Z</time>
      </trkpt>
      <trkpt lat="42.459265000" lon="-2.465219000">
        <ele>402.10</ele>
        <time>2012-12-01T09:04:46Z</time>
      </trkpt>
      <trkpt lat="42.459266000" lon="-2.465221000">
        <ele>402.10</ele>
        <time>2012-12-01T09:04:48Z</time>
      </trkpt>
      <trkpt lat="42.459265000" lon="-2.465219000">
        <ele>402.10</ele>
        <time>2012-12-01T09:04:50Z</time>
      </trkpt>
      <trkpt lat="42.459256000" lon="-2.465219000">
        <ele>402.10</ele>
        <time>2012-12-01T09:04:55Z</time>
      </trkpt>
      <trkpt lat="42.459255000" lon="-2.465221000">
        <ele>402.10</ele>
        <time>2012-12-01T09:04:55Z</time>
      </trkpt>
      <trkpt lat="42.459253000" lon="-2.465221000">
        <ele>402.10</ele>
        <time>2012-12-01T09:04:57Z</time>
      </trkpt>
      <trkpt lat="42.459253000" lon="-2.465223000">
        <ele>402.10</ele>
        <time>2012-12-01T09:04:57Z</time>
      </trkpt>
      <trkpt lat="42.459255000" lon="-2.465223000">
        <ele>402.10</ele>
        <time>2012-12-01T09:05:04Z</time>
      </trkpt>
      <trkpt lat="42.459256000" lon="-2.465221000">
        <ele>402.10</ele>
        <time>2012-12-01T09:05:07Z</time>
      </trkpt>
      <trkpt lat="42.459256000" lon="-2.465224000">
        <ele>402.10</ele>
        <time>2012-12-01T09:05:11Z</time>
      </trkpt>
      <trkpt lat="42.459258000" lon="-2.465224000">
        <ele>402.10</ele>
        <time>2012-12-01T09:05:11Z</time>
      </trkpt>
      <trkpt lat="42.459256000" lon="-2.465224000">
        <ele>402.10</ele>
        <time>2012-12-01T09:05:12Z</time>
      </trkpt>
      <trkpt lat="42.459255000" lon="-2.465233000">
        <ele>402.10</ele>
        <time>2012-12-01T09:05:19Z</time>
      </trkpt>
      <trkpt lat="42.459251000" lon="-2.465236000">
        <ele>402.10</ele>
        <time>2012-12-01T09:05:21Z</time>
      </trkpt>
      <trkpt lat="42.459250000" lon="-2.465239000">
        <ele>402.10</ele>
        <time>2012-12-01T09:05:23Z</time>
      </trkpt>
      <trkpt lat="42.459250000" lon="-2.465241000">
        <ele>402.10</ele>
        <time>2012-12-01T09:05:25Z</time>
      </trkpt>
      <trkpt lat="42.459250000" lon="-2.465243000">
        <ele>402.20</ele>
        <time>2012-12-01T09:05:28Z</time>
      </trkpt>
      <trkpt lat="42.459250000" lon="-2.465254000">
        <ele>402.20</ele>
        <time>2012-12-01T09:05:33Z</time>
      </trkpt>
      <trkpt lat="42.459246000" lon="-2.465258000">
        <ele>402.20</ele>
        <time>2012-12-01T09:05:35Z</time>
      </trkpt>
      <trkpt lat="42.459245000" lon="-2.465266000">
        <ele>402.20</ele>
        <time>2012-12-01T09:05:37Z</time>
      </trkpt>
      <trkpt lat="42.459241000" lon="-2.465271000">
        <ele>402.20</ele>
        <time>2012-12-01T09:05:40Z</time>
      </trkpt>
      <trkpt lat="42.459240000" lon="-2.465276000">
        <ele>402.20</ele>
        <time>2012-12-01T09:05:40Z</time>
      </trkpt>
      <trkpt lat="42.459236000" lon="-2.465279000">
        <ele>402.20</ele>
        <time>2012-12-01T09:05:42Z</time>
      </trkpt>
      <trkpt lat="42.459235000" lon="-2.465284000">
        <ele>402.20</ele>
        <time>2012-12-01T09:05:42Z</time>
      </trkpt>
      <trkpt lat="42.459226000" lon="-2.465291000">
        <ele>402.20</ele>
        <time>2012-12-01T09:05:46Z</time>
      </trkpt>
      <trkpt lat="42.459225000" lon="-2.465294000">
        <ele>402.20</ele>
        <time>2012-12-01T09:05:47Z</time>
      </trkpt>
      <trkpt lat="42.459223000" lon="-2.465294000">
        <ele>402.20</ele>
        <time>2012-12-01T09:05:47Z</time>
      </trkpt>
      <trkpt lat="42.459225000" lon="-2.465298000">
        <ele>402.20</ele>
        <time>2012-12-01T09:05:49Z</time>
      </trkpt>
      <trkpt lat="42.459226000" lon="-2.465294000">
        <ele>402.20</ele>
        <time>2012-12-01T09:05:53Z</time>
      </trkpt>
      <trkpt lat="42.459230000" lon="-2.465293000">
        <ele>402.20</ele>
        <time>2012-12-01T09:05:54Z</time>
      </trkpt>
      <trkpt lat="42.459250000" lon="-2.465294000">
        <ele>402.20</ele>
        <time>2012-12-01T09:06:01Z</time>
      </trkpt>
      <trkpt lat="42.459253000" lon="-2.465293000">
        <ele>402.20</ele>
        <time>2012-12-01T09:06:01Z</time>
      </trkpt>
      <trkpt lat="42.459256000" lon="-2.465291000">
        <ele>402.10</ele>
        <time>2012-12-01T09:06:03Z</time>
      </trkpt>
      <trkpt lat="42.459265000" lon="-2.465288000">
        <ele>402.10</ele>
        <time>2012-12-01T09:06:05Z</time>
      </trkpt>
      <trkpt lat="42.459273000" lon="-2.465281000">
        <ele>402.10</ele>
        <time>2012-12-01T09:06:10Z</time>
      </trkpt>
      <trkpt lat="42.459275000" lon="-2.465276000">
        <ele>402.10</ele>
        <time>2012-12-01T09:06:12Z</time>
      </trkpt>
      <trkpt lat="42.459273000" lon="-2.465274000">
        <ele>402.10</ele>
        <time>2012-12-01T09:06:12Z</time>
      </trkpt>
      <trkpt lat="42.459278000" lon="-2.465271000">
        <ele>402.10</ele>
        <time>2012-12-01T09:06:15Z</time>
      </trkpt>
      <trkpt lat="42.459281000" lon="-2.465269000">
        <ele>402.00</ele>
        <time>2012-12-01T09:06:17Z</time>
      </trkpt>
      <trkpt lat="42.459283000" lon="-2.465268000">
        <ele>402.00</ele>
        <time>2012-12-01T09:06:17Z</time>
      </trkpt>
      <trkpt lat="42.459295000" lon="-2.465271000">
        <ele>402.00</ele>
        <time>2012-12-01T09:06:20Z</time>
      </trkpt>
      <trkpt lat="42.459300000" lon="-2.465269000">
        <ele>402.00</ele>
        <time>2012-12-01T09:06:22Z</time>
      </trkpt>
      <trkpt lat="42.459303000" lon="-2.465271000">
        <ele>402.00</ele>
        <time>2012-12-01T09:06:24Z</time>
      </trkpt>
      <trkpt lat="42.459306000" lon="-2.465271000">
        <ele>402.00</ele>
        <time>2012-12-01T09:06:24Z</time>
      </trkpt>
      <trkpt lat="42.459351000" lon="-2.465279000">
        <ele>401.90</ele>
        <time>2012-12-01T09:06:26Z</time>
      </trkpt>
      <trkpt lat="42.458911000" lon="-2.465386000">
        <ele>403.40</ele>
        <time>2012-12-01T09:08:03Z</time>
      </trkpt>
      <trkpt lat="42.458921000" lon="-2.465383000">
        <ele>403.40</ele>
        <time>2012-12-01T09:08:03Z</time>
      </trkpt>
      <trkpt lat="42.458928000" lon="-2.465383000">
        <ele>403.30</ele>
        <time>2012-12-01T09:08:05Z</time>
      </trkpt>
      <trkpt lat="42.458933000" lon="-2.465376000">
        <ele>403.30</ele>
        <time>2012-12-01T09:08:05Z</time>
      </trkpt>
      <trkpt lat="42.458940000" lon="-2.465371000">
        <ele>403.30</ele>
        <time>2012-12-01T09:08:07Z</time>
      </trkpt>
      <trkpt lat="42.458940000" lon="-2.465366000">
        <ele>403.30</ele>
        <time>2012-12-01T09:08:07Z</time>
      </trkpt>
      <trkpt lat="42.458943000" lon="-2.465359000">
        <ele>403.30</ele>
        <time>2012-12-01T09:08:10Z</time>
      </trkpt>
      <trkpt lat="42.458941000" lon="-2.465358000">
        <ele>403.30</ele>
        <time>2012-12-01T09:08:12Z</time>
      </trkpt>
      <trkpt lat="42.458935000" lon="-2.465363000">
        <ele>403.30</ele>
        <time>2012-12-01T09:08:14Z</time>
      </trkpt>
      <trkpt lat="42.458935000" lon="-2.465353000">
        <ele>403.30</ele>
        <time>2012-12-01T09:08:19Z</time>
      </trkpt>
      <trkpt lat="42.458936000" lon="-2.465346000">
        <ele>403.30</ele>
        <time>2012-12-01T09:08:19Z</time>
      </trkpt>
      <trkpt lat="42.458941000" lon="-2.465341000">
        <ele>403.30</ele>
        <time>2012-12-01T09:08:21Z</time>
      </trkpt>
      <trkpt lat="42.458951000" lon="-2.465334000">
        <ele>403.30</ele>
        <time>2012-12-01T09:08:22Z</time>
      </trkpt>
      <trkpt lat="42.458956000" lon="-2.465331000">
        <ele>403.20</ele>
        <time>2012-12-01T09:08:22Z</time>
      </trkpt>
      <trkpt lat="42.458976000" lon="-2.465321000">
        <ele>403.20</ele>
        <time>2012-12-01T09:08:26Z</time>
      </trkpt>
      <trkpt lat="42.458983000" lon="-2.465316000">
        <ele>403.10</ele>
        <time>2012-12-01T09:08:26Z</time>
      </trkpt>
      <trkpt lat="42.459003000" lon="-2.465308000">
        <ele>403.10</ele>
        <time>2012-12-01T09:08:31Z</time>
      </trkpt>
      <trkpt lat="42.459008000" lon="-2.465306000">
        <ele>403.00</ele>
        <time>2012-12-01T09:08:31Z</time>
      </trkpt>
      <trkpt lat="42.459008000" lon="-2.465303000">
        <ele>403.00</ele>
        <time>2012-12-01T09:08:33Z</time>
      </trkpt>
      <trkpt lat="42.459013000" lon="-2.465296000">
        <ele>403.00</ele>
        <time>2012-12-01T09:08:36Z</time>
      </trkpt>
      <trkpt lat="42.459013000" lon="-2.465284000">
        <ele>403.00</ele>
        <time>2012-12-01T09:08:40Z</time>
      </trkpt>
      <trkpt lat="42.459015000" lon="-2.465278000">
        <ele>403.00</ele>
        <time>2012-12-01T09:08:40Z</time>
      </trkpt>
      <trkpt lat="42.459011000" lon="-2.465258000">
        <ele>403.00</ele>
        <time>2012-12-01T09:08:43Z</time>
      </trkpt>
      <trkpt lat="42.459011000" lon="-2.465223000">
        <ele>403.00</ele>
        <time>2012-12-01T09:08:52Z</time>
      </trkpt>
      <trkpt lat="42.459013000" lon="-2.465219000">
        <ele>403.00</ele>
        <time>2012-12-01T09:08:54Z</time>
      </trkpt>
      <trkpt lat="42.459011000" lon="-2.465218000">
        <ele>403.00</ele>
        <time>2012-12-01T09:08:57Z</time>
      </trkpt>
      <trkpt lat="42.459010000" lon="-2.465221000">
        <ele>403.00</ele>
        <time>2012-12-01T09:09:01Z</time>
      </trkpt>
      <trkpt lat="42.459011000" lon="-2.465218000">
        <ele>403.00</ele>
        <time>2012-12-01T09:09:02Z</time>
      </trkpt>
      <trkpt lat="42.459025000" lon="-2.465216000">
        <ele>403.00</ele>
        <time>2012-12-01T09:09:08Z</time>
      </trkpt>
      <trkpt lat="42.459026000" lon="-2.465214000">
        <ele>403.00</ele>
        <time>2012-12-01T09:09:09Z</time>
      </trkpt>
      <trkpt lat="42.459016000" lon="-2.465209000">
        <ele>403.00</ele>
        <time>2012-12-01T09:09:18Z</time>
      </trkpt>
      <trkpt lat="42.459011000" lon="-2.465213000">
        <ele>403.00</ele>
        <time>2012-12-01T09:09:25Z</time>
      </trkpt>
      <trkpt lat="42.459023000" lon="-2.465219000">
        <ele>403.00</ele>
        <time>2012-12-01T09:09:29Z</time>
      </trkpt>
      <trkpt lat="42.459030000" lon="-2.465218000">
        <ele>403.00</ele>
        <time>2012-12-01T09:09:30Z</time>
      </trkpt>
      <trkpt lat="42.459035000" lon="-2.465216000">
        <ele>402.90</ele>
        <time>2012-12-01T09:09:32Z</time>
      </trkpt>
      <trkpt lat="42.459038000" lon="-2.465219000">
        <ele>402.90</ele>
        <time>2012-12-01T09:09:34Z</time>
      </trkpt>
      <trkpt lat="42.459045000" lon="-2.465219000">
        <ele>402.90</ele>
        <time>2012-12-01T09:09:37Z</time>
      </trkpt>
      <trkpt lat="42.459036000" lon="-2.465238000">
        <ele>402.90</ele>
        <time>2012-12-01T09:09:44Z</time>
      </trkpt>
      <trkpt lat="42.459033000" lon="-2.465248000">
        <ele>402.90</ele>
        <time>2012-12-01T09:09:46Z</time>
      </trkpt>
      <trkpt lat="42.459023000" lon="-2.465266000">
        <ele>402.90</ele>
        <time>2012-12-01T09:09:48Z</time>
      </trkpt>
      <trkpt lat="42.459021000" lon="-2.465273000">
        <ele>403.00</ele>
        <time>2012-12-01T09:09:48Z</time>
      </trkpt>
      <trkpt lat="42.458998000" lon="-2.465316000">
        <ele>403.00</ele>
        <time>2012-12-01T09:09:58Z</time>
      </trkpt>
      <trkpt lat="42.458996000" lon="-2.465319000">
        <ele>403.10</ele>
        <time>2012-12-01T09:09:58Z</time>
      </trkpt>
      <trkpt lat="42.458995000" lon="-2.465323000">
        <ele>403.10</ele>
        <time>2012-12-01T09:10:00Z</time>
      </trkpt>
      <trkpt lat="42.458993000" lon="-2.465324000">
        <ele>403.10</ele>
        <time>2012-12-01T09:10:02Z</time>
      </trkpt>
      <trkpt lat="42.458993000" lon="-2.465331000">
        <ele>403.10</ele>
        <time>2012-12-01T09:10:07Z</time>
      </trkpt>
      <trkpt lat="42.458995000" lon="-2.465334000">
        <ele>403.10</ele>
        <time>2012-12-01T09:10:07Z</time>
      </trkpt>
      <trkpt lat="42.459001000" lon="-2.465336000">
        <ele>403.10</ele>
        <time>2012-12-01T09:10:10Z</time>
      </trkpt>
      <trkpt lat="42.459006000" lon="-2.465338000">
        <ele>403.00</ele>
        <time>2012-12-01T09:10:10Z</time>
      </trkpt>
      <trkpt lat="42.459018000" lon="-2.465341000">
        <ele>403.00</ele>
        <time>2012-12-01T09:10:12Z</time>
      </trkpt>
      <trkpt lat="42.459031000" lon="-2.465341000">
        <ele>403.00</ele>
        <time>2012-12-01T09:10:14Z</time>
      </trkpt>
      <trkpt lat="42.459038000" lon="-2.465339000">
        <ele>402.90</ele>
        <time>2012-12-01T09:10:16Z</time>
      </trkpt>
      <trkpt lat="42.459046000" lon="-2.465338000">
        <ele>402.90</ele>
        <time>2012-12-01T09:10:21Z</time>
      </trkpt>
      <trkpt lat="42.459058000" lon="-2.465338000">
        <ele>402.90</ele>
        <time>2012-12-01T09:10:26Z</time>
      </trkpt>
      <trkpt lat="42.459060000" lon="-2.465336000">
        <ele>402.80</ele>
        <time>2012-12-01T09:10:26Z</time>
      </trkpt>
      <trkpt lat="42.459075000" lon="-2.465336000">
        <ele>402.80</ele>
        <time>2012-12-01T09:10:31Z</time>
      </trkpt>
      <trkpt lat="42.459078000" lon="-2.465334000">
        <ele>402.80</ele>
        <time>2012-12-01T09:10:31Z</time>
      </trkpt>
      <trkpt lat="42.459083000" lon="-2.465334000">
        <ele>402.80</ele>
        <time>2012-12-01T09:10:33Z</time>
      </trkpt>
      <trkpt lat="42.459086000" lon="-2.465331000">
        <ele>402.80</ele>
        <time>2012-12-01T09:10:33Z</time>
      </trkpt>
      <trkpt lat="42.459090000" lon="-2.465329000">
        <ele>402.70</ele>
        <time>2012-12-01T09:10:35Z</time>
      </trkpt>
      <trkpt lat="42.459103000" lon="-2.465316000">
        <ele>402.70</ele>
        <time>2012-12-01T09:10:38Z</time>
      </trkpt>
      <trkpt lat="42.459113000" lon="-2.465311000">
        <ele>402.70</ele>
        <time>2012-12-01T09:10:42Z</time>
      </trkpt>
      <trkpt lat="42.459116000" lon="-2.465309000">
        <ele>402.60</ele>
        <time>2012-12-01T09:10:42Z</time>
      </trkpt>
      <trkpt lat="42.459120000" lon="-2.465308000">
        <ele>402.60</ele>
        <time>2012-12-01T09:10:43Z</time>
      </trkpt>
      <trkpt lat="42.459121000" lon="-2.465304000">
        <ele>402.60</ele>
        <time>2012-12-01T09:10:45Z</time>
      </trkpt>
      <trkpt lat="42.459125000" lon="-2.465301000">
        <ele>402.60</ele>
        <time>2012-12-01T09:10:47Z</time>
      </trkpt>
      <trkpt lat="42.459125000" lon="-2.465296000">
        <ele>402.60</ele>
        <time>2012-12-01T09:10:49Z</time>
      </trkpt>
      <trkpt lat="42.459111000" lon="-2.465289000">
        <ele>402.60</ele>
        <time>2012-12-01T09:10:57Z</time>
      </trkpt>
      <trkpt lat="42.459093000" lon="-2.465288000">
        <ele>402.70</ele>
        <time>2012-12-01T09:11:03Z</time>
      </trkpt>
      <trkpt lat="42.459048000" lon="-2.465299000">
        <ele>402.90</ele>
        <time>2012-12-01T09:11:15Z</time>
      </trkpt>
      <trkpt lat="42.459038000" lon="-2.465311000">
        <ele>402.90</ele>
        <time>2012-12-01T09:11:18Z</time>
      </trkpt>
      <trkpt lat="42.459036000" lon="-2.465314000">
        <ele>402.90</ele>
        <time>2012-12-01T09:11:20Z</time>
      </trkpt>
      <trkpt lat="42.459036000" lon="-2.465318000">
        <ele>402.90</ele>
        <time>2012-12-01T09:11:20Z</time>
      </trkpt>
      <trkpt lat="42.459031000" lon="-2.465324000">
        <ele>402.90</ele>
        <time>2012-12-01T09:11:23Z</time>
      </trkpt>
      <trkpt lat="42.459033000" lon="-2.465324000">
        <ele>402.90</ele>
        <time>2012-12-01T09:11:25Z</time>
      </trkpt>
      <trkpt lat="42.459030000" lon="-2.465331000">
        <ele>402.90</ele>
        <time>2012-12-01T09:11:27Z</time>
      </trkpt>
      <trkpt lat="42.459030000" lon="-2.465333000">
        <ele>402.90</ele>
        <time>2012-12-01T09:11:27Z</time>
      </trkpt>
      <trkpt lat="42.459033000" lon="-2.465336000">
        <ele>402.90</ele>
        <time>2012-12-01T09:11:29Z</time>
      </trkpt>
      <trkpt lat="42.459031000" lon="-2.465339000">
        <ele>402.90</ele>
        <time>2012-12-01T09:11:30Z</time>
      </trkpt>
      <trkpt lat="42.459028000" lon="-2.465341000">
        <ele>402.90</ele>
        <time>2012-12-01T09:11:34Z</time>
      </trkpt>
      <trkpt lat="42.459026000" lon="-2.465338000">
        <ele>402.90</ele>
        <time>2012-12-01T09:11:36Z</time>
      </trkpt>
      <trkpt lat="42.459025000" lon="-2.465336000">
        <ele>403.00</ele>
        <time>2012-12-01T09:11:36Z</time>
      </trkpt>
      <trkpt lat="42.459025000" lon="-2.465333000">
        <ele>403.00</ele>
        <time>2012-12-01T09:11:37Z</time>
      </trkpt>
      <trkpt lat="42.459023000" lon="-2.465343000">
        <ele>403.00</ele>
        <time>2012-12-01T09:11:41Z</time>
      </trkpt>
      <trkpt lat="42.459021000" lon="-2.465338000">
        <ele>403.00</ele>
        <time>2012-12-01T09:11:44Z</time>
      </trkpt>
      <trkpt lat="42.459025000" lon="-2.465338000">
        <ele>403.00</ele>
        <time>2012-12-01T09:11:46Z</time>
      </trkpt>
      <trkpt lat="42.459026000" lon="-2.465333000">
        <ele>403.00</ele>
        <time>2012-12-01T09:11:48Z</time>
      </trkpt>
      <trkpt lat="42.459028000" lon="-2.465331000">
        <ele>403.00</ele>
        <time>2012-12-01T09:11:48Z</time>
      </trkpt>
      <trkpt lat="42.459026000" lon="-2.465343000">
        <ele>403.00</ele>
        <time>2012-12-01T09:11:50Z</time>
      </trkpt>
      <trkpt lat="42.459028000" lon="-2.465388000">
        <ele>403.00</ele>
        <time>2012-12-01T09:11:53Z</time>
      </trkpt>
      <trkpt lat="42.459045000" lon="-2.465409000">
        <ele>402.90</ele>
        <time>2012-12-01T09:11:53Z</time>
      </trkpt>
      <trkpt lat="42.459065000" lon="-2.465426000">
        <ele>402.90</ele>
        <time>2012-12-01T09:11:55Z</time>
      </trkpt>
      <trkpt lat="42.459148000" lon="-2.465486000">
        <ele>402.80</ele>
        <time>2012-12-01T09:11:58Z</time>
      </trkpt>
      <trkpt lat="42.459165000" lon="-2.465503000">
        <ele>402.80</ele>
        <time>2012-12-01T09:12:00Z</time>
      </trkpt>
      <trkpt lat="42.459286000" lon="-2.465666000">
        <ele>403.00</ele>
        <time>2012-12-01T09:12:09Z</time>
      </trkpt>
      <trkpt lat="42.459301000" lon="-2.465704000">
        <ele>403.10</ele>
        <time>2012-12-01T09:12:11Z</time>
      </trkpt>
      <trkpt lat="42.459306000" lon="-2.465723000">
        <ele>403.10</ele>
        <time>2012-12-01T09:12:12Z</time>
      </trkpt>
      <trkpt lat="42.459310000" lon="-2.465744000">
        <ele>403.20</ele>
        <time>2012-12-01T09:12:12Z</time>
      </trkpt>
      <trkpt lat="42.459323000" lon="-2.465783000">
        <ele>403.30</ele>
        <time>2012-12-01T09:12:14Z</time>
      </trkpt>
      <trkpt lat="42.459336000" lon="-2.465798000">
        <ele>403.30</ele>
        <time>2012-12-01T09:12:16Z</time>
      </trkpt>
      <trkpt lat="42.459355000" lon="-2.465811000">
        <ele>403.30</ele>
        <time>2012-12-01T09:12:16Z</time>
      </trkpt>
      <trkpt lat="42.459378000" lon="-2.465823000">
        <ele>403.30</ele>
        <time>2012-12-01T09:12:17Z</time>
      </trkpt>
      <trkpt lat="42.459518000" lon="-2.465861000">
        <ele>402.90</ele>
        <time>2012-12-01T09:12:23Z</time>
      </trkpt>
      <trkpt lat="42.459566000" lon="-2.465888000">
        <ele>402.80</ele>
        <time>2012-12-01T09:12:24Z</time>
      </trkpt>
      <trkpt lat="42.459760000" lon="-2.465933000">
        <ele>402.40</ele>
        <time>2012-12-01T09:12:30Z</time>
      </trkpt>
      <trkpt lat="42.460380000" lon="-2.466226000">
        <ele>400.50</ele>
        <time>2012-12-01T09:12:47Z</time>
      </trkpt>
      <trkpt lat="42.460418000" lon="-2.466259000">
        <ele>400.20</ele>
        <time>2012-12-01T09:12:47Z</time>
      </trkpt>
      <trkpt lat="42.462058000" lon="-2.466973000">
        <ele>398.60</ele>
        <time>2012-12-01T09:13:22Z</time>
      </trkpt>
      <trkpt lat="42.462078000" lon="-2.466978000">
        <ele>398.70</ele>
        <time>2012-12-01T09:13:22Z</time>
      </trkpt>
      <trkpt lat="42.462250000" lon="-2.466956000">
        <ele>398.80</ele>
        <time>2012-12-01T09:13:29Z</time>
      </trkpt>
      <trkpt lat="42.462318000" lon="-2.466979000">
        <ele>398.80</ele>
        <time>2012-12-01T09:13:31Z</time>
      </trkpt>
      <trkpt lat="42.462350000" lon="-2.467003000">
        <ele>398.90</ele>
        <time>2012-12-01T09:13:31Z</time>
      </trkpt>
      <trkpt lat="42.462420000" lon="-2.467094000">
        <ele>398.90</ele>
        <time>2012-12-01T09:13:34Z</time>
      </trkpt>
      <trkpt lat="42.462475000" lon="-2.467139000">
        <ele>398.90</ele>
        <time>2012-12-01T09:13:36Z</time>
      </trkpt>
      <trkpt lat="42.462800000" lon="-2.467259000">
        <ele>398.90</ele>
        <time>2012-12-01T09:13:48Z</time>
      </trkpt>
      <trkpt lat="42.463106000" lon="-2.467321000">
        <ele>399.30</ele>
        <time>2012-12-01T09:13:57Z</time>
      </trkpt>
      <trkpt lat="42.463156000" lon="-2.467321000">
        <ele>399.40</ele>
        <time>2012-12-01T09:14:00Z</time>
      </trkpt>
      <trkpt lat="42.463306000" lon="-2.467289000">
        <ele>399.80</ele>
        <time>2012-12-01T09:14:04Z</time>
      </trkpt>
      <trkpt lat="42.463340000" lon="-2.467291000">
        <ele>399.90</ele>
        <time>2012-12-01T09:14:06Z</time>
      </trkpt>
      <trkpt lat="42.463403000" lon="-2.467318000">
        <ele>400.00</ele>
        <time>2012-12-01T09:14:07Z</time>
      </trkpt>
      <trkpt lat="42.463510000" lon="-2.467401000">
        <ele>400.30</ele>
        <time>2012-12-01T09:14:11Z</time>
      </trkpt>
      <trkpt lat="42.463745000" lon="-2.467448000">
        <ele>400.80</ele>
        <time>2012-12-01T09:14:19Z</time>
      </trkpt>
      <trkpt lat="42.463858000" lon="-2.467439000">
        <ele>401.20</ele>
        <time>2012-12-01T09:14:23Z</time>
      </trkpt>
      <trkpt lat="42.463886000" lon="-2.467441000">
        <ele>401.30</ele>
        <time>2012-12-01T09:14:25Z</time>
      </trkpt>
      <trkpt lat="42.463940000" lon="-2.467441000">
        <ele>401.50</ele>
        <time>2012-12-01T09:14:26Z</time>
      </trkpt>
      <trkpt lat="42.463966000" lon="-2.467443000">
        <ele>401.60</ele>
        <time>2012-12-01T09:14:28Z</time>
      </trkpt>
      <trkpt lat="42.464140000" lon="-2.467421000">
        <ele>402.20</ele>
        <time>2012-12-01T09:14:33Z</time>
      </trkpt>
      <trkpt lat="42.464305000" lon="-2.467429000">
        <ele>402.80</ele>
        <time>2012-12-01T09:14:40Z</time>
      </trkpt>
      <trkpt lat="42.464816000" lon="-2.467329000">
        <ele>404.50</ele>
        <time>2012-12-01T09:15:00Z</time>
      </trkpt>
      <trkpt lat="42.464823000" lon="-2.467329000">
        <ele>404.50</ele>
        <time>2012-12-01T09:15:01Z</time>
      </trkpt>
      <trkpt lat="42.464838000" lon="-2.467318000">
        <ele>404.50</ele>
        <time>2012-12-01T09:15:05Z</time>
      </trkpt>
      <trkpt lat="42.464841000" lon="-2.467316000">
        <ele>404.60</ele>
        <time>2012-12-01T09:15:05Z</time>
      </trkpt>
      <trkpt lat="42.464850000" lon="-2.467316000">
        <ele>404.60</ele>
        <time>2012-12-01T09:15:08Z</time>
      </trkpt>
      <trkpt lat="42.464855000" lon="-2.467326000">
        <ele>404.60</ele>
        <time>2012-12-01T09:15:12Z</time>
      </trkpt>
      <trkpt lat="42.464903000" lon="-2.467341000">
        <ele>404.70</ele>
        <time>2012-12-01T09:15:24Z</time>
      </trkpt>
      <trkpt lat="42.464911000" lon="-2.467349000">
        <ele>404.70</ele>
        <time>2012-12-01T09:15:26Z</time>
      </trkpt>
      <trkpt lat="42.464920000" lon="-2.467354000">
        <ele>404.70</ele>
        <time>2012-12-01T09:15:26Z</time>
      </trkpt>
      <trkpt lat="42.464926000" lon="-2.467359000">
        <ele>404.80</ele>
        <time>2012-12-01T09:15:27Z</time>
      </trkpt>
      <trkpt lat="42.464991000" lon="-2.467379000">
        <ele>404.90</ele>
        <time>2012-12-01T09:15:41Z</time>
      </trkpt>
      <trkpt lat="42.464993000" lon="-2.467386000">
        <ele>404.90</ele>
        <time>2012-12-01T09:15:43Z</time>
      </trkpt>
      <trkpt lat="42.464998000" lon="-2.467388000">
        <ele>404.90</ele>
        <time>2012-12-01T09:15:45Z</time>
      </trkpt>
      <trkpt lat="42.465010000" lon="-2.467386000">
        <ele>405.00</ele>
        <time>2012-12-01T09:15:45Z</time>
      </trkpt>
      <trkpt lat="42.465058000" lon="-2.467359000">
        <ele>405.00</ele>
        <time>2012-12-01T09:15:48Z</time>
      </trkpt>
      <trkpt lat="42.465901000" lon="-2.467124000">
        <ele>407.10</ele>
        <time>2012-12-01T09:16:16Z</time>
      </trkpt>
      <trkpt lat="42.466936000" lon="-2.466498000">
        <ele>408.80</ele>
        <time>2012-12-01T09:16:49Z</time>
      </trkpt>
      <trkpt lat="42.466975000" lon="-2.466483000">
        <ele>408.80</ele>
        <time>2012-12-01T09:16:51Z</time>
      </trkpt>
      <trkpt lat="42.467563000" lon="-2.466384000">
        <ele>408.60</ele>
        <time>2012-12-01T09:17:05Z</time>
      </trkpt>
      <trkpt lat="42.467596000" lon="-2.466389000">
        <ele>408.70</ele>
        <time>2012-12-01T09:17:05Z</time>
      </trkpt>
      <trkpt lat="42.467625000" lon="-2.466401000">
        <ele>408.70</ele>
        <time>2012-12-01T09:17:07Z</time>
      </trkpt>
      <trkpt lat="42.467645000" lon="-2.466426000">
        <ele>408.90</ele>
        <time>2012-12-01T09:17:07Z</time>
      </trkpt>
      <trkpt lat="42.467690000" lon="-2.466518000">
        <ele>409.50</ele>
        <time>2012-12-01T09:17:10Z</time>
      </trkpt>
      <trkpt lat="42.467710000" lon="-2.466576000">
        <ele>410.00</ele>
        <time>2012-12-01T09:17:12Z</time>
      </trkpt>
      <trkpt lat="42.467725000" lon="-2.466669000">
        <ele>410.70</ele>
        <time>2012-12-01T09:17:15Z</time>
      </trkpt>
      <trkpt lat="42.467858000" lon="-2.467829000">
        <ele>419.00</ele>
        <time>2012-12-01T09:17:48Z</time>
      </trkpt>
      <trkpt lat="42.467868000" lon="-2.468049000">
        <ele>420.10</ele>
        <time>2012-12-01T09:17:54Z</time>
      </trkpt>
      <trkpt lat="42.467873000" lon="-2.468083000">
        <ele>420.20</ele>
        <time>2012-12-01T09:17:55Z</time>
      </trkpt>
      <trkpt lat="42.468050000" lon="-2.470928000">
        <ele>425.50</ele>
        <time>2012-12-01T09:19:07Z</time>
      </trkpt>
      <trkpt lat="42.468056000" lon="-2.470966000">
        <ele>425.50</ele>
        <time>2012-12-01T09:19:09Z</time>
      </trkpt>
      <trkpt lat="42.468083000" lon="-2.472006000">
        <ele>423.70</ele>
        <time>2012-12-01T09:19:35Z</time>
      </trkpt>
      <trkpt lat="42.468095000" lon="-2.472081000">
        <ele>423.50</ele>
        <time>2012-12-01T09:19:36Z</time>
      </trkpt>
      <trkpt lat="42.468208000" lon="-2.472378000">
        <ele>422.80</ele>
        <time>2012-12-01T09:19:45Z</time>
      </trkpt>
      <trkpt lat="42.468243000" lon="-2.472538000">
        <ele>422.40</ele>
        <time>2012-12-01T09:19:49Z</time>
      </trkpt>
      <trkpt lat="42.468260000" lon="-2.472829000">
        <ele>422.00</ele>
        <time>2012-12-01T09:19:57Z</time>
      </trkpt>
      <trkpt lat="42.468266000" lon="-2.472859000">
        <ele>422.00</ele>
        <time>2012-12-01T09:19:57Z</time>
      </trkpt>
      <trkpt lat="42.468283000" lon="-2.472886000">
        <ele>421.90</ele>
        <time>2012-12-01T09:19:59Z</time>
      </trkpt>
      <trkpt lat="42.468303000" lon="-2.472909000">
        <ele>421.80</ele>
        <time>2012-12-01T09:19:59Z</time>
      </trkpt>
      <trkpt lat="42.468325000" lon="-2.472924000">
        <ele>421.70</ele>
        <time>2012-12-01T09:20:01Z</time>
      </trkpt>
      <trkpt lat="42.468526000" lon="-2.472946000">
        <ele>420.60</ele>
        <time>2012-12-01T09:20:08Z</time>
      </trkpt>
      <trkpt lat="42.469105000" lon="-2.472914000">
        <ele>419.00</ele>
        <time>2012-12-01T09:20:24Z</time>
      </trkpt>
      <trkpt lat="42.469141000" lon="-2.472916000">
        <ele>419.00</ele>
        <time>2012-12-01T09:20:25Z</time>
      </trkpt>
      <trkpt lat="42.469460000" lon="-2.472893000">
        <ele>419.00</ele>
        <time>2012-12-01T09:20:34Z</time>
      </trkpt>
      <trkpt lat="42.469565000" lon="-2.472896000">
        <ele>419.00</ele>
        <time>2012-12-01T09:20:36Z</time>
      </trkpt>
      <trkpt lat="42.469811000" lon="-2.472893000">
        <ele>419.70</ele>
        <time>2012-12-01T09:20:43Z</time>
      </trkpt>
      <trkpt lat="42.469880000" lon="-2.472901000">
        <ele>419.90</ele>
        <time>2012-12-01T09:20:46Z</time>
      </trkpt>
      <trkpt lat="42.469911000" lon="-2.472911000">
        <ele>420.00</ele>
        <time>2012-12-01T09:20:46Z</time>
      </trkpt>
      <trkpt lat="42.469941000" lon="-2.472931000">
        <ele>420.10</ele>
        <time>2012-12-01T09:20:48Z</time>
      </trkpt>
      <trkpt lat="42.469966000" lon="-2.472961000">
        <ele>420.20</ele>
        <time>2012-12-01T09:20:48Z</time>
      </trkpt>
      <trkpt lat="42.469990000" lon="-2.472998000">
        <ele>420.20</ele>
        <time>2012-12-01T09:20:50Z</time>
      </trkpt>
      <trkpt lat="42.470006000" lon="-2.473041000">
        <ele>420.20</ele>
        <time>2012-12-01T09:20:50Z</time>
      </trkpt>
      <trkpt lat="42.470023000" lon="-2.473139000">
        <ele>420.20</ele>
        <time>2012-12-01T09:20:53Z</time>
      </trkpt>
      <trkpt lat="42.470080000" lon="-2.475403000">
        <ele>416.90</ele>
        <time>2012-12-01T09:21:37Z</time>
      </trkpt>
      <trkpt lat="42.470088000" lon="-2.475453000">
        <ele>416.90</ele>
        <time>2012-12-01T09:21:37Z</time>
      </trkpt>
      <trkpt lat="42.470576000" lon="-2.476839000">
        <ele>414.20</ele>
        <time>2012-12-01T09:22:01Z</time>
      </trkpt>
      <trkpt lat="42.470670000" lon="-2.477428000">
        <ele>414.40</ele>
        <time>2012-12-01T09:22:08Z</time>
      </trkpt>
      <trkpt lat="42.470731000" lon="-2.478056000">
        <ele>416.20</ele>
        <time>2012-12-01T09:22:15Z</time>
      </trkpt>
      <trkpt lat="42.470893000" lon="-2.478743000">
        <ele>418.00</ele>
        <time>2012-12-01T09:22:24Z</time>
      </trkpt>
      <trkpt lat="42.471041000" lon="-2.479059000">
        <ele>418.90</ele>
        <time>2012-12-01T09:22:29Z</time>
      </trkpt>
      <trkpt lat="42.471226000" lon="-2.479358000">
        <ele>419.90</ele>
        <time>2012-12-01T09:22:36Z</time>
      </trkpt>
      <trkpt lat="42.471293000" lon="-2.479538000">
        <ele>420.50</ele>
        <time>2012-12-01T09:22:39Z</time>
      </trkpt>
      <trkpt lat="42.471305000" lon="-2.479584000">
        <ele>420.60</ele>
        <time>2012-12-01T09:22:41Z</time>
      </trkpt>
      <trkpt lat="42.471393000" lon="-2.480389000">
        <ele>422.90</ele>
        <time>2012-12-01T09:22:59Z</time>
      </trkpt>
      <trkpt lat="42.471500000" lon="-2.480781000">
        <ele>424.30</ele>
        <time>2012-12-01T09:23:07Z</time>
      </trkpt>
      <trkpt lat="42.472253000" lon="-2.482041000">
        <ele>425.10</ele>
        <time>2012-12-01T09:23:42Z</time>
      </trkpt>
      <trkpt lat="42.472271000" lon="-2.482083000">
        <ele>425.10</ele>
        <time>2012-12-01T09:23:44Z</time>
      </trkpt>
      <trkpt lat="42.473281000" lon="-2.484574000">
        <ele>433.00</ele>
        <time>2012-12-01T09:24:45Z</time>
      </trkpt>
      <trkpt lat="42.473288000" lon="-2.484619000">
        <ele>433.00</ele>
        <time>2012-12-01T09:24:45Z</time>
      </trkpt>
      <trkpt lat="42.473885000" lon="-2.487569000">
        <ele>447.00</ele>
        <time>2012-12-01T09:25:51Z</time>
      </trkpt>
      <trkpt lat="42.474395000" lon="-2.488504000">
        <ele>445.60</ele>
        <time>2012-12-01T09:26:19Z</time>
      </trkpt>
      <trkpt lat="42.474435000" lon="-2.488559000">
        <ele>444.70</ele>
        <time>2012-12-01T09:26:22Z</time>
      </trkpt>
      <trkpt lat="42.474450000" lon="-2.488589000">
        <ele>444.30</ele>
        <time>2012-12-01T09:26:22Z</time>
      </trkpt>
      <trkpt lat="42.474460000" lon="-2.488619000">
        <ele>444.00</ele>
        <time>2012-12-01T09:26:24Z</time>
      </trkpt>
      <trkpt lat="42.474571000" lon="-2.489231000">
        <ele>443.00</ele>
        <time>2012-12-01T09:26:36Z</time>
      </trkpt>
      <trkpt lat="42.474650000" lon="-2.490599000">
        <ele>449.50</ele>
        <time>2012-12-01T09:27:04Z</time>
      </trkpt>
      <trkpt lat="42.474658000" lon="-2.490643000">
        <ele>449.50</ele>
        <time>2012-12-01T09:27:04Z</time>
      </trkpt>
      <trkpt lat="42.474855000" lon="-2.492448000">
        <ele>449.80</ele>
        <time>2012-12-01T09:27:46Z</time>
      </trkpt>
      <trkpt lat="42.474831000" lon="-2.492868000">
        <ele>449.10</ele>
        <time>2012-12-01T09:27:55Z</time>
      </trkpt>
      <trkpt lat="42.474745000" lon="-2.493183000">
        <ele>449.20</ele>
        <time>2012-12-01T09:28:02Z</time>
      </trkpt>
      <trkpt lat="42.474231000" lon="-2.494314000">
        <ele>457.10</ele>
        <time>2012-12-01T09:28:28Z</time>
      </trkpt>
      <trkpt lat="42.474218000" lon="-2.494359000">
        <ele>457.30</ele>
        <time>2012-12-01T09:28:30Z</time>
      </trkpt>
      <trkpt lat="42.473953000" lon="-2.496081000">
        <ele>452.90</ele>
        <time>2012-12-01T09:29:06Z</time>
      </trkpt>
      <trkpt lat="42.473996000" lon="-2.496441000">
        <ele>452.20</ele>
        <time>2012-12-01T09:29:15Z</time>
      </trkpt>
      <trkpt lat="42.474185000" lon="-2.497003000">
        <ele>452.20</ele>
        <time>2012-12-01T09:29:29Z</time>
      </trkpt>
      <trkpt lat="42.474390000" lon="-2.497386000">
        <ele>452.90</ele>
        <time>2012-12-01T09:29:39Z</time>
      </trkpt>
      <trkpt lat="42.474411000" lon="-2.497416000">
        <ele>452.90</ele>
        <time>2012-12-01T09:29:41Z</time>
      </trkpt>
      <trkpt lat="42.475273000" lon="-2.498246000">
        <ele>456.10</ele>
        <time>2012-12-01T09:30:16Z</time>
      </trkpt>
      <trkpt lat="42.477048000" lon="-2.499044000">
        <ele>461.90</ele>
        <time>2012-12-01T09:31:25Z</time>
      </trkpt>
      <trkpt lat="42.477073000" lon="-2.499063000">
        <ele>462.00</ele>
        <time>2012-12-01T09:31:27Z</time>
      </trkpt>
      <trkpt lat="42.477420000" lon="-2.499393000">
        <ele>462.80</ele>
        <time>2012-12-01T09:31:41Z</time>
      </trkpt>
      <trkpt lat="42.477790000" lon="-2.499834000">
        <ele>463.50</ele>
        <time>2012-12-01T09:32:00Z</time>
      </trkpt>
      <trkpt lat="42.478021000" lon="-2.500004000">
        <ele>464.00</ele>
        <time>2012-12-01T09:32:09Z</time>
      </trkpt>
      <trkpt lat="42.478403000" lon="-2.500129000">
        <ele>465.00</ele>
        <time>2012-12-01T09:32:21Z</time>
      </trkpt>
      <trkpt lat="42.478495000" lon="-2.500136000">
        <ele>465.10</ele>
        <time>2012-12-01T09:32:25Z</time>
      </trkpt>
      <trkpt lat="42.478525000" lon="-2.500136000">
        <ele>465.20</ele>
        <time>2012-12-01T09:32:25Z</time>
      </trkpt>
      <trkpt lat="42.478555000" lon="-2.500138000">
        <ele>465.20</ele>
        <time>2012-12-01T09:32:26Z</time>
      </trkpt>
      <trkpt lat="42.478585000" lon="-2.500136000">
        <ele>465.30</ele>
        <time>2012-12-01T09:32:28Z</time>
      </trkpt>
      <trkpt lat="42.479318000" lon="-2.500156000">
        <ele>469.30</ele>
        <time>2012-12-01T09:32:54Z</time>
      </trkpt>
      <trkpt lat="42.479343000" lon="-2.500156000">
        <ele>469.50</ele>
        <time>2012-12-01T09:32:54Z</time>
      </trkpt>
      <trkpt lat="42.479368000" lon="-2.500158000">
        <ele>469.60</ele>
        <time>2012-12-01T09:32:56Z</time>
      </trkpt>
      <trkpt lat="42.479393000" lon="-2.500158000">
        <ele>469.80</ele>
        <time>2012-12-01T09:32:56Z</time>
      </trkpt>
      <trkpt lat="42.479513000" lon="-2.500176000">
        <ele>470.70</ele>
        <time>2012-12-01T09:33:01Z</time>
      </trkpt>
      <trkpt lat="42.479581000" lon="-2.500206000">
        <ele>471.20</ele>
        <time>2012-12-01T09:33:05Z</time>
      </trkpt>
      <trkpt lat="42.479680000" lon="-2.500293000">
        <ele>472.20</ele>
        <time>2012-12-01T09:33:10Z</time>
      </trkpt>
      <trkpt lat="42.479760000" lon="-2.500399000">
        <ele>473.30</ele>
        <time>2012-12-01T09:33:15Z</time>
      </trkpt>
      <trkpt lat="42.480051000" lon="-2.500948000">
        <ele>482.10</ele>
        <time>2012-12-01T09:33:36Z</time>
      </trkpt>
      <trkpt lat="42.480070000" lon="-2.500969000">
        <ele>482.40</ele>
        <time>2012-12-01T09:33:38Z</time>
      </trkpt>
      <trkpt lat="42.480185000" lon="-2.501083000">
        <ele>485.60</ele>
        <time>2012-12-01T09:33:43Z</time>
      </trkpt>
      <trkpt lat="42.480258000" lon="-2.501109000">
        <ele>487.00</ele>
        <time>2012-12-01T09:33:47Z</time>
      </trkpt>
      <trkpt lat="42.480311000" lon="-2.501114000">
        <ele>487.90</ele>
        <time>2012-12-01T09:33:48Z</time>
      </trkpt>
      <trkpt lat="42.480666000" lon="-2.501074000">
        <ele>489.90</ele>
        <time>2012-12-01T09:34:00Z</time>
      </trkpt>
      <trkpt lat="42.480721000" lon="-2.501056000">
        <ele>489.80</ele>
        <time>2012-12-01T09:34:02Z</time>
      </trkpt>
      <trkpt lat="42.480788000" lon="-2.501003000">
        <ele>489.30</ele>
        <time>2012-12-01T09:34:06Z</time>
      </trkpt>
      <trkpt lat="42.480910000" lon="-2.500868000">
        <ele>487.90</ele>
        <time>2012-12-01T09:34:13Z</time>
      </trkpt>
      <trkpt lat="42.480953000" lon="-2.500843000">
        <ele>487.50</ele>
        <time>2012-12-01T09:34:14Z</time>
      </trkpt>
      <trkpt lat="42.480975000" lon="-2.500836000">
        <ele>487.50</ele>
        <time>2012-12-01T09:34:16Z</time>
      </trkpt>
      <trkpt lat="42.481023000" lon="-2.500834000">
        <ele>487.40</ele>
        <time>2012-12-01T09:34:18Z</time>
      </trkpt>
      <trkpt lat="42.481045000" lon="-2.500841000">
        <ele>487.50</ele>
        <time>2012-12-01T09:34:18Z</time>
      </trkpt>
      <trkpt lat="42.481065000" lon="-2.500853000">
        <ele>487.60</ele>
        <time>2012-12-01T09:34:20Z</time>
      </trkpt>
      <trkpt lat="42.481085000" lon="-2.500869000">
        <ele>487.80</ele>
        <time>2012-12-01T09:34:21Z</time>
      </trkpt>
      <trkpt lat="42.481148000" lon="-2.500964000">
        <ele>488.90</ele>
        <time>2012-12-01T09:34:25Z</time>
      </trkpt>
      <trkpt lat="42.481208000" lon="-2.501088000">
        <ele>490.50</ele>
        <time>2012-12-01T09:34:30Z</time>
      </trkpt>
      <trkpt lat="42.481306000" lon="-2.501218000">
        <ele>492.50</ele>
        <time>2012-12-01T09:34:35Z</time>
      </trkpt>
      <trkpt lat="42.481445000" lon="-2.501338000">
        <ele>494.60</ele>
        <time>2012-12-01T09:34:42Z</time>
      </trkpt>
      <trkpt lat="42.481466000" lon="-2.501349000">
        <ele>494.80</ele>
        <time>2012-12-01T09:34:44Z</time>
      </trkpt>
      <trkpt lat="42.482098000" lon="-2.501699000">
        <ele>502.00</ele>
        <time>2012-12-01T09:35:12Z</time>
      </trkpt>
      <trkpt lat="42.482235000" lon="-2.501741000">
        <ele>502.50</ele>
        <time>2012-12-01T09:35:19Z</time>
      </trkpt>
      <trkpt lat="42.482256000" lon="-2.501743000">
        <ele>502.50</ele>
        <time>2012-12-01T09:35:19Z</time>
      </trkpt>
      <trkpt lat="42.482670000" lon="-2.501691000">
        <ele>501.60</ele>
        <time>2012-12-01T09:35:36Z</time>
      </trkpt>
      <trkpt lat="42.482835000" lon="-2.501649000">
        <ele>501.00</ele>
        <time>2012-12-01T09:35:43Z</time>
      </trkpt>
      <trkpt lat="42.482860000" lon="-2.501648000">
        <ele>500.90</ele>
        <time>2012-12-01T09:35:45Z</time>
      </trkpt>
      <trkpt lat="42.482883000" lon="-2.501649000">
        <ele>500.90</ele>
        <time>2012-12-01T09:35:45Z</time>
      </trkpt>
      <trkpt lat="42.483118000" lon="-2.501761000">
        <ele>501.50</ele>
        <time>2012-12-01T09:35:55Z</time>
      </trkpt>
      <trkpt lat="42.483270000" lon="-2.501878000">
        <ele>502.30</ele>
        <time>2012-12-01T09:36:02Z</time>
      </trkpt>
      <trkpt lat="42.483605000" lon="-2.502029000">
        <ele>502.30</ele>
        <time>2012-12-01T09:36:18Z</time>
      </trkpt>
      <trkpt lat="42.483773000" lon="-2.502136000">
        <ele>502.10</ele>
        <time>2012-12-01T09:36:27Z</time>
      </trkpt>
      <trkpt lat="42.484108000" lon="-2.502406000">
        <ele>502.20</ele>
        <time>2012-12-01T09:36:42Z</time>
      </trkpt>
      <trkpt lat="42.484440000" lon="-2.502749000">
        <ele>502.70</ele>
        <time>2012-12-01T09:36:56Z</time>
      </trkpt>
      <trkpt lat="42.484453000" lon="-2.502768000">
        <ele>502.70</ele>
        <time>2012-12-01T09:36:58Z</time>
      </trkpt>
      <trkpt lat="42.484481000" lon="-2.502811000">
        <ele>502.80</ele>
        <time>2012-12-01T09:37:00Z</time>
      </trkpt>
      <trkpt lat="42.484481000" lon="-2.502816000">
        <ele>502.80</ele>
        <time>2012-12-01T09:37:02Z</time>
      </trkpt>
      <trkpt lat="42.484488000" lon="-2.502821000">
        <ele>502.80</ele>
        <time>2012-12-01T09:37:03Z</time>
      </trkpt>
      <trkpt lat="42.484493000" lon="-2.502821000">
        <ele>502.80</ele>
        <time>2012-12-01T09:37:09Z</time>
      </trkpt>
      <trkpt lat="42.484496000" lon="-2.502824000">
        <ele>502.80</ele>
        <time>2012-12-01T09:37:17Z</time>
      </trkpt>
      <trkpt lat="42.484496000" lon="-2.502826000">
        <ele>502.80</ele>
        <time>2012-12-01T09:37:17Z</time>
      </trkpt>
      <trkpt lat="42.484505000" lon="-2.502838000">
        <ele>502.80</ele>
        <time>2012-12-01T09:37:23Z</time>
      </trkpt>
      <trkpt lat="42.484515000" lon="-2.502861000">
        <ele>502.90</ele>
        <time>2012-12-01T09:37:24Z</time>
      </trkpt>
      <trkpt lat="42.484525000" lon="-2.502878000">
        <ele>502.90</ele>
        <time>2012-12-01T09:37:26Z</time>
      </trkpt>
      <trkpt lat="42.484581000" lon="-2.503061000">
        <ele>503.90</ele>
        <time>2012-12-01T09:37:31Z</time>
      </trkpt>
      <trkpt lat="42.484608000" lon="-2.503289000">
        <ele>505.10</ele>
        <time>2012-12-01T09:37:35Z</time>
      </trkpt>
      <trkpt lat="42.484581000" lon="-2.503879000">
        <ele>512.00</ele>
        <time>2012-12-01T09:37:45Z</time>
      </trkpt>
      <trkpt lat="42.484595000" lon="-2.504014000">
        <ele>513.70</ele>
        <time>2012-12-01T09:37:49Z</time>
      </trkpt>
      <trkpt lat="42.484685000" lon="-2.504431000">
        <ele>516.70</ele>
        <time>2012-12-01T09:37:59Z</time>
      </trkpt>
      <trkpt lat="42.484698000" lon="-2.504471000">
        <ele>516.80</ele>
        <time>2012-12-01T09:37:59Z</time>
      </trkpt>
      <trkpt lat="42.484998000" lon="-2.504936000">
        <ele>512.50</ele>
        <time>2012-12-01T09:38:13Z</time>
      </trkpt>
      <trkpt lat="42.485043000" lon="-2.505048000">
        <ele>512.00</ele>
        <time>2012-12-01T09:38:15Z</time>
      </trkpt>
      <trkpt lat="42.485276000" lon="-2.507408000">
        <ele>512.00</ele>
        <time>2012-12-01T09:38:43Z</time>
      </trkpt>
      <trkpt lat="42.485335000" lon="-2.507638000">
        <ele>511.90</ele>
        <time>2012-12-01T09:38:46Z</time>
      </trkpt>
      <trkpt lat="42.485361000" lon="-2.507704000">
        <ele>511.80</ele>
        <time>2012-12-01T09:38:48Z</time>
      </trkpt>
      <trkpt lat="42.485463000" lon="-2.508039000">
        <ele>511.30</ele>
        <time>2012-12-01T09:38:53Z</time>
      </trkpt>
      <trkpt lat="42.485713000" lon="-2.508441000">
        <ele>506.30</ele>
        <time>2012-12-01T09:39:00Z</time>
      </trkpt>
      <trkpt lat="42.485908000" lon="-2.509021000">
        <ele>503.60</ele>
        <time>2012-12-01T09:39:07Z</time>
      </trkpt>
      <trkpt lat="42.485953000" lon="-2.509101000">
        <ele>502.90</ele>
        <time>2012-12-01T09:39:07Z</time>
      </trkpt>
      <trkpt lat="42.486126000" lon="-2.509413000">
        <ele>498.20</ele>
        <time>2012-12-01T09:39:12Z</time>
      </trkpt>
      <trkpt lat="42.486136000" lon="-2.509496000">
        <ele>497.50</ele>
        <time>2012-12-01T09:39:12Z</time>
      </trkpt>
      <trkpt lat="42.486130000" lon="-2.509571000">
        <ele>497.10</ele>
        <time>2012-12-01T09:39:14Z</time>
      </trkpt>
      <trkpt lat="42.486053000" lon="-2.509938000">
        <ele>494.30</ele>
        <time>2012-12-01T09:39:19Z</time>
      </trkpt>
      <trkpt lat="42.486046000" lon="-2.510078000">
        <ele>492.80</ele>
        <time>2012-12-01T09:39:21Z</time>
      </trkpt>
      <trkpt lat="42.486075000" lon="-2.510463000">
        <ele>488.00</ele>
        <time>2012-12-01T09:39:28Z</time>
      </trkpt>
      <trkpt lat="42.486075000" lon="-2.510649000">
        <ele>486.80</ele>
        <time>2012-12-01T09:39:31Z</time>
      </trkpt>
      <trkpt lat="42.486100000" lon="-2.510751000">
        <ele>486.10</ele>
        <time>2012-12-01T09:39:33Z</time>
      </trkpt>
      <trkpt lat="42.486543000" lon="-2.511643000">
        <ele>479.90</ele>
        <time>2012-12-01T09:39:45Z</time>
      </trkpt>
      <trkpt lat="42.486578000" lon="-2.511759000">
        <ele>479.80</ele>
        <time>2012-12-01T09:39:47Z</time>
      </trkpt>
      <trkpt lat="42.486613000" lon="-2.512028000">
        <ele>479.50</ele>
        <time>2012-12-01T09:39:49Z</time>
      </trkpt>
      <trkpt lat="42.486606000" lon="-2.512461000">
        <ele>478.10</ele>
        <time>2012-12-01T09:39:52Z</time>
      </trkpt>
      <trkpt lat="42.486628000" lon="-2.512611000">
        <ele>477.40</ele>
        <time>2012-12-01T09:39:52Z</time>
      </trkpt>
      <trkpt lat="42.486788000" lon="-2.513211000">
        <ele>474.40</ele>
        <time>2012-12-01T09:39:56Z</time>
      </trkpt>
      <trkpt lat="42.486785000" lon="-2.513709000">
        <ele>472.10</ele>
        <time>2012-12-01T09:39:59Z</time>
      </trkpt>
      <trkpt lat="42.486650000" lon="-2.514556000">
        <ele>464.90</ele>
        <time>2012-12-01T09:40:05Z</time>
      </trkpt>
      <trkpt lat="42.486648000" lon="-2.514903000">
        <ele>461.90</ele>
        <time>2012-12-01T09:40:06Z</time>
      </trkpt>
      <trkpt lat="42.486803000" lon="-2.515926000">
        <ele>454.30</ele>
        <time>2012-12-01T09:40:13Z</time>
      </trkpt>
      <trkpt lat="42.486850000" lon="-2.516086000">
        <ele>453.60</ele>
        <time>2012-12-01T09:40:13Z</time>
      </trkpt>
      <trkpt lat="42.487570000" lon="-2.517619000">
        <ele>444.80</ele>
        <time>2012-12-01T09:40:24Z</time>
      </trkpt>
      <trkpt lat="42.487958000" lon="-2.517996000">
        <ele>442.90</ele>
        <time>2012-12-01T09:40:29Z</time>
      </trkpt>
      <trkpt lat="42.488061000" lon="-2.518063000">
        <ele>442.40</ele>
        <time>2012-12-01T09:40:29Z</time>
      </trkpt>
      <trkpt lat="42.489088000" lon="-2.518306000">
        <ele>436.40</ele>
        <time>2012-12-01T09:40:38Z</time>
      </trkpt>
      <trkpt lat="42.489206000" lon="-2.518311000">
        <ele>435.70</ele>
        <time>2012-12-01T09:40:39Z</time>
      </trkpt>
      <trkpt lat="42.489323000" lon="-2.518311000">
        <ele>435.10</ele>
        <time>2012-12-01T09:40:41Z</time>
      </trkpt>
      <trkpt lat="42.489668000" lon="-2.518323000">
        <ele>433.40</ele>
        <time>2012-12-01T09:40:43Z</time>
      </trkpt>
      <trkpt lat="42.489781000" lon="-2.518323000">
        <ele>433.00</ele>
        <time>2012-12-01T09:40:45Z</time>
      </trkpt>
      <trkpt lat="42.490103000" lon="-2.518368000">
        <ele>431.70</ele>
        <time>2012-12-01T09:40:48Z</time>
      </trkpt>
      <trkpt lat="42.490296000" lon="-2.518476000">
        <ele>430.80</ele>
        <time>2012-12-01T09:40:50Z</time>
      </trkpt>
      <trkpt lat="42.491186000" lon="-2.519061000">
        <ele>426.80</ele>
        <time>2012-12-01T09:41:00Z</time>
      </trkpt>
      <trkpt lat="42.491246000" lon="-2.519118000">
        <ele>426.60</ele>
        <time>2012-12-01T09:41:00Z</time>
      </trkpt>
      <trkpt lat="42.491285000" lon="-2.519186000">
        <ele>426.50</ele>
        <time>2012-12-01T09:41:02Z</time>
      </trkpt>
      <trkpt lat="42.491301000" lon="-2.519251000">
        <ele>426.40</ele>
        <time>2012-12-01T09:41:02Z</time>
      </trkpt>
      <trkpt lat="42.491303000" lon="-2.519308000">
        <ele>426.40</ele>
        <time>2012-12-01T09:41:04Z</time>
      </trkpt>
      <trkpt lat="42.491296000" lon="-2.519348000">
        <ele>426.40</ele>
        <time>2012-12-01T09:41:04Z</time>
      </trkpt>
      <trkpt lat="42.491281000" lon="-2.519371000">
        <ele>426.50</ele>
        <time>2012-12-01T09:41:06Z</time>
      </trkpt>
      <trkpt lat="42.491258000" lon="-2.519383000">
        <ele>426.60</ele>
        <time>2012-12-01T09:41:07Z</time>
      </trkpt>
      <trkpt lat="42.491143000" lon="-2.519394000">
        <ele>426.90</ele>
        <time>2012-12-01T09:41:11Z</time>
      </trkpt>
      <trkpt lat="42.490585000" lon="-2.519528000">
        <ele>428.40</ele>
        <time>2012-12-01T09:41:23Z</time>
      </trkpt>
      <trkpt lat="42.490551000" lon="-2.519529000">
        <ele>428.40</ele>
        <time>2012-12-01T09:41:25Z</time>
      </trkpt>
      <trkpt lat="42.489883000" lon="-2.519648000">
        <ele>429.40</ele>
        <time>2012-12-01T09:41:54Z</time>
      </trkpt>
      <trkpt lat="42.489803000" lon="-2.519651000">
        <ele>429.50</ele>
        <time>2012-12-01T09:41:58Z</time>
      </trkpt>
      <trkpt lat="42.489003000" lon="-2.519819000">
        <ele>430.10</ele>
        <time>2012-12-01T09:42:26Z</time>
      </trkpt>
      <trkpt lat="42.488971000" lon="-2.519833000">
        <ele>430.20</ele>
        <time>2012-12-01T09:42:27Z</time>
      </trkpt>
      <trkpt lat="42.488315000" lon="-2.520213000">
        <ele>431.40</ele>
        <time>2012-12-01T09:42:50Z</time>
      </trkpt>
      <trkpt lat="42.488161000" lon="-2.520291000">
        <ele>431.70</ele>
        <time>2012-12-01T09:42:55Z</time>
      </trkpt>
      <trkpt lat="42.487655000" lon="-2.520669000">
        <ele>433.00</ele>
        <time>2012-12-01T09:43:13Z</time>
      </trkpt>
      <trkpt lat="42.487043000" lon="-2.520984000">
        <ele>435.40</ele>
        <time>2012-12-01T09:43:34Z</time>
      </trkpt>
      <trkpt lat="42.487013000" lon="-2.520993000">
        <ele>435.30</ele>
        <time>2012-12-01T09:43:35Z</time>
      </trkpt>
      <trkpt lat="42.486261000" lon="-2.521104000">
        <ele>429.40</ele>
        <time>2012-12-01T09:43:58Z</time>
      </trkpt>
      <trkpt lat="42.486093000" lon="-2.521168000">
        <ele>428.10</ele>
        <time>2012-12-01T09:44:00Z</time>
      </trkpt>
      <trkpt lat="42.485981000" lon="-2.521254000">
        <ele>427.30</ele>
        <time>2012-12-01T09:44:03Z</time>
      </trkpt>
      <trkpt lat="42.485873000" lon="-2.521383000">
        <ele>426.60</ele>
        <time>2012-12-01T09:44:05Z</time>
      </trkpt>
      <trkpt lat="42.484070000" lon="-2.524346000">
        <ele>413.60</ele>
        <time>2012-12-01T09:44:33Z</time>
      </trkpt>
      <trkpt lat="42.484021000" lon="-2.524464000">
        <ele>413.90</ele>
        <time>2012-12-01T09:44:35Z</time>
      </trkpt>
      <trkpt lat="42.483986000" lon="-2.524591000">
        <ele>414.00</ele>
        <time>2012-12-01T09:44:36Z</time>
      </trkpt>
      <trkpt lat="42.483943000" lon="-2.525001000">
        <ele>414.40</ele>
        <time>2012-12-01T09:44:38Z</time>
      </trkpt>
      <trkpt lat="42.483975000" lon="-2.525549000">
        <ele>412.90</ele>
        <time>2012-12-01T09:44:43Z</time>
      </trkpt>
      <trkpt lat="42.483788000" lon="-2.527022000">
        <ele>394.00</ele>
        <time>2012-12-01T09:44:54Z</time>
      </trkpt>
      <trkpt lat="42.482458000" lon="-2.530414000">
        <ele>389.50</ele>
        <time>2012-12-01T09:45:44Z</time>
      </trkpt>
      <trkpt lat="42.482428000" lon="-2.530469000">
        <ele>389.50</ele>
        <time>2012-12-01T09:45:46Z</time>
      </trkpt>
      <trkpt lat="42.482036000" lon="-2.531215000">
        <ele>390.00</ele>
        <time>2012-12-01T09:45:58Z</time>
      </trkpt>
      <trkpt lat="42.482028000" lon="-2.531313000">
        <ele>390.90</ele>
        <time>2012-12-01T09:46:00Z</time>
      </trkpt>
      <trkpt lat="42.481986000" lon="-2.531368000">
        <ele>390.90</ele>
        <time>2012-12-01T09:46:02Z</time>
      </trkpt>
      <trkpt lat="42.481783000" lon="-2.532009000">
        <ele>390.20</ele>
        <time>2012-12-01T09:46:12Z</time>
      </trkpt>
      <trkpt lat="42.481255000" lon="-2.538079000">
        <ele>397.20</ele>
        <time>2012-12-01T09:47:51Z</time>
      </trkpt>
      <trkpt lat="42.481256000" lon="-2.538139000">
        <ele>397.30</ele>
        <time>2012-12-01T09:47:53Z</time>
      </trkpt>
      <trkpt lat="42.481431000" lon="-2.540064000">
        <ele>399.90</ele>
        <time>2012-12-01T09:48:26Z</time>
      </trkpt>
      <trkpt lat="42.481438000" lon="-2.540114000">
        <ele>399.90</ele>
        <time>2012-12-01T09:48:26Z</time>
      </trkpt>
      <trkpt lat="42.481455000" lon="-2.540158000">
        <ele>399.80</ele>
        <time>2012-12-01T09:48:28Z</time>
      </trkpt>
      <trkpt lat="42.481478000" lon="-2.540194000">
        <ele>399.60</ele>
        <time>2012-12-01T09:48:28Z</time>
      </trkpt>
      <trkpt lat="42.481510000" lon="-2.540219000">
        <ele>399.30</ele>
        <time>2012-12-01T09:48:30Z</time>
      </trkpt>
      <trkpt lat="42.481546000" lon="-2.540233000">
        <ele>399.00</ele>
        <time>2012-12-01T09:48:30Z</time>
      </trkpt>
      <trkpt lat="42.481588000" lon="-2.540236000">
        <ele>398.50</ele>
        <time>2012-12-01T09:48:31Z</time>
      </trkpt>
      <trkpt lat="42.482365000" lon="-2.540184000">
        <ele>389.80</ele>
        <time>2012-12-01T09:48:49Z</time>
      </trkpt>
      <trkpt lat="42.482406000" lon="-2.540191000">
        <ele>389.60</ele>
        <time>2012-12-01T09:48:49Z</time>
      </trkpt>
      <trkpt lat="42.482481000" lon="-2.540236000">
        <ele>389.20</ele>
        <time>2012-12-01T09:48:52Z</time>
      </trkpt>
      <trkpt lat="42.482751000" lon="-2.540311000">
        <ele>388.10</ele>
        <time>2012-12-01T09:48:58Z</time>
      </trkpt>
      <trkpt lat="42.482786000" lon="-2.540334000">
        <ele>388.00</ele>
        <time>2012-12-01T09:48:59Z</time>
      </trkpt>
      <trkpt lat="42.482818000" lon="-2.540368000">
        <ele>387.70</ele>
        <time>2012-12-01T09:48:59Z</time>
      </trkpt>
      <trkpt lat="42.482865000" lon="-2.540454000">
        <ele>387.40</ele>
        <time>2012-12-01T09:49:01Z</time>
      </trkpt>
      <trkpt lat="42.482880000" lon="-2.540503000">
        <ele>387.30</ele>
        <time>2012-12-01T09:49:03Z</time>
      </trkpt>
      <trkpt lat="42.482955000" lon="-2.541389000">
        <ele>388.10</ele>
        <time>2012-12-01T09:49:17Z</time>
      </trkpt>
      <trkpt lat="42.482951000" lon="-2.541644000">
        <ele>388.40</ele>
        <time>2012-12-01T09:49:22Z</time>
      </trkpt>
      <trkpt lat="42.483028000" lon="-2.541983000">
        <ele>388.90</ele>
        <time>2012-12-01T09:49:27Z</time>
      </trkpt>
      <trkpt lat="42.483353000" lon="-2.545099000">
        <ele>387.70</ele>
        <time>2012-12-01T09:50:21Z</time>
      </trkpt>
      <trkpt lat="42.483351000" lon="-2.545161000">
        <ele>387.70</ele>
        <time>2012-12-01T09:50:21Z</time>
      </trkpt>
      <trkpt lat="42.482953000" lon="-2.549371000">
        <ele>388.50</ele>
        <time>2012-12-01T09:51:34Z</time>
      </trkpt>
      <trkpt lat="42.482683000" lon="-2.551939000">
        <ele>408.20</ele>
        <time>2012-12-01T09:52:23Z</time>
      </trkpt>
      <trkpt lat="42.482655000" lon="-2.552236000">
        <ele>412.80</ele>
        <time>2012-12-01T09:52:28Z</time>
      </trkpt>
      <trkpt lat="42.482685000" lon="-2.552536000">
        <ele>416.60</ele>
        <time>2012-12-01T09:52:32Z</time>
      </trkpt>
      <trkpt lat="42.482853000" lon="-2.553134000">
        <ele>417.70</ele>
        <time>2012-12-01T09:52:44Z</time>
      </trkpt>
      <trkpt lat="42.482875000" lon="-2.553188000">
        <ele>417.60</ele>
        <time>2012-12-01T09:52:44Z</time>
      </trkpt>
      <trkpt lat="42.483518000" lon="-2.555054000">
        <ele>414.60</ele>
        <time>2012-12-01T09:53:19Z</time>
      </trkpt>
      <trkpt lat="42.483875000" lon="-2.555711000">
        <ele>404.10</ele>
        <time>2012-12-01T09:53:36Z</time>
      </trkpt>
      <trkpt lat="42.484186000" lon="-2.556264000">
        <ele>398.60</ele>
        <time>2012-12-01T09:53:50Z</time>
      </trkpt>
      <trkpt lat="42.484208000" lon="-2.556316000">
        <ele>398.40</ele>
        <time>2012-12-01T09:53:52Z</time>
      </trkpt>
      <trkpt lat="42.484350000" lon="-2.556686000">
        <ele>395.80</ele>
        <time>2012-12-01T09:53:59Z</time>
      </trkpt>
      <trkpt lat="42.484358000" lon="-2.556853000">
        <ele>395.90</ele>
        <time>2012-12-01T09:54:04Z</time>
      </trkpt>
      <trkpt lat="42.484348000" lon="-2.556956000">
        <ele>396.10</ele>
        <time>2012-12-01T09:54:06Z</time>
      </trkpt>
      <trkpt lat="42.484320000" lon="-2.557056000">
        <ele>396.40</ele>
        <time>2012-12-01T09:54:08Z</time>
      </trkpt>
      <trkpt lat="42.483988000" lon="-2.557427000">
        <ele>397.00</ele>
        <time>2012-12-01T09:54:15Z</time>
      </trkpt>
      <trkpt lat="42.483725000" lon="-2.557586000">
        <ele>400.20</ele>
        <time>2012-12-01T09:54:23Z</time>
      </trkpt>
      <trkpt lat="42.483770000" lon="-2.557541000">
        <ele>398.50</ele>
        <time>2012-12-01T09:54:23Z</time>
      </trkpt>
      <trkpt lat="42.483616000" lon="-2.557506000">
        <ele>399.40</ele>
        <time>2012-12-01T09:54:30Z</time>
      </trkpt>
      <trkpt lat="42.483575000" lon="-2.557484000">
        <ele>400.70</ele>
        <time>2012-12-01T09:54:32Z</time>
      </trkpt>
      <trkpt lat="42.483590000" lon="-2.557459000">
        <ele>401.00</ele>
        <time>2012-12-01T09:54:32Z</time>
      </trkpt>
      <trkpt lat="42.483570000" lon="-2.557441000">
        <ele>401.40</ele>
        <time>2012-12-01T09:54:34Z</time>
      </trkpt>
      <trkpt lat="42.483485000" lon="-2.557258000">
        <ele>405.10</ele>
        <time>2012-12-01T09:54:39Z</time>
      </trkpt>
      <trkpt lat="42.483465000" lon="-2.557196000">
        <ele>406.30</ele>
        <time>2012-12-01T09:54:41Z</time>
      </trkpt>
      <trkpt lat="42.483458000" lon="-2.557164000">
        <ele>406.80</ele>
        <time>2012-12-01T09:54:42Z</time>
      </trkpt>
      <trkpt lat="42.483455000" lon="-2.557129000">
        <ele>407.20</ele>
        <time>2012-12-01T09:54:44Z</time>
      </trkpt>
      <trkpt lat="42.483456000" lon="-2.557096000">
        <ele>407.60</ele>
        <time>2012-12-01T09:54:44Z</time>
      </trkpt>
      <trkpt lat="42.483466000" lon="-2.557063000">
        <ele>407.80</ele>
        <time>2012-12-01T09:54:46Z</time>
      </trkpt>
      <trkpt lat="42.483483000" lon="-2.557028000">
        <ele>407.80</ele>
        <time>2012-12-01T09:54:46Z</time>
      </trkpt>
      <trkpt lat="42.483506000" lon="-2.556996000">
        <ele>407.60</ele>
        <time>2012-12-01T09:54:48Z</time>
      </trkpt>
      <trkpt lat="42.483536000" lon="-2.556971000">
        <ele>407.10</ele>
        <time>2012-12-01T09:54:48Z</time>
      </trkpt>
      <trkpt lat="42.483571000" lon="-2.556956000">
        <ele>406.40</ele>
        <time>2012-12-01T09:54:49Z</time>
      </trkpt>
      <trkpt lat="42.483610000" lon="-2.556958000">
        <ele>405.40</ele>
        <time>2012-12-01T09:54:51Z</time>
      </trkpt>
      <trkpt lat="42.483645000" lon="-2.556974000">
        <ele>404.30</ele>
        <time>2012-12-01T09:54:51Z</time>
      </trkpt>
      <trkpt lat="42.483676000" lon="-2.556998000">
        <ele>403.00</ele>
        <time>2012-12-01T09:54:53Z</time>
      </trkpt>
      <trkpt lat="42.483705000" lon="-2.557026000">
        <ele>402.30</ele>
        <time>2012-12-01T09:54:53Z</time>
      </trkpt>
      <trkpt lat="42.484135000" lon="-2.557668000">
        <ele>397.70</ele>
        <time>2012-12-01T09:55:12Z</time>
      </trkpt>
      <trkpt lat="42.484175000" lon="-2.557761000">
        <ele>398.00</ele>
        <time>2012-12-01T09:55:14Z</time>
      </trkpt>
      <trkpt lat="42.484183000" lon="-2.557818000">
        <ele>398.20</ele>
        <time>2012-12-01T09:55:14Z</time>
      </trkpt>
      <trkpt lat="42.484181000" lon="-2.557874000">
        <ele>398.30</ele>
        <time>2012-12-01T09:55:16Z</time>
      </trkpt>
      <trkpt lat="42.484170000" lon="-2.557929000">
        <ele>398.40</ele>
        <time>2012-12-01T09:55:17Z</time>
      </trkpt>
      <trkpt lat="42.484018000" lon="-2.558293000">
        <ele>398.30</ele>
        <time>2012-12-01T09:55:26Z</time>
      </trkpt>
      <trkpt lat="42.483710000" lon="-2.559348000">
        <ele>398.90</ele>
        <time>2012-12-01T09:55:52Z</time>
      </trkpt>
      <trkpt lat="42.483616000" lon="-2.559546000">
        <ele>399.30</ele>
        <time>2012-12-01T09:55:59Z</time>
      </trkpt>
      <trkpt lat="42.483600000" lon="-2.559571000">
        <ele>399.40</ele>
        <time>2012-12-01T09:56:01Z</time>
      </trkpt>
      <trkpt lat="42.483466000" lon="-2.559761000">
        <ele>399.10</ele>
        <time>2012-12-01T09:56:08Z</time>
      </trkpt>
      <trkpt lat="42.483456000" lon="-2.559793000">
        <ele>399.10</ele>
        <time>2012-12-01T09:56:10Z</time>
      </trkpt>
      <trkpt lat="42.483448000" lon="-2.559859000">
        <ele>399.10</ele>
        <time>2012-12-01T09:56:11Z</time>
      </trkpt>
      <trkpt lat="42.483450000" lon="-2.559929000">
        <ele>399.10</ele>
        <time>2012-12-01T09:56:13Z</time>
      </trkpt>
      <trkpt lat="42.483456000" lon="-2.559963000">
        <ele>399.20</ele>
        <time>2012-12-01T09:56:15Z</time>
      </trkpt>
      <trkpt lat="42.483478000" lon="-2.560023000">
        <ele>399.30</ele>
        <time>2012-12-01T09:56:17Z</time>
      </trkpt>
      <trkpt lat="42.483530000" lon="-2.560141000">
        <ele>399.50</ele>
        <time>2012-12-01T09:56:20Z</time>
      </trkpt>
      <trkpt lat="42.483555000" lon="-2.560229000">
        <ele>399.60</ele>
        <time>2012-12-01T09:56:23Z</time>
      </trkpt>
      <trkpt lat="42.483698000" lon="-2.560941000">
        <ele>402.60</ele>
        <time>2012-12-01T09:56:44Z</time>
      </trkpt>
      <trkpt lat="42.483705000" lon="-2.561131000">
        <ele>403.70</ele>
        <time>2012-12-01T09:56:50Z</time>
      </trkpt>
      <trkpt lat="42.483678000" lon="-2.561314000">
        <ele>404.70</ele>
        <time>2012-12-01T09:56:55Z</time>
      </trkpt>
      <trkpt lat="42.483515000" lon="-2.561693000">
        <ele>407.00</ele>
        <time>2012-12-01T09:57:05Z</time>
      </trkpt>
      <trkpt lat="42.483496000" lon="-2.561724000">
        <ele>407.10</ele>
        <time>2012-12-01T09:57:07Z</time>
      </trkpt>
      <trkpt lat="42.483175000" lon="-2.562168000">
        <ele>409.60</ele>
        <time>2012-12-01T09:57:23Z</time>
      </trkpt>
      <trkpt lat="42.483165000" lon="-2.562193000">
        <ele>409.60</ele>
        <time>2012-12-01T09:57:23Z</time>
      </trkpt>
      <trkpt lat="42.483163000" lon="-2.562216000">
        <ele>409.70</ele>
        <time>2012-12-01T09:57:24Z</time>
      </trkpt>
      <trkpt lat="42.483168000" lon="-2.562234000">
        <ele>409.80</ele>
        <time>2012-12-01T09:57:26Z</time>
      </trkpt>
      <trkpt lat="42.483176000" lon="-2.562251000">
        <ele>409.90</ele>
        <time>2012-12-01T09:57:26Z</time>
      </trkpt>
      <trkpt lat="42.483190000" lon="-2.562266000">
        <ele>410.00</ele>
        <time>2012-12-01T09:57:28Z</time>
      </trkpt>
      <trkpt lat="42.483238000" lon="-2.562286000">
        <ele>410.30</ele>
        <time>2012-12-01T09:57:31Z</time>
      </trkpt>
      <trkpt lat="42.483243000" lon="-2.562286000">
        <ele>410.40</ele>
        <time>2012-12-01T09:57:33Z</time>
      </trkpt>
      <trkpt lat="42.483246000" lon="-2.562286000">
        <ele>410.40</ele>
        <time>2012-12-01T09:57:33Z</time>
      </trkpt>
      <trkpt lat="42.483250000" lon="-2.562284000">
        <ele>410.40</ele>
        <time>2012-12-01T09:57:35Z</time>
      </trkpt>
      <trkpt lat="42.483255000" lon="-2.562286000">
        <ele>410.40</ele>
        <time>2012-12-01T09:57:35Z</time>
      </trkpt>
      <trkpt lat="42.483275000" lon="-2.562293000">
        <ele>410.50</ele>
        <time>2012-12-01T09:57:42Z</time>
      </trkpt>
      <trkpt lat="42.483286000" lon="-2.562296000">
        <ele>410.60</ele>
        <time>2012-12-01T09:57:44Z</time>
      </trkpt>
      <trkpt lat="42.483310000" lon="-2.562296000">
        <ele>410.60</ele>
        <time>2012-12-01T09:57:45Z</time>
      </trkpt>
      <trkpt lat="42.483345000" lon="-2.562303000">
        <ele>410.70</ele>
        <time>2012-12-01T09:57:47Z</time>
      </trkpt>
      <trkpt lat="42.483608000" lon="-2.562394000">
        <ele>411.50</ele>
        <time>2012-12-01T09:57:56Z</time>
      </trkpt>
      <trkpt lat="42.483728000" lon="-2.562471000">
        <ele>411.80</ele>
        <time>2012-12-01T09:58:01Z</time>
      </trkpt>
      <trkpt lat="42.483830000" lon="-2.562493000">
        <ele>411.90</ele>
        <time>2012-12-01T09:58:03Z</time>
      </trkpt>
      <trkpt lat="42.483986000" lon="-2.562463000">
        <ele>411.90</ele>
        <time>2012-12-01T09:58:08Z</time>
      </trkpt>
      <trkpt lat="42.484015000" lon="-2.562451000">
        <ele>411.90</ele>
        <time>2012-12-01T09:58:10Z</time>
      </trkpt>
      <trkpt lat="42.484238000" lon="-2.562324000">
        <ele>411.90</ele>
        <time>2012-12-01T09:58:18Z</time>
      </trkpt>
      <trkpt lat="42.484255000" lon="-2.562318000">
        <ele>411.90</ele>
        <time>2012-12-01T09:58:20Z</time>
      </trkpt>
      <trkpt lat="42.484498000" lon="-2.562209000">
        <ele>411.90</ele>
        <time>2012-12-01T09:58:29Z</time>
      </trkpt>
      <trkpt lat="42.484568000" lon="-2.562199000">
        <ele>411.90</ele>
        <time>2012-12-01T09:58:31Z</time>
      </trkpt>
      <trkpt lat="42.485100000" lon="-2.561976000">
        <ele>411.90</ele>
        <time>2012-12-01T09:58:48Z</time>
      </trkpt>
      <trkpt lat="42.485525000" lon="-2.561946000">
        <ele>411.80</ele>
        <time>2012-12-01T09:59:00Z</time>
      </trkpt>
      <trkpt lat="42.485750000" lon="-2.561974000">
        <ele>411.20</ele>
        <time>2012-12-01T09:59:09Z</time>
      </trkpt>
      <trkpt lat="42.485826000" lon="-2.562004000">
        <ele>411.00</ele>
        <time>2012-12-01T09:59:12Z</time>
      </trkpt>
      <trkpt lat="42.485841000" lon="-2.562004000">
        <ele>411.00</ele>
        <time>2012-12-01T09:59:14Z</time>
      </trkpt>
      <trkpt lat="42.485858000" lon="-2.562008000">
        <ele>410.90</ele>
        <time>2012-12-01T09:59:14Z</time>
      </trkpt>
      <trkpt lat="42.485873000" lon="-2.562008000">
        <ele>410.90</ele>
        <time>2012-12-01T09:59:16Z</time>
      </trkpt>
      <trkpt lat="42.485911000" lon="-2.562013000">
        <ele>410.80</ele>
        <time>2012-12-01T09:59:18Z</time>
      </trkpt>
      <trkpt lat="42.485990000" lon="-2.562006000">
        <ele>410.70</ele>
        <time>2012-12-01T09:59:21Z</time>
      </trkpt>
      <trkpt lat="42.486618000" lon="-2.562139000">
        <ele>409.60</ele>
        <time>2012-12-01T09:59:39Z</time>
      </trkpt>
      <trkpt lat="42.486730000" lon="-2.562194000">
        <ele>409.60</ele>
        <time>2012-12-01T09:59:42Z</time>
      </trkpt>
      <trkpt lat="42.486998000" lon="-2.562273000">
        <ele>409.50</ele>
        <time>2012-12-01T09:59:51Z</time>
      </trkpt>
      <trkpt lat="42.487133000" lon="-2.562353000">
        <ele>409.50</ele>
        <time>2012-12-01T09:59:56Z</time>
      </trkpt>
      <trkpt lat="42.487153000" lon="-2.562369000">
        <ele>409.50</ele>
        <time>2012-12-01T09:59:58Z</time>
      </trkpt>
      <trkpt lat="42.487175000" lon="-2.562379000">
        <ele>409.40</ele>
        <time>2012-12-01T09:59:58Z</time>
      </trkpt>
      <trkpt lat="42.487220000" lon="-2.562393000">
        <ele>409.40</ele>
        <time>2012-12-01T10:00:01Z</time>
      </trkpt>
      <trkpt lat="42.487243000" lon="-2.562404000">
        <ele>409.30</ele>
        <time>2012-12-01T10:00:01Z</time>
      </trkpt>
      <trkpt lat="42.487691000" lon="-2.562708000">
        <ele>408.50</ele>
        <time>2012-12-01T10:00:20Z</time>
      </trkpt>
      <trkpt lat="42.487708000" lon="-2.562714000">
        <ele>408.50</ele>
        <time>2012-12-01T10:00:22Z</time>
      </trkpt>
      <trkpt lat="42.487711000" lon="-2.562723000">
        <ele>408.40</ele>
        <time>2012-12-01T10:00:22Z</time>
      </trkpt>
      <trkpt lat="42.487718000" lon="-2.562718000">
        <ele>408.40</ele>
        <time>2012-12-01T10:00:24Z</time>
      </trkpt>
      <trkpt lat="42.487745000" lon="-2.562726000">
        <ele>408.30</ele>
        <time>2012-12-01T10:00:29Z</time>
      </trkpt>
      <trkpt lat="42.487755000" lon="-2.562728000">
        <ele>408.30</ele>
        <time>2012-12-01T10:00:31Z</time>
      </trkpt>
      <trkpt lat="42.487775000" lon="-2.562728000">
        <ele>408.20</ele>
        <time>2012-12-01T10:00:33Z</time>
      </trkpt>
      <trkpt lat="42.487788000" lon="-2.562731000">
        <ele>408.20</ele>
        <time>2012-12-01T10:00:34Z</time>
      </trkpt>
      <trkpt lat="42.487796000" lon="-2.562729000">
        <ele>408.20</ele>
        <time>2012-12-01T10:00:36Z</time>
      </trkpt>
      <trkpt lat="42.487806000" lon="-2.562733000">
        <ele>408.10</ele>
        <time>2012-12-01T10:00:36Z</time>
      </trkpt>
      <trkpt lat="42.487816000" lon="-2.562734000">
        <ele>408.10</ele>
        <time>2012-12-01T10:00:38Z</time>
      </trkpt>
      <trkpt lat="42.487820000" lon="-2.562736000">
        <ele>408.10</ele>
        <time>2012-12-01T10:00:40Z</time>
      </trkpt>
      <trkpt lat="42.487825000" lon="-2.562741000">
        <ele>408.10</ele>
        <time>2012-12-01T10:00:41Z</time>
      </trkpt>
      <trkpt lat="42.487831000" lon="-2.562746000">
        <ele>408.00</ele>
        <time>2012-12-01T10:00:41Z</time>
      </trkpt>
      <trkpt lat="42.487835000" lon="-2.562751000">
        <ele>408.00</ele>
        <time>2012-12-01T10:00:43Z</time>
      </trkpt>
      <trkpt lat="42.487836000" lon="-2.562749000">
        <ele>408.00</ele>
        <time>2012-12-01T10:00:45Z</time>
      </trkpt>
      <trkpt lat="42.487858000" lon="-2.562761000">
        <ele>408.00</ele>
        <time>2012-12-01T10:00:50Z</time>
      </trkpt>
      <trkpt lat="42.487865000" lon="-2.562763000">
        <ele>408.00</ele>
        <time>2012-12-01T10:00:52Z</time>
      </trkpt>
      <trkpt lat="42.487875000" lon="-2.562766000">
        <ele>407.90</ele>
        <time>2012-12-01T10:00:54Z</time>
      </trkpt>
      <trkpt lat="42.487906000" lon="-2.562784000">
        <ele>407.90</ele>
        <time>2012-12-01T10:00:55Z</time>
      </trkpt>
      <trkpt lat="42.487925000" lon="-2.562799000">
        <ele>407.80</ele>
        <time>2012-12-01T10:00:57Z</time>
      </trkpt>
      <trkpt lat="42.487946000" lon="-2.562831000">
        <ele>407.70</ele>
        <time>2012-12-01T10:00:59Z</time>
      </trkpt>
      <trkpt lat="42.487953000" lon="-2.562848000">
        <ele>407.70</ele>
        <time>2012-12-01T10:00:59Z</time>
      </trkpt>
      <trkpt lat="42.487956000" lon="-2.562866000">
        <ele>407.60</ele>
        <time>2012-12-01T10:01:00Z</time>
      </trkpt>
      <trkpt lat="42.487966000" lon="-2.562903000">
        <ele>407.60</ele>
        <time>2012-12-01T10:01:02Z</time>
      </trkpt>
      <trkpt lat="42.487966000" lon="-2.562939000">
        <ele>407.60</ele>
        <time>2012-12-01T10:01:04Z</time>
      </trkpt>
      <trkpt lat="42.487963000" lon="-2.562964000">
        <ele>407.70</ele>
        <time>2012-12-01T10:01:06Z</time>
      </trkpt>
      <trkpt lat="42.487963000" lon="-2.562991000">
        <ele>407.80</ele>
        <time>2012-12-01T10:01:06Z</time>
      </trkpt>
      <trkpt lat="42.488028000" lon="-2.563376000">
        <ele>408.70</ele>
        <time>2012-12-01T10:01:21Z</time>
      </trkpt>
      <trkpt lat="42.488031000" lon="-2.563439000">
        <ele>408.90</ele>
        <time>2012-12-01T10:01:23Z</time>
      </trkpt>
      <trkpt lat="42.488036000" lon="-2.563469000">
        <ele>408.90</ele>
        <time>2012-12-01T10:01:23Z</time>
      </trkpt>
      <trkpt lat="42.488130000" lon="-2.565039000">
        <ele>408.40</ele>
        <time>2012-12-01T10:02:03Z</time>
      </trkpt>
      <trkpt lat="42.488196000" lon="-2.565723000">
        <ele>408.20</ele>
        <time>2012-12-01T10:02:19Z</time>
      </trkpt>
      <trkpt lat="42.488340000" lon="-2.568294000">
        <ele>411.30</ele>
        <time>2012-12-01T10:03:15Z</time>
      </trkpt>
      <trkpt lat="42.488336000" lon="-2.568343000">
        <ele>411.30</ele>
        <time>2012-12-01T10:03:16Z</time>
      </trkpt>
      <trkpt lat="42.488375000" lon="-2.569206000">
        <ele>411.00</ele>
        <time>2012-12-01T10:03:32Z</time>
      </trkpt>
      <trkpt lat="42.488363000" lon="-2.569323000">
        <ele>410.80</ele>
        <time>2012-12-01T10:03:34Z</time>
      </trkpt>
      <trkpt lat="42.488350000" lon="-2.569644000">
        <ele>410.30</ele>
        <time>2012-12-01T10:03:41Z</time>
      </trkpt>
      <trkpt lat="42.488363000" lon="-2.569684000">
        <ele>410.20</ele>
        <time>2012-12-01T10:03:41Z</time>
      </trkpt>
      <trkpt lat="42.488386000" lon="-2.569718000">
        <ele>410.00</ele>
        <time>2012-12-01T10:03:42Z</time>
      </trkpt>
      <trkpt lat="42.488416000" lon="-2.569748000">
        <ele>409.70</ele>
        <time>2012-12-01T10:03:44Z</time>
      </trkpt>
      <trkpt lat="42.488553000" lon="-2.569844000">
        <ele>408.50</ele>
        <time>2012-12-01T10:03:48Z</time>
      </trkpt>
      <trkpt lat="42.488573000" lon="-2.569866000">
        <ele>408.20</ele>
        <time>2012-12-01T10:03:48Z</time>
      </trkpt>
      <trkpt lat="42.488588000" lon="-2.569889000">
        <ele>408.00</ele>
        <time>2012-12-01T10:03:49Z</time>
      </trkpt>
      <trkpt lat="42.488590000" lon="-2.569918000">
        <ele>407.80</ele>
        <time>2012-12-01T10:03:51Z</time>
      </trkpt>
      <trkpt lat="42.488580000" lon="-2.569941000">
        <ele>407.70</ele>
        <time>2012-12-01T10:03:51Z</time>
      </trkpt>
      <trkpt lat="42.488556000" lon="-2.569956000">
        <ele>407.60</ele>
        <time>2012-12-01T10:03:53Z</time>
      </trkpt>
      <trkpt lat="42.488491000" lon="-2.569951000">
        <ele>407.90</ele>
        <time>2012-12-01T10:03:55Z</time>
      </trkpt>
      <trkpt lat="42.488461000" lon="-2.569956000">
        <ele>408.10</ele>
        <time>2012-12-01T10:03:55Z</time>
      </trkpt>
      <trkpt lat="42.488441000" lon="-2.569969000">
        <ele>408.30</ele>
        <time>2012-12-01T10:03:56Z</time>
      </trkpt>
      <trkpt lat="42.488433000" lon="-2.569986000">
        <ele>408.40</ele>
        <time>2012-12-01T10:03:58Z</time>
      </trkpt>
      <trkpt lat="42.488433000" lon="-2.570006000">
        <ele>408.40</ele>
        <time>2012-12-01T10:03:58Z</time>
      </trkpt>
      <trkpt lat="42.488441000" lon="-2.570028000">
        <ele>408.30</ele>
        <time>2012-12-01T10:04:00Z</time>
      </trkpt>
      <trkpt lat="42.488463000" lon="-2.570044000">
        <ele>408.20</ele>
        <time>2012-12-01T10:04:00Z</time>
      </trkpt>
      <trkpt lat="42.488610000" lon="-2.570098000">
        <ele>407.10</ele>
        <time>2012-12-01T10:04:05Z</time>
      </trkpt>
      <trkpt lat="42.488826000" lon="-2.570268000">
        <ele>404.50</ele>
        <time>2012-12-01T10:04:10Z</time>
      </trkpt>
      <trkpt lat="42.489275000" lon="-2.570784000">
        <ele>397.50</ele>
        <time>2012-12-01T10:04:19Z</time>
      </trkpt>
      <trkpt lat="42.489336000" lon="-2.570838000">
        <ele>397.10</ele>
        <time>2012-12-01T10:04:19Z</time>
      </trkpt>
      <trkpt lat="42.489471000" lon="-2.570928000">
        <ele>395.30</ele>
        <time>2012-12-01T10:04:21Z</time>
      </trkpt>
      <trkpt lat="42.490366000" lon="-2.571029000">
        <ele>393.00</ele>
        <time>2012-12-01T10:04:33Z</time>
      </trkpt>
      <trkpt lat="42.490500000" lon="-2.571029000">
        <ele>392.90</ele>
        <time>2012-12-01T10:04:35Z</time>
      </trkpt>
      <trkpt lat="42.490985000" lon="-2.571123000">
        <ele>392.40</ele>
        <time>2012-12-01T10:04:43Z</time>
      </trkpt>
      <trkpt lat="42.491351000" lon="-2.571321000">
        <ele>391.90</ele>
        <time>2012-12-01T10:04:50Z</time>
      </trkpt>
      <trkpt lat="42.491660000" lon="-2.571646000">
        <ele>391.50</ele>
        <time>2012-12-01T10:04:57Z</time>
      </trkpt>
      <trkpt lat="42.492700000" lon="-2.573459000">
        <ele>400.90</ele>
        <time>2012-12-01T10:05:34Z</time>
      </trkpt>
      <trkpt lat="42.492715000" lon="-2.573504000">
        <ele>401.40</ele>
        <time>2012-12-01T10:05:36Z</time>
      </trkpt>
      <trkpt lat="42.492730000" lon="-2.573588000">
        <ele>403.70</ele>
        <time>2012-12-01T10:05:37Z</time>
      </trkpt>
      <trkpt lat="42.492725000" lon="-2.573629000">
        <ele>404.50</ele>
        <time>2012-12-01T10:05:39Z</time>
      </trkpt>
      <trkpt lat="42.492713000" lon="-2.573669000">
        <ele>405.20</ele>
        <time>2012-12-01T10:05:39Z</time>
      </trkpt>
      <trkpt lat="42.492673000" lon="-2.573741000">
        <ele>406.20</ele>
        <time>2012-12-01T10:05:41Z</time>
      </trkpt>
      <trkpt lat="42.492345000" lon="-2.574176000">
        <ele>408.00</ele>
        <time>2012-12-01T10:05:57Z</time>
      </trkpt>
      <trkpt lat="42.491641000" lon="-2.574731000">
        <ele>408.60</ele>
        <time>2012-12-01T10:06:24Z</time>
      </trkpt>
      <trkpt lat="42.491606000" lon="-2.574769000">
        <ele>408.70</ele>
        <time>2012-12-01T10:06:26Z</time>
      </trkpt>
      <trkpt lat="42.491561000" lon="-2.574838000">
        <ele>409.10</ele>
        <time>2012-12-01T10:06:30Z</time>
      </trkpt>
      <trkpt lat="42.491551000" lon="-2.574861000">
        <ele>409.30</ele>
        <time>2012-12-01T10:06:30Z</time>
      </trkpt>
      <trkpt lat="42.491521000" lon="-2.574974000">
        <ele>410.50</ele>
        <time>2012-12-01T10:06:35Z</time>
      </trkpt>
      <trkpt lat="42.491518000" lon="-2.575006000">
        <ele>410.80</ele>
        <time>2012-12-01T10:06:35Z</time>
      </trkpt>
      <trkpt lat="42.491533000" lon="-2.575161000">
        <ele>413.00</ele>
        <time>2012-12-01T10:06:40Z</time>
      </trkpt>
      <trkpt lat="42.491540000" lon="-2.575188000">
        <ele>413.20</ele>
        <time>2012-12-01T10:06:42Z</time>
      </trkpt>
      <trkpt lat="42.491561000" lon="-2.575239000">
        <ele>414.20</ele>
        <time>2012-12-01T10:06:44Z</time>
      </trkpt>
      <trkpt lat="42.491591000" lon="-2.575288000">
        <ele>415.00</ele>
        <time>2012-12-01T10:06:45Z</time>
      </trkpt>
      <trkpt lat="42.491608000" lon="-2.575306000">
        <ele>415.30</ele>
        <time>2012-12-01T10:06:47Z</time>
      </trkpt>
      <trkpt lat="42.491645000" lon="-2.575334000">
        <ele>416.00</ele>
        <time>2012-12-01T10:06:49Z</time>
      </trkpt>
      <trkpt lat="42.491703000" lon="-2.575361000">
        <ele>416.60</ele>
        <time>2012-12-01T10:06:52Z</time>
      </trkpt>
      <trkpt lat="42.491763000" lon="-2.575371000">
        <ele>417.10</ele>
        <time>2012-12-01T10:06:54Z</time>
      </trkpt>
      <trkpt lat="42.492255000" lon="-2.575276000">
        <ele>418.70</ele>
        <time>2012-12-01T10:07:18Z</time>
      </trkpt>
      <trkpt lat="42.492276000" lon="-2.575283000">
        <ele>418.90</ele>
        <time>2012-12-01T10:07:20Z</time>
      </trkpt>
      <trkpt lat="42.492328000" lon="-2.575314000">
        <ele>419.30</ele>
        <time>2012-12-01T10:07:22Z</time>
      </trkpt>
      <trkpt lat="42.492351000" lon="-2.575336000">
        <ele>419.60</ele>
        <time>2012-12-01T10:07:22Z</time>
      </trkpt>
      <trkpt lat="42.492411000" lon="-2.575413000">
        <ele>420.50</ele>
        <time>2012-12-01T10:07:25Z</time>
      </trkpt>
      <trkpt lat="42.492421000" lon="-2.575441000">
        <ele>420.70</ele>
        <time>2012-12-01T10:07:27Z</time>
      </trkpt>
      <trkpt lat="42.492426000" lon="-2.575474000">
        <ele>420.90</ele>
        <time>2012-12-01T10:07:27Z</time>
      </trkpt>
      <trkpt lat="42.492426000" lon="-2.575504000">
        <ele>421.10</ele>
        <time>2012-12-01T10:07:29Z</time>
      </trkpt>
      <trkpt lat="42.492421000" lon="-2.575524000">
        <ele>421.10</ele>
        <time>2012-12-01T10:07:29Z</time>
      </trkpt>
      <trkpt lat="42.492411000" lon="-2.575543000">
        <ele>421.20</ele>
        <time>2012-12-01T10:07:31Z</time>
      </trkpt>
      <trkpt lat="42.492381000" lon="-2.575576000">
        <ele>421.20</ele>
        <time>2012-12-01T10:07:32Z</time>
      </trkpt>
      <trkpt lat="42.492363000" lon="-2.575591000">
        <ele>421.10</ele>
        <time>2012-12-01T10:07:34Z</time>
      </trkpt>
      <trkpt lat="42.492286000" lon="-2.575673000">
        <ele>420.90</ele>
        <time>2012-12-01T10:07:38Z</time>
      </trkpt>
      <trkpt lat="42.491931000" lon="-2.576174000">
        <ele>420.50</ele>
        <time>2012-12-01T10:07:55Z</time>
      </trkpt>
      <trkpt lat="42.491913000" lon="-2.576209000">
        <ele>420.50</ele>
        <time>2012-12-01T10:07:57Z</time>
      </trkpt>
      <trkpt lat="42.488653000" lon="-2.580989000">
        <ele>415.40</ele>
        <time>2012-12-01T10:10:00Z</time>
      </trkpt>
      <trkpt lat="42.488630000" lon="-2.581038000">
        <ele>415.40</ele>
        <time>2012-12-01T10:10:02Z</time>
      </trkpt>
      <trkpt lat="42.487985000" lon="-2.582363000">
        <ele>418.30</ele>
        <time>2012-12-01T10:10:30Z</time>
      </trkpt>
      <trkpt lat="42.487950000" lon="-2.582398000">
        <ele>418.60</ele>
        <time>2012-12-01T10:10:32Z</time>
      </trkpt>
      <trkpt lat="42.487866000" lon="-2.582449000">
        <ele>419.10</ele>
        <time>2012-12-01T10:10:34Z</time>
      </trkpt>
      <trkpt lat="42.487823000" lon="-2.582463000">
        <ele>419.30</ele>
        <time>2012-12-01T10:10:35Z</time>
      </trkpt>
      <trkpt lat="42.487275000" lon="-2.582438000">
        <ele>418.90</ele>
        <time>2012-12-01T10:10:46Z</time>
      </trkpt>
      <trkpt lat="42.486705000" lon="-2.582623000">
        <ele>416.90</ele>
        <time>2012-12-01T10:11:01Z</time>
      </trkpt>
      <trkpt lat="42.486600000" lon="-2.582699000">
        <ele>416.30</ele>
        <time>2012-12-01T10:11:05Z</time>
      </trkpt>
      <trkpt lat="42.486568000" lon="-2.582731000">
        <ele>416.20</ele>
        <time>2012-12-01T10:11:05Z</time>
      </trkpt>
      <trkpt lat="42.485293000" lon="-2.584249000">
        <ele>412.50</ele>
        <time>2012-12-01T10:11:38Z</time>
      </trkpt>
      <trkpt lat="42.485181000" lon="-2.584363000">
        <ele>412.30</ele>
        <time>2012-12-01T10:11:40Z</time>
      </trkpt>
      <trkpt lat="42.484848000" lon="-2.584579000">
        <ele>409.70</ele>
        <time>2012-12-01T10:11:47Z</time>
      </trkpt>
      <trkpt lat="42.484506000" lon="-2.584903000">
        <ele>407.50</ele>
        <time>2012-12-01T10:11:54Z</time>
      </trkpt>
      <trkpt lat="42.484388000" lon="-2.584988000">
        <ele>406.20</ele>
        <time>2012-12-01T10:11:55Z</time>
      </trkpt>
      <trkpt lat="42.484276000" lon="-2.585109000">
        <ele>404.90</ele>
        <time>2012-12-01T10:11:57Z</time>
      </trkpt>
      <trkpt lat="42.484228000" lon="-2.585189000">
        <ele>404.40</ele>
        <time>2012-12-01T10:11:59Z</time>
      </trkpt>
      <trkpt lat="42.483936000" lon="-2.586298000">
        <ele>400.90</ele>
        <time>2012-12-01T10:12:09Z</time>
      </trkpt>
      <trkpt lat="42.483925000" lon="-2.586404000">
        <ele>400.60</ele>
        <time>2012-12-01T10:12:11Z</time>
      </trkpt>
      <trkpt lat="42.483710000" lon="-2.589781000">
        <ele>398.80</ele>
        <time>2012-12-01T10:12:36Z</time>
      </trkpt>
      <trkpt lat="42.483085000" lon="-2.591181000">
        <ele>405.20</ele>
        <time>2012-12-01T10:12:51Z</time>
      </trkpt>
      <trkpt lat="42.481635000" lon="-2.593348000">
        <ele>412.20</ele>
        <time>2012-12-01T10:13:35Z</time>
      </trkpt>
      <trkpt lat="42.481605000" lon="-2.593381000">
        <ele>412.60</ele>
        <time>2012-12-01T10:13:35Z</time>
      </trkpt>
      <trkpt lat="42.480613000" lon="-2.594201000">
        <ele>415.50</ele>
        <time>2012-12-01T10:14:08Z</time>
      </trkpt>
      <trkpt lat="42.480368000" lon="-2.594286000">
        <ele>412.60</ele>
        <time>2012-12-01T10:14:15Z</time>
      </trkpt>
      <trkpt lat="42.480323000" lon="-2.594288000">
        <ele>412.20</ele>
        <time>2012-12-01T10:14:17Z</time>
      </trkpt>
      <trkpt lat="42.480271000" lon="-2.594279000">
        <ele>411.80</ele>
        <time>2012-12-01T10:14:18Z</time>
      </trkpt>
      <trkpt lat="42.480160000" lon="-2.594228000">
        <ele>410.30</ele>
        <time>2012-12-01T10:14:20Z</time>
      </trkpt>
      <trkpt lat="42.479833000" lon="-2.594024000">
        <ele>404.40</ele>
        <time>2012-12-01T10:14:25Z</time>
      </trkpt>
      <trkpt lat="42.479618000" lon="-2.593979000">
        <ele>401.70</ele>
        <time>2012-12-01T10:14:27Z</time>
      </trkpt>
      <trkpt lat="42.478935000" lon="-2.594046000">
        <ele>399.40</ele>
        <time>2012-12-01T10:14:39Z</time>
      </trkpt>
      <trkpt lat="42.478883000" lon="-2.594036000">
        <ele>399.30</ele>
        <time>2012-12-01T10:14:39Z</time>
      </trkpt>
      <trkpt lat="42.477966000" lon="-2.593459000">
        <ele>393.20</ele>
        <time>2012-12-01T10:15:00Z</time>
      </trkpt>
      <trkpt lat="42.477743000" lon="-2.593274000">
        <ele>393.20</ele>
        <time>2012-12-01T10:15:05Z</time>
      </trkpt>
      <trkpt lat="42.477641000" lon="-2.593228000">
        <ele>393.30</ele>
        <time>2012-12-01T10:15:07Z</time>
      </trkpt>
      <trkpt lat="42.477531000" lon="-2.593204000">
        <ele>393.50</ele>
        <time>2012-12-01T10:15:09Z</time>
      </trkpt>
      <trkpt lat="42.476531000" lon="-2.593269000">
        <ele>396.10</ele>
        <time>2012-12-01T10:15:26Z</time>
      </trkpt>
      <trkpt lat="42.476133000" lon="-2.593248000">
        <ele>397.50</ele>
        <time>2012-12-01T10:15:35Z</time>
      </trkpt>
      <trkpt lat="42.473370000" lon="-2.593381000">
        <ele>394.00</ele>
        <time>2012-12-01T10:16:34Z</time>
      </trkpt>
      <trkpt lat="42.473331000" lon="-2.593404000">
        <ele>394.00</ele>
        <time>2012-12-01T10:16:34Z</time>
      </trkpt>
      <trkpt lat="42.473306000" lon="-2.593439000">
        <ele>394.10</ele>
        <time>2012-12-01T10:16:36Z</time>
      </trkpt>
      <trkpt lat="42.473298000" lon="-2.593486000">
        <ele>394.10</ele>
        <time>2012-12-01T10:16:36Z</time>
      </trkpt>
      <trkpt lat="42.473428000" lon="-2.594751000">
        <ele>395.00</ele>
        <time>2012-12-01T10:17:00Z</time>
      </trkpt>
      <trkpt lat="42.473421000" lon="-2.594788000">
        <ele>394.90</ele>
        <time>2012-12-01T10:17:02Z</time>
      </trkpt>
      <trkpt lat="42.473405000" lon="-2.594811000">
        <ele>394.80</ele>
        <time>2012-12-01T10:17:02Z</time>
      </trkpt>
      <trkpt lat="42.473381000" lon="-2.594819000">
        <ele>394.70</ele>
        <time>2012-12-01T10:17:04Z</time>
      </trkpt>
      <trkpt lat="42.473355000" lon="-2.594813000">
        <ele>394.60</ele>
        <time>2012-12-01T10:17:04Z</time>
      </trkpt>
      <trkpt lat="42.473088000" lon="-2.594643000">
        <ele>393.80</ele>
        <time>2012-12-01T10:17:14Z</time>
      </trkpt>
      <trkpt lat="42.473058000" lon="-2.594631000">
        <ele>393.70</ele>
        <time>2012-12-01T10:17:14Z</time>
      </trkpt>
      <trkpt lat="42.473033000" lon="-2.594633000">
        <ele>393.60</ele>
        <time>2012-12-01T10:17:16Z</time>
      </trkpt>
      <trkpt lat="42.473015000" lon="-2.594651000">
        <ele>393.50</ele>
        <time>2012-12-01T10:17:16Z</time>
      </trkpt>
      <trkpt lat="42.473006000" lon="-2.594681000">
        <ele>393.40</ele>
        <time>2012-12-01T10:17:18Z</time>
      </trkpt>
      <trkpt lat="42.473006000" lon="-2.594718000">
        <ele>393.40</ele>
        <time>2012-12-01T10:17:18Z</time>
      </trkpt>
      <trkpt lat="42.473063000" lon="-2.595111000">
        <ele>393.20</ele>
        <time>2012-12-01T10:17:26Z</time>
      </trkpt>
      <trkpt lat="42.473146000" lon="-2.595373000">
        <ele>393.10</ele>
        <time>2012-12-01T10:17:33Z</time>
      </trkpt>
      <trkpt lat="42.473205000" lon="-2.595706000">
        <ele>393.10</ele>
        <time>2012-12-01T10:17:42Z</time>
      </trkpt>
      <trkpt lat="42.473215000" lon="-2.595738000">
        <ele>393.20</ele>
        <time>2012-12-01T10:17:44Z</time>
      </trkpt>
      <trkpt lat="42.473468000" lon="-2.596276000">
        <ele>393.30</ele>
        <time>2012-12-01T10:18:01Z</time>
      </trkpt>
      <trkpt lat="42.473480000" lon="-2.596313000">
        <ele>393.40</ele>
        <time>2012-12-01T10:18:01Z</time>
      </trkpt>
      <trkpt lat="42.473526000" lon="-2.596418000">
        <ele>393.70</ele>
        <time>2012-12-01T10:18:05Z</time>
      </trkpt>
      <trkpt lat="42.473641000" lon="-2.596633000">
        <ele>394.30</ele>
        <time>2012-12-01T10:18:10Z</time>
      </trkpt>
      <trkpt lat="42.473900000" lon="-2.597128000">
        <ele>395.70</ele>
        <time>2012-12-01T10:18:22Z</time>
      </trkpt>
      <trkpt lat="42.473943000" lon="-2.597193000">
        <ele>395.70</ele>
        <time>2012-12-01T10:18:24Z</time>
      </trkpt>
      <trkpt lat="42.474196000" lon="-2.597739000">
        <ele>396.20</ele>
        <time>2012-12-01T10:18:38Z</time>
      </trkpt>
      <trkpt lat="42.474345000" lon="-2.598028000">
        <ele>396.90</ele>
        <time>2012-12-01T10:18:47Z</time>
      </trkpt>
      <trkpt lat="42.474371000" lon="-2.598063000">
        <ele>397.00</ele>
        <time>2012-12-01T10:18:48Z</time>
      </trkpt>
      <trkpt lat="42.474538000" lon="-2.598238000">
        <ele>397.10</ele>
        <time>2012-12-01T10:18:53Z</time>
      </trkpt>
      <trkpt lat="42.474655000" lon="-2.598329000">
        <ele>397.10</ele>
        <time>2012-12-01T10:18:57Z</time>
      </trkpt>
      <trkpt lat="42.474696000" lon="-2.598381000">
        <ele>397.10</ele>
        <time>2012-12-01T10:18:59Z</time>
      </trkpt>
      <trkpt lat="42.474775000" lon="-2.598563000">
        <ele>397.00</ele>
        <time>2012-12-01T10:19:04Z</time>
      </trkpt>
      <trkpt lat="42.474783000" lon="-2.598606000">
        <ele>396.90</ele>
        <time>2012-12-01T10:19:06Z</time>
      </trkpt>
      <trkpt lat="42.474796000" lon="-2.598648000">
        <ele>396.90</ele>
        <time>2012-12-01T10:19:06Z</time>
      </trkpt>
      <trkpt lat="42.474815000" lon="-2.598686000">
        <ele>396.90</ele>
        <time>2012-12-01T10:19:07Z</time>
      </trkpt>
      <trkpt lat="42.474838000" lon="-2.598719000">
        <ele>396.90</ele>
        <time>2012-12-01T10:19:09Z</time>
      </trkpt>
      <trkpt lat="42.474861000" lon="-2.598741000">
        <ele>396.90</ele>
        <time>2012-12-01T10:19:09Z</time>
      </trkpt>
      <trkpt lat="42.474970000" lon="-2.598929000">
        <ele>397.60</ele>
        <time>2012-12-01T10:19:16Z</time>
      </trkpt>
      <trkpt lat="42.474985000" lon="-2.598988000">
        <ele>397.80</ele>
        <time>2012-12-01T10:19:18Z</time>
      </trkpt>
      <trkpt lat="42.474998000" lon="-2.599014000">
        <ele>397.90</ele>
        <time>2012-12-01T10:19:20Z</time>
      </trkpt>
      <trkpt lat="42.475020000" lon="-2.599036000">
        <ele>398.10</ele>
        <time>2012-12-01T10:19:21Z</time>
      </trkpt>
      <trkpt lat="42.475101000" lon="-2.599093000">
        <ele>398.50</ele>
        <time>2012-12-01T10:19:23Z</time>
      </trkpt>
      <trkpt lat="42.475415000" lon="-2.599453000">
        <ele>401.20</ele>
        <time>2012-12-01T10:19:37Z</time>
      </trkpt>
      <trkpt lat="42.475483000" lon="-2.599523000">
        <ele>401.50</ele>
        <time>2012-12-01T10:19:41Z</time>
      </trkpt>
      <trkpt lat="42.475580000" lon="-2.599656000">
        <ele>401.30</ele>
        <time>2012-12-01T10:19:46Z</time>
      </trkpt>
      <trkpt lat="42.475603000" lon="-2.599679000">
        <ele>401.10</ele>
        <time>2012-12-01T10:19:46Z</time>
      </trkpt>
      <trkpt lat="42.475630000" lon="-2.599696000">
        <ele>401.00</ele>
        <time>2012-12-01T10:19:47Z</time>
      </trkpt>
      <trkpt lat="42.475656000" lon="-2.599703000">
        <ele>400.90</ele>
        <time>2012-12-01T10:19:49Z</time>
      </trkpt>
      <trkpt lat="42.475681000" lon="-2.599701000">
        <ele>400.80</ele>
        <time>2012-12-01T10:19:49Z</time>
      </trkpt>
      <trkpt lat="42.475708000" lon="-2.599689000">
        <ele>400.70</ele>
        <time>2012-12-01T10:19:51Z</time>
      </trkpt>
      <trkpt lat="42.477241000" lon="-2.598371000">
        <ele>395.80</ele>
        <time>2012-12-01T10:20:48Z</time>
      </trkpt>
      <trkpt lat="42.477270000" lon="-2.598359000">
        <ele>395.90</ele>
        <time>2012-12-01T10:20:50Z</time>
      </trkpt>
      <trkpt lat="42.477301000" lon="-2.598359000">
        <ele>396.10</ele>
        <time>2012-12-01T10:20:50Z</time>
      </trkpt>
      <trkpt lat="42.477333000" lon="-2.598374000">
        <ele>396.10</ele>
        <time>2012-12-01T10:20:52Z</time>
      </trkpt>
      <trkpt lat="42.479061000" lon="-2.599198000">
        <ele>398.40</ele>
        <time>2012-12-01T10:21:39Z</time>
      </trkpt>
      <trkpt lat="42.479100000" lon="-2.599199000">
        <ele>398.40</ele>
        <time>2012-12-01T10:21:41Z</time>
      </trkpt>
      <trkpt lat="42.479138000" lon="-2.599196000">
        <ele>398.40</ele>
        <time>2012-12-01T10:21:41Z</time>
      </trkpt>
      <trkpt lat="42.479175000" lon="-2.599178000">
        <ele>398.40</ele>
        <time>2012-12-01T10:21:42Z</time>
      </trkpt>
      <trkpt lat="42.479208000" lon="-2.599153000">
        <ele>398.40</ele>
        <time>2012-12-01T10:21:44Z</time>
      </trkpt>
      <trkpt lat="42.479265000" lon="-2.599084000">
        <ele>398.40</ele>
        <time>2012-12-01T10:21:46Z</time>
      </trkpt>
      <trkpt lat="42.479338000" lon="-2.598964000">
        <ele>398.40</ele>
        <time>2012-12-01T10:21:48Z</time>
      </trkpt>
      <trkpt lat="42.479366000" lon="-2.598931000">
        <ele>398.40</ele>
        <time>2012-12-01T10:21:49Z</time>
      </trkpt>
      <trkpt lat="42.479398000" lon="-2.598904000">
        <ele>398.30</ele>
        <time>2012-12-01T10:21:51Z</time>
      </trkpt>
      <trkpt lat="42.479433000" lon="-2.598888000">
        <ele>398.30</ele>
        <time>2012-12-01T10:21:51Z</time>
      </trkpt>
      <trkpt lat="42.479470000" lon="-2.598881000">
        <ele>398.20</ele>
        <time>2012-12-01T10:21:53Z</time>
      </trkpt>
      <trkpt lat="42.479616000" lon="-2.598888000">
        <ele>398.20</ele>
        <time>2012-12-01T10:21:56Z</time>
      </trkpt>
      <trkpt lat="42.479965000" lon="-2.598913000">
        <ele>398.40</ele>
        <time>2012-12-01T10:22:05Z</time>
      </trkpt>
      <trkpt lat="42.480428000" lon="-2.598848000">
        <ele>398.80</ele>
        <time>2012-12-01T10:22:17Z</time>
      </trkpt>
      <trkpt lat="42.480843000" lon="-2.598754000">
        <ele>398.50</ele>
        <time>2012-12-01T10:22:28Z</time>
      </trkpt>
      <trkpt lat="42.481080000" lon="-2.598736000">
        <ele>398.30</ele>
        <time>2012-12-01T10:22:35Z</time>
      </trkpt>
      <trkpt lat="42.481198000" lon="-2.598744000">
        <ele>398.20</ele>
        <time>2012-12-01T10:22:38Z</time>
      </trkpt>
      <trkpt lat="42.481423000" lon="-2.598733000">
        <ele>398.10</ele>
        <time>2012-12-01T10:22:43Z</time>
      </trkpt>
      <trkpt lat="42.481538000" lon="-2.598739000">
        <ele>398.10</ele>
        <time>2012-12-01T10:22:47Z</time>
      </trkpt>
      <trkpt lat="42.482113000" lon="-2.598651000">
        <ele>398.60</ele>
        <time>2012-12-01T10:23:01Z</time>
      </trkpt>
      <trkpt lat="42.482150000" lon="-2.598638000">
        <ele>398.60</ele>
        <time>2012-12-01T10:23:03Z</time>
      </trkpt>
      <trkpt lat="42.483158000" lon="-2.598188000">
        <ele>401.00</ele>
        <time>2012-12-01T10:23:32Z</time>
      </trkpt>
      <trkpt lat="42.483363000" lon="-2.598058000">
        <ele>400.70</ele>
        <time>2012-12-01T10:23:41Z</time>
      </trkpt>
      <trkpt lat="42.483481000" lon="-2.598016000">
        <ele>400.30</ele>
        <time>2012-12-01T10:23:46Z</time>
      </trkpt>
      <trkpt lat="42.483488000" lon="-2.598011000">
        <ele>400.20</ele>
        <time>2012-12-01T10:23:48Z</time>
      </trkpt>
      <trkpt lat="42.483496000" lon="-2.598008000">
        <ele>400.10</ele>
        <time>2012-12-01T10:23:55Z</time>
      </trkpt>
      <trkpt lat="42.483498000" lon="-2.598004000">
        <ele>400.10</ele>
        <time>2012-12-01T10:23:58Z</time>
      </trkpt>
      <trkpt lat="42.483506000" lon="-2.598004000">
        <ele>400.10</ele>
        <time>2012-12-01T10:24:05Z</time>
      </trkpt>
      <trkpt lat="42.483506000" lon="-2.598006000">
        <ele>400.10</ele>
        <time>2012-12-01T10:24:07Z</time>
      </trkpt>
      <trkpt lat="42.483510000" lon="-2.598006000">
        <ele>400.10</ele>
        <time>2012-12-01T10:24:09Z</time>
      </trkpt>
      <trkpt lat="42.483511000" lon="-2.598006000">
        <ele>400.00</ele>
        <time>2012-12-01T10:24:12Z</time>
      </trkpt>
      <trkpt lat="42.483516000" lon="-2.598006000">
        <ele>400.00</ele>
        <time>2012-12-01T10:24:19Z</time>
      </trkpt>
      <trkpt lat="42.483520000" lon="-2.598008000">
        <ele>400.00</ele>
        <time>2012-12-01T10:24:24Z</time>
      </trkpt>
      <trkpt lat="42.483516000" lon="-2.598009000">
        <ele>400.00</ele>
        <time>2012-12-01T10:24:37Z</time>
      </trkpt>
      <trkpt lat="42.483528000" lon="-2.598008000">
        <ele>400.00</ele>
        <time>2012-12-01T10:24:42Z</time>
      </trkpt>
      <trkpt lat="42.483558000" lon="-2.598006000">
        <ele>399.90</ele>
        <time>2012-12-01T10:24:44Z</time>
      </trkpt>
      <trkpt lat="42.484090000" lon="-2.597564000">
        <ele>400.60</ele>
        <time>2012-12-01T10:25:01Z</time>
      </trkpt>
      <trkpt lat="42.485493000" lon="-2.595584000">
        <ele>405.80</ele>
        <time>2012-12-01T10:25:50Z</time>
      </trkpt>
      <trkpt lat="42.485518000" lon="-2.595558000">
        <ele>405.80</ele>
        <time>2012-12-01T10:25:52Z</time>
      </trkpt>
      <trkpt lat="42.486970000" lon="-2.594274000">
        <ele>405.30</ele>
        <time>2012-12-01T10:26:35Z</time>
      </trkpt>
      <trkpt lat="42.487353000" lon="-2.594199000">
        <ele>403.20</ele>
        <time>2012-12-01T10:26:42Z</time>
      </trkpt>
      <trkpt lat="42.487448000" lon="-2.594146000">
        <ele>403.10</ele>
        <time>2012-12-01T10:26:44Z</time>
      </trkpt>
      <trkpt lat="42.488291000" lon="-2.593229000">
        <ele>407.90</ele>
        <time>2012-12-01T10:27:08Z</time>
      </trkpt>
      <trkpt lat="42.488328000" lon="-2.593199000">
        <ele>408.00</ele>
        <time>2012-12-01T10:27:08Z</time>
      </trkpt>
      <trkpt lat="42.489185000" lon="-2.592923000">
        <ele>402.90</ele>
        <time>2012-12-01T10:27:26Z</time>
      </trkpt>
      <trkpt lat="42.490165000" lon="-2.592408000">
        <ele>404.00</ele>
        <time>2012-12-01T10:27:52Z</time>
      </trkpt>
      <trkpt lat="42.490328000" lon="-2.592264000">
        <ele>403.70</ele>
        <time>2012-12-01T10:27:57Z</time>
      </trkpt>
      <trkpt lat="42.490485000" lon="-2.592091000">
        <ele>403.60</ele>
        <time>2012-12-01T10:28:02Z</time>
      </trkpt>
      <trkpt lat="42.491686000" lon="-2.591481000">
        <ele>407.20</ele>
        <time>2012-12-01T10:28:30Z</time>
      </trkpt>
      <trkpt lat="42.491730000" lon="-2.591469000">
        <ele>407.20</ele>
        <time>2012-12-01T10:28:30Z</time>
      </trkpt>
      <trkpt lat="42.492251000" lon="-2.591603000">
        <ele>405.00</ele>
        <time>2012-12-01T10:28:42Z</time>
      </trkpt>
      <trkpt lat="42.492876000" lon="-2.592009000">
        <ele>401.20</ele>
        <time>2012-12-01T10:28:56Z</time>
      </trkpt>
      <trkpt lat="42.493455000" lon="-2.592559000">
        <ele>402.90</ele>
        <time>2012-12-01T10:29:12Z</time>
      </trkpt>
      <trkpt lat="42.495485000" lon="-2.594274000">
        <ele>402.70</ele>
        <time>2012-12-01T10:30:06Z</time>
      </trkpt>
      <trkpt lat="42.495518000" lon="-2.594313000">
        <ele>402.70</ele>
        <time>2012-12-01T10:30:06Z</time>
      </trkpt>
      <trkpt lat="42.496751000" lon="-2.595604000">
        <ele>400.40</ele>
        <time>2012-12-01T10:30:44Z</time>
      </trkpt>
      <trkpt lat="42.500033000" lon="-2.599963000">
        <ele>399.10</ele>
        <time>2012-12-01T10:32:27Z</time>
      </trkpt>
      <trkpt lat="42.500070000" lon="-2.599999000">
        <ele>399.00</ele>
        <time>2012-12-01T10:32:29Z</time>
      </trkpt>
      <trkpt lat="42.502263000" lon="-2.602149000">
        <ele>404.00</ele>
        <time>2012-12-01T10:33:24Z</time>
      </trkpt>
      <trkpt lat="42.502578000" lon="-2.602756000">
        <ele>404.20</ele>
        <time>2012-12-01T10:33:37Z</time>
      </trkpt>
      <trkpt lat="42.502608000" lon="-2.602799000">
        <ele>404.20</ele>
        <time>2012-12-01T10:33:38Z</time>
      </trkpt>
      <trkpt lat="42.503583000" lon="-2.604618000">
        <ele>399.90</ele>
        <time>2012-12-01T10:34:13Z</time>
      </trkpt>
      <trkpt lat="42.503688000" lon="-2.604923000">
        <ele>400.10</ele>
        <time>2012-12-01T10:34:17Z</time>
      </trkpt>
      <trkpt lat="42.504010000" lon="-2.605544000">
        <ele>401.40</ele>
        <time>2012-12-01T10:34:27Z</time>
      </trkpt>
      <trkpt lat="42.504041000" lon="-2.605589000">
        <ele>401.60</ele>
        <time>2012-12-01T10:34:27Z</time>
      </trkpt>
      <trkpt lat="42.504080000" lon="-2.605626000">
        <ele>401.80</ele>
        <time>2012-12-01T10:34:29Z</time>
      </trkpt>
      <trkpt lat="42.504123000" lon="-2.605654000">
        <ele>402.00</ele>
        <time>2012-12-01T10:34:29Z</time>
      </trkpt>
      <trkpt lat="42.504213000" lon="-2.605683000">
        <ele>402.30</ele>
        <time>2012-12-01T10:34:31Z</time>
      </trkpt>
      <trkpt lat="42.504260000" lon="-2.605686000">
        <ele>402.50</ele>
        <time>2012-12-01T10:34:32Z</time>
      </trkpt>
      <trkpt lat="42.504573000" lon="-2.605646000">
        <ele>403.20</ele>
        <time>2012-12-01T10:34:39Z</time>
      </trkpt>
      <trkpt lat="42.504616000" lon="-2.605653000">
        <ele>403.40</ele>
        <time>2012-12-01T10:34:41Z</time>
      </trkpt>
      <trkpt lat="42.504653000" lon="-2.605673000">
        <ele>403.90</ele>
        <time>2012-12-01T10:34:41Z</time>
      </trkpt>
      <trkpt lat="42.504676000" lon="-2.605711000">
        <ele>404.40</ele>
        <time>2012-12-01T10:34:43Z</time>
      </trkpt>
      <trkpt lat="42.504676000" lon="-2.605759000">
        <ele>404.90</ele>
        <time>2012-12-01T10:34:43Z</time>
      </trkpt>
      <trkpt lat="42.504660000" lon="-2.605803000">
        <ele>405.20</ele>
        <time>2012-12-01T10:34:45Z</time>
      </trkpt>
      <trkpt lat="42.504633000" lon="-2.605838000">
        <ele>405.20</ele>
        <time>2012-12-01T10:34:46Z</time>
      </trkpt>
      <trkpt lat="42.504601000" lon="-2.605864000">
        <ele>405.10</ele>
        <time>2012-12-01T10:34:46Z</time>
      </trkpt>
      <trkpt lat="42.504311000" lon="-2.606039000">
        <ele>404.50</ele>
        <time>2012-12-01T10:34:55Z</time>
      </trkpt>
      <trkpt lat="42.504246000" lon="-2.606106000">
        <ele>404.40</ele>
        <time>2012-12-01T10:34:57Z</time>
      </trkpt>
      <trkpt lat="42.504218000" lon="-2.606146000">
        <ele>404.40</ele>
        <time>2012-12-01T10:34:57Z</time>
      </trkpt>
      <trkpt lat="42.504196000" lon="-2.606191000">
        <ele>404.40</ele>
        <time>2012-12-01T10:34:59Z</time>
      </trkpt>
      <trkpt lat="42.504180000" lon="-2.606243000">
        <ele>404.40</ele>
        <time>2012-12-01T10:35:00Z</time>
      </trkpt>
      <trkpt lat="42.504158000" lon="-2.606461000">
        <ele>404.90</ele>
        <time>2012-12-01T10:35:04Z</time>
      </trkpt>
      <trkpt lat="42.504125000" lon="-2.607416000">
        <ele>406.30</ele>
        <time>2012-12-01T10:35:21Z</time>
      </trkpt>
      <trkpt lat="42.504163000" lon="-2.607904000">
        <ele>406.40</ele>
        <time>2012-12-01T10:35:30Z</time>
      </trkpt>
      <trkpt lat="42.504316000" lon="-2.608444000">
        <ele>410.20</ele>
        <time>2012-12-01T10:35:42Z</time>
      </trkpt>
      <trkpt lat="42.504320000" lon="-2.608486000">
        <ele>410.40</ele>
        <time>2012-12-01T10:35:44Z</time>
      </trkpt>
      <trkpt lat="42.504310000" lon="-2.608529000">
        <ele>410.80</ele>
        <time>2012-12-01T10:35:44Z</time>
      </trkpt>
      <trkpt lat="42.504290000" lon="-2.608563000">
        <ele>410.90</ele>
        <time>2012-12-01T10:35:46Z</time>
      </trkpt>
      <trkpt lat="42.504263000" lon="-2.608588000">
        <ele>411.00</ele>
        <time>2012-12-01T10:35:47Z</time>
      </trkpt>
      <trkpt lat="42.504231000" lon="-2.608604000">
        <ele>411.00</ele>
        <time>2012-12-01T10:35:47Z</time>
      </trkpt>
      <trkpt lat="42.504161000" lon="-2.608623000">
        <ele>410.80</ele>
        <time>2012-12-01T10:35:49Z</time>
      </trkpt>
      <trkpt lat="42.504126000" lon="-2.608623000">
        <ele>410.60</ele>
        <time>2012-12-01T10:35:51Z</time>
      </trkpt>
      <trkpt lat="42.503988000" lon="-2.608604000">
        <ele>409.70</ele>
        <time>2012-12-01T10:35:54Z</time>
      </trkpt>
      <trkpt lat="42.503880000" lon="-2.608619000">
        <ele>409.10</ele>
        <time>2012-12-01T10:35:58Z</time>
      </trkpt>
      <trkpt lat="42.503841000" lon="-2.608634000">
        <ele>408.90</ele>
        <time>2012-12-01T10:35:58Z</time>
      </trkpt>
      <trkpt lat="42.503771000" lon="-2.608683000">
        <ele>408.70</ele>
        <time>2012-12-01T10:36:01Z</time>
      </trkpt>
      <trkpt lat="42.503196000" lon="-2.609336000">
        <ele>407.60</ele>
        <time>2012-12-01T10:36:19Z</time>
      </trkpt>
      <trkpt lat="42.502761000" lon="-2.610221000">
        <ele>407.90</ele>
        <time>2012-12-01T10:36:36Z</time>
      </trkpt>
      <trkpt lat="42.502726000" lon="-2.610271000">
        <ele>408.10</ele>
        <time>2012-12-01T10:36:38Z</time>
      </trkpt>
      <trkpt lat="42.502686000" lon="-2.610308000">
        <ele>408.20</ele>
        <time>2012-12-01T10:36:38Z</time>
      </trkpt>
      <trkpt lat="42.502643000" lon="-2.610328000">
        <ele>408.10</ele>
        <time>2012-12-01T10:36:40Z</time>
      </trkpt>
      <trkpt lat="42.502593000" lon="-2.610324000">
        <ele>407.90</ele>
        <time>2012-12-01T10:36:41Z</time>
      </trkpt>
      <trkpt lat="42.502541000" lon="-2.610299000">
        <ele>407.50</ele>
        <time>2012-12-01T10:36:41Z</time>
      </trkpt>
      <trkpt lat="42.502018000" lon="-2.609781000">
        <ele>402.10</ele>
        <time>2012-12-01T10:36:52Z</time>
      </trkpt>
      <trkpt lat="42.501968000" lon="-2.609753000">
        <ele>402.00</ele>
        <time>2012-12-01T10:36:52Z</time>
      </trkpt>
      <trkpt lat="42.501918000" lon="-2.609744000">
        <ele>401.90</ele>
        <time>2012-12-01T10:36:54Z</time>
      </trkpt>
      <trkpt lat="42.501870000" lon="-2.609756000">
        <ele>401.90</ele>
        <time>2012-12-01T10:36:55Z</time>
      </trkpt>
      <trkpt lat="42.501825000" lon="-2.609784000">
        <ele>402.00</ele>
        <time>2012-12-01T10:36:55Z</time>
      </trkpt>
      <trkpt lat="42.501048000" lon="-2.610673000">
        <ele>402.80</ele>
        <time>2012-12-01T10:37:18Z</time>
      </trkpt>
      <trkpt lat="42.500846000" lon="-2.610869000">
        <ele>402.70</ele>
        <time>2012-12-01T10:37:23Z</time>
      </trkpt>
      <trkpt lat="42.500796000" lon="-2.610954000">
        <ele>402.70</ele>
        <time>2012-12-01T10:37:25Z</time>
      </trkpt>
      <trkpt lat="42.500666000" lon="-2.611308000">
        <ele>403.00</ele>
        <time>2012-12-01T10:37:32Z</time>
      </trkpt>
      <trkpt lat="42.500641000" lon="-2.611356000">
        <ele>403.10</ele>
        <time>2012-12-01T10:37:34Z</time>
      </trkpt>
      <trkpt lat="42.500580000" lon="-2.611441000">
        <ele>403.30</ele>
        <time>2012-12-01T10:37:35Z</time>
      </trkpt>
      <trkpt lat="42.500545000" lon="-2.611476000">
        <ele>403.40</ele>
        <time>2012-12-01T10:37:37Z</time>
      </trkpt>
      <trkpt lat="42.500178000" lon="-2.611648000">
        <ele>403.60</ele>
        <time>2012-12-01T10:37:46Z</time>
      </trkpt>
      <trkpt lat="42.499901000" lon="-2.611906000">
        <ele>403.90</ele>
        <time>2012-12-01T10:37:53Z</time>
      </trkpt>
      <trkpt lat="42.499865000" lon="-2.611931000">
        <ele>403.90</ele>
        <time>2012-12-01T10:37:54Z</time>
      </trkpt>
      <trkpt lat="42.499055000" lon="-2.612484000">
        <ele>405.00</ele>
        <time>2012-12-01T10:38:17Z</time>
      </trkpt>
      <trkpt lat="42.499015000" lon="-2.612491000">
        <ele>405.00</ele>
        <time>2012-12-01T10:38:17Z</time>
      </trkpt>
      <trkpt lat="42.498975000" lon="-2.612489000">
        <ele>405.00</ele>
        <time>2012-12-01T10:38:19Z</time>
      </trkpt>
      <trkpt lat="42.498896000" lon="-2.612464000">
        <ele>405.00</ele>
        <time>2012-12-01T10:38:21Z</time>
      </trkpt>
      <trkpt lat="42.498408000" lon="-2.612094000">
        <ele>403.50</ele>
        <time>2012-12-01T10:38:33Z</time>
      </trkpt>
      <trkpt lat="42.498321000" lon="-2.612053000">
        <ele>403.50</ele>
        <time>2012-12-01T10:38:36Z</time>
      </trkpt>
      <trkpt lat="42.498276000" lon="-2.612043000">
        <ele>403.50</ele>
        <time>2012-12-01T10:38:36Z</time>
      </trkpt>
      <trkpt lat="42.498231000" lon="-2.612043000">
        <ele>403.50</ele>
        <time>2012-12-01T10:38:38Z</time>
      </trkpt>
      <trkpt lat="42.498141000" lon="-2.612066000">
        <ele>403.60</ele>
        <time>2012-12-01T10:38:40Z</time>
      </trkpt>
      <trkpt lat="42.497715000" lon="-2.612283000">
        <ele>403.50</ele>
        <time>2012-12-01T10:38:50Z</time>
      </trkpt>
      <trkpt lat="42.497540000" lon="-2.612336000">
        <ele>402.90</ele>
        <time>2012-12-01T10:38:54Z</time>
      </trkpt>
      <trkpt lat="42.497418000" lon="-2.612416000">
        <ele>402.60</ele>
        <time>2012-12-01T10:38:57Z</time>
      </trkpt>
      <trkpt lat="42.497383000" lon="-2.612453000">
        <ele>402.50</ele>
        <time>2012-12-01T10:38:57Z</time>
      </trkpt>
      <trkpt lat="42.497323000" lon="-2.612536000">
        <ele>402.40</ele>
        <time>2012-12-01T10:38:59Z</time>
      </trkpt>
      <trkpt lat="42.497266000" lon="-2.612683000">
        <ele>402.60</ele>
        <time>2012-12-01T10:39:02Z</time>
      </trkpt>
      <trkpt lat="42.497226000" lon="-2.612833000">
        <ele>402.90</ele>
        <time>2012-12-01T10:39:06Z</time>
      </trkpt>
      <trkpt lat="42.497220000" lon="-2.612883000">
        <ele>403.00</ele>
        <time>2012-12-01T10:39:06Z</time>
      </trkpt>
      <trkpt lat="42.497218000" lon="-2.612934000">
        <ele>403.20</ele>
        <time>2012-12-01T10:39:08Z</time>
      </trkpt>
      <trkpt lat="42.497228000" lon="-2.612983000">
        <ele>403.30</ele>
        <time>2012-12-01T10:39:09Z</time>
      </trkpt>
      <trkpt lat="42.497245000" lon="-2.613026000">
        <ele>403.50</ele>
        <time>2012-12-01T10:39:09Z</time>
      </trkpt>
      <trkpt lat="42.497296000" lon="-2.613094000">
        <ele>403.90</ele>
        <time>2012-12-01T10:39:11Z</time>
      </trkpt>
      <trkpt lat="42.497913000" lon="-2.613784000">
        <ele>408.90</ele>
        <time>2012-12-01T10:39:32Z</time>
      </trkpt>
      <trkpt lat="42.498145000" lon="-2.613938000">
        <ele>410.70</ele>
        <time>2012-12-01T10:39:41Z</time>
      </trkpt>
      <trkpt lat="42.498213000" lon="-2.614013000">
        <ele>411.30</ele>
        <time>2012-12-01T10:39:44Z</time>
      </trkpt>
      <trkpt lat="42.498388000" lon="-2.614251000">
        <ele>413.00</ele>
        <time>2012-12-01T10:39:53Z</time>
      </trkpt>
      <trkpt lat="42.498543000" lon="-2.614381000">
        <ele>413.90</ele>
        <time>2012-12-01T10:39:58Z</time>
      </trkpt>
      <trkpt lat="42.498570000" lon="-2.614396000">
        <ele>413.90</ele>
        <time>2012-12-01T10:40:00Z</time>
      </trkpt>
      <trkpt lat="42.498770000" lon="-2.614569000">
        <ele>414.80</ele>
        <time>2012-12-01T10:40:07Z</time>
      </trkpt>
      <trkpt lat="42.498848000" lon="-2.614703000">
        <ele>415.00</ele>
        <time>2012-12-01T10:40:12Z</time>
      </trkpt>
      <trkpt lat="42.499151000" lon="-2.615344000">
        <ele>415.70</ele>
        <time>2012-12-01T10:40:28Z</time>
      </trkpt>
      <trkpt lat="42.499175000" lon="-2.615379000">
        <ele>415.80</ele>
        <time>2012-12-01T10:40:28Z</time>
      </trkpt>
      <trkpt lat="42.499203000" lon="-2.615409000">
        <ele>415.90</ele>
        <time>2012-12-01T10:40:29Z</time>
      </trkpt>
      <trkpt lat="42.499233000" lon="-2.615433000">
        <ele>416.00</ele>
        <time>2012-12-01T10:40:31Z</time>
      </trkpt>
      <trkpt lat="42.499266000" lon="-2.615451000">
        <ele>416.10</ele>
        <time>2012-12-01T10:40:31Z</time>
      </trkpt>
      <trkpt lat="42.499596000" lon="-2.615493000">
        <ele>417.10</ele>
        <time>2012-12-01T10:40:40Z</time>
      </trkpt>
      <trkpt lat="42.499633000" lon="-2.615493000">
        <ele>417.20</ele>
        <time>2012-12-01T10:40:42Z</time>
      </trkpt>
      <trkpt lat="42.500288000" lon="-2.615608000">
        <ele>421.00</ele>
        <time>2012-12-01T10:41:01Z</time>
      </trkpt>
      <trkpt lat="42.500320000" lon="-2.615619000">
        <ele>421.10</ele>
        <time>2012-12-01T10:41:01Z</time>
      </trkpt>
      <trkpt lat="42.500776000" lon="-2.615764000">
        <ele>424.90</ele>
        <time>2012-12-01T10:41:17Z</time>
      </trkpt>
      <trkpt lat="42.501190000" lon="-2.615724000">
        <ele>426.50</ele>
        <time>2012-12-01T10:41:30Z</time>
      </trkpt>
      <trkpt lat="42.501220000" lon="-2.615726000">
        <ele>426.70</ele>
        <time>2012-12-01T10:41:32Z</time>
      </trkpt>
      <trkpt lat="42.501248000" lon="-2.615726000">
        <ele>426.80</ele>
        <time>2012-12-01T10:41:32Z</time>
      </trkpt>
      <trkpt lat="42.501471000" lon="-2.615754000">
        <ele>428.10</ele>
        <time>2012-12-01T10:41:41Z</time>
      </trkpt>
      <trkpt lat="42.501590000" lon="-2.615803000">
        <ele>428.80</ele>
        <time>2012-12-01T10:41:46Z</time>
      </trkpt>
      <trkpt lat="42.501611000" lon="-2.615818000">
        <ele>429.00</ele>
        <time>2012-12-01T10:41:46Z</time>
      </trkpt>
      <trkpt lat="42.501693000" lon="-2.615928000">
        <ele>429.40</ele>
        <time>2012-12-01T10:41:51Z</time>
      </trkpt>
      <trkpt lat="42.501765000" lon="-2.616078000">
        <ele>429.60</ele>
        <time>2012-12-01T10:41:58Z</time>
      </trkpt>
      <trkpt lat="42.501808000" lon="-2.616141000">
        <ele>429.80</ele>
        <time>2012-12-01T10:42:00Z</time>
      </trkpt>
      <trkpt lat="42.501913000" lon="-2.616236000">
        <ele>430.10</ele>
        <time>2012-12-01T10:42:07Z</time>
      </trkpt>
      <trkpt lat="42.501933000" lon="-2.616248000">
        <ele>430.10</ele>
        <time>2012-12-01T10:42:07Z</time>
      </trkpt>
      <trkpt lat="42.502138000" lon="-2.616314000">
        <ele>431.20</ele>
        <time>2012-12-01T10:42:17Z</time>
      </trkpt>
      <trkpt lat="42.502200000" lon="-2.616309000">
        <ele>431.60</ele>
        <time>2012-12-01T10:42:21Z</time>
      </trkpt>
      <trkpt lat="42.502415000" lon="-2.616248000">
        <ele>433.10</ele>
        <time>2012-12-01T10:42:30Z</time>
      </trkpt>
      <trkpt lat="42.502440000" lon="-2.616246000">
        <ele>433.30</ele>
        <time>2012-12-01T10:42:31Z</time>
      </trkpt>
      <trkpt lat="42.502536000" lon="-2.616219000">
        <ele>434.10</ele>
        <time>2012-12-01T10:42:37Z</time>
      </trkpt>
      <trkpt lat="42.502603000" lon="-2.616219000">
        <ele>434.60</ele>
        <time>2012-12-01T10:42:40Z</time>
      </trkpt>
      <trkpt lat="42.502703000" lon="-2.616238000">
        <ele>435.30</ele>
        <time>2012-12-01T10:42:47Z</time>
      </trkpt>
      <trkpt lat="42.502756000" lon="-2.616234000">
        <ele>435.60</ele>
        <time>2012-12-01T10:42:49Z</time>
      </trkpt>
      <trkpt lat="42.502826000" lon="-2.616248000">
        <ele>436.20</ele>
        <time>2012-12-01T10:42:54Z</time>
      </trkpt>
      <trkpt lat="42.502851000" lon="-2.616266000">
        <ele>436.40</ele>
        <time>2012-12-01T10:42:56Z</time>
      </trkpt>
      <trkpt lat="42.502878000" lon="-2.616276000">
        <ele>436.60</ele>
        <time>2012-12-01T10:42:59Z</time>
      </trkpt>
      <trkpt lat="42.502891000" lon="-2.616278000">
        <ele>436.60</ele>
        <time>2012-12-01T10:42:59Z</time>
      </trkpt>
      <trkpt lat="42.502903000" lon="-2.616278000">
        <ele>436.70</ele>
        <time>2012-12-01T10:43:01Z</time>
      </trkpt>
      <trkpt lat="42.502911000" lon="-2.616283000">
        <ele>436.80</ele>
        <time>2012-12-01T10:43:01Z</time>
      </trkpt>
      <trkpt lat="42.502913000" lon="-2.616286000">
        <ele>436.90</ele>
        <time>2012-12-01T10:43:03Z</time>
      </trkpt>
      <trkpt lat="42.502913000" lon="-2.616288000">
        <ele>436.90</ele>
        <time>2012-12-01T10:43:03Z</time>
      </trkpt>
      <trkpt lat="42.502918000" lon="-2.616288000">
        <ele>436.90</ele>
        <time>2012-12-01T10:43:08Z</time>
      </trkpt>
      <trkpt lat="42.502920000" lon="-2.616288000">
        <ele>437.00</ele>
        <time>2012-12-01T10:43:08Z</time>
      </trkpt>
      <trkpt lat="42.502920000" lon="-2.616286000">
        <ele>437.00</ele>
        <time>2012-12-01T10:43:10Z</time>
      </trkpt>
      <trkpt lat="42.502923000" lon="-2.616284000">
        <ele>437.00</ele>
        <time>2012-12-01T10:43:13Z</time>
      </trkpt>
      <trkpt lat="42.502921000" lon="-2.616281000">
        <ele>437.00</ele>
        <time>2012-12-01T10:43:15Z</time>
      </trkpt>
      <trkpt lat="42.502923000" lon="-2.616281000">
        <ele>437.00</ele>
        <time>2012-12-01T10:43:15Z</time>
      </trkpt>
      <trkpt lat="42.502923000" lon="-2.616279000">
        <ele>437.00</ele>
        <time>2012-12-01T10:43:22Z</time>
      </trkpt>
      <trkpt lat="42.502920000" lon="-2.616289000">
        <ele>437.00</ele>
        <time>2012-12-01T10:43:39Z</time>
      </trkpt>
      <trkpt lat="42.502923000" lon="-2.616286000">
        <ele>437.00</ele>
        <time>2012-12-01T10:43:43Z</time>
      </trkpt>
      <trkpt lat="42.502928000" lon="-2.616286000">
        <ele>437.00</ele>
        <time>2012-12-01T10:43:48Z</time>
      </trkpt>
      <trkpt lat="42.502931000" lon="-2.616284000">
        <ele>437.00</ele>
        <time>2012-12-01T10:43:48Z</time>
      </trkpt>
      <trkpt lat="42.503041000" lon="-2.616311000">
        <ele>437.40</ele>
        <time>2012-12-01T10:43:55Z</time>
      </trkpt>
      <trkpt lat="42.503121000" lon="-2.616339000">
        <ele>437.80</ele>
        <time>2012-12-01T10:44:00Z</time>
      </trkpt>
      <trkpt lat="42.503855000" lon="-2.616608000">
        <ele>441.80</ele>
        <time>2012-12-01T10:44:30Z</time>
      </trkpt>
      <trkpt lat="42.503878000" lon="-2.616621000">
        <ele>441.90</ele>
        <time>2012-12-01T10:44:30Z</time>
      </trkpt>
      <trkpt lat="42.504950000" lon="-2.616979000">
        <ele>448.10</ele>
        <time>2012-12-01T10:45:15Z</time>
      </trkpt>
      <trkpt lat="42.505001000" lon="-2.616979000">
        <ele>448.40</ele>
        <time>2012-12-01T10:45:17Z</time>
      </trkpt>
      <trkpt lat="42.505433000" lon="-2.617023000">
        <ele>451.40</ele>
        <time>2012-12-01T10:45:33Z</time>
      </trkpt>
      <trkpt lat="42.505471000" lon="-2.617023000">
        <ele>451.60</ele>
        <time>2012-12-01T10:45:34Z</time>
      </trkpt>
      <trkpt lat="42.505686000" lon="-2.617038000">
        <ele>453.90</ele>
        <time>2012-12-01T10:45:38Z</time>
      </trkpt>
      <trkpt lat="42.506028000" lon="-2.616948000">
        <ele>456.70</ele>
        <time>2012-12-01T10:45:45Z</time>
      </trkpt>
      <trkpt lat="42.506451000" lon="-2.616574000">
        <ele>455.20</ele>
        <time>2012-12-01T10:45:57Z</time>
      </trkpt>
      <trkpt lat="42.506553000" lon="-2.616528000">
        <ele>454.80</ele>
        <time>2012-12-01T10:46:00Z</time>
      </trkpt>
      <trkpt lat="42.506626000" lon="-2.616521000">
        <ele>454.90</ele>
        <time>2012-12-01T10:46:02Z</time>
      </trkpt>
      <trkpt lat="42.506738000" lon="-2.616529000">
        <ele>455.20</ele>
        <time>2012-12-01T10:46:06Z</time>
      </trkpt>
      <trkpt lat="42.507273000" lon="-2.616678000">
        <ele>457.20</ele>
        <time>2012-12-01T10:46:21Z</time>
      </trkpt>
      <trkpt lat="42.507358000" lon="-2.616683000">
        <ele>456.80</ele>
        <time>2012-12-01T10:46:23Z</time>
      </trkpt>
      <trkpt lat="42.507555000" lon="-2.616656000">
        <ele>455.70</ele>
        <time>2012-12-01T10:46:28Z</time>
      </trkpt>
      <trkpt lat="42.508226000" lon="-2.616406000">
        <ele>451.90</ele>
        <time>2012-12-01T10:46:46Z</time>
      </trkpt>
      <trkpt lat="42.508263000" lon="-2.616399000">
        <ele>451.90</ele>
        <time>2012-12-01T10:46:46Z</time>
      </trkpt>
      <trkpt lat="42.509516000" lon="-2.616164000">
        <ele>454.60</ele>
        <time>2012-12-01T10:47:24Z</time>
      </trkpt>
      <trkpt lat="42.509618000" lon="-2.616176000">
        <ele>455.00</ele>
        <time>2012-12-01T10:47:26Z</time>
      </trkpt>
      <trkpt lat="42.510085000" lon="-2.616243000">
        <ele>454.40</ele>
        <time>2012-12-01T10:47:38Z</time>
      </trkpt>
      <trkpt lat="42.510165000" lon="-2.616243000">
        <ele>454.30</ele>
        <time>2012-12-01T10:47:40Z</time>
      </trkpt>
      <trkpt lat="42.510243000" lon="-2.616246000">
        <ele>454.20</ele>
        <time>2012-12-01T10:47:43Z</time>
      </trkpt>
      <trkpt lat="42.510280000" lon="-2.616246000">
        <ele>454.20</ele>
        <time>2012-12-01T10:47:43Z</time>
      </trkpt>
      <trkpt lat="42.510351000" lon="-2.616251000">
        <ele>454.10</ele>
        <time>2012-12-01T10:47:45Z</time>
      </trkpt>
      <trkpt lat="42.510421000" lon="-2.616251000">
        <ele>454.00</ele>
        <time>2012-12-01T10:47:47Z</time>
      </trkpt>
      <trkpt lat="42.510553000" lon="-2.616256000">
        <ele>453.60</ele>
        <time>2012-12-01T10:47:52Z</time>
      </trkpt>
      <trkpt lat="42.510873000" lon="-2.616234000">
        <ele>452.50</ele>
        <time>2012-12-01T10:48:04Z</time>
      </trkpt>
      <trkpt lat="42.510881000" lon="-2.616236000">
        <ele>452.40</ele>
        <time>2012-12-01T10:48:04Z</time>
      </trkpt>
      <trkpt lat="42.510886000" lon="-2.616238000">
        <ele>452.40</ele>
        <time>2012-12-01T10:48:06Z</time>
      </trkpt>
      <trkpt lat="42.510888000" lon="-2.616239000">
        <ele>452.30</ele>
        <time>2012-12-01T10:48:08Z</time>
      </trkpt>
      <trkpt lat="42.510890000" lon="-2.616238000">
        <ele>452.30</ele>
        <time>2012-12-01T10:48:09Z</time>
      </trkpt>
      <trkpt lat="42.510893000" lon="-2.616239000">
        <ele>452.30</ele>
        <time>2012-12-01T10:48:11Z</time>
      </trkpt>
      <trkpt lat="42.510895000" lon="-2.616236000">
        <ele>452.30</ele>
        <time>2012-12-01T10:48:11Z</time>
      </trkpt>
      <trkpt lat="42.510901000" lon="-2.616233000">
        <ele>452.30</ele>
        <time>2012-12-01T10:48:13Z</time>
      </trkpt>
      <trkpt lat="42.510905000" lon="-2.616233000">
        <ele>452.30</ele>
        <time>2012-12-01T10:48:13Z</time>
      </trkpt>
      <trkpt lat="42.510908000" lon="-2.616236000">
        <ele>452.30</ele>
        <time>2012-12-01T10:48:20Z</time>
      </trkpt>
      <trkpt lat="42.510910000" lon="-2.616234000">
        <ele>452.30</ele>
        <time>2012-12-01T10:48:20Z</time>
      </trkpt>
      <trkpt lat="42.510906000" lon="-2.616234000">
        <ele>452.30</ele>
        <time>2012-12-01T10:48:22Z</time>
      </trkpt>
      <trkpt lat="42.510901000" lon="-2.616228000">
        <ele>452.30</ele>
        <time>2012-12-01T10:48:23Z</time>
      </trkpt>
      <trkpt lat="42.510900000" lon="-2.616218000">
        <ele>452.30</ele>
        <time>2012-12-01T10:48:23Z</time>
      </trkpt>
      <trkpt lat="42.510901000" lon="-2.616211000">
        <ele>452.40</ele>
        <time>2012-12-01T10:48:25Z</time>
      </trkpt>
      <trkpt lat="42.510905000" lon="-2.616203000">
        <ele>452.40</ele>
        <time>2012-12-01T10:48:27Z</time>
      </trkpt>
      <trkpt lat="42.510905000" lon="-2.616203000">
        <ele>452.40</ele>
        <time>2012-12-01T10:48:29Z</time>
      </trkpt>
      <trkpt lat="42.510906000" lon="-2.616201000">
        <ele>452.50</ele>
        <time>2012-12-01T10:48:32Z</time>
      </trkpt>
      <trkpt lat="42.510910000" lon="-2.616201000">
        <ele>452.50</ele>
        <time>2012-12-01T10:48:51Z</time>
      </trkpt>
      <trkpt lat="42.510910000" lon="-2.616199000">
        <ele>452.50</ele>
        <time>2012-12-01T10:48:58Z</time>
      </trkpt>
      <trkpt lat="42.510910000" lon="-2.616201000">
        <ele>452.50</ele>
        <time>2012-12-01T10:49:00Z</time>
      </trkpt>
      <trkpt lat="42.510910000" lon="-2.616199000">
        <ele>452.50</ele>
        <time>2012-12-01T10:49:02Z</time>
      </trkpt>
      <trkpt lat="42.510916000" lon="-2.616199000">
        <ele>452.50</ele>
        <time>2012-12-01T10:49:54Z</time>
      </trkpt>
      <trkpt lat="42.510916000" lon="-2.616199000">
        <ele>452.50</ele>
        <time>2012-12-01T10:49:56Z</time>
      </trkpt>
      <trkpt lat="42.510915000" lon="-2.616199000">
        <ele>452.50</ele>
        <time>2012-12-01T10:50:17Z</time>
      </trkpt>
      <trkpt lat="42.510915000" lon="-2.616199000">
        <ele>452.50</ele>
        <time>2012-12-01T10:50:36Z</time>
      </trkpt>
      <trkpt lat="42.510918000" lon="-2.616203000">
        <ele>452.40</ele>
        <time>2012-12-01T10:50:37Z</time>
      </trkpt>
      <trkpt lat="42.510916000" lon="-2.616203000">
        <ele>452.40</ele>
        <time>2012-12-01T10:50:39Z</time>
      </trkpt>
      <trkpt lat="42.510916000" lon="-2.616199000">
        <ele>452.40</ele>
        <time>2012-12-01T10:50:48Z</time>
      </trkpt>
      <trkpt lat="42.510916000" lon="-2.616198000">
        <ele>452.50</ele>
        <time>2012-12-01T10:50:57Z</time>
      </trkpt>
      <trkpt lat="42.510916000" lon="-2.616198000">
        <ele>452.50</ele>
        <time>2012-12-01T10:51:02Z</time>
      </trkpt>
      <trkpt lat="42.510916000" lon="-2.616199000">
        <ele>452.40</ele>
        <time>2012-12-01T10:51:05Z</time>
      </trkpt>
      <trkpt lat="42.510915000" lon="-2.616199000">
        <ele>452.50</ele>
        <time>2012-12-01T10:51:14Z</time>
      </trkpt>
      <trkpt lat="42.510916000" lon="-2.616199000">
        <ele>452.50</ele>
        <time>2012-12-01T10:51:19Z</time>
      </trkpt>
      <trkpt lat="42.510916000" lon="-2.616199000">
        <ele>452.50</ele>
        <time>2012-12-01T10:51:19Z</time>
      </trkpt>
      <trkpt lat="42.510915000" lon="-2.616199000">
        <ele>452.50</ele>
        <time>2012-12-01T10:51:24Z</time>
      </trkpt>
      <trkpt lat="42.510911000" lon="-2.616199000">
        <ele>452.50</ele>
        <time>2012-12-01T10:51:47Z</time>
      </trkpt>
      <trkpt lat="42.510910000" lon="-2.616203000">
        <ele>452.50</ele>
        <time>2012-12-01T10:52:20Z</time>
      </trkpt>
      <trkpt lat="42.510908000" lon="-2.616203000">
        <ele>452.50</ele>
        <time>2012-12-01T10:52:24Z</time>
      </trkpt>
      <trkpt lat="42.510908000" lon="-2.616204000">
        <ele>452.40</ele>
        <time>2012-12-01T10:52:32Z</time>
      </trkpt>
      <trkpt lat="42.510908000" lon="-2.616206000">
        <ele>452.40</ele>
        <time>2012-12-01T10:52:41Z</time>
      </trkpt>
      <trkpt lat="42.510906000" lon="-2.616206000">
        <ele>452.40</ele>
        <time>2012-12-01T10:52:46Z</time>
      </trkpt>
      <trkpt lat="42.510906000" lon="-2.616216000">
        <ele>452.40</ele>
        <time>2012-12-01T10:54:17Z</time>
      </trkpt>
      <trkpt lat="42.510908000" lon="-2.616216000">
        <ele>452.40</ele>
        <time>2012-12-01T10:55:02Z</time>
      </trkpt>
      <trkpt lat="42.510908000" lon="-2.616204000">
        <ele>452.40</ele>
        <time>2012-12-01T10:56:05Z</time>
      </trkpt>
      <trkpt lat="42.510908000" lon="-2.616206000">
        <ele>452.40</ele>
        <time>2012-12-01T10:56:07Z</time>
      </trkpt>
      <trkpt lat="42.510906000" lon="-2.616206000">
        <ele>452.40</ele>
        <time>2012-12-01T10:56:10Z</time>
      </trkpt>
      <trkpt lat="42.510908000" lon="-2.616206000">
        <ele>452.40</ele>
        <time>2012-12-01T10:56:12Z</time>
      </trkpt>
      <trkpt lat="42.510908000" lon="-2.616204000">
        <ele>452.40</ele>
        <time>2012-12-01T10:56:12Z</time>
      </trkpt>
      <trkpt lat="42.510908000" lon="-2.616203000">
        <ele>452.50</ele>
        <time>2012-12-01T10:56:17Z</time>
      </trkpt>
      <trkpt lat="42.510908000" lon="-2.616201000">
        <ele>452.50</ele>
        <time>2012-12-01T10:56:24Z</time>
      </trkpt>
      <trkpt lat="42.510910000" lon="-2.616201000">
        <ele>452.50</ele>
        <time>2012-12-01T10:56:28Z</time>
      </trkpt>
      <trkpt lat="42.510911000" lon="-2.616189000">
        <ele>452.50</ele>
        <time>2012-12-01T10:57:22Z</time>
      </trkpt>
      <trkpt lat="42.510915000" lon="-2.616208000">
        <ele>452.50</ele>
        <time>2012-12-01T10:57:27Z</time>
      </trkpt>
      <trkpt lat="42.510913000" lon="-2.616218000">
        <ele>452.40</ele>
        <time>2012-12-01T10:57:29Z</time>
      </trkpt>
      <trkpt lat="42.510913000" lon="-2.616229000">
        <ele>452.40</ele>
        <time>2012-12-01T10:57:30Z</time>
      </trkpt>
      <trkpt lat="42.510911000" lon="-2.616236000">
        <ele>452.30</ele>
        <time>2012-12-01T10:57:30Z</time>
      </trkpt>
      <trkpt lat="42.510910000" lon="-2.616238000">
        <ele>452.30</ele>
        <time>2012-12-01T10:57:32Z</time>
      </trkpt>
      <trkpt lat="42.510908000" lon="-2.616239000">
        <ele>452.30</ele>
        <time>2012-12-01T10:57:34Z</time>
      </trkpt>
      <trkpt lat="42.510906000" lon="-2.616239000">
        <ele>452.20</ele>
        <time>2012-12-01T10:57:34Z</time>
      </trkpt>
      <trkpt lat="42.510908000" lon="-2.616239000">
        <ele>452.20</ele>
        <time>2012-12-01T10:57:36Z</time>
      </trkpt>
      <trkpt lat="42.510908000" lon="-2.616244000">
        <ele>452.20</ele>
        <time>2012-12-01T10:57:39Z</time>
      </trkpt>
      <trkpt lat="42.510906000" lon="-2.616244000">
        <ele>452.20</ele>
        <time>2012-12-01T10:57:39Z</time>
      </trkpt>
      <trkpt lat="42.510908000" lon="-2.616241000">
        <ele>452.20</ele>
        <time>2012-12-01T10:57:44Z</time>
      </trkpt>
      <trkpt lat="42.510918000" lon="-2.616236000">
        <ele>452.20</ele>
        <time>2012-12-01T10:57:51Z</time>
      </trkpt>
      <trkpt lat="42.510913000" lon="-2.616233000">
        <ele>452.20</ele>
        <time>2012-12-01T10:57:58Z</time>
      </trkpt>
      <trkpt lat="42.510913000" lon="-2.616233000">
        <ele>452.20</ele>
        <time>2012-12-01T10:57:58Z</time>
      </trkpt>
      <trkpt lat="42.510911000" lon="-2.616233000">
        <ele>452.30</ele>
        <time>2012-12-01T10:58:00Z</time>
      </trkpt>
      <trkpt lat="42.510911000" lon="-2.616231000">
        <ele>452.30</ele>
        <time>2012-12-01T10:58:00Z</time>
      </trkpt>
      <trkpt lat="42.510906000" lon="-2.616231000">
        <ele>452.30</ele>
        <time>2012-12-01T10:58:05Z</time>
      </trkpt>
      <trkpt lat="42.510905000" lon="-2.616228000">
        <ele>452.30</ele>
        <time>2012-12-01T10:58:12Z</time>
      </trkpt>
      <trkpt lat="42.510910000" lon="-2.616229000">
        <ele>452.30</ele>
        <time>2012-12-01T10:58:26Z</time>
      </trkpt>
      <trkpt lat="42.510915000" lon="-2.616226000">
        <ele>452.30</ele>
        <time>2012-12-01T10:58:31Z</time>
      </trkpt>
      <trkpt lat="42.510923000" lon="-2.616224000">
        <ele>452.30</ele>
        <time>2012-12-01T10:58:33Z</time>
      </trkpt>
      <trkpt lat="42.510931000" lon="-2.616224000">
        <ele>452.30</ele>
        <time>2012-12-01T10:58:33Z</time>
      </trkpt>
      <trkpt lat="42.510940000" lon="-2.616224000">
        <ele>452.20</ele>
        <time>2012-12-01T10:58:35Z</time>
      </trkpt>
      <trkpt lat="42.510981000" lon="-2.616221000">
        <ele>452.10</ele>
        <time>2012-12-01T10:58:40Z</time>
      </trkpt>
      <trkpt lat="42.511041000" lon="-2.616238000">
        <ele>451.90</ele>
        <time>2012-12-01T10:58:43Z</time>
      </trkpt>
      <trkpt lat="42.511801000" lon="-2.616641000">
        <ele>445.90</ele>
        <time>2012-12-01T10:58:59Z</time>
      </trkpt>
      <trkpt lat="42.511830000" lon="-2.616664000">
        <ele>445.50</ele>
        <time>2012-12-01T10:58:59Z</time>
      </trkpt>
      <trkpt lat="42.511920000" lon="-2.616794000">
        <ele>444.10</ele>
        <time>2012-12-01T10:59:03Z</time>
      </trkpt>
      <trkpt lat="42.512013000" lon="-2.616861000">
        <ele>443.00</ele>
        <time>2012-12-01T10:59:04Z</time>
      </trkpt>
      <trkpt lat="42.512071000" lon="-2.616883000">
        <ele>442.70</ele>
        <time>2012-12-01T10:59:06Z</time>
      </trkpt>
      <trkpt lat="42.512131000" lon="-2.616891000">
        <ele>441.90</ele>
        <time>2012-12-01T10:59:06Z</time>
      </trkpt>
      <trkpt lat="42.512250000" lon="-2.616863000">
        <ele>441.20</ele>
        <time>2012-12-01T10:59:08Z</time>
      </trkpt>
      <trkpt lat="42.512360000" lon="-2.616799000">
        <ele>440.80</ele>
        <time>2012-12-01T10:59:11Z</time>
      </trkpt>
      <trkpt lat="42.512421000" lon="-2.616796000">
        <ele>440.50</ele>
        <time>2012-12-01T10:59:11Z</time>
      </trkpt>
      <trkpt lat="42.512663000" lon="-2.616891000">
        <ele>438.70</ele>
        <time>2012-12-01T10:59:15Z</time>
      </trkpt>
      <trkpt lat="42.512716000" lon="-2.616871000">
        <ele>438.40</ele>
        <time>2012-12-01T10:59:17Z</time>
      </trkpt>
      <trkpt lat="42.512800000" lon="-2.616761000">
        <ele>438.00</ele>
        <time>2012-12-01T10:59:18Z</time>
      </trkpt>
      <trkpt lat="42.513011000" lon="-2.616419000">
        <ele>438.10</ele>
        <time>2012-12-01T10:59:25Z</time>
      </trkpt>
      <trkpt lat="42.513550000" lon="-2.615943000">
        <ele>438.90</ele>
        <time>2012-12-01T10:59:39Z</time>
      </trkpt>
      <trkpt lat="42.513646000" lon="-2.615891000">
        <ele>438.60</ele>
        <time>2012-12-01T10:59:43Z</time>
      </trkpt>
      <trkpt lat="42.513701000" lon="-2.615883000">
        <ele>438.30</ele>
        <time>2012-12-01T10:59:44Z</time>
      </trkpt>
      <trkpt lat="42.513726000" lon="-2.615884000">
        <ele>438.20</ele>
        <time>2012-12-01T10:59:46Z</time>
      </trkpt>
      <trkpt lat="42.513746000" lon="-2.615893000">
        <ele>438.00</ele>
        <time>2012-12-01T10:59:46Z</time>
      </trkpt>
      <trkpt lat="42.513761000" lon="-2.615904000">
        <ele>437.90</ele>
        <time>2012-12-01T10:59:48Z</time>
      </trkpt>
      <trkpt lat="42.513771000" lon="-2.615921000">
        <ele>437.90</ele>
        <time>2012-12-01T10:59:48Z</time>
      </trkpt>
      <trkpt lat="42.513776000" lon="-2.615968000">
        <ele>437.80</ele>
        <time>2012-12-01T10:59:50Z</time>
      </trkpt>
      <trkpt lat="42.513781000" lon="-2.616101000">
        <ele>437.60</ele>
        <time>2012-12-01T10:59:55Z</time>
      </trkpt>
      <trkpt lat="42.513770000" lon="-2.616136000">
        <ele>437.50</ele>
        <time>2012-12-01T10:59:55Z</time>
      </trkpt>
      <trkpt lat="42.513465000" lon="-2.616649000">
        <ele>437.50</ele>
        <time>2012-12-01T11:00:09Z</time>
      </trkpt>
      <trkpt lat="42.513446000" lon="-2.616691000">
        <ele>437.50</ele>
        <time>2012-12-01T11:00:11Z</time>
      </trkpt>
      <trkpt lat="42.513146000" lon="-2.617926000">
        <ele>437.50</ele>
        <time>2012-12-01T11:00:35Z</time>
      </trkpt>
      <trkpt lat="42.513046000" lon="-2.618701000">
        <ele>438.70</ele>
        <time>2012-12-01T11:00:49Z</time>
      </trkpt>
      <trkpt lat="42.512901000" lon="-2.619131000">
        <ele>438.80</ele>
        <time>2012-12-01T11:00:58Z</time>
      </trkpt>
      <trkpt lat="42.512720000" lon="-2.619459000">
        <ele>438.60</ele>
        <time>2012-12-01T11:01:05Z</time>
      </trkpt>
      <trkpt lat="42.512205000" lon="-2.619956000">
        <ele>437.30</ele>
        <time>2012-12-01T11:01:18Z</time>
      </trkpt>
      <trkpt lat="42.512161000" lon="-2.619986000">
        <ele>437.20</ele>
        <time>2012-12-01T11:01:20Z</time>
      </trkpt>
      <trkpt lat="42.509938000" lon="-2.622586000">
        <ele>431.50</ele>
        <time>2012-12-01T11:02:14Z</time>
      </trkpt>
      <trkpt lat="42.509393000" lon="-2.623853000">
        <ele>432.30</ele>
        <time>2012-12-01T11:02:37Z</time>
      </trkpt>
      <trkpt lat="42.509363000" lon="-2.623904000">
        <ele>432.40</ele>
        <time>2012-12-01T11:02:39Z</time>
      </trkpt>
      <trkpt lat="42.508338000" lon="-2.624956000">
        <ele>435.20</ele>
        <time>2012-12-01T11:03:03Z</time>
      </trkpt>
      <trkpt lat="42.507388000" lon="-2.625679000">
        <ele>432.10</ele>
        <time>2012-12-01T11:03:24Z</time>
      </trkpt>
      <trkpt lat="42.506800000" lon="-2.626441000">
        <ele>429.60</ele>
        <time>2012-12-01T11:03:41Z</time>
      </trkpt>
      <trkpt lat="42.506771000" lon="-2.626491000">
        <ele>429.60</ele>
        <time>2012-12-01T11:03:43Z</time>
      </trkpt>
      <trkpt lat="42.505888000" lon="-2.627944000">
        <ele>430.70</ele>
        <time>2012-12-01T11:04:18Z</time>
      </trkpt>
      <trkpt lat="42.505868000" lon="-2.628089000">
        <ele>432.70</ele>
        <time>2012-12-01T11:04:23Z</time>
      </trkpt>
      <trkpt lat="42.505866000" lon="-2.628166000">
        <ele>433.80</ele>
        <time>2012-12-01T11:04:27Z</time>
      </trkpt>
      <trkpt lat="42.505846000" lon="-2.628241000">
        <ele>434.90</ele>
        <time>2012-12-01T11:04:30Z</time>
      </trkpt>
      <trkpt lat="42.505836000" lon="-2.628266000">
        <ele>435.20</ele>
        <time>2012-12-01T11:04:30Z</time>
      </trkpt>
      <trkpt lat="42.505635000" lon="-2.628563000">
        <ele>439.50</ele>
        <time>2012-12-01T11:04:42Z</time>
      </trkpt>
      <trkpt lat="42.505615000" lon="-2.628583000">
        <ele>439.70</ele>
        <time>2012-12-01T11:04:44Z</time>
      </trkpt>
      <trkpt lat="42.505250000" lon="-2.628928000">
        <ele>445.00</ele>
        <time>2012-12-01T11:05:03Z</time>
      </trkpt>
      <trkpt lat="42.505095000" lon="-2.629114000">
        <ele>447.60</ele>
        <time>2012-12-01T11:05:12Z</time>
      </trkpt>
      <trkpt lat="42.505053000" lon="-2.629196000">
        <ele>448.90</ele>
        <time>2012-12-01T11:05:17Z</time>
      </trkpt>
      <trkpt lat="42.505040000" lon="-2.629274000">
        <ele>450.30</ele>
        <time>2012-12-01T11:05:22Z</time>
      </trkpt>
      <trkpt lat="42.505025000" lon="-2.629533000">
        <ele>455.10</ele>
        <time>2012-12-01T11:05:35Z</time>
      </trkpt>
      <trkpt lat="42.505021000" lon="-2.629551000">
        <ele>455.50</ele>
        <time>2012-12-01T11:05:36Z</time>
      </trkpt>
      <trkpt lat="42.505021000" lon="-2.629571000">
        <ele>455.80</ele>
        <time>2012-12-01T11:05:36Z</time>
      </trkpt>
      <trkpt lat="42.505018000" lon="-2.629591000">
        <ele>456.20</ele>
        <time>2012-12-01T11:05:38Z</time>
      </trkpt>
      <trkpt lat="42.505013000" lon="-2.629609000">
        <ele>456.60</ele>
        <time>2012-12-01T11:05:38Z</time>
      </trkpt>
      <trkpt lat="42.505001000" lon="-2.629668000">
        <ele>458.00</ele>
        <time>2012-12-01T11:05:42Z</time>
      </trkpt>
      <trkpt lat="42.504988000" lon="-2.629706000">
        <ele>458.90</ele>
        <time>2012-12-01T11:05:43Z</time>
      </trkpt>
      <trkpt lat="42.504980000" lon="-2.629723000">
        <ele>459.10</ele>
        <time>2012-12-01T11:05:45Z</time>
      </trkpt>
      <trkpt lat="42.504866000" lon="-2.629881000">
        <ele>463.00</ele>
        <time>2012-12-01T11:05:54Z</time>
      </trkpt>
      <trkpt lat="42.504680000" lon="-2.630029000">
        <ele>466.20</ele>
        <time>2012-12-01T11:06:09Z</time>
      </trkpt>
      <trkpt lat="42.504668000" lon="-2.630036000">
        <ele>466.40</ele>
        <time>2012-12-01T11:06:09Z</time>
      </trkpt>
      <trkpt lat="42.504656000" lon="-2.630046000">
        <ele>466.60</ele>
        <time>2012-12-01T11:06:11Z</time>
      </trkpt>
      <trkpt lat="42.504560000" lon="-2.630114000">
        <ele>468.10</ele>
        <time>2012-12-01T11:06:18Z</time>
      </trkpt>
      <trkpt lat="42.504490000" lon="-2.630174000">
        <ele>469.60</ele>
        <time>2012-12-01T11:06:25Z</time>
      </trkpt>
      <trkpt lat="42.504433000" lon="-2.630233000">
        <ele>470.90</ele>
        <time>2012-12-01T11:06:30Z</time>
      </trkpt>
      <trkpt lat="42.504423000" lon="-2.630246000">
        <ele>471.20</ele>
        <time>2012-12-01T11:06:30Z</time>
      </trkpt>
      <trkpt lat="42.504340000" lon="-2.630326000">
        <ele>473.20</ele>
        <time>2012-12-01T11:06:37Z</time>
      </trkpt>
      <trkpt lat="42.504326000" lon="-2.630334000">
        <ele>473.40</ele>
        <time>2012-12-01T11:06:39Z</time>
      </trkpt>
      <trkpt lat="42.504253000" lon="-2.630404000">
        <ele>474.90</ele>
        <time>2012-12-01T11:06:44Z</time>
      </trkpt>
      <trkpt lat="42.504240000" lon="-2.630413000">
        <ele>475.10</ele>
        <time>2012-12-01T11:06:46Z</time>
      </trkpt>
      <trkpt lat="42.504150000" lon="-2.630493000">
        <ele>476.50</ele>
        <time>2012-12-01T11:06:53Z</time>
      </trkpt>
      <trkpt lat="42.503908000" lon="-2.630634000">
        <ele>477.80</ele>
        <time>2012-12-01T11:07:10Z</time>
      </trkpt>
      <trkpt lat="42.503861000" lon="-2.630651000">
        <ele>477.80</ele>
        <time>2012-12-01T11:07:12Z</time>
      </trkpt>
      <trkpt lat="42.503848000" lon="-2.630661000">
        <ele>477.80</ele>
        <time>2012-12-01T11:07:14Z</time>
      </trkpt>
      <trkpt lat="42.503818000" lon="-2.630673000">
        <ele>477.80</ele>
        <time>2012-12-01T11:07:16Z</time>
      </trkpt>
      <trkpt lat="42.503748000" lon="-2.630719000">
        <ele>477.90</ele>
        <time>2012-12-01T11:07:21Z</time>
      </trkpt>
      <trkpt lat="42.503733000" lon="-2.630726000">
        <ele>477.90</ele>
        <time>2012-12-01T11:07:21Z</time>
      </trkpt>
      <trkpt lat="42.503705000" lon="-2.630746000">
        <ele>478.10</ele>
        <time>2012-12-01T11:07:24Z</time>
      </trkpt>
      <trkpt lat="42.503660000" lon="-2.630771000">
        <ele>478.30</ele>
        <time>2012-12-01T11:07:26Z</time>
      </trkpt>
      <trkpt lat="42.503573000" lon="-2.630833000">
        <ele>478.90</ele>
        <time>2012-12-01T11:07:33Z</time>
      </trkpt>
      <trkpt lat="42.503545000" lon="-2.630848000">
        <ele>479.10</ele>
        <time>2012-12-01T11:07:35Z</time>
      </trkpt>
      <trkpt lat="42.503520000" lon="-2.630873000">
        <ele>479.30</ele>
        <time>2012-12-01T11:07:36Z</time>
      </trkpt>
      <trkpt lat="42.503486000" lon="-2.630911000">
        <ele>479.50</ele>
        <time>2012-12-01T11:07:40Z</time>
      </trkpt>
      <trkpt lat="42.503435000" lon="-2.630951000">
        <ele>479.80</ele>
        <time>2012-12-01T11:07:43Z</time>
      </trkpt>
      <trkpt lat="42.503406000" lon="-2.630966000">
        <ele>479.90</ele>
        <time>2012-12-01T11:07:45Z</time>
      </trkpt>
      <trkpt lat="42.503393000" lon="-2.630976000">
        <ele>479.90</ele>
        <time>2012-12-01T11:07:47Z</time>
      </trkpt>
      <trkpt lat="42.503263000" lon="-2.631074000">
        <ele>480.40</ele>
        <time>2012-12-01T11:07:57Z</time>
      </trkpt>
      <trkpt lat="42.503190000" lon="-2.631134000">
        <ele>480.50</ele>
        <time>2012-12-01T11:08:03Z</time>
      </trkpt>
      <trkpt lat="42.503180000" lon="-2.631148000">
        <ele>480.50</ele>
        <time>2012-12-01T11:08:04Z</time>
      </trkpt>
      <trkpt lat="42.503168000" lon="-2.631159000">
        <ele>480.50</ele>
        <time>2012-12-01T11:08:04Z</time>
      </trkpt>
      <trkpt lat="42.503138000" lon="-2.631201000">
        <ele>480.60</ele>
        <time>2012-12-01T11:08:08Z</time>
      </trkpt>
      <trkpt lat="42.503101000" lon="-2.631233000">
        <ele>480.60</ele>
        <time>2012-12-01T11:08:11Z</time>
      </trkpt>
      <trkpt lat="42.503085000" lon="-2.631263000">
        <ele>480.60</ele>
        <time>2012-12-01T11:08:13Z</time>
      </trkpt>
      <trkpt lat="42.503075000" lon="-2.631299000">
        <ele>480.60</ele>
        <time>2012-12-01T11:08:15Z</time>
      </trkpt>
      <trkpt lat="42.503068000" lon="-2.631316000">
        <ele>480.60</ele>
        <time>2012-12-01T11:08:15Z</time>
      </trkpt>
      <trkpt lat="42.503040000" lon="-2.631359000">
        <ele>480.60</ele>
        <time>2012-12-01T11:08:18Z</time>
      </trkpt>
      <trkpt lat="42.503028000" lon="-2.631371000">
        <ele>480.60</ele>
        <time>2012-12-01T11:08:20Z</time>
      </trkpt>
      <trkpt lat="42.502920000" lon="-2.631538000">
        <ele>480.30</ele>
        <time>2012-12-01T11:08:30Z</time>
      </trkpt>
      <trkpt lat="42.502858000" lon="-2.631601000">
        <ele>480.20</ele>
        <time>2012-12-01T11:08:36Z</time>
      </trkpt>
      <trkpt lat="42.502833000" lon="-2.631636000">
        <ele>480.10</ele>
        <time>2012-12-01T11:08:39Z</time>
      </trkpt>
      <trkpt lat="42.502816000" lon="-2.631649000">
        <ele>480.00</ele>
        <time>2012-12-01T11:08:41Z</time>
      </trkpt>
      <trkpt lat="42.502813000" lon="-2.631649000">
        <ele>480.00</ele>
        <time>2012-12-01T11:08:43Z</time>
      </trkpt>
      <trkpt lat="42.502813000" lon="-2.631651000">
        <ele>479.90</ele>
        <time>2012-12-01T11:08:44Z</time>
      </trkpt>
      <trkpt lat="42.502811000" lon="-2.631651000">
        <ele>479.90</ele>
        <time>2012-12-01T11:08:46Z</time>
      </trkpt>
      <trkpt lat="42.502811000" lon="-2.631653000">
        <ele>479.90</ele>
        <time>2012-12-01T11:08:48Z</time>
      </trkpt>
      <trkpt lat="42.502808000" lon="-2.631656000">
        <ele>479.90</ele>
        <time>2012-12-01T11:08:48Z</time>
      </trkpt>
      <trkpt lat="42.502806000" lon="-2.631656000">
        <ele>479.90</ele>
        <time>2012-12-01T11:08:50Z</time>
      </trkpt>
      <trkpt lat="42.502806000" lon="-2.631658000">
        <ele>479.90</ele>
        <time>2012-12-01T11:08:55Z</time>
      </trkpt>
      <trkpt lat="42.502803000" lon="-2.631658000">
        <ele>479.90</ele>
        <time>2012-12-01T11:09:04Z</time>
      </trkpt>
      <trkpt lat="42.502801000" lon="-2.631661000">
        <ele>479.90</ele>
        <time>2012-12-01T11:09:12Z</time>
      </trkpt>
      <trkpt lat="42.502800000" lon="-2.631649000">
        <ele>479.90</ele>
        <time>2012-12-01T11:09:52Z</time>
      </trkpt>
      <trkpt lat="42.502796000" lon="-2.631646000">
        <ele>479.90</ele>
        <time>2012-12-01T11:09:54Z</time>
      </trkpt>
      <trkpt lat="42.502795000" lon="-2.631646000">
        <ele>479.90</ele>
        <time>2012-12-01T11:09:56Z</time>
      </trkpt>
      <trkpt lat="42.502793000" lon="-2.631646000">
        <ele>479.80</ele>
        <time>2012-12-01T11:09:58Z</time>
      </trkpt>
      <trkpt lat="42.502793000" lon="-2.631644000">
        <ele>479.80</ele>
        <time>2012-12-01T11:09:59Z</time>
      </trkpt>
      <trkpt lat="42.502795000" lon="-2.631643000">
        <ele>479.80</ele>
        <time>2012-12-01T11:10:03Z</time>
      </trkpt>
      <trkpt lat="42.502796000" lon="-2.631644000">
        <ele>479.90</ele>
        <time>2012-12-01T11:10:05Z</time>
      </trkpt>
      <trkpt lat="42.502800000" lon="-2.631643000">
        <ele>479.90</ele>
        <time>2012-12-01T11:10:13Z</time>
      </trkpt>
      <trkpt lat="42.502801000" lon="-2.631648000">
        <ele>479.90</ele>
        <time>2012-12-01T11:10:15Z</time>
      </trkpt>
      <trkpt lat="42.502805000" lon="-2.631649000">
        <ele>479.90</ele>
        <time>2012-12-01T11:10:22Z</time>
      </trkpt>
      <trkpt lat="42.502803000" lon="-2.631651000">
        <ele>479.90</ele>
        <time>2012-12-01T11:10:27Z</time>
      </trkpt>
      <trkpt lat="42.502803000" lon="-2.631658000">
        <ele>479.90</ele>
        <time>2012-12-01T11:10:34Z</time>
      </trkpt>
      <trkpt lat="42.502803000" lon="-2.631656000">
        <ele>479.90</ele>
        <time>2012-12-01T11:10:34Z</time>
      </trkpt>
      <trkpt lat="42.502790000" lon="-2.631683000">
        <ele>479.90</ele>
        <time>2012-12-01T11:10:41Z</time>
      </trkpt>
      <trkpt lat="42.502781000" lon="-2.631699000">
        <ele>479.80</ele>
        <time>2012-12-01T11:10:43Z</time>
      </trkpt>
      <trkpt lat="42.502761000" lon="-2.631726000">
        <ele>479.80</ele>
        <time>2012-12-01T11:10:46Z</time>
      </trkpt>
      <trkpt lat="42.502670000" lon="-2.631819000">
        <ele>479.40</ele>
        <time>2012-12-01T11:10:52Z</time>
      </trkpt>
      <trkpt lat="42.502655000" lon="-2.631844000">
        <ele>479.40</ele>
        <time>2012-12-01T11:10:53Z</time>
      </trkpt>
      <trkpt lat="42.502135000" lon="-2.632703000">
        <ele>476.50</ele>
        <time>2012-12-01T11:11:09Z</time>
      </trkpt>
      <trkpt lat="42.501738000" lon="-2.636173000">
        <ele>476.40</ele>
        <time>2012-12-01T11:12:01Z</time>
      </trkpt>
      <trkpt lat="42.501740000" lon="-2.636236000">
        <ele>476.50</ele>
        <time>2012-12-01T11:12:01Z</time>
      </trkpt>
      <trkpt lat="42.501650000" lon="-2.638726000">
        <ele>475.10</ele>
        <time>2012-12-01T11:12:43Z</time>
      </trkpt>
      <trkpt lat="42.501343000" lon="-2.639859000">
        <ele>471.70</ele>
        <time>2012-12-01T11:13:02Z</time>
      </trkpt>
      <trkpt lat="42.501311000" lon="-2.639931000">
        <ele>471.60</ele>
        <time>2012-12-01T11:13:04Z</time>
      </trkpt>
      <trkpt lat="42.501255000" lon="-2.640146000">
        <ele>471.10</ele>
        <time>2012-12-01T11:13:06Z</time>
      </trkpt>
      <trkpt lat="42.501256000" lon="-2.640221000">
        <ele>471.10</ele>
        <time>2012-12-01T11:13:07Z</time>
      </trkpt>
      <trkpt lat="42.501271000" lon="-2.640289000">
        <ele>471.10</ele>
        <time>2012-12-01T11:13:09Z</time>
      </trkpt>
      <trkpt lat="42.501746000" lon="-2.641184000">
        <ele>474.70</ele>
        <time>2012-12-01T11:13:27Z</time>
      </trkpt>
      <trkpt lat="42.502760000" lon="-2.642249000">
        <ele>476.60</ele>
        <time>2012-12-01T11:13:58Z</time>
      </trkpt>
      <trkpt lat="42.504215000" lon="-2.643359000">
        <ele>484.50</ele>
        <time>2012-12-01T11:14:50Z</time>
      </trkpt>
      <trkpt lat="42.504241000" lon="-2.643373000">
        <ele>484.60</ele>
        <time>2012-12-01T11:14:50Z</time>
      </trkpt>
      <trkpt lat="42.505365000" lon="-2.643976000">
        <ele>490.70</ele>
        <time>2012-12-01T11:15:32Z</time>
      </trkpt>
      <trkpt lat="42.505473000" lon="-2.644019000">
        <ele>491.40</ele>
        <time>2012-12-01T11:15:35Z</time>
      </trkpt>
      <trkpt lat="42.505826000" lon="-2.644084000">
        <ele>493.10</ele>
        <time>2012-12-01T11:15:48Z</time>
      </trkpt>
      <trkpt lat="42.505853000" lon="-2.644098000">
        <ele>493.30</ele>
        <time>2012-12-01T11:15:48Z</time>
      </trkpt>
      <trkpt lat="42.505876000" lon="-2.644114000">
        <ele>493.40</ele>
        <time>2012-12-01T11:15:49Z</time>
      </trkpt>
      <trkpt lat="42.505895000" lon="-2.644141000">
        <ele>493.40</ele>
        <time>2012-12-01T11:15:51Z</time>
      </trkpt>
      <trkpt lat="42.505906000" lon="-2.644174000">
        <ele>493.50</ele>
        <time>2012-12-01T11:15:51Z</time>
      </trkpt>
      <trkpt lat="42.505910000" lon="-2.644214000">
        <ele>493.40</ele>
        <time>2012-12-01T11:15:53Z</time>
      </trkpt>
      <trkpt lat="42.505800000" lon="-2.644948000">
        <ele>492.40</ele>
        <time>2012-12-01T11:16:03Z</time>
      </trkpt>
      <trkpt lat="42.505485000" lon="-2.645983000">
        <ele>494.60</ele>
        <time>2012-12-01T11:16:24Z</time>
      </trkpt>
      <trkpt lat="42.505213000" lon="-2.646583000">
        <ele>496.30</ele>
        <time>2012-12-01T11:16:40Z</time>
      </trkpt>
      <trkpt lat="42.505120000" lon="-2.646724000">
        <ele>496.60</ele>
        <time>2012-12-01T11:16:45Z</time>
      </trkpt>
      <trkpt lat="42.504846000" lon="-2.647076000">
        <ele>496.80</ele>
        <time>2012-12-01T11:16:59Z</time>
      </trkpt>
      <trkpt lat="42.504828000" lon="-2.647108000">
        <ele>496.90</ele>
        <time>2012-12-01T11:16:59Z</time>
      </trkpt>
      <trkpt lat="42.504646000" lon="-2.647383000">
        <ele>497.50</ele>
        <time>2012-12-01T11:17:08Z</time>
      </trkpt>
      <trkpt lat="42.504490000" lon="-2.647646000">
        <ele>497.70</ele>
        <time>2012-12-01T11:17:17Z</time>
      </trkpt>
      <trkpt lat="42.504183000" lon="-2.647998000">
        <ele>498.20</ele>
        <time>2012-12-01T11:17:27Z</time>
      </trkpt>
      <trkpt lat="42.504066000" lon="-2.648194000">
        <ele>498.70</ele>
        <time>2012-12-01T11:17:30Z</time>
      </trkpt>
      <trkpt lat="42.504025000" lon="-2.648293000">
        <ele>499.10</ele>
        <time>2012-12-01T11:17:32Z</time>
      </trkpt>
      <trkpt lat="42.503983000" lon="-2.648483000">
        <ele>499.80</ele>
        <time>2012-12-01T11:17:36Z</time>
      </trkpt>
      <trkpt lat="42.503880000" lon="-2.649369000">
        <ele>498.10</ele>
        <time>2012-12-01T11:17:57Z</time>
      </trkpt>
      <trkpt lat="42.503816000" lon="-2.649819000">
        <ele>496.40</ele>
        <time>2012-12-01T11:18:05Z</time>
      </trkpt>
      <trkpt lat="42.503815000" lon="-2.649874000">
        <ele>496.40</ele>
        <time>2012-12-01T11:18:07Z</time>
      </trkpt>
      <trkpt lat="42.503890000" lon="-2.650339000">
        <ele>496.10</ele>
        <time>2012-12-01T11:18:14Z</time>
      </trkpt>
      <trkpt lat="42.504486000" lon="-2.651443000">
        <ele>486.20</ele>
        <time>2012-12-01T11:18:26Z</time>
      </trkpt>
      <trkpt lat="42.504948000" lon="-2.652093000">
        <ele>479.70</ele>
        <time>2012-12-01T11:18:33Z</time>
      </trkpt>
      <trkpt lat="42.505250000" lon="-2.652579000">
        <ele>472.40</ele>
        <time>2012-12-01T11:18:38Z</time>
      </trkpt>
      <trkpt lat="42.505755000" lon="-2.653068000">
        <ele>463.60</ele>
        <time>2012-12-01T11:18:45Z</time>
      </trkpt>
      <trkpt lat="42.505801000" lon="-2.653173000">
        <ele>462.50</ele>
        <time>2012-12-01T11:18:45Z</time>
      </trkpt>
      <trkpt lat="42.505816000" lon="-2.653286000">
        <ele>461.40</ele>
        <time>2012-12-01T11:18:47Z</time>
      </trkpt>
      <trkpt lat="42.505816000" lon="-2.653608000">
        <ele>457.90</ele>
        <time>2012-12-01T11:18:49Z</time>
      </trkpt>
      <trkpt lat="42.505861000" lon="-2.654083000">
        <ele>453.50</ele>
        <time>2012-12-01T11:18:54Z</time>
      </trkpt>
      <trkpt lat="42.505876000" lon="-2.654151000">
        <ele>453.00</ele>
        <time>2012-12-01T11:18:56Z</time>
      </trkpt>
      <trkpt lat="42.505901000" lon="-2.654199000">
        <ele>452.70</ele>
        <time>2012-12-01T11:18:56Z</time>
      </trkpt>
      <trkpt lat="42.505940000" lon="-2.654221000">
        <ele>452.60</ele>
        <time>2012-12-01T11:18:58Z</time>
      </trkpt>
      <trkpt lat="42.505980000" lon="-2.654211000">
        <ele>452.80</ele>
        <time>2012-12-01T11:18:59Z</time>
      </trkpt>
      <trkpt lat="42.506015000" lon="-2.654184000">
        <ele>453.20</ele>
        <time>2012-12-01T11:18:59Z</time>
      </trkpt>
      <trkpt lat="42.506045000" lon="-2.654149000">
        <ele>453.60</ele>
        <time>2012-12-01T11:19:01Z</time>
      </trkpt>
      <trkpt lat="42.506425000" lon="-2.653569000">
        <ele>458.20</ele>
        <time>2012-12-01T11:19:15Z</time>
      </trkpt>
      <trkpt lat="42.506455000" lon="-2.653534000">
        <ele>458.40</ele>
        <time>2012-12-01T11:19:17Z</time>
      </trkpt>
      <trkpt lat="42.506741000" lon="-2.653279000">
        <ele>461.50</ele>
        <time>2012-12-01T11:19:25Z</time>
      </trkpt>
      <trkpt lat="42.506778000" lon="-2.653273000">
        <ele>461.70</ele>
        <time>2012-12-01T11:19:27Z</time>
      </trkpt>
      <trkpt lat="42.506815000" lon="-2.653281000">
        <ele>461.90</ele>
        <time>2012-12-01T11:19:27Z</time>
      </trkpt>
      <trkpt lat="42.506851000" lon="-2.653298000">
        <ele>461.90</ele>
        <time>2012-12-01T11:19:29Z</time>
      </trkpt>
      <trkpt lat="42.506885000" lon="-2.653328000">
        <ele>461.80</ele>
        <time>2012-12-01T11:19:29Z</time>
      </trkpt>
      <trkpt lat="42.507028000" lon="-2.653533000">
        <ele>460.00</ele>
        <time>2012-12-01T11:19:34Z</time>
      </trkpt>
      <trkpt lat="42.507201000" lon="-2.653688000">
        <ele>458.70</ele>
        <time>2012-12-01T11:19:39Z</time>
      </trkpt>
      <trkpt lat="42.507230000" lon="-2.653723000">
        <ele>458.50</ele>
        <time>2012-12-01T11:19:41Z</time>
      </trkpt>
      <trkpt lat="42.507275000" lon="-2.653819000">
        <ele>458.20</ele>
        <time>2012-12-01T11:19:43Z</time>
      </trkpt>
      <trkpt lat="42.507450000" lon="-2.654279000">
        <ele>456.30</ele>
        <time>2012-12-01T11:19:50Z</time>
      </trkpt>
      <trkpt lat="42.507455000" lon="-2.654299000">
        <ele>456.10</ele>
        <time>2012-12-01T11:19:52Z</time>
      </trkpt>
      <trkpt lat="42.507456000" lon="-2.654316000">
        <ele>456.00</ele>
        <time>2012-12-01T11:19:53Z</time>
      </trkpt>
      <trkpt lat="42.507461000" lon="-2.654333000">
        <ele>455.80</ele>
        <time>2012-12-01T11:19:53Z</time>
      </trkpt>
      <trkpt lat="42.507468000" lon="-2.654346000">
        <ele>455.70</ele>
        <time>2012-12-01T11:19:55Z</time>
      </trkpt>
      <trkpt lat="42.507525000" lon="-2.654481000">
        <ele>454.90</ele>
        <time>2012-12-01T11:20:02Z</time>
      </trkpt>
      <trkpt lat="42.507618000" lon="-2.654919000">
        <ele>453.10</ele>
        <time>2012-12-01T11:20:12Z</time>
      </trkpt>
      <trkpt lat="42.507623000" lon="-2.655003000">
        <ele>452.90</ele>
        <time>2012-12-01T11:20:14Z</time>
      </trkpt>
      <trkpt lat="42.507590000" lon="-2.655261000">
        <ele>452.00</ele>
        <time>2012-12-01T11:20:21Z</time>
      </trkpt>
      <trkpt lat="42.507580000" lon="-2.655303000">
        <ele>452.00</ele>
        <time>2012-12-01T11:20:21Z</time>
      </trkpt>
      <trkpt lat="42.507551000" lon="-2.655471000">
        <ele>451.20</ele>
        <time>2012-12-01T11:20:25Z</time>
      </trkpt>
      <trkpt lat="42.507558000" lon="-2.655508000">
        <ele>451.00</ele>
        <time>2012-12-01T11:20:26Z</time>
      </trkpt>
      <trkpt lat="42.507571000" lon="-2.655543000">
        <ele>450.80</ele>
        <time>2012-12-01T11:20:28Z</time>
      </trkpt>
      <trkpt lat="42.507590000" lon="-2.655574000">
        <ele>450.70</ele>
        <time>2012-12-01T11:20:28Z</time>
      </trkpt>
      <trkpt lat="42.507643000" lon="-2.655619000">
        <ele>450.70</ele>
        <time>2012-12-01T11:20:30Z</time>
      </trkpt>
      <trkpt lat="42.508131000" lon="-2.655771000">
        <ele>452.40</ele>
        <time>2012-12-01T11:20:42Z</time>
      </trkpt>
      <trkpt lat="42.508175000" lon="-2.655794000">
        <ele>452.30</ele>
        <time>2012-12-01T11:20:42Z</time>
      </trkpt>
      <trkpt lat="42.508213000" lon="-2.655828000">
        <ele>452.20</ele>
        <time>2012-12-01T11:20:44Z</time>
      </trkpt>
      <trkpt lat="42.508245000" lon="-2.655871000">
        <ele>452.10</ele>
        <time>2012-12-01T11:20:44Z</time>
      </trkpt>
      <trkpt lat="42.508271000" lon="-2.655926000">
        <ele>452.00</ele>
        <time>2012-12-01T11:20:46Z</time>
      </trkpt>
      <trkpt lat="42.508345000" lon="-2.656241000">
        <ele>451.20</ele>
        <time>2012-12-01T11:20:49Z</time>
      </trkpt>
      <trkpt lat="42.508450000" lon="-2.657149000">
        <ele>450.10</ele>
        <time>2012-12-01T11:20:58Z</time>
      </trkpt>
      <trkpt lat="42.508733000" lon="-2.658103000">
        <ele>448.10</ele>
        <time>2012-12-01T11:21:10Z</time>
      </trkpt>
      <trkpt lat="42.508761000" lon="-2.658164000">
        <ele>447.90</ele>
        <time>2012-12-01T11:21:10Z</time>
      </trkpt>
      <trkpt lat="42.508801000" lon="-2.658213000">
        <ele>447.60</ele>
        <time>2012-12-01T11:21:12Z</time>
      </trkpt>
      <trkpt lat="42.508851000" lon="-2.658234000">
        <ele>447.30</ele>
        <time>2012-12-01T11:21:12Z</time>
      </trkpt>
      <trkpt lat="42.509001000" lon="-2.658254000">
        <ele>446.50</ele>
        <time>2012-12-01T11:21:15Z</time>
      </trkpt>
      <trkpt lat="42.509048000" lon="-2.658254000">
        <ele>446.20</ele>
        <time>2012-12-01T11:21:17Z</time>
      </trkpt>
      <trkpt lat="42.509235000" lon="-2.658278000">
        <ele>445.00</ele>
        <time>2012-12-01T11:21:20Z</time>
      </trkpt>
      <trkpt lat="42.509700000" lon="-2.658168000">
        <ele>443.20</ele>
        <time>2012-12-01T11:21:29Z</time>
      </trkpt>
      <trkpt lat="42.509743000" lon="-2.658176000">
        <ele>443.10</ele>
        <time>2012-12-01T11:21:31Z</time>
      </trkpt>
      <trkpt lat="42.509775000" lon="-2.658209000">
        <ele>443.10</ele>
        <time>2012-12-01T11:21:31Z</time>
      </trkpt>
      <trkpt lat="42.509791000" lon="-2.658266000">
        <ele>443.00</ele>
        <time>2012-12-01T11:21:33Z</time>
      </trkpt>
      <trkpt lat="42.509811000" lon="-2.658568000">
        <ele>442.30</ele>
        <time>2012-12-01T11:21:36Z</time>
      </trkpt>
      <trkpt lat="42.509773000" lon="-2.658911000">
        <ele>441.60</ele>
        <time>2012-12-01T11:21:41Z</time>
      </trkpt>
      <trkpt lat="42.509778000" lon="-2.658999000">
        <ele>441.50</ele>
        <time>2012-12-01T11:21:41Z</time>
      </trkpt>
      <trkpt lat="42.509811000" lon="-2.659158000">
        <ele>441.60</ele>
        <time>2012-12-01T11:21:43Z</time>
      </trkpt>
      <trkpt lat="42.509820000" lon="-2.659301000">
        <ele>441.60</ele>
        <time>2012-12-01T11:21:45Z</time>
      </trkpt>
      <trkpt lat="42.509793000" lon="-2.659599000">
        <ele>441.70</ele>
        <time>2012-12-01T11:21:50Z</time>
      </trkpt>
      <trkpt lat="42.509803000" lon="-2.659784000">
        <ele>441.60</ele>
        <time>2012-12-01T11:21:52Z</time>
      </trkpt>
      <trkpt lat="42.509821000" lon="-2.659884000">
        <ele>441.50</ele>
        <time>2012-12-01T11:21:52Z</time>
      </trkpt>
      <trkpt lat="42.509956000" lon="-2.660274000">
        <ele>440.30</ele>
        <time>2012-12-01T11:21:57Z</time>
      </trkpt>
      <trkpt lat="42.510038000" lon="-2.660719000">
        <ele>438.20</ele>
        <time>2012-12-01T11:22:00Z</time>
      </trkpt>
      <trkpt lat="42.510045000" lon="-2.660833000">
        <ele>437.60</ele>
        <time>2012-12-01T11:22:02Z</time>
      </trkpt>
      <trkpt lat="42.509968000" lon="-2.661404000">
        <ele>436.30</ele>
        <time>2012-12-01T11:22:06Z</time>
      </trkpt>
      <trkpt lat="42.509966000" lon="-2.661516000">
        <ele>436.30</ele>
        <time>2012-12-01T11:22:07Z</time>
      </trkpt>
      <trkpt lat="42.510033000" lon="-2.661903000">
        <ele>435.10</ele>
        <time>2012-12-01T11:22:11Z</time>
      </trkpt>
      <trkpt lat="42.510141000" lon="-2.662299000">
        <ele>432.60</ele>
        <time>2012-12-01T11:22:16Z</time>
      </trkpt>
      <trkpt lat="42.510171000" lon="-2.662354000">
        <ele>432.00</ele>
        <time>2012-12-01T11:22:18Z</time>
      </trkpt>
      <trkpt lat="42.510210000" lon="-2.662386000">
        <ele>431.40</ele>
        <time>2012-12-01T11:22:18Z</time>
      </trkpt>
      <trkpt lat="42.510250000" lon="-2.662398000">
        <ele>430.80</ele>
        <time>2012-12-01T11:22:20Z</time>
      </trkpt>
      <trkpt lat="42.510286000" lon="-2.662401000">
        <ele>430.20</ele>
        <time>2012-12-01T11:22:21Z</time>
      </trkpt>
      <trkpt lat="42.510791000" lon="-2.662344000">
        <ele>431.20</ele>
        <time>2012-12-01T11:22:37Z</time>
      </trkpt>
      <trkpt lat="42.510813000" lon="-2.662346000">
        <ele>431.30</ele>
        <time>2012-12-01T11:22:39Z</time>
      </trkpt>
      <trkpt lat="42.510851000" lon="-2.662346000">
        <ele>431.90</ele>
        <time>2012-12-01T11:22:41Z</time>
      </trkpt>
      <trkpt lat="42.510925000" lon="-2.662359000">
        <ele>432.70</ele>
        <time>2012-12-01T11:22:44Z</time>
      </trkpt>
      <trkpt lat="42.510988000" lon="-2.662396000">
        <ele>433.40</ele>
        <time>2012-12-01T11:22:49Z</time>
      </trkpt>
      <trkpt lat="42.511090000" lon="-2.662501000">
        <ele>434.50</ele>
        <time>2012-12-01T11:22:56Z</time>
      </trkpt>
      <trkpt lat="42.511258000" lon="-2.662763000">
        <ele>436.70</ele>
        <time>2012-12-01T11:23:14Z</time>
      </trkpt>
      <trkpt lat="42.511270000" lon="-2.662774000">
        <ele>436.90</ele>
        <time>2012-12-01T11:23:14Z</time>
      </trkpt>
      <trkpt lat="42.511430000" lon="-2.662874000">
        <ele>439.20</ele>
        <time>2012-12-01T11:23:26Z</time>
      </trkpt>
      <trkpt lat="42.511591000" lon="-2.662953000">
        <ele>441.50</ele>
        <time>2012-12-01T11:23:36Z</time>
      </trkpt>
      <trkpt lat="42.511816000" lon="-2.663124000">
        <ele>444.20</ele>
        <time>2012-12-01T11:23:50Z</time>
      </trkpt>
      <trkpt lat="42.511830000" lon="-2.663139000">
        <ele>444.30</ele>
        <time>2012-12-01T11:23:50Z</time>
      </trkpt>
      <trkpt lat="42.511875000" lon="-2.663213000">
        <ele>444.80</ele>
        <time>2012-12-01T11:23:54Z</time>
      </trkpt>
      <trkpt lat="42.511920000" lon="-2.663303000">
        <ele>445.20</ele>
        <time>2012-12-01T11:23:59Z</time>
      </trkpt>
      <trkpt lat="42.511996000" lon="-2.663543000">
        <ele>445.50</ele>
        <time>2012-12-01T11:24:08Z</time>
      </trkpt>
      <trkpt lat="42.512013000" lon="-2.663609000">
        <ele>445.50</ele>
        <time>2012-12-01T11:24:09Z</time>
      </trkpt>
      <trkpt lat="42.512105000" lon="-2.663804000">
        <ele>445.80</ele>
        <time>2012-12-01T11:24:16Z</time>
      </trkpt>
      <trkpt lat="42.512376000" lon="-2.664218000">
        <ele>445.40</ele>
        <time>2012-12-01T11:24:30Z</time>
      </trkpt>
      <trkpt lat="42.512638000" lon="-2.664491000">
        <ele>446.00</ele>
        <time>2012-12-01T11:24:44Z</time>
      </trkpt>
      <trkpt lat="42.512730000" lon="-2.664633000">
        <ele>446.20</ele>
        <time>2012-12-01T11:24:49Z</time>
      </trkpt>
      <trkpt lat="42.512740000" lon="-2.664659000">
        <ele>446.30</ele>
        <time>2012-12-01T11:24:51Z</time>
      </trkpt>
      <trkpt lat="42.512745000" lon="-2.664713000">
        <ele>446.30</ele>
        <time>2012-12-01T11:24:53Z</time>
      </trkpt>
      <trkpt lat="42.512741000" lon="-2.664738000">
        <ele>446.30</ele>
        <time>2012-12-01T11:24:53Z</time>
      </trkpt>
      <trkpt lat="42.512735000" lon="-2.664784000">
        <ele>446.20</ele>
        <time>2012-12-01T11:24:55Z</time>
      </trkpt>
      <trkpt lat="42.512710000" lon="-2.664816000">
        <ele>445.90</ele>
        <time>2012-12-01T11:24:58Z</time>
      </trkpt>
      <trkpt lat="42.512630000" lon="-2.664851000">
        <ele>445.30</ele>
        <time>2012-12-01T11:25:00Z</time>
      </trkpt>
      <trkpt lat="42.512588000" lon="-2.664879000">
        <ele>445.00</ele>
        <time>2012-12-01T11:25:02Z</time>
      </trkpt>
      <trkpt lat="42.512546000" lon="-2.664921000">
        <ele>444.60</ele>
        <time>2012-12-01T11:25:02Z</time>
      </trkpt>
      <trkpt lat="42.512508000" lon="-2.664979000">
        <ele>444.10</ele>
        <time>2012-12-01T11:25:03Z</time>
      </trkpt>
      <trkpt lat="42.512270000" lon="-2.665701000">
        <ele>440.10</ele>
        <time>2012-12-01T11:25:10Z</time>
      </trkpt>
      <trkpt lat="42.512220000" lon="-2.665799000">
        <ele>439.30</ele>
        <time>2012-12-01T11:25:12Z</time>
      </trkpt>
      <trkpt lat="42.512153000" lon="-2.665883000">
        <ele>438.40</ele>
        <time>2012-12-01T11:25:12Z</time>
      </trkpt>
      <trkpt lat="42.512076000" lon="-2.665946000">
        <ele>437.30</ele>
        <time>2012-12-01T11:25:14Z</time>
      </trkpt>
      <trkpt lat="42.511931000" lon="-2.666038000">
        <ele>435.40</ele>
        <time>2012-12-01T11:25:16Z</time>
      </trkpt>
      <trkpt lat="42.511875000" lon="-2.666103000">
        <ele>434.60</ele>
        <time>2012-12-01T11:25:17Z</time>
      </trkpt>
      <trkpt lat="42.511831000" lon="-2.666184000">
        <ele>433.80</ele>
        <time>2012-12-01T11:25:17Z</time>
      </trkpt>
      <trkpt lat="42.511618000" lon="-2.666949000">
        <ele>428.70</ele>
        <time>2012-12-01T11:25:24Z</time>
      </trkpt>
      <trkpt lat="42.511548000" lon="-2.667144000">
        <ele>427.00</ele>
        <time>2012-12-01T11:25:26Z</time>
      </trkpt>
      <trkpt lat="42.511441000" lon="-2.667608000">
        <ele>424.30</ele>
        <time>2012-12-01T11:25:31Z</time>
      </trkpt>
      <trkpt lat="42.511246000" lon="-2.668114000">
        <ele>422.10</ele>
        <time>2012-12-01T11:25:35Z</time>
      </trkpt>
      <trkpt lat="42.511183000" lon="-2.668214000">
        <ele>422.10</ele>
        <time>2012-12-01T11:25:35Z</time>
      </trkpt>
      <trkpt lat="42.511053000" lon="-2.668348000">
        <ele>421.60</ele>
        <time>2012-12-01T11:25:38Z</time>
      </trkpt>
      <trkpt lat="42.511008000" lon="-2.668409000">
        <ele>421.30</ele>
        <time>2012-12-01T11:25:38Z</time>
      </trkpt>
      <trkpt lat="42.510823000" lon="-2.668978000">
        <ele>419.80</ele>
        <time>2012-12-01T11:25:49Z</time>
      </trkpt>
      <trkpt lat="42.510806000" lon="-2.669094000">
        <ele>419.40</ele>
        <time>2012-12-01T11:25:52Z</time>
      </trkpt>
      <trkpt lat="42.510810000" lon="-2.669134000">
        <ele>419.40</ele>
        <time>2012-12-01T11:25:54Z</time>
      </trkpt>
      <trkpt lat="42.510820000" lon="-2.669174000">
        <ele>419.50</ele>
        <time>2012-12-01T11:25:54Z</time>
      </trkpt>
      <trkpt lat="42.510833000" lon="-2.669209000">
        <ele>419.60</ele>
        <time>2012-12-01T11:25:56Z</time>
      </trkpt>
      <trkpt lat="42.511053000" lon="-2.669649000">
        <ele>425.70</ele>
        <time>2012-12-01T11:26:10Z</time>
      </trkpt>
      <trkpt lat="42.511083000" lon="-2.669756000">
        <ele>427.00</ele>
        <time>2012-12-01T11:26:13Z</time>
      </trkpt>
      <trkpt lat="42.511085000" lon="-2.669836000">
        <ele>427.60</ele>
        <time>2012-12-01T11:26:15Z</time>
      </trkpt>
      <trkpt lat="42.511046000" lon="-2.670041000">
        <ele>427.90</ele>
        <time>2012-12-01T11:26:20Z</time>
      </trkpt>
      <trkpt lat="42.510886000" lon="-2.670438000">
        <ele>426.50</ele>
        <time>2012-12-01T11:26:27Z</time>
      </trkpt>
      <trkpt lat="42.510710000" lon="-2.670781000">
        <ele>423.00</ele>
        <time>2012-12-01T11:26:32Z</time>
      </trkpt>
      <trkpt lat="42.510476000" lon="-2.671606000">
        <ele>418.70</ele>
        <time>2012-12-01T11:26:39Z</time>
      </trkpt>
      <trkpt lat="42.510420000" lon="-2.671716000">
        <ele>418.30</ele>
        <time>2012-12-01T11:26:41Z</time>
      </trkpt>
      <trkpt lat="42.510226000" lon="-2.671983000">
        <ele>417.30</ele>
        <time>2012-12-01T11:26:43Z</time>
      </trkpt>
      <trkpt lat="42.509975000" lon="-2.672619000">
        <ele>415.80</ele>
        <time>2012-12-01T11:26:50Z</time>
      </trkpt>
      <trkpt lat="42.509858000" lon="-2.673484000">
        <ele>415.40</ele>
        <time>2012-12-01T11:27:02Z</time>
      </trkpt>
      <trkpt lat="42.509858000" lon="-2.673543000">
        <ele>415.50</ele>
        <time>2012-12-01T11:27:04Z</time>
      </trkpt>
      <trkpt lat="42.510271000" lon="-2.675626000">
        <ele>413.00</ele>
        <time>2012-12-01T11:27:42Z</time>
      </trkpt>
      <trkpt lat="42.510566000" lon="-2.676398000">
        <ele>411.30</ele>
        <time>2012-12-01T11:27:49Z</time>
      </trkpt>
      <trkpt lat="42.510595000" lon="-2.676506000">
        <ele>411.30</ele>
        <time>2012-12-01T11:27:49Z</time>
      </trkpt>
      <trkpt lat="42.510605000" lon="-2.676624000">
        <ele>411.20</ele>
        <time>2012-12-01T11:27:51Z</time>
      </trkpt>
      <trkpt lat="42.510583000" lon="-2.676969000">
        <ele>411.20</ele>
        <time>2012-12-01T11:27:54Z</time>
      </trkpt>
      <trkpt lat="42.510590000" lon="-2.677061000">
        <ele>411.20</ele>
        <time>2012-12-01T11:27:54Z</time>
      </trkpt>
      <trkpt lat="42.510615000" lon="-2.677141000">
        <ele>411.20</ele>
        <time>2012-12-01T11:27:56Z</time>
      </trkpt>
      <trkpt lat="42.510658000" lon="-2.677204000">
        <ele>411.20</ele>
        <time>2012-12-01T11:27:56Z</time>
      </trkpt>
      <trkpt lat="42.510756000" lon="-2.677301000">
        <ele>411.30</ele>
        <time>2012-12-01T11:27:59Z</time>
      </trkpt>
      <trkpt lat="42.511141000" lon="-2.677591000">
        <ele>411.70</ele>
        <time>2012-12-01T11:28:06Z</time>
      </trkpt>
      <trkpt lat="42.511196000" lon="-2.677619000">
        <ele>411.80</ele>
        <time>2012-12-01T11:28:08Z</time>
      </trkpt>
      <trkpt lat="42.512180000" lon="-2.677886000">
        <ele>409.30</ele>
        <time>2012-12-01T11:28:27Z</time>
      </trkpt>
      <trkpt lat="42.513320000" lon="-2.677718000">
        <ele>412.20</ele>
        <time>2012-12-01T11:28:50Z</time>
      </trkpt>
      <trkpt lat="42.513685000" lon="-2.677558000">
        <ele>411.10</ele>
        <time>2012-12-01T11:29:00Z</time>
      </trkpt>
      <trkpt lat="42.514305000" lon="-2.677521000">
        <ele>409.90</ele>
        <time>2012-12-01T11:29:14Z</time>
      </trkpt>
      <trkpt lat="42.514333000" lon="-2.677513000">
        <ele>409.90</ele>
        <time>2012-12-01T11:29:16Z</time>
      </trkpt>
      <trkpt lat="42.514426000" lon="-2.677511000">
        <ele>409.70</ele>
        <time>2012-12-01T11:29:18Z</time>
      </trkpt>
      <trkpt lat="42.514996000" lon="-2.677468000">
        <ele>410.00</ele>
        <time>2012-12-01T11:29:35Z</time>
      </trkpt>
      <trkpt lat="42.515121000" lon="-2.677479000">
        <ele>410.30</ele>
        <time>2012-12-01T11:29:39Z</time>
      </trkpt>
      <trkpt lat="42.515185000" lon="-2.677476000">
        <ele>410.40</ele>
        <time>2012-12-01T11:29:40Z</time>
      </trkpt>
      <trkpt lat="42.515345000" lon="-2.677491000">
        <ele>410.70</ele>
        <time>2012-12-01T11:29:46Z</time>
      </trkpt>
      <trkpt lat="42.515710000" lon="-2.677463000">
        <ele>412.20</ele>
        <time>2012-12-01T11:29:56Z</time>
      </trkpt>
      <trkpt lat="42.515740000" lon="-2.677466000">
        <ele>412.30</ele>
        <time>2012-12-01T11:29:58Z</time>
      </trkpt>
      <trkpt lat="42.515925000" lon="-2.677444000">
        <ele>413.20</ele>
        <time>2012-12-01T11:30:05Z</time>
      </trkpt>
      <trkpt lat="42.516260000" lon="-2.677349000">
        <ele>414.40</ele>
        <time>2012-12-01T11:30:15Z</time>
      </trkpt>
      <trkpt lat="42.517066000" lon="-2.676679000">
        <ele>412.10</ele>
        <time>2012-12-01T11:30:34Z</time>
      </trkpt>
      <trkpt lat="42.517108000" lon="-2.676633000">
        <ele>412.00</ele>
        <time>2012-12-01T11:30:34Z</time>
      </trkpt>
      <trkpt lat="42.517633000" lon="-2.675991000">
        <ele>411.60</ele>
        <time>2012-12-01T11:30:48Z</time>
      </trkpt>
      <trkpt lat="42.517741000" lon="-2.675734000">
        <ele>411.70</ele>
        <time>2012-12-01T11:30:52Z</time>
      </trkpt>
      <trkpt lat="42.517973000" lon="-2.675431000">
        <ele>411.90</ele>
        <time>2012-12-01T11:30:57Z</time>
      </trkpt>
      <trkpt lat="42.518498000" lon="-2.675073000">
        <ele>411.10</ele>
        <time>2012-12-01T11:31:09Z</time>
      </trkpt>
      <trkpt lat="42.519301000" lon="-2.674726000">
        <ele>409.40</ele>
        <time>2012-12-01T11:31:25Z</time>
      </trkpt>
      <trkpt lat="42.519703000" lon="-2.674471000">
        <ele>408.10</ele>
        <time>2012-12-01T11:31:34Z</time>
      </trkpt>
      <trkpt lat="42.519830000" lon="-2.674429000">
        <ele>408.20</ele>
        <time>2012-12-01T11:31:37Z</time>
      </trkpt>
      <trkpt lat="42.519871000" lon="-2.674424000">
        <ele>408.30</ele>
        <time>2012-12-01T11:31:37Z</time>
      </trkpt>
      <trkpt lat="42.520853000" lon="-2.674531000">
        <ele>408.60</ele>
        <time>2012-12-01T11:32:00Z</time>
      </trkpt>
      <trkpt lat="42.520951000" lon="-2.674516000">
        <ele>408.70</ele>
        <time>2012-12-01T11:32:01Z</time>
      </trkpt>
      <trkpt lat="42.521146000" lon="-2.674448000">
        <ele>409.10</ele>
        <time>2012-12-01T11:32:05Z</time>
      </trkpt>
      <trkpt lat="42.521245000" lon="-2.674443000">
        <ele>409.20</ele>
        <time>2012-12-01T11:32:07Z</time>
      </trkpt>
      <trkpt lat="42.521586000" lon="-2.674503000">
        <ele>410.40</ele>
        <time>2012-12-01T11:32:14Z</time>
      </trkpt>
      <trkpt lat="42.521683000" lon="-2.674483000">
        <ele>410.90</ele>
        <time>2012-12-01T11:32:17Z</time>
      </trkpt>
      <trkpt lat="42.521730000" lon="-2.674463000">
        <ele>411.10</ele>
        <time>2012-12-01T11:32:17Z</time>
      </trkpt>
      <trkpt lat="42.521771000" lon="-2.674434000">
        <ele>411.40</ele>
        <time>2012-12-01T11:32:19Z</time>
      </trkpt>
      <trkpt lat="42.521840000" lon="-2.674358000">
        <ele>411.80</ele>
        <time>2012-12-01T11:32:21Z</time>
      </trkpt>
      <trkpt lat="42.522058000" lon="-2.674004000">
        <ele>413.30</ele>
        <time>2012-12-01T11:32:29Z</time>
      </trkpt>
      <trkpt lat="42.522083000" lon="-2.673981000">
        <ele>413.50</ele>
        <time>2012-12-01T11:32:29Z</time>
      </trkpt>
      <trkpt lat="42.522111000" lon="-2.673964000">
        <ele>413.60</ele>
        <time>2012-12-01T11:32:31Z</time>
      </trkpt>
      <trkpt lat="42.522143000" lon="-2.673958000">
        <ele>413.70</ele>
        <time>2012-12-01T11:32:31Z</time>
      </trkpt>
      <trkpt lat="42.522290000" lon="-2.673989000">
        <ele>413.90</ele>
        <time>2012-12-01T11:32:36Z</time>
      </trkpt>
      <trkpt lat="42.525625000" lon="-2.675569000">
        <ele>415.80</ele>
        <time>2012-12-01T11:33:56Z</time>
      </trkpt>
      <trkpt lat="42.525665000" lon="-2.675599000">
        <ele>416.00</ele>
        <time>2012-12-01T11:33:58Z</time>
      </trkpt>
      <trkpt lat="42.526593000" lon="-2.676671000">
        <ele>415.70</ele>
        <time>2012-12-01T11:34:24Z</time>
      </trkpt>
      <trkpt lat="42.526870000" lon="-2.677479000">
        <ele>412.60</ele>
        <time>2012-12-01T11:34:38Z</time>
      </trkpt>
      <trkpt lat="42.526950000" lon="-2.677618000">
        <ele>411.90</ele>
        <time>2012-12-01T11:34:42Z</time>
      </trkpt>
      <trkpt lat="42.527146000" lon="-2.677814000">
        <ele>410.80</ele>
        <time>2012-12-01T11:34:47Z</time>
      </trkpt>
      <trkpt lat="42.527635000" lon="-2.678108000">
        <ele>412.10</ele>
        <time>2012-12-01T11:35:01Z</time>
      </trkpt>
      <trkpt lat="42.527673000" lon="-2.678119000">
        <ele>412.20</ele>
        <time>2012-12-01T11:35:01Z</time>
      </trkpt>
      <trkpt lat="42.528630000" lon="-2.678223000">
        <ele>417.10</ele>
        <time>2012-12-01T11:35:25Z</time>
      </trkpt>
      <trkpt lat="42.528706000" lon="-2.678193000">
        <ele>417.50</ele>
        <time>2012-12-01T11:35:27Z</time>
      </trkpt>
      <trkpt lat="42.528746000" lon="-2.678168000">
        <ele>417.70</ele>
        <time>2012-12-01T11:35:29Z</time>
      </trkpt>
      <trkpt lat="42.528916000" lon="-2.677994000">
        <ele>418.10</ele>
        <time>2012-12-01T11:35:34Z</time>
      </trkpt>
      <trkpt lat="42.528956000" lon="-2.677978000">
        <ele>418.10</ele>
        <time>2012-12-01T11:35:34Z</time>
      </trkpt>
      <trkpt lat="42.528991000" lon="-2.677986000">
        <ele>418.20</ele>
        <time>2012-12-01T11:35:36Z</time>
      </trkpt>
      <trkpt lat="42.529023000" lon="-2.678009000">
        <ele>418.20</ele>
        <time>2012-12-01T11:35:36Z</time>
      </trkpt>
      <trkpt lat="42.529080000" lon="-2.678078000">
        <ele>418.30</ele>
        <time>2012-12-01T11:35:39Z</time>
      </trkpt>
      <trkpt lat="42.529201000" lon="-2.678266000">
        <ele>418.50</ele>
        <time>2012-12-01T11:35:43Z</time>
      </trkpt>
      <trkpt lat="42.529360000" lon="-2.678619000">
        <ele>418.70</ele>
        <time>2012-12-01T11:35:53Z</time>
      </trkpt>
      <trkpt lat="42.529413000" lon="-2.678699000">
        <ele>418.70</ele>
        <time>2012-12-01T11:35:58Z</time>
      </trkpt>
      <trkpt lat="42.529451000" lon="-2.678743000">
        <ele>418.80</ele>
        <time>2012-12-01T11:36:00Z</time>
      </trkpt>
      <trkpt lat="42.529501000" lon="-2.678813000">
        <ele>418.90</ele>
        <time>2012-12-01T11:36:11Z</time>
      </trkpt>
      <trkpt lat="42.529508000" lon="-2.678828000">
        <ele>418.90</ele>
        <time>2012-12-01T11:36:12Z</time>
      </trkpt>
      <trkpt lat="42.529515000" lon="-2.678876000">
        <ele>419.00</ele>
        <time>2012-12-01T11:36:14Z</time>
      </trkpt>
      <trkpt lat="42.529501000" lon="-2.678926000">
        <ele>419.00</ele>
        <time>2012-12-01T11:36:16Z</time>
      </trkpt>
      <trkpt lat="42.529478000" lon="-2.678976000">
        <ele>419.00</ele>
        <time>2012-12-01T11:36:17Z</time>
      </trkpt>
      <trkpt lat="42.529430000" lon="-2.679046000">
        <ele>419.00</ele>
        <time>2012-12-01T11:36:21Z</time>
      </trkpt>
      <trkpt lat="42.526441000" lon="-2.682029000">
        <ele>414.50</ele>
        <time>2012-12-01T11:37:38Z</time>
      </trkpt>
      <trkpt lat="42.526395000" lon="-2.682063000">
        <ele>414.50</ele>
        <time>2012-12-01T11:37:38Z</time>
      </trkpt>
      <trkpt lat="42.526345000" lon="-2.682076000">
        <ele>414.30</ele>
        <time>2012-12-01T11:37:39Z</time>
      </trkpt>
      <trkpt lat="42.526296000" lon="-2.682073000">
        <ele>414.20</ele>
        <time>2012-12-01T11:37:41Z</time>
      </trkpt>
      <trkpt lat="42.526251000" lon="-2.682054000">
        <ele>414.10</ele>
        <time>2012-12-01T11:37:41Z</time>
      </trkpt>
      <trkpt lat="42.526213000" lon="-2.682024000">
        <ele>414.00</ele>
        <time>2012-12-01T11:37:43Z</time>
      </trkpt>
      <trkpt lat="42.524385000" lon="-2.679529000">
        <ele>418.70</ele>
        <time>2012-12-01T11:38:42Z</time>
      </trkpt>
      <trkpt lat="42.524346000" lon="-2.679491000">
        <ele>419.00</ele>
        <time>2012-12-01T11:38:42Z</time>
      </trkpt>
      <trkpt lat="42.524075000" lon="-2.679284000">
        <ele>421.90</ele>
        <time>2012-12-01T11:38:49Z</time>
      </trkpt>
      <trkpt lat="42.523926000" lon="-2.679231000">
        <ele>423.20</ele>
        <time>2012-12-01T11:38:54Z</time>
      </trkpt>
      <trkpt lat="42.523506000" lon="-2.679224000">
        <ele>426.30</ele>
        <time>2012-12-01T11:39:05Z</time>
      </trkpt>
      <trkpt lat="42.517573000" lon="-2.680748000">
        <ele>442.30</ele>
        <time>2012-12-01T11:41:50Z</time>
      </trkpt>
      <trkpt lat="42.515726000" lon="-2.681611000">
        <ele>438.30</ele>
        <time>2012-12-01T11:42:34Z</time>
      </trkpt>
      <trkpt lat="42.515691000" lon="-2.681598000">
        <ele>438.30</ele>
        <time>2012-12-01T11:42:36Z</time>
      </trkpt>
      <trkpt lat="42.515661000" lon="-2.681568000">
        <ele>438.20</ele>
        <time>2012-12-01T11:42:37Z</time>
      </trkpt>
      <trkpt lat="42.515356000" lon="-2.681043000">
        <ele>436.50</ele>
        <time>2012-12-01T11:42:46Z</time>
      </trkpt>
      <trkpt lat="42.515313000" lon="-2.680993000">
        <ele>436.30</ele>
        <time>2012-12-01T11:42:46Z</time>
      </trkpt>
      <trkpt lat="42.515263000" lon="-2.680958000">
        <ele>436.00</ele>
        <time>2012-12-01T11:42:48Z</time>
      </trkpt>
      <trkpt lat="42.515210000" lon="-2.680936000">
        <ele>435.80</ele>
        <time>2012-12-01T11:42:48Z</time>
      </trkpt>
      <trkpt lat="42.515103000" lon="-2.680924000">
        <ele>435.30</ele>
        <time>2012-12-01T11:42:51Z</time>
      </trkpt>
      <trkpt lat="42.514841000" lon="-2.680968000">
        <ele>434.40</ele>
        <time>2012-12-01T11:42:55Z</time>
      </trkpt>
      <trkpt lat="42.514791000" lon="-2.680986000">
        <ele>434.30</ele>
        <time>2012-12-01T11:42:56Z</time>
      </trkpt>
      <trkpt lat="42.506736000" lon="-2.683288000">
        <ele>424.60</ele>
        <time>2012-12-01T11:45:31Z</time>
      </trkpt>
      <trkpt lat="42.506686000" lon="-2.683291000">
        <ele>424.60</ele>
        <time>2012-12-01T11:45:33Z</time>
      </trkpt>
      <trkpt lat="42.504145000" lon="-2.683833000">
        <ele>424.40</ele>
        <time>2012-12-01T11:46:29Z</time>
      </trkpt>
      <trkpt lat="42.502983000" lon="-2.684939000">
        <ele>425.80</ele>
        <time>2012-12-01T11:47:04Z</time>
      </trkpt>
      <trkpt lat="42.502960000" lon="-2.684954000">
        <ele>425.80</ele>
        <time>2012-12-01T11:47:05Z</time>
      </trkpt>
      <trkpt lat="42.502935000" lon="-2.684959000">
        <ele>425.90</ele>
        <time>2012-12-01T11:47:07Z</time>
      </trkpt>
      <trkpt lat="42.502908000" lon="-2.684953000">
        <ele>425.90</ele>
        <time>2012-12-01T11:47:07Z</time>
      </trkpt>
      <trkpt lat="42.502851000" lon="-2.684918000">
        <ele>426.00</ele>
        <time>2012-12-01T11:47:09Z</time>
      </trkpt>
      <trkpt lat="42.502826000" lon="-2.684891000">
        <ele>426.00</ele>
        <time>2012-12-01T11:47:11Z</time>
      </trkpt>
      <trkpt lat="42.502371000" lon="-2.684129000">
        <ele>424.40</ele>
        <time>2012-12-01T11:47:28Z</time>
      </trkpt>
      <trkpt lat="42.502350000" lon="-2.684114000">
        <ele>424.20</ele>
        <time>2012-12-01T11:47:30Z</time>
      </trkpt>
      <trkpt lat="42.502323000" lon="-2.684109000">
        <ele>424.10</ele>
        <time>2012-12-01T11:47:30Z</time>
      </trkpt>
      <trkpt lat="42.502203000" lon="-2.684154000">
        <ele>424.00</ele>
        <time>2012-12-01T11:47:35Z</time>
      </trkpt>
      <trkpt lat="42.502171000" lon="-2.684176000">
        <ele>424.00</ele>
        <time>2012-12-01T11:47:35Z</time>
      </trkpt>
      <trkpt lat="42.501708000" lon="-2.684608000">
        <ele>426.40</ele>
        <time>2012-12-01T11:47:49Z</time>
      </trkpt>
      <trkpt lat="42.501330000" lon="-2.684858000">
        <ele>425.90</ele>
        <time>2012-12-01T11:47:59Z</time>
      </trkpt>
      <trkpt lat="42.501223000" lon="-2.684951000">
        <ele>425.50</ele>
        <time>2012-12-01T11:48:05Z</time>
      </trkpt>
      <trkpt lat="42.501196000" lon="-2.684958000">
        <ele>425.40</ele>
        <time>2012-12-01T11:48:06Z</time>
      </trkpt>
      <trkpt lat="42.501161000" lon="-2.684953000">
        <ele>425.40</ele>
        <time>2012-12-01T11:48:08Z</time>
      </trkpt>
      <trkpt lat="42.501076000" lon="-2.684911000">
        <ele>425.10</ele>
        <time>2012-12-01T11:48:10Z</time>
      </trkpt>
      <trkpt lat="42.500665000" lon="-2.684601000">
        <ele>425.10</ele>
        <time>2012-12-01T11:48:17Z</time>
      </trkpt>
      <trkpt lat="42.500206000" lon="-2.684428000">
        <ele>425.40</ele>
        <time>2012-12-01T11:48:22Z</time>
      </trkpt>
      <trkpt lat="42.498616000" lon="-2.684326000">
        <ele>423.00</ele>
        <time>2012-12-01T11:48:50Z</time>
      </trkpt>
      <trkpt lat="42.497583000" lon="-2.683758000">
        <ele>428.40</ele>
        <time>2012-12-01T11:49:16Z</time>
      </trkpt>
      <trkpt lat="42.497560000" lon="-2.683761000">
        <ele>428.60</ele>
        <time>2012-12-01T11:49:18Z</time>
      </trkpt>
      <trkpt lat="42.497540000" lon="-2.683779000">
        <ele>428.80</ele>
        <time>2012-12-01T11:49:18Z</time>
      </trkpt>
      <trkpt lat="42.497523000" lon="-2.683809000">
        <ele>429.00</ele>
        <time>2012-12-01T11:49:20Z</time>
      </trkpt>
      <trkpt lat="42.497380000" lon="-2.684124000">
        <ele>429.60</ele>
        <time>2012-12-01T11:49:28Z</time>
      </trkpt>
      <trkpt lat="42.496846000" lon="-2.684999000">
        <ele>431.40</ele>
        <time>2012-12-01T11:49:49Z</time>
      </trkpt>
      <trkpt lat="42.496718000" lon="-2.685143000">
        <ele>431.80</ele>
        <time>2012-12-01T11:49:53Z</time>
      </trkpt>
      <trkpt lat="42.496695000" lon="-2.685183000">
        <ele>431.90</ele>
        <time>2012-12-01T11:49:53Z</time>
      </trkpt>
      <trkpt lat="42.496678000" lon="-2.685229000">
        <ele>431.90</ele>
        <time>2012-12-01T11:49:54Z</time>
      </trkpt>
      <trkpt lat="42.496668000" lon="-2.685281000">
        <ele>431.90</ele>
        <time>2012-12-01T11:49:56Z</time>
      </trkpt>
      <trkpt lat="42.496618000" lon="-2.685568000">
        <ele>431.60</ele>
        <time>2012-12-01T11:50:00Z</time>
      </trkpt>
      <trkpt lat="42.496526000" lon="-2.685989000">
        <ele>431.40</ele>
        <time>2012-12-01T11:50:07Z</time>
      </trkpt>
      <trkpt lat="42.496520000" lon="-2.686053000">
        <ele>431.40</ele>
        <time>2012-12-01T11:50:08Z</time>
      </trkpt>
      <trkpt lat="42.496538000" lon="-2.686351000">
        <ele>430.80</ele>
        <time>2012-12-01T11:50:14Z</time>
      </trkpt>
      <trkpt lat="42.496545000" lon="-2.686384000">
        <ele>430.60</ele>
        <time>2012-12-01T11:50:15Z</time>
      </trkpt>
      <trkpt lat="42.496546000" lon="-2.686426000">
        <ele>430.50</ele>
        <time>2012-12-01T11:50:17Z</time>
      </trkpt>
      <trkpt lat="42.496540000" lon="-2.686476000">
        <ele>430.30</ele>
        <time>2012-12-01T11:50:17Z</time>
      </trkpt>
      <trkpt lat="42.496478000" lon="-2.686729000">
        <ele>429.80</ele>
        <time>2012-12-01T11:50:22Z</time>
      </trkpt>
      <trkpt lat="42.496471000" lon="-2.686808000">
        <ele>429.70</ele>
        <time>2012-12-01T11:50:22Z</time>
      </trkpt>
      <trkpt lat="42.496463000" lon="-2.687046000">
        <ele>429.00</ele>
        <time>2012-12-01T11:50:26Z</time>
      </trkpt>
      <trkpt lat="42.496475000" lon="-2.687099000">
        <ele>428.80</ele>
        <time>2012-12-01T11:50:28Z</time>
      </trkpt>
      <trkpt lat="42.496490000" lon="-2.687139000">
        <ele>428.60</ele>
        <time>2012-12-01T11:50:29Z</time>
      </trkpt>
      <trkpt lat="42.496518000" lon="-2.687193000">
        <ele>428.10</ele>
        <time>2012-12-01T11:50:31Z</time>
      </trkpt>
      <trkpt lat="42.496533000" lon="-2.687211000">
        <ele>427.90</ele>
        <time>2012-12-01T11:50:31Z</time>
      </trkpt>
      <trkpt lat="42.496551000" lon="-2.687224000">
        <ele>427.80</ele>
        <time>2012-12-01T11:50:33Z</time>
      </trkpt>
      <trkpt lat="42.496563000" lon="-2.687229000">
        <ele>427.60</ele>
        <time>2012-12-01T11:50:33Z</time>
      </trkpt>
      <trkpt lat="42.496566000" lon="-2.687226000">
        <ele>427.50</ele>
        <time>2012-12-01T11:50:35Z</time>
      </trkpt>
      <trkpt lat="42.496625000" lon="-2.687129000">
        <ele>427.50</ele>
        <time>2012-12-01T11:50:40Z</time>
      </trkpt>
      <trkpt lat="42.497143000" lon="-2.685534000">
        <ele>428.80</ele>
        <time>2012-12-01T11:51:18Z</time>
      </trkpt>
      <trkpt lat="42.497276000" lon="-2.684956000">
        <ele>429.00</ele>
        <time>2012-12-01T11:51:30Z</time>
      </trkpt>
      <trkpt lat="42.497281000" lon="-2.684916000">
        <ele>429.00</ele>
        <time>2012-12-01T11:51:30Z</time>
      </trkpt>
      <trkpt lat="42.497618000" lon="-2.683964000">
        <ele>428.20</ele>
        <time>2012-12-01T11:51:49Z</time>
      </trkpt>
      <trkpt lat="42.497626000" lon="-2.683898000">
        <ele>428.20</ele>
        <time>2012-12-01T11:51:51Z</time>
      </trkpt>
      <trkpt lat="42.497626000" lon="-2.683871000">
        <ele>428.20</ele>
        <time>2012-12-01T11:51:53Z</time>
      </trkpt>
      <trkpt lat="42.497635000" lon="-2.683843000">
        <ele>428.20</ele>
        <time>2012-12-01T11:51:53Z</time>
      </trkpt>
      <trkpt lat="42.497663000" lon="-2.683804000">
        <ele>428.10</ele>
        <time>2012-12-01T11:51:55Z</time>
      </trkpt>
      <trkpt lat="42.497708000" lon="-2.683553000">
        <ele>427.80</ele>
        <time>2012-12-01T11:52:00Z</time>
      </trkpt>
      <trkpt lat="42.497713000" lon="-2.683451000">
        <ele>427.80</ele>
        <time>2012-12-01T11:52:02Z</time>
      </trkpt>
      <trkpt lat="42.497763000" lon="-2.683073000">
        <ele>427.50</ele>
        <time>2012-12-01T11:52:10Z</time>
      </trkpt>
      <trkpt lat="42.497775000" lon="-2.683023000">
        <ele>427.40</ele>
        <time>2012-12-01T11:52:10Z</time>
      </trkpt>
      <trkpt lat="42.497771000" lon="-2.682878000">
        <ele>427.30</ele>
        <time>2012-12-01T11:52:14Z</time>
      </trkpt>
      <trkpt lat="42.497703000" lon="-2.681873000">
        <ele>426.50</ele>
        <time>2012-12-01T11:52:35Z</time>
      </trkpt>
      <trkpt lat="42.497705000" lon="-2.681819000">
        <ele>426.50</ele>
        <time>2012-12-01T11:52:35Z</time>
      </trkpt>
      <trkpt lat="42.497661000" lon="-2.680659000">
        <ele>424.60</ele>
        <time>2012-12-01T11:52:59Z</time>
      </trkpt>
      <trkpt lat="42.497626000" lon="-2.680526000">
        <ele>424.40</ele>
        <time>2012-12-01T11:53:01Z</time>
      </trkpt>
      <trkpt lat="42.497570000" lon="-2.679784000">
        <ele>425.10</ele>
        <time>2012-12-01T11:53:15Z</time>
      </trkpt>
      <trkpt lat="42.497618000" lon="-2.679379000">
        <ele>425.50</ele>
        <time>2012-12-01T11:53:24Z</time>
      </trkpt>
      <trkpt lat="42.497735000" lon="-2.678891000">
        <ele>425.70</ele>
        <time>2012-12-01T11:53:32Z</time>
      </trkpt>
      <trkpt lat="42.497980000" lon="-2.678341000">
        <ele>425.20</ele>
        <time>2012-12-01T11:53:43Z</time>
      </trkpt>
      <trkpt lat="42.498010000" lon="-2.678291000">
        <ele>425.10</ele>
        <time>2012-12-01T11:53:44Z</time>
      </trkpt>
      <trkpt lat="42.498735000" lon="-2.677033000">
        <ele>419.00</ele>
        <time>2012-12-01T11:54:12Z</time>
      </trkpt>
      <trkpt lat="42.498760000" lon="-2.676998000">
        <ele>419.00</ele>
        <time>2012-12-01T11:54:14Z</time>
      </trkpt>
      <trkpt lat="42.498823000" lon="-2.676928000">
        <ele>419.30</ele>
        <time>2012-12-01T11:54:16Z</time>
      </trkpt>
      <trkpt lat="42.499078000" lon="-2.676574000">
        <ele>421.40</ele>
        <time>2012-12-01T11:54:23Z</time>
      </trkpt>
      <trkpt lat="42.499808000" lon="-2.675789000">
        <ele>420.90</ele>
        <time>2012-12-01T11:54:47Z</time>
      </trkpt>
      <trkpt lat="42.499840000" lon="-2.675764000">
        <ele>420.90</ele>
        <time>2012-12-01T11:54:49Z</time>
      </trkpt>
      <trkpt lat="42.500301000" lon="-2.675314000">
        <ele>419.20</ele>
        <time>2012-12-01T11:55:03Z</time>
      </trkpt>
      <trkpt lat="42.501191000" lon="-2.674599000">
        <ele>415.20</ele>
        <time>2012-12-01T11:55:29Z</time>
      </trkpt>
      <trkpt lat="42.502108000" lon="-2.674191000">
        <ele>416.30</ele>
        <time>2012-12-01T11:55:53Z</time>
      </trkpt>
      <trkpt lat="42.502135000" lon="-2.674184000">
        <ele>416.40</ele>
        <time>2012-12-01T11:55:53Z</time>
      </trkpt>
      <trkpt lat="42.503071000" lon="-2.674019000">
        <ele>419.90</ele>
        <time>2012-12-01T11:56:21Z</time>
      </trkpt>
      <trkpt lat="42.503413000" lon="-2.673863000">
        <ele>419.00</ele>
        <time>2012-12-01T11:56:33Z</time>
      </trkpt>
      <trkpt lat="42.503778000" lon="-2.673593000">
        <ele>419.00</ele>
        <time>2012-12-01T11:56:47Z</time>
      </trkpt>
      <trkpt lat="42.503960000" lon="-2.673368000">
        <ele>419.50</ele>
        <time>2012-12-01T11:56:54Z</time>
      </trkpt>
      <trkpt lat="42.504246000" lon="-2.672778000">
        <ele>419.70</ele>
        <time>2012-12-01T11:57:08Z</time>
      </trkpt>
      <trkpt lat="42.504263000" lon="-2.672731000">
        <ele>419.70</ele>
        <time>2012-12-01T11:57:08Z</time>
      </trkpt>
      <trkpt lat="42.504983000" lon="-2.671473000">
        <ele>417.10</ele>
        <time>2012-12-01T11:57:38Z</time>
      </trkpt>
      <trkpt lat="42.505093000" lon="-2.671343000">
        <ele>416.30</ele>
        <time>2012-12-01T11:57:43Z</time>
      </trkpt>
      <trkpt lat="42.505170000" lon="-2.671201000">
        <ele>415.90</ele>
        <time>2012-12-01T11:57:45Z</time>
      </trkpt>
      <trkpt lat="42.505251000" lon="-2.670921000">
        <ele>415.90</ele>
        <time>2012-12-01T11:57:50Z</time>
      </trkpt>
      <trkpt lat="42.505288000" lon="-2.670696000">
        <ele>416.40</ele>
        <time>2012-12-01T11:57:55Z</time>
      </trkpt>
      <trkpt lat="42.505283000" lon="-2.670476000">
        <ele>417.20</ele>
        <time>2012-12-01T11:57:59Z</time>
      </trkpt>
      <trkpt lat="42.505246000" lon="-2.670293000">
        <ele>417.80</ele>
        <time>2012-12-01T11:58:02Z</time>
      </trkpt>
      <trkpt lat="42.504805000" lon="-2.669013000">
        <ele>418.60</ele>
        <time>2012-12-01T11:58:28Z</time>
      </trkpt>
      <trkpt lat="42.504780000" lon="-2.668959000">
        <ele>418.70</ele>
        <time>2012-12-01T11:58:28Z</time>
      </trkpt>
      <trkpt lat="42.504298000" lon="-2.667588000">
        <ele>420.40</ele>
        <time>2012-12-01T11:58:56Z</time>
      </trkpt>
      <trkpt lat="42.504046000" lon="-2.666101000">
        <ele>418.10</ele>
        <time>2012-12-01T11:59:22Z</time>
      </trkpt>
      <trkpt lat="42.504026000" lon="-2.665739000">
        <ele>417.80</ele>
        <time>2012-12-01T11:59:29Z</time>
      </trkpt>
      <trkpt lat="42.504028000" lon="-2.665509000">
        <ele>417.50</ele>
        <time>2012-12-01T11:59:33Z</time>
      </trkpt>
      <trkpt lat="42.504021000" lon="-2.665449000">
        <ele>417.40</ele>
        <time>2012-12-01T11:59:33Z</time>
      </trkpt>
      <trkpt lat="42.503983000" lon="-2.664616000">
        <ele>417.30</ele>
        <time>2012-12-01T11:59:47Z</time>
      </trkpt>
      <trkpt lat="42.503848000" lon="-2.663158000">
        <ele>416.60</ele>
        <time>2012-12-01T12:00:11Z</time>
      </trkpt>
      <trkpt lat="42.503815000" lon="-2.663048000">
        <ele>416.60</ele>
        <time>2012-12-01T12:00:13Z</time>
      </trkpt>
      <trkpt lat="42.503698000" lon="-2.662781000">
        <ele>416.90</ele>
        <time>2012-12-01T12:00:20Z</time>
      </trkpt>
      <trkpt lat="42.503135000" lon="-2.661381000">
        <ele>417.40</ele>
        <time>2012-12-01T12:00:44Z</time>
      </trkpt>
      <trkpt lat="42.503101000" lon="-2.661328000">
        <ele>417.50</ele>
        <time>2012-12-01T12:00:46Z</time>
      </trkpt>
      <trkpt lat="42.502801000" lon="-2.660573000">
        <ele>416.90</ele>
        <time>2012-12-01T12:01:00Z</time>
      </trkpt>
      <trkpt lat="42.502676000" lon="-2.660314000">
        <ele>416.40</ele>
        <time>2012-12-01T12:01:05Z</time>
      </trkpt>
      <trkpt lat="42.501960000" lon="-2.659343000">
        <ele>417.30</ele>
        <time>2012-12-01T12:01:28Z</time>
      </trkpt>
      <trkpt lat="42.501768000" lon="-2.659159000">
        <ele>417.70</ele>
        <time>2012-12-01T12:01:33Z</time>
      </trkpt>
      <trkpt lat="42.500441000" lon="-2.658249000">
        <ele>418.20</ele>
        <time>2012-12-01T12:02:06Z</time>
      </trkpt>
      <trkpt lat="42.500405000" lon="-2.658214000">
        <ele>418.20</ele>
        <time>2012-12-01T12:02:08Z</time>
      </trkpt>
      <trkpt lat="42.498996000" lon="-2.656893000">
        <ele>416.30</ele>
        <time>2012-12-01T12:02:48Z</time>
      </trkpt>
      <trkpt lat="42.498775000" lon="-2.656796000">
        <ele>416.30</ele>
        <time>2012-12-01T12:02:53Z</time>
      </trkpt>
      <trkpt lat="42.498316000" lon="-2.656744000">
        <ele>415.90</ele>
        <time>2012-12-01T12:03:02Z</time>
      </trkpt>
      <trkpt lat="42.497920000" lon="-2.656799000">
        <ele>415.90</ele>
        <time>2012-12-01T12:03:12Z</time>
      </trkpt>
      <trkpt lat="42.497885000" lon="-2.656811000">
        <ele>415.90</ele>
        <time>2012-12-01T12:03:14Z</time>
      </trkpt>
      <trkpt lat="42.497276000" lon="-2.657128000">
        <ele>418.70</ele>
        <time>2012-12-01T12:03:30Z</time>
      </trkpt>
      <trkpt lat="42.496830000" lon="-2.657201000">
        <ele>419.60</ele>
        <time>2012-12-01T12:03:40Z</time>
      </trkpt>
      <trkpt lat="42.496798000" lon="-2.657199000">
        <ele>419.60</ele>
        <time>2012-12-01T12:03:40Z</time>
      </trkpt>
      <trkpt lat="42.496771000" lon="-2.657189000">
        <ele>419.70</ele>
        <time>2012-12-01T12:03:42Z</time>
      </trkpt>
      <trkpt lat="42.496751000" lon="-2.657174000">
        <ele>419.70</ele>
        <time>2012-12-01T12:03:42Z</time>
      </trkpt>
      <trkpt lat="42.496736000" lon="-2.657158000">
        <ele>419.70</ele>
        <time>2012-12-01T12:03:44Z</time>
      </trkpt>
      <trkpt lat="42.496725000" lon="-2.657134000">
        <ele>419.60</ele>
        <time>2012-12-01T12:03:45Z</time>
      </trkpt>
      <trkpt lat="42.496715000" lon="-2.657103000">
        <ele>419.60</ele>
        <time>2012-12-01T12:03:45Z</time>
      </trkpt>
      <trkpt lat="42.496651000" lon="-2.655521000">
        <ele>408.30</ele>
        <time>2012-12-01T12:04:06Z</time>
      </trkpt>
      <trkpt lat="42.496630000" lon="-2.655453000">
        <ele>408.00</ele>
        <time>2012-12-01T12:04:06Z</time>
      </trkpt>
      <trkpt lat="42.496601000" lon="-2.655404000">
        <ele>407.70</ele>
        <time>2012-12-01T12:04:08Z</time>
      </trkpt>
      <trkpt lat="42.496575000" lon="-2.655373000">
        <ele>407.60</ele>
        <time>2012-12-01T12:04:08Z</time>
      </trkpt>
      <trkpt lat="42.496541000" lon="-2.655348000">
        <ele>407.50</ele>
        <time>2012-12-01T12:04:10Z</time>
      </trkpt>
      <trkpt lat="42.496501000" lon="-2.655329000">
        <ele>407.40</ele>
        <time>2012-12-01T12:04:10Z</time>
      </trkpt>
      <trkpt lat="42.495151000" lon="-2.655278000">
        <ele>407.80</ele>
        <time>2012-12-01T12:04:38Z</time>
      </trkpt>
      <trkpt lat="42.495103000" lon="-2.655266000">
        <ele>407.80</ele>
        <time>2012-12-01T12:04:38Z</time>
      </trkpt>
      <trkpt lat="42.494583000" lon="-2.655111000">
        <ele>407.60</ele>
        <time>2012-12-01T12:04:50Z</time>
      </trkpt>
      <trkpt lat="42.494413000" lon="-2.654899000">
        <ele>407.30</ele>
        <time>2012-12-01T12:04:57Z</time>
      </trkpt>
      <trkpt lat="42.494353000" lon="-2.654846000">
        <ele>407.20</ele>
        <time>2012-12-01T12:04:59Z</time>
      </trkpt>
      <trkpt lat="42.494021000" lon="-2.654684000">
        <ele>407.00</ele>
        <time>2012-12-01T12:05:07Z</time>
      </trkpt>
      <trkpt lat="42.493456000" lon="-2.654074000">
        <ele>407.60</ele>
        <time>2012-12-01T12:05:25Z</time>
      </trkpt>
      <trkpt lat="42.493365000" lon="-2.653926000">
        <ele>407.80</ele>
        <time>2012-12-01T12:05:30Z</time>
      </trkpt>
      <trkpt lat="42.493350000" lon="-2.653891000">
        <ele>407.80</ele>
        <time>2012-12-01T12:05:30Z</time>
      </trkpt>
      <trkpt lat="42.493341000" lon="-2.653854000">
        <ele>407.90</ele>
        <time>2012-12-01T12:05:32Z</time>
      </trkpt>
      <trkpt lat="42.493380000" lon="-2.653074000">
        <ele>409.40</ele>
        <time>2012-12-01T12:05:46Z</time>
      </trkpt>
      <trkpt lat="42.493371000" lon="-2.653023000">
        <ele>409.50</ele>
        <time>2012-12-01T12:05:47Z</time>
      </trkpt>
      <trkpt lat="42.493353000" lon="-2.652978000">
        <ele>409.60</ele>
        <time>2012-12-01T12:05:47Z</time>
      </trkpt>
      <trkpt lat="42.493323000" lon="-2.652949000">
        <ele>409.70</ele>
        <time>2012-12-01T12:05:49Z</time>
      </trkpt>
      <trkpt lat="42.488971000" lon="-2.651528000">
        <ele>408.50</ele>
        <time>2012-12-01T12:07:27Z</time>
      </trkpt>
      <trkpt lat="42.488923000" lon="-2.651521000">
        <ele>408.50</ele>
        <time>2012-12-01T12:07:28Z</time>
      </trkpt>
      <trkpt lat="42.487691000" lon="-2.651138000">
        <ele>407.90</ele>
        <time>2012-12-01T12:07:53Z</time>
      </trkpt>
      <trkpt lat="42.486761000" lon="-2.650908000">
        <ele>407.60</ele>
        <time>2012-12-01T12:08:12Z</time>
      </trkpt>
      <trkpt lat="42.486180000" lon="-2.650629000">
        <ele>407.50</ele>
        <time>2012-12-01T12:08:24Z</time>
      </trkpt>
      <trkpt lat="42.485718000" lon="-2.650499000">
        <ele>406.60</ele>
        <time>2012-12-01T12:08:35Z</time>
      </trkpt>
      <trkpt lat="42.485675000" lon="-2.650474000">
        <ele>406.60</ele>
        <time>2012-12-01T12:08:36Z</time>
      </trkpt>
      <trkpt lat="42.485315000" lon="-2.650319000">
        <ele>405.90</ele>
        <time>2012-12-01T12:08:43Z</time>
      </trkpt>
      <trkpt lat="42.485216000" lon="-2.650318000">
        <ele>405.90</ele>
        <time>2012-12-01T12:08:45Z</time>
      </trkpt>
      <trkpt lat="42.485121000" lon="-2.650344000">
        <ele>406.10</ele>
        <time>2012-12-01T12:08:47Z</time>
      </trkpt>
      <trkpt lat="42.485080000" lon="-2.650378000">
        <ele>406.20</ele>
        <time>2012-12-01T12:08:48Z</time>
      </trkpt>
      <trkpt lat="42.485043000" lon="-2.650421000">
        <ele>406.30</ele>
        <time>2012-12-01T12:08:50Z</time>
      </trkpt>
      <trkpt lat="42.485015000" lon="-2.650471000">
        <ele>406.40</ele>
        <time>2012-12-01T12:08:50Z</time>
      </trkpt>
      <trkpt lat="42.484738000" lon="-2.651056000">
        <ele>408.70</ele>
        <time>2012-12-01T12:09:02Z</time>
      </trkpt>
      <trkpt lat="42.484631000" lon="-2.651213000">
        <ele>409.50</ele>
        <time>2012-12-01T12:09:06Z</time>
      </trkpt>
      <trkpt lat="42.484431000" lon="-2.651388000">
        <ele>412.50</ele>
        <time>2012-12-01T12:09:13Z</time>
      </trkpt>
      <trkpt lat="42.483975000" lon="-2.651571000">
        <ele>422.30</ele>
        <time>2012-12-01T12:09:25Z</time>
      </trkpt>
      <trkpt lat="42.483651000" lon="-2.651653000">
        <ele>429.00</ele>
        <time>2012-12-01T12:09:34Z</time>
      </trkpt>
      <trkpt lat="42.483620000" lon="-2.651654000">
        <ele>429.40</ele>
        <time>2012-12-01T12:09:35Z</time>
      </trkpt>
      <trkpt lat="42.483461000" lon="-2.651609000">
        <ele>431.30</ele>
        <time>2012-12-01T12:09:41Z</time>
      </trkpt>
      <trkpt lat="42.483435000" lon="-2.651596000">
        <ele>431.50</ele>
        <time>2012-12-01T12:09:41Z</time>
      </trkpt>
      <trkpt lat="42.483308000" lon="-2.651473000">
        <ele>432.70</ele>
        <time>2012-12-01T12:09:46Z</time>
      </trkpt>
      <trkpt lat="42.483245000" lon="-2.651379000">
        <ele>433.20</ele>
        <time>2012-12-01T12:09:49Z</time>
      </trkpt>
      <trkpt lat="42.483143000" lon="-2.651083000">
        <ele>433.20</ele>
        <time>2012-12-01T12:09:58Z</time>
      </trkpt>
      <trkpt lat="42.482616000" lon="-2.649156000">
        <ele>433.50</ele>
        <time>2012-12-01T12:10:59Z</time>
      </trkpt>
      <trkpt lat="42.482610000" lon="-2.649116000">
        <ele>433.60</ele>
        <time>2012-12-01T12:10:59Z</time>
      </trkpt>
      <trkpt lat="42.482510000" lon="-2.648771000">
        <ele>434.30</ele>
        <time>2012-12-01T12:11:11Z</time>
      </trkpt>
      <trkpt lat="42.482510000" lon="-2.648751000">
        <ele>434.40</ele>
        <time>2012-12-01T12:11:15Z</time>
      </trkpt>
      <trkpt lat="42.482510000" lon="-2.648748000">
        <ele>434.40</ele>
        <time>2012-12-01T12:11:17Z</time>
      </trkpt>
      <trkpt lat="42.482510000" lon="-2.648741000">
        <ele>434.30</ele>
        <time>2012-12-01T12:11:22Z</time>
      </trkpt>
      <trkpt lat="42.482513000" lon="-2.648733000">
        <ele>434.30</ele>
        <time>2012-12-01T12:11:29Z</time>
      </trkpt>
      <trkpt lat="42.482511000" lon="-2.648731000">
        <ele>434.30</ele>
        <time>2012-12-01T12:11:34Z</time>
      </trkpt>
      <trkpt lat="42.482513000" lon="-2.648728000">
        <ele>434.30</ele>
        <time>2012-12-01T12:11:39Z</time>
      </trkpt>
      <trkpt lat="42.482511000" lon="-2.648721000">
        <ele>434.30</ele>
        <time>2012-12-01T12:11:51Z</time>
      </trkpt>
      <trkpt lat="42.482508000" lon="-2.648721000">
        <ele>434.30</ele>
        <time>2012-12-01T12:11:58Z</time>
      </trkpt>
      <trkpt lat="42.482505000" lon="-2.648718000">
        <ele>434.30</ele>
        <time>2012-12-01T12:12:05Z</time>
      </trkpt>
      <trkpt lat="42.482503000" lon="-2.648718000">
        <ele>434.30</ele>
        <time>2012-12-01T12:12:07Z</time>
      </trkpt>
      <trkpt lat="42.482501000" lon="-2.648719000">
        <ele>434.40</ele>
        <time>2012-12-01T12:12:14Z</time>
      </trkpt>
      <trkpt lat="42.482501000" lon="-2.648721000">
        <ele>434.40</ele>
        <time>2012-12-01T12:12:14Z</time>
      </trkpt>
      <trkpt lat="42.482503000" lon="-2.648721000">
        <ele>434.40</ele>
        <time>2012-12-01T12:12:19Z</time>
      </trkpt>
      <trkpt lat="42.482503000" lon="-2.648718000">
        <ele>434.40</ele>
        <time>2012-12-01T12:12:21Z</time>
      </trkpt>
      <trkpt lat="42.482500000" lon="-2.648709000">
        <ele>434.40</ele>
        <time>2012-12-01T12:12:21Z</time>
      </trkpt>
      <trkpt lat="42.482495000" lon="-2.648614000">
        <ele>434.20</ele>
        <time>2012-12-01T12:12:26Z</time>
      </trkpt>
      <trkpt lat="42.482488000" lon="-2.648579000">
        <ele>434.20</ele>
        <time>2012-12-01T12:12:26Z</time>
      </trkpt>
      <trkpt lat="42.482361000" lon="-2.648141000">
        <ele>434.40</ele>
        <time>2012-12-01T12:12:40Z</time>
      </trkpt>
      <trkpt lat="42.482346000" lon="-2.648104000">
        <ele>434.40</ele>
        <time>2012-12-01T12:12:40Z</time>
      </trkpt>
      <trkpt lat="42.482323000" lon="-2.648074000">
        <ele>434.50</ele>
        <time>2012-12-01T12:12:42Z</time>
      </trkpt>
      <trkpt lat="42.482295000" lon="-2.648058000">
        <ele>434.70</ele>
        <time>2012-12-01T12:12:42Z</time>
      </trkpt>
      <trkpt lat="42.482261000" lon="-2.648056000">
        <ele>434.90</ele>
        <time>2012-12-01T12:12:44Z</time>
      </trkpt>
      <trkpt lat="42.481886000" lon="-2.648081000">
        <ele>438.90</ele>
        <time>2012-12-01T12:12:58Z</time>
      </trkpt>
      <trkpt lat="42.481853000" lon="-2.648068000">
        <ele>439.30</ele>
        <time>2012-12-01T12:12:59Z</time>
      </trkpt>
      <trkpt lat="42.481821000" lon="-2.648024000">
        <ele>439.50</ele>
        <time>2012-12-01T12:13:01Z</time>
      </trkpt>
      <trkpt lat="42.481800000" lon="-2.647961000">
        <ele>439.70</ele>
        <time>2012-12-01T12:13:03Z</time>
      </trkpt>
      <trkpt lat="42.481795000" lon="-2.647923000">
        <ele>439.70</ele>
        <time>2012-12-01T12:13:05Z</time>
      </trkpt>
      <trkpt lat="42.481583000" lon="-2.646874000">
        <ele>440.50</ele>
        <time>2012-12-01T12:13:27Z</time>
      </trkpt>
      <trkpt lat="42.481535000" lon="-2.646316000">
        <ele>440.60</ele>
        <time>2012-12-01T12:13:38Z</time>
      </trkpt>
      <trkpt lat="42.481556000" lon="-2.645279000">
        <ele>439.10</ele>
        <time>2012-12-01T12:13:55Z</time>
      </trkpt>
      <trkpt lat="42.481513000" lon="-2.644643000">
        <ele>440.20</ele>
        <time>2012-12-01T12:14:07Z</time>
      </trkpt>
      <trkpt lat="42.481515000" lon="-2.644588000">
        <ele>440.30</ele>
        <time>2012-12-01T12:14:07Z</time>
      </trkpt>
      <trkpt lat="42.481508000" lon="-2.644364000">
        <ele>440.80</ele>
        <time>2012-12-01T12:14:11Z</time>
      </trkpt>
      <trkpt lat="42.481490000" lon="-2.644301000">
        <ele>441.10</ele>
        <time>2012-12-01T12:14:12Z</time>
      </trkpt>
      <trkpt lat="42.481481000" lon="-2.644243000">
        <ele>441.30</ele>
        <time>2012-12-01T12:14:14Z</time>
      </trkpt>
      <trkpt lat="42.481496000" lon="-2.644078000">
        <ele>441.80</ele>
        <time>2012-12-01T12:14:16Z</time>
      </trkpt>
      <trkpt lat="42.481510000" lon="-2.644024000">
        <ele>441.90</ele>
        <time>2012-12-01T12:14:18Z</time>
      </trkpt>
      <trkpt lat="42.481515000" lon="-2.643971000">
        <ele>442.00</ele>
        <time>2012-12-01T12:14:18Z</time>
      </trkpt>
      <trkpt lat="42.481513000" lon="-2.643596000">
        <ele>442.40</ele>
        <time>2012-12-01T12:14:25Z</time>
      </trkpt>
      <trkpt lat="42.481455000" lon="-2.643074000">
        <ele>441.50</ele>
        <time>2012-12-01T12:14:37Z</time>
      </trkpt>
      <trkpt lat="42.481453000" lon="-2.642899000">
        <ele>441.10</ele>
        <time>2012-12-01T12:14:40Z</time>
      </trkpt>
      <trkpt lat="42.481060000" lon="-2.640403000">
        <ele>437.00</ele>
        <time>2012-12-01T12:15:19Z</time>
      </trkpt>
      <trkpt lat="42.481056000" lon="-2.640343000">
        <ele>437.30</ele>
        <time>2012-12-01T12:15:20Z</time>
      </trkpt>
      <trkpt lat="42.481063000" lon="-2.640283000">
        <ele>437.80</ele>
        <time>2012-12-01T12:15:22Z</time>
      </trkpt>
      <trkpt lat="42.481081000" lon="-2.640228000">
        <ele>437.90</ele>
        <time>2012-12-01T12:15:22Z</time>
      </trkpt>
      <trkpt lat="42.481108000" lon="-2.640181000">
        <ele>437.90</ele>
        <time>2012-12-01T12:15:24Z</time>
      </trkpt>
      <trkpt lat="42.481393000" lon="-2.639809000">
        <ele>436.00</ele>
        <time>2012-12-01T12:15:33Z</time>
      </trkpt>
      <trkpt lat="42.482561000" lon="-2.638538000">
        <ele>433.30</ele>
        <time>2012-12-01T12:16:04Z</time>
      </trkpt>
      <trkpt lat="42.482585000" lon="-2.638493000">
        <ele>433.30</ele>
        <time>2012-12-01T12:16:06Z</time>
      </trkpt>
      <trkpt lat="42.482853000" lon="-2.638103000">
        <ele>433.90</ele>
        <time>2012-12-01T12:16:13Z</time>
      </trkpt>
      <trkpt lat="42.482978000" lon="-2.637818000">
        <ele>434.60</ele>
        <time>2012-12-01T12:16:18Z</time>
      </trkpt>
      <trkpt lat="42.482993000" lon="-2.637756000">
        <ele>434.50</ele>
        <time>2012-12-01T12:16:20Z</time>
      </trkpt>
      <trkpt lat="42.483130000" lon="-2.637448000">
        <ele>434.00</ele>
        <time>2012-12-01T12:16:25Z</time>
      </trkpt>
      <trkpt lat="42.483148000" lon="-2.637384000">
        <ele>433.90</ele>
        <time>2012-12-01T12:16:25Z</time>
      </trkpt>
      <trkpt lat="42.484353000" lon="-2.634744000">
        <ele>428.40</ele>
        <time>2012-12-01T12:17:08Z</time>
      </trkpt>
      <trkpt lat="42.485045000" lon="-2.631601000">
        <ele>424.60</ele>
        <time>2012-12-01T12:17:54Z</time>
      </trkpt>
      <trkpt lat="42.485053000" lon="-2.631531000">
        <ele>424.60</ele>
        <time>2012-12-01T12:17:54Z</time>
      </trkpt>
      <trkpt lat="42.485701000" lon="-2.628261000">
        <ele>426.00</ele>
        <time>2012-12-01T12:18:41Z</time>
      </trkpt>
      <trkpt lat="42.485741000" lon="-2.627949000">
        <ele>425.80</ele>
        <time>2012-12-01T12:18:46Z</time>
      </trkpt>
      <trkpt lat="42.485753000" lon="-2.627783000">
        <ele>425.80</ele>
        <time>2012-12-01T12:18:49Z</time>
      </trkpt>
      <trkpt lat="42.485780000" lon="-2.627643000">
        <ele>425.80</ele>
        <time>2012-12-01T12:18:53Z</time>
      </trkpt>
      <trkpt lat="42.485823000" lon="-2.627509000">
        <ele>425.80</ele>
        <time>2012-12-01T12:18:55Z</time>
      </trkpt>
      <trkpt lat="42.485831000" lon="-2.627461000">
        <ele>425.80</ele>
        <time>2012-12-01T12:18:56Z</time>
      </trkpt>
      <trkpt lat="42.485981000" lon="-2.626599000">
        <ele>425.60</ele>
        <time>2012-12-01T12:19:12Z</time>
      </trkpt>
      <trkpt lat="42.486286000" lon="-2.625176000">
        <ele>425.90</ele>
        <time>2012-12-01T12:19:40Z</time>
      </trkpt>
      <trkpt lat="42.486976000" lon="-2.623014000">
        <ele>423.70</ele>
        <time>2012-12-01T12:20:20Z</time>
      </trkpt>
      <trkpt lat="42.487001000" lon="-2.622963000">
        <ele>423.70</ele>
        <time>2012-12-01T12:20:20Z</time>
      </trkpt>
      <trkpt lat="42.487948000" lon="-2.621068000">
        <ele>422.80</ele>
        <time>2012-12-01T12:21:00Z</time>
      </trkpt>
      <trkpt lat="42.488281000" lon="-2.620346000">
        <ele>425.00</ele>
        <time>2012-12-01T12:21:16Z</time>
      </trkpt>
      <trkpt lat="42.488306000" lon="-2.620313000">
        <ele>425.20</ele>
        <time>2012-12-01T12:21:17Z</time>
      </trkpt>
      <trkpt lat="42.489045000" lon="-2.618743000">
        <ele>426.20</ele>
        <time>2012-12-01T12:21:56Z</time>
      </trkpt>
      <trkpt lat="42.489055000" lon="-2.618729000">
        <ele>426.20</ele>
        <time>2012-12-01T12:21:56Z</time>
      </trkpt>
      <trkpt lat="42.489081000" lon="-2.618706000">
        <ele>426.20</ele>
        <time>2012-12-01T12:21:59Z</time>
      </trkpt>
      <trkpt lat="42.489100000" lon="-2.618696000">
        <ele>426.20</ele>
        <time>2012-12-01T12:21:59Z</time>
      </trkpt>
      <trkpt lat="42.489121000" lon="-2.618694000">
        <ele>426.10</ele>
        <time>2012-12-01T12:22:01Z</time>
      </trkpt>
      <trkpt lat="42.489146000" lon="-2.618704000">
        <ele>426.00</ele>
        <time>2012-12-01T12:22:01Z</time>
      </trkpt>
      <trkpt lat="42.489220000" lon="-2.618756000">
        <ele>425.40</ele>
        <time>2012-12-01T12:22:05Z</time>
      </trkpt>
      <trkpt lat="42.489248000" lon="-2.618769000">
        <ele>425.20</ele>
        <time>2012-12-01T12:22:06Z</time>
      </trkpt>
      <trkpt lat="42.489278000" lon="-2.618768000">
        <ele>425.00</ele>
        <time>2012-12-01T12:22:06Z</time>
      </trkpt>
      <trkpt lat="42.489301000" lon="-2.618748000">
        <ele>424.80</ele>
        <time>2012-12-01T12:22:08Z</time>
      </trkpt>
      <trkpt lat="42.489318000" lon="-2.618714000">
        <ele>424.80</ele>
        <time>2012-12-01T12:22:08Z</time>
      </trkpt>
      <trkpt lat="42.489431000" lon="-2.618246000">
        <ele>425.20</ele>
        <time>2012-12-01T12:22:18Z</time>
      </trkpt>
      <trkpt lat="42.490805000" lon="-2.613861000">
        <ele>426.60</ele>
        <time>2012-12-01T12:23:37Z</time>
      </trkpt>
      <trkpt lat="42.490816000" lon="-2.613801000">
        <ele>426.70</ele>
        <time>2012-12-01T12:23:37Z</time>
      </trkpt>
      <trkpt lat="42.490728000" lon="-2.606833000">
        <ele>423.50</ele>
        <time>2012-12-01T12:25:21Z</time>
      </trkpt>
      <trkpt lat="42.490718000" lon="-2.606769000">
        <ele>423.40</ele>
        <time>2012-12-01T12:25:23Z</time>
      </trkpt>
      <trkpt lat="42.490375000" lon="-2.605251000">
        <ele>422.00</ele>
        <time>2012-12-01T12:25:46Z</time>
      </trkpt>
      <trkpt lat="42.490040000" lon="-2.604454000">
        <ele>421.60</ele>
        <time>2012-12-01T12:26:00Z</time>
      </trkpt>
      <trkpt lat="42.489221000" lon="-2.603134000">
        <ele>421.20</ele>
        <time>2012-12-01T12:26:26Z</time>
      </trkpt>
      <trkpt lat="42.489190000" lon="-2.603104000">
        <ele>421.20</ele>
        <time>2012-12-01T12:26:26Z</time>
      </trkpt>
      <trkpt lat="42.487270000" lon="-2.601791000">
        <ele>419.60</ele>
        <time>2012-12-01T12:27:08Z</time>
      </trkpt>
      <trkpt lat="42.487235000" lon="-2.601783000">
        <ele>419.60</ele>
        <time>2012-12-01T12:27:09Z</time>
      </trkpt>
      <trkpt lat="42.487203000" lon="-2.601796000">
        <ele>419.60</ele>
        <time>2012-12-01T12:27:09Z</time>
      </trkpt>
      <trkpt lat="42.487176000" lon="-2.601828000">
        <ele>419.60</ele>
        <time>2012-12-01T12:27:11Z</time>
      </trkpt>
      <trkpt lat="42.487136000" lon="-2.601928000">
        <ele>419.90</ele>
        <time>2012-12-01T12:27:13Z</time>
      </trkpt>
      <trkpt lat="42.487103000" lon="-2.601968000">
        <ele>420.10</ele>
        <time>2012-12-01T12:27:13Z</time>
      </trkpt>
      <trkpt lat="42.487060000" lon="-2.601993000">
        <ele>420.30</ele>
        <time>2012-12-01T12:27:15Z</time>
      </trkpt>
      <trkpt lat="42.487011000" lon="-2.601996000">
        <ele>420.50</ele>
        <time>2012-12-01T12:27:16Z</time>
      </trkpt>
      <trkpt lat="42.486785000" lon="-2.601953000">
        <ele>421.10</ele>
        <time>2012-12-01T12:27:20Z</time>
      </trkpt>
      <trkpt lat="42.485393000" lon="-2.602074000">
        <ele>419.90</ele>
        <time>2012-12-01T12:27:53Z</time>
      </trkpt>
      <trkpt lat="42.485348000" lon="-2.602088000">
        <ele>419.80</ele>
        <time>2012-12-01T12:27:55Z</time>
      </trkpt>
      <trkpt lat="42.482266000" lon="-2.603363000">
        <ele>417.00</ele>
        <time>2012-12-01T12:29:06Z</time>
      </trkpt>
      <trkpt lat="42.481005000" lon="-2.603639000">
        <ele>417.10</ele>
        <time>2012-12-01T12:29:32Z</time>
      </trkpt>
      <trkpt lat="42.480936000" lon="-2.603694000">
        <ele>417.70</ele>
        <time>2012-12-01T12:29:34Z</time>
      </trkpt>
      <trkpt lat="42.480906000" lon="-2.603731000">
        <ele>418.20</ele>
        <time>2012-12-01T12:29:34Z</time>
      </trkpt>
      <trkpt lat="42.480511000" lon="-2.604576000">
        <ele>420.80</ele>
        <time>2012-12-01T12:29:51Z</time>
      </trkpt>
      <trkpt lat="42.480285000" lon="-2.604891000">
        <ele>420.60</ele>
        <time>2012-12-01T12:29:58Z</time>
      </trkpt>
      <trkpt lat="42.480071000" lon="-2.605074000">
        <ele>419.90</ele>
        <time>2012-12-01T12:30:04Z</time>
      </trkpt>
      <trkpt lat="42.479678000" lon="-2.605329000">
        <ele>418.50</ele>
        <time>2012-12-01T12:30:12Z</time>
      </trkpt>
      <trkpt lat="42.479633000" lon="-2.605371000">
        <ele>418.40</ele>
        <time>2012-12-01T12:30:12Z</time>
      </trkpt>
      <trkpt lat="42.479476000" lon="-2.605584000">
        <ele>418.20</ele>
        <time>2012-12-01T12:30:16Z</time>
      </trkpt>
      <trkpt lat="42.479448000" lon="-2.605644000">
        <ele>418.30</ele>
        <time>2012-12-01T12:30:18Z</time>
      </trkpt>
      <trkpt lat="42.479370000" lon="-2.605898000">
        <ele>418.70</ele>
        <time>2012-12-01T12:30:21Z</time>
      </trkpt>
      <trkpt lat="42.479306000" lon="-2.606004000">
        <ele>418.80</ele>
        <time>2012-12-01T12:30:23Z</time>
      </trkpt>
      <trkpt lat="42.479266000" lon="-2.606048000">
        <ele>418.90</ele>
        <time>2012-12-01T12:30:24Z</time>
      </trkpt>
      <trkpt lat="42.479178000" lon="-2.606111000">
        <ele>418.80</ele>
        <time>2012-12-01T12:30:26Z</time>
      </trkpt>
      <trkpt lat="42.479130000" lon="-2.606131000">
        <ele>418.80</ele>
        <time>2012-12-01T12:30:28Z</time>
      </trkpt>
      <trkpt lat="42.479030000" lon="-2.606141000">
        <ele>418.60</ele>
        <time>2012-12-01T12:30:30Z</time>
      </trkpt>
      <trkpt lat="42.478463000" lon="-2.605939000">
        <ele>418.50</ele>
        <time>2012-12-01T12:30:40Z</time>
      </trkpt>
      <trkpt lat="42.478363000" lon="-2.605874000">
        <ele>418.70</ele>
        <time>2012-12-01T12:30:42Z</time>
      </trkpt>
      <trkpt lat="42.478276000" lon="-2.605773000">
        <ele>418.90</ele>
        <time>2012-12-01T12:30:45Z</time>
      </trkpt>
      <trkpt lat="42.478170000" lon="-2.605576000">
        <ele>419.20</ele>
        <time>2012-12-01T12:30:47Z</time>
      </trkpt>
      <trkpt lat="42.477980000" lon="-2.605116000">
        <ele>419.70</ele>
        <time>2012-12-01T12:30:54Z</time>
      </trkpt>
      <trkpt lat="42.477770000" lon="-2.604791000">
        <ele>419.90</ele>
        <time>2012-12-01T12:31:01Z</time>
      </trkpt>
      <trkpt lat="42.477546000" lon="-2.604578000">
        <ele>419.60</ele>
        <time>2012-12-01T12:31:06Z</time>
      </trkpt>
      <trkpt lat="42.477130000" lon="-2.604353000">
        <ele>418.90</ele>
        <time>2012-12-01T12:31:13Z</time>
      </trkpt>
      <trkpt lat="42.477083000" lon="-2.604313000">
        <ele>418.90</ele>
        <time>2012-12-01T12:31:15Z</time>
      </trkpt>
      <trkpt lat="42.476075000" lon="-2.603806000">
        <ele>418.50</ele>
        <time>2012-12-01T12:31:34Z</time>
      </trkpt>
      <trkpt lat="42.475265000" lon="-2.603764000">
        <ele>416.10</ele>
        <time>2012-12-01T12:31:48Z</time>
      </trkpt>
      <trkpt lat="42.475210000" lon="-2.603744000">
        <ele>416.20</ele>
        <time>2012-12-01T12:31:48Z</time>
      </trkpt>
      <trkpt lat="42.475158000" lon="-2.603704000">
        <ele>416.20</ele>
        <time>2012-12-01T12:31:50Z</time>
      </trkpt>
      <trkpt lat="42.475113000" lon="-2.603643000">
        <ele>416.10</ele>
        <time>2012-12-01T12:31:50Z</time>
      </trkpt>
      <trkpt lat="42.475083000" lon="-2.603563000">
        <ele>416.00</ele>
        <time>2012-12-01T12:31:52Z</time>
      </trkpt>
      <trkpt lat="42.475066000" lon="-2.603471000">
        <ele>415.80</ele>
        <time>2012-12-01T12:31:53Z</time>
      </trkpt>
      <trkpt lat="42.475088000" lon="-2.602956000">
        <ele>414.40</ele>
        <time>2012-12-01T12:31:57Z</time>
      </trkpt>
      <trkpt lat="42.475065000" lon="-2.602871000">
        <ele>414.10</ele>
        <time>2012-12-01T12:31:59Z</time>
      </trkpt>
      <trkpt lat="42.475023000" lon="-2.602803000">
        <ele>413.80</ele>
        <time>2012-12-01T12:32:00Z</time>
      </trkpt>
      <trkpt lat="42.474966000" lon="-2.602758000">
        <ele>413.50</ele>
        <time>2012-12-01T12:32:00Z</time>
      </trkpt>
      <trkpt lat="42.472536000" lon="-2.602301000">
        <ele>408.30</ele>
        <time>2012-12-01T12:32:40Z</time>
      </trkpt>
      <trkpt lat="42.472470000" lon="-2.602311000">
        <ele>408.20</ele>
        <time>2012-12-01T12:32:40Z</time>
      </trkpt>
      <trkpt lat="42.472223000" lon="-2.602471000">
        <ele>407.60</ele>
        <time>2012-12-01T12:32:44Z</time>
      </trkpt>
      <trkpt lat="42.472150000" lon="-2.602503000">
        <ele>407.40</ele>
        <time>2012-12-01T12:32:46Z</time>
      </trkpt>
      <trkpt lat="42.471558000" lon="-2.602493000">
        <ele>407.70</ele>
        <time>2012-12-01T12:32:53Z</time>
      </trkpt>
      <trkpt lat="42.471403000" lon="-2.602451000">
        <ele>408.00</ele>
        <time>2012-12-01T12:32:54Z</time>
      </trkpt>
      <trkpt lat="42.471261000" lon="-2.602374000">
        <ele>408.20</ele>
        <time>2012-12-01T12:32:56Z</time>
      </trkpt>
      <trkpt lat="42.470920000" lon="-2.602058000">
        <ele>409.30</ele>
        <time>2012-12-01T12:33:03Z</time>
      </trkpt>
      <trkpt lat="42.470738000" lon="-2.601986000">
        <ele>410.10</ele>
        <time>2012-12-01T12:33:05Z</time>
      </trkpt>
      <trkpt lat="42.468593000" lon="-2.601706000">
        <ele>412.70</ele>
        <time>2012-12-01T12:33:43Z</time>
      </trkpt>
      <trkpt lat="42.468546000" lon="-2.601691000">
        <ele>412.70</ele>
        <time>2012-12-01T12:33:43Z</time>
      </trkpt>
      <trkpt lat="42.466900000" lon="-2.600883000">
        <ele>413.20</ele>
        <time>2012-12-01T12:34:18Z</time>
      </trkpt>
      <trkpt lat="42.466695000" lon="-2.600794000">
        <ele>413.40</ele>
        <time>2012-12-01T12:34:21Z</time>
      </trkpt>
      <trkpt lat="42.466633000" lon="-2.600788000">
        <ele>413.50</ele>
        <time>2012-12-01T12:34:23Z</time>
      </trkpt>
      <trkpt lat="42.466570000" lon="-2.600794000">
        <ele>413.60</ele>
        <time>2012-12-01T12:34:23Z</time>
      </trkpt>
      <trkpt lat="42.466335000" lon="-2.600869000">
        <ele>414.60</ele>
        <time>2012-12-01T12:34:28Z</time>
      </trkpt>
      <trkpt lat="42.465765000" lon="-2.600899000">
        <ele>415.50</ele>
        <time>2012-12-01T12:34:39Z</time>
      </trkpt>
      <trkpt lat="42.465096000" lon="-2.600763000">
        <ele>415.80</ele>
        <time>2012-12-01T12:34:53Z</time>
      </trkpt>
      <trkpt lat="42.465055000" lon="-2.600746000">
        <ele>415.80</ele>
        <time>2012-12-01T12:34:53Z</time>
      </trkpt>
      <trkpt lat="42.464671000" lon="-2.600648000">
        <ele>416.30</ele>
        <time>2012-12-01T12:35:05Z</time>
      </trkpt>
      <trkpt lat="42.464661000" lon="-2.600643000">
        <ele>416.30</ele>
        <time>2012-12-01T12:35:05Z</time>
      </trkpt>
      <trkpt lat="42.464653000" lon="-2.600641000">
        <ele>416.30</ele>
        <time>2012-12-01T12:35:07Z</time>
      </trkpt>
      <trkpt lat="42.464638000" lon="-2.600631000">
        <ele>416.30</ele>
        <time>2012-12-01T12:35:10Z</time>
      </trkpt>
      <trkpt lat="42.464635000" lon="-2.600631000">
        <ele>416.40</ele>
        <time>2012-12-01T12:35:12Z</time>
      </trkpt>
      <trkpt lat="42.464595000" lon="-2.600621000">
        <ele>416.40</ele>
        <time>2012-12-01T12:35:15Z</time>
      </trkpt>
      <trkpt lat="42.464576000" lon="-2.600609000">
        <ele>416.40</ele>
        <time>2012-12-01T12:35:17Z</time>
      </trkpt>
      <trkpt lat="42.464536000" lon="-2.600564000">
        <ele>416.50</ele>
        <time>2012-12-01T12:35:19Z</time>
      </trkpt>
      <trkpt lat="42.464500000" lon="-2.600491000">
        <ele>416.50</ele>
        <time>2012-12-01T12:35:21Z</time>
      </trkpt>
      <trkpt lat="42.463060000" lon="-2.594824000">
        <ele>413.10</ele>
        <time>2012-12-01T12:36:32Z</time>
      </trkpt>
      <trkpt lat="42.463031000" lon="-2.594759000">
        <ele>413.20</ele>
        <time>2012-12-01T12:36:32Z</time>
      </trkpt>
      <trkpt lat="42.462961000" lon="-2.594644000">
        <ele>413.50</ele>
        <time>2012-12-01T12:36:34Z</time>
      </trkpt>
      <trkpt lat="42.462916000" lon="-2.594604000">
        <ele>413.70</ele>
        <time>2012-12-01T12:36:36Z</time>
      </trkpt>
      <trkpt lat="42.462868000" lon="-2.594581000">
        <ele>413.90</ele>
        <time>2012-12-01T12:36:37Z</time>
      </trkpt>
      <trkpt lat="42.462723000" lon="-2.594543000">
        <ele>414.40</ele>
        <time>2012-12-01T12:36:39Z</time>
      </trkpt>
      <trkpt lat="42.462680000" lon="-2.594523000">
        <ele>414.50</ele>
        <time>2012-12-01T12:36:41Z</time>
      </trkpt>
      <trkpt lat="42.462638000" lon="-2.594493000">
        <ele>414.60</ele>
        <time>2012-12-01T12:36:41Z</time>
      </trkpt>
      <trkpt lat="42.462570000" lon="-2.594408000">
        <ele>414.70</ele>
        <time>2012-12-01T12:36:44Z</time>
      </trkpt>
      <trkpt lat="42.462521000" lon="-2.594298000">
        <ele>414.70</ele>
        <time>2012-12-01T12:36:46Z</time>
      </trkpt>
      <trkpt lat="42.461945000" lon="-2.591986000">
        <ele>412.10</ele>
        <time>2012-12-01T12:37:19Z</time>
      </trkpt>
      <trkpt lat="42.461918000" lon="-2.591916000">
        <ele>412.10</ele>
        <time>2012-12-01T12:37:21Z</time>
      </trkpt>
      <trkpt lat="42.461885000" lon="-2.591854000">
        <ele>412.10</ele>
        <time>2012-12-01T12:37:21Z</time>
      </trkpt>
      <trkpt lat="42.461580000" lon="-2.591443000">
        <ele>412.10</ele>
        <time>2012-12-01T12:37:30Z</time>
      </trkpt>
      <trkpt lat="42.461500000" lon="-2.591384000">
        <ele>412.10</ele>
        <time>2012-12-01T12:37:31Z</time>
      </trkpt>
      <trkpt lat="42.461348000" lon="-2.591339000">
        <ele>412.10</ele>
        <time>2012-12-01T12:37:35Z</time>
      </trkpt>
      <trkpt lat="42.461311000" lon="-2.591336000">
        <ele>412.00</ele>
        <time>2012-12-01T12:37:36Z</time>
      </trkpt>
      <trkpt lat="42.460120000" lon="-2.591439000">
        <ele>414.40</ele>
        <time>2012-12-01T12:38:11Z</time>
      </trkpt>
      <trkpt lat="42.459780000" lon="-2.591636000">
        <ele>416.60</ele>
        <time>2012-12-01T12:38:22Z</time>
      </trkpt>
      <trkpt lat="42.459663000" lon="-2.591733000">
        <ele>417.40</ele>
        <time>2012-12-01T12:38:27Z</time>
      </trkpt>
      <trkpt lat="42.459490000" lon="-2.591851000">
        <ele>418.70</ele>
        <time>2012-12-01T12:38:34Z</time>
      </trkpt>
      <trkpt lat="42.459178000" lon="-2.592233000">
        <ele>421.60</ele>
        <time>2012-12-01T12:38:48Z</time>
      </trkpt>
      <trkpt lat="42.459160000" lon="-2.592263000">
        <ele>421.80</ele>
        <time>2012-12-01T12:38:48Z</time>
      </trkpt>
      <trkpt lat="42.458440000" lon="-2.593018000">
        <ele>429.80</ele>
        <time>2012-12-01T12:39:28Z</time>
      </trkpt>
      <trkpt lat="42.458406000" lon="-2.593036000">
        <ele>430.10</ele>
        <time>2012-12-01T12:39:30Z</time>
      </trkpt>
      <trkpt lat="42.457830000" lon="-2.593156000">
        <ele>434.00</ele>
        <time>2012-12-01T12:39:52Z</time>
      </trkpt>
      <trkpt lat="42.457753000" lon="-2.593114000">
        <ele>434.60</ele>
        <time>2012-12-01T12:39:56Z</time>
      </trkpt>
      <trkpt lat="42.457746000" lon="-2.593049000">
        <ele>434.40</ele>
        <time>2012-12-01T12:39:59Z</time>
      </trkpt>
      <trkpt lat="42.457746000" lon="-2.593016000">
        <ele>434.30</ele>
        <time>2012-12-01T12:39:59Z</time>
      </trkpt>
      <trkpt lat="42.457650000" lon="-2.591496000">
        <ele>437.20</ele>
        <time>2012-12-01T12:40:38Z</time>
      </trkpt>
      <trkpt lat="42.457550000" lon="-2.590898000">
        <ele>441.30</ele>
        <time>2012-12-01T12:40:55Z</time>
      </trkpt>
      <trkpt lat="42.457651000" lon="-2.587756000">
        <ele>447.50</ele>
        <time>2012-12-01T12:42:03Z</time>
      </trkpt>
      <trkpt lat="42.457643000" lon="-2.587698000">
        <ele>447.40</ele>
        <time>2012-12-01T12:42:05Z</time>
      </trkpt>
      <trkpt lat="42.457548000" lon="-2.587323000">
        <ele>447.10</ele>
        <time>2012-12-01T12:42:12Z</time>
      </trkpt>
      <trkpt lat="42.457543000" lon="-2.587278000">
        <ele>447.00</ele>
        <time>2012-12-01T12:42:13Z</time>
      </trkpt>
      <trkpt lat="42.457548000" lon="-2.587231000">
        <ele>446.80</ele>
        <time>2012-12-01T12:42:15Z</time>
      </trkpt>
      <trkpt lat="42.457560000" lon="-2.587184000">
        <ele>446.50</ele>
        <time>2012-12-01T12:42:15Z</time>
      </trkpt>
      <trkpt lat="42.457686000" lon="-2.586946000">
        <ele>444.40</ele>
        <time>2012-12-01T12:42:22Z</time>
      </trkpt>
      <trkpt lat="42.457723000" lon="-2.586823000">
        <ele>444.20</ele>
        <time>2012-12-01T12:42:24Z</time>
      </trkpt>
      <trkpt lat="42.457733000" lon="-2.586743000">
        <ele>444.40</ele>
        <time>2012-12-01T12:42:26Z</time>
      </trkpt>
      <trkpt lat="42.457703000" lon="-2.586271000">
        <ele>446.70</ele>
        <time>2012-12-01T12:42:36Z</time>
      </trkpt>
      <trkpt lat="42.457738000" lon="-2.585258000">
        <ele>450.50</ele>
        <time>2012-12-01T12:42:57Z</time>
      </trkpt>
      <trkpt lat="42.457698000" lon="-2.584899000">
        <ele>451.70</ele>
        <time>2012-12-01T12:43:06Z</time>
      </trkpt>
      <trkpt lat="42.457686000" lon="-2.584848000">
        <ele>451.80</ele>
        <time>2012-12-01T12:43:06Z</time>
      </trkpt>
      <trkpt lat="42.457493000" lon="-2.583108000">
        <ele>457.60</ele>
        <time>2012-12-01T12:43:37Z</time>
      </trkpt>
      <trkpt lat="42.457423000" lon="-2.582568000">
        <ele>460.40</ele>
        <time>2012-12-01T12:43:54Z</time>
      </trkpt>
      <trkpt lat="42.457418000" lon="-2.582484000">
        <ele>461.00</ele>
        <time>2012-12-01T12:43:58Z</time>
      </trkpt>
      <trkpt lat="42.457340000" lon="-2.582083000">
        <ele>465.30</ele>
        <time>2012-12-01T12:44:12Z</time>
      </trkpt>
      <trkpt lat="42.457331000" lon="-2.582056000">
        <ele>465.50</ele>
        <time>2012-12-01T12:44:14Z</time>
      </trkpt>
      <trkpt lat="42.457208000" lon="-2.581599000">
        <ele>471.40</ele>
        <time>2012-12-01T12:44:31Z</time>
      </trkpt>
      <trkpt lat="42.456898000" lon="-2.580659000">
        <ele>478.50</ele>
        <time>2012-12-01T12:45:06Z</time>
      </trkpt>
      <trkpt lat="42.456866000" lon="-2.580583000">
        <ele>478.80</ele>
        <time>2012-12-01T12:45:09Z</time>
      </trkpt>
      <trkpt lat="42.456860000" lon="-2.580553000">
        <ele>478.90</ele>
        <time>2012-12-01T12:45:11Z</time>
      </trkpt>
      <trkpt lat="42.456383000" lon="-2.579364000">
        <ele>481.90</ele>
        <time>2012-12-01T12:45:48Z</time>
      </trkpt>
      <trkpt lat="42.456366000" lon="-2.579334000">
        <ele>481.90</ele>
        <time>2012-12-01T12:45:49Z</time>
      </trkpt>
      <trkpt lat="42.456010000" lon="-2.578753000">
        <ele>480.40</ele>
        <time>2012-12-01T12:46:10Z</time>
      </trkpt>
      <trkpt lat="42.455713000" lon="-2.578263000">
        <ele>480.60</ele>
        <time>2012-12-01T12:46:29Z</time>
      </trkpt>
      <trkpt lat="42.455630000" lon="-2.578178000">
        <ele>480.80</ele>
        <time>2012-12-01T12:46:35Z</time>
      </trkpt>
      <trkpt lat="42.455611000" lon="-2.578168000">
        <ele>480.80</ele>
        <time>2012-12-01T12:46:35Z</time>
      </trkpt>
      <trkpt lat="42.455470000" lon="-2.578141000">
        <ele>481.80</ele>
        <time>2012-12-01T12:46:43Z</time>
      </trkpt>
      <trkpt lat="42.455468000" lon="-2.578138000">
        <ele>481.80</ele>
        <time>2012-12-01T12:46:45Z</time>
      </trkpt>
      <trkpt lat="42.455466000" lon="-2.578139000">
        <ele>481.90</ele>
        <time>2012-12-01T12:46:47Z</time>
      </trkpt>
      <trkpt lat="42.455465000" lon="-2.578136000">
        <ele>481.90</ele>
        <time>2012-12-01T12:46:50Z</time>
      </trkpt>
      <trkpt lat="42.455466000" lon="-2.578141000">
        <ele>481.90</ele>
        <time>2012-12-01T12:46:57Z</time>
      </trkpt>
      <trkpt lat="42.455465000" lon="-2.578138000">
        <ele>481.90</ele>
        <time>2012-12-01T12:47:10Z</time>
      </trkpt>
      <trkpt lat="42.455463000" lon="-2.578138000">
        <ele>481.90</ele>
        <time>2012-12-01T12:47:11Z</time>
      </trkpt>
      <trkpt lat="42.455458000" lon="-2.578133000">
        <ele>481.90</ele>
        <time>2012-12-01T12:47:13Z</time>
      </trkpt>
      <trkpt lat="42.455446000" lon="-2.578119000">
        <ele>481.90</ele>
        <time>2012-12-01T12:47:17Z</time>
      </trkpt>
      <trkpt lat="42.455448000" lon="-2.578111000">
        <ele>481.90</ele>
        <time>2012-12-01T12:47:34Z</time>
      </trkpt>
      <trkpt lat="42.455450000" lon="-2.578111000">
        <ele>481.90</ele>
        <time>2012-12-01T12:47:43Z</time>
      </trkpt>
      <trkpt lat="42.455451000" lon="-2.578113000">
        <ele>481.90</ele>
        <time>2012-12-01T12:47:48Z</time>
      </trkpt>
      <trkpt lat="42.455451000" lon="-2.578111000">
        <ele>481.90</ele>
        <time>2012-12-01T12:47:48Z</time>
      </trkpt>
      <trkpt lat="42.455451000" lon="-2.578113000">
        <ele>481.90</ele>
        <time>2012-12-01T12:47:50Z</time>
      </trkpt>
      <trkpt lat="42.455455000" lon="-2.578116000">
        <ele>481.90</ele>
        <time>2012-12-01T12:47:57Z</time>
      </trkpt>
      <trkpt lat="42.455455000" lon="-2.578114000">
        <ele>481.90</ele>
        <time>2012-12-01T12:47:58Z</time>
      </trkpt>
      <trkpt lat="42.455455000" lon="-2.578114000">
        <ele>481.90</ele>
        <time>2012-12-01T12:47:58Z</time>
      </trkpt>
      <trkpt lat="42.455455000" lon="-2.578116000">
        <ele>481.80</ele>
        <time>2012-12-01T12:48:02Z</time>
      </trkpt>
      <trkpt lat="42.455455000" lon="-2.578116000">
        <ele>481.80</ele>
        <time>2012-12-01T12:48:02Z</time>
      </trkpt>
      <trkpt lat="42.455456000" lon="-2.578116000">
        <ele>481.80</ele>
        <time>2012-12-01T12:48:04Z</time>
      </trkpt>
      <trkpt lat="42.455453000" lon="-2.578114000">
        <ele>481.80</ele>
        <time>2012-12-01T12:48:05Z</time>
      </trkpt>
      <trkpt lat="42.455445000" lon="-2.578101000">
        <ele>481.80</ele>
        <time>2012-12-01T12:48:07Z</time>
      </trkpt>
      <trkpt lat="42.455403000" lon="-2.578006000">
        <ele>481.60</ele>
        <time>2012-12-01T12:48:12Z</time>
      </trkpt>
      <trkpt lat="42.455358000" lon="-2.577938000">
        <ele>481.40</ele>
        <time>2012-12-01T12:48:14Z</time>
      </trkpt>
      <trkpt lat="42.455320000" lon="-2.577856000">
        <ele>481.20</ele>
        <time>2012-12-01T12:48:18Z</time>
      </trkpt>
      <trkpt lat="42.454960000" lon="-2.577228000">
        <ele>480.20</ele>
        <time>2012-12-01T12:48:40Z</time>
      </trkpt>
      <trkpt lat="42.454660000" lon="-2.576739000">
        <ele>479.90</ele>
        <time>2012-12-01T12:48:54Z</time>
      </trkpt>
      <trkpt lat="42.454638000" lon="-2.576688000">
        <ele>479.90</ele>
        <time>2012-12-01T12:48:56Z</time>
      </trkpt>
      <trkpt lat="42.454113000" lon="-2.576039000">
        <ele>478.20</ele>
        <time>2012-12-01T12:49:10Z</time>
      </trkpt>
      <trkpt lat="42.452470000" lon="-2.574793000">
        <ele>478.60</ele>
        <time>2012-12-01T12:49:45Z</time>
      </trkpt>
      <trkpt lat="42.451106000" lon="-2.573599000">
        <ele>484.80</ele>
        <time>2012-12-01T12:50:18Z</time>
      </trkpt>
      <trkpt lat="42.451066000" lon="-2.573574000">
        <ele>484.90</ele>
        <time>2012-12-01T12:50:18Z</time>
      </trkpt>
      <trkpt lat="42.449598000" lon="-2.573091000">
        <ele>488.50</ele>
        <time>2012-12-01T12:51:05Z</time>
      </trkpt>
      <trkpt lat="42.449311000" lon="-2.573019000">
        <ele>487.90</ele>
        <time>2012-12-01T12:51:13Z</time>
      </trkpt>
      <trkpt lat="42.448083000" lon="-2.572661000">
        <ele>483.40</ele>
        <time>2012-12-01T12:51:38Z</time>
      </trkpt>
      <trkpt lat="42.448020000" lon="-2.572656000">
        <ele>483.30</ele>
        <time>2012-12-01T12:51:40Z</time>
      </trkpt>
      <trkpt lat="42.444998000" lon="-2.572298000">
        <ele>471.50</ele>
        <time>2012-12-01T12:52:25Z</time>
      </trkpt>
      <trkpt lat="42.444868000" lon="-2.572234000">
        <ele>471.70</ele>
        <time>2012-12-01T12:52:28Z</time>
      </trkpt>
      <trkpt lat="42.444361000" lon="-2.572124000">
        <ele>471.80</ele>
        <time>2012-12-01T12:52:39Z</time>
      </trkpt>
      <trkpt lat="42.444311000" lon="-2.572123000">
        <ele>471.80</ele>
        <time>2012-12-01T12:52:41Z</time>
      </trkpt>
      <trkpt lat="42.444100000" lon="-2.572101000">
        <ele>471.50</ele>
        <time>2012-12-01T12:52:46Z</time>
      </trkpt>
      <trkpt lat="42.444070000" lon="-2.572081000">
        <ele>471.40</ele>
        <time>2012-12-01T12:52:48Z</time>
      </trkpt>
      <trkpt lat="42.444050000" lon="-2.572044000">
        <ele>471.30</ele>
        <time>2012-12-01T12:52:49Z</time>
      </trkpt>
      <trkpt lat="42.444043000" lon="-2.572001000">
        <ele>471.30</ele>
        <time>2012-12-01T12:52:49Z</time>
      </trkpt>
      <trkpt lat="42.444056000" lon="-2.571966000">
        <ele>471.20</ele>
        <time>2012-12-01T12:52:51Z</time>
      </trkpt>
      <trkpt lat="42.444078000" lon="-2.571934000">
        <ele>471.20</ele>
        <time>2012-12-01T12:52:51Z</time>
      </trkpt>
      <trkpt lat="42.444178000" lon="-2.571869000">
        <ele>471.10</ele>
        <time>2012-12-01T12:52:54Z</time>
      </trkpt>
      <trkpt lat="42.444336000" lon="-2.571691000">
        <ele>470.90</ele>
        <time>2012-12-01T12:53:00Z</time>
      </trkpt>
      <trkpt lat="42.444393000" lon="-2.571604000">
        <ele>470.80</ele>
        <time>2012-12-01T12:53:01Z</time>
      </trkpt>
      <trkpt lat="42.444501000" lon="-2.571391000">
        <ele>470.40</ele>
        <time>2012-12-01T12:53:07Z</time>
      </trkpt>
      <trkpt lat="42.444538000" lon="-2.571226000">
        <ele>470.10</ele>
        <time>2012-12-01T12:53:10Z</time>
      </trkpt>
      <trkpt lat="42.446056000" lon="-2.568351000">
        <ele>465.00</ele>
        <time>2012-12-01T12:53:52Z</time>
      </trkpt>
      <trkpt lat="42.446083000" lon="-2.568274000">
        <ele>464.90</ele>
        <time>2012-12-01T12:53:54Z</time>
      </trkpt>
      <trkpt lat="42.446341000" lon="-2.567336000">
        <ele>462.70</ele>
        <time>2012-12-01T12:54:06Z</time>
      </trkpt>
      <trkpt lat="42.446341000" lon="-2.567261000">
        <ele>462.50</ele>
        <time>2012-12-01T12:54:06Z</time>
      </trkpt>
      <trkpt lat="42.446333000" lon="-2.567188000">
        <ele>462.30</ele>
        <time>2012-12-01T12:54:08Z</time>
      </trkpt>
      <trkpt lat="42.446296000" lon="-2.567058000">
        <ele>462.00</ele>
        <time>2012-12-01T12:54:09Z</time>
      </trkpt>
      <trkpt lat="42.446246000" lon="-2.566948000">
        <ele>461.90</ele>
        <time>2012-12-01T12:54:11Z</time>
      </trkpt>
      <trkpt lat="42.445738000" lon="-2.566238000">
        <ele>462.70</ele>
        <time>2012-12-01T12:54:25Z</time>
      </trkpt>
      <trkpt lat="42.445700000" lon="-2.566204000">
        <ele>462.70</ele>
        <time>2012-12-01T12:54:27Z</time>
      </trkpt>
      <trkpt lat="42.445660000" lon="-2.566179000">
        <ele>462.80</ele>
        <time>2012-12-01T12:54:27Z</time>
      </trkpt>
      <trkpt lat="42.445626000" lon="-2.566146000">
        <ele>462.90</ele>
        <time>2012-12-01T12:54:29Z</time>
      </trkpt>
      <trkpt lat="42.445498000" lon="-2.565996000">
        <ele>462.90</ele>
        <time>2012-12-01T12:54:32Z</time>
      </trkpt>
      <trkpt lat="42.444940000" lon="-2.564816000">
        <ele>461.20</ele>
        <time>2012-12-01T12:54:58Z</time>
      </trkpt>
      <trkpt lat="42.444926000" lon="-2.564774000">
        <ele>461.20</ele>
        <time>2012-12-01T12:54:58Z</time>
      </trkpt>
      <trkpt lat="42.444770000" lon="-2.563826000">
        <ele>461.50</ele>
        <time>2012-12-01T12:55:17Z</time>
      </trkpt>
      <trkpt lat="42.444781000" lon="-2.563324000">
        <ele>461.60</ele>
        <time>2012-12-01T12:55:26Z</time>
      </trkpt>
      <trkpt lat="42.444878000" lon="-2.562719000">
        <ele>461.70</ele>
        <time>2012-12-01T12:55:40Z</time>
      </trkpt>
      <trkpt lat="42.444918000" lon="-2.562559000">
        <ele>461.70</ele>
        <time>2012-12-01T12:55:45Z</time>
      </trkpt>
      <trkpt lat="42.445101000" lon="-2.561768000">
        <ele>461.90</ele>
        <time>2012-12-01T12:56:01Z</time>
      </trkpt>
      <trkpt lat="42.445108000" lon="-2.561708000">
        <ele>461.90</ele>
        <time>2012-12-01T12:56:03Z</time>
      </trkpt>
      <trkpt lat="42.445098000" lon="-2.561103000">
        <ele>462.00</ele>
        <time>2012-12-01T12:56:13Z</time>
      </trkpt>
      <trkpt lat="42.445051000" lon="-2.560941000">
        <ele>462.00</ele>
        <time>2012-12-01T12:56:17Z</time>
      </trkpt>
      <trkpt lat="42.445030000" lon="-2.560893000">
        <ele>462.10</ele>
        <time>2012-12-01T12:56:18Z</time>
      </trkpt>
      <trkpt lat="42.444225000" lon="-2.559578000">
        <ele>463.40</ele>
        <time>2012-12-01T12:56:48Z</time>
      </trkpt>
      <trkpt lat="42.444173000" lon="-2.559518000">
        <ele>463.40</ele>
        <time>2012-12-01T12:56:50Z</time>
      </trkpt>
      <trkpt lat="42.443826000" lon="-2.559069000">
        <ele>463.30</ele>
        <time>2012-12-01T12:57:04Z</time>
      </trkpt>
      <trkpt lat="42.443795000" lon="-2.559039000">
        <ele>463.30</ele>
        <time>2012-12-01T12:57:05Z</time>
      </trkpt>
      <trkpt lat="42.443505000" lon="-2.558738000">
        <ele>463.50</ele>
        <time>2012-12-01T12:57:14Z</time>
      </trkpt>
      <trkpt lat="42.443231000" lon="-2.558261000">
        <ele>462.90</ele>
        <time>2012-12-01T12:57:26Z</time>
      </trkpt>
      <trkpt lat="42.443108000" lon="-2.558111000">
        <ele>462.30</ele>
        <time>2012-12-01T12:57:30Z</time>
      </trkpt>
      <trkpt lat="42.442825000" lon="-2.557814000">
        <ele>461.10</ele>
        <time>2012-12-01T12:57:38Z</time>
      </trkpt>
      <trkpt lat="42.442756000" lon="-2.557754000">
        <ele>461.30</ele>
        <time>2012-12-01T12:57:40Z</time>
      </trkpt>
      <trkpt lat="42.442648000" lon="-2.557593000">
        <ele>461.50</ele>
        <time>2012-12-01T12:57:45Z</time>
      </trkpt>
      <trkpt lat="42.442313000" lon="-2.557256000">
        <ele>462.30</ele>
        <time>2012-12-01T12:57:54Z</time>
      </trkpt>
      <trkpt lat="42.442125000" lon="-2.557051000">
        <ele>462.80</ele>
        <time>2012-12-01T12:58:01Z</time>
      </trkpt>
      <trkpt lat="42.442021000" lon="-2.556959000">
        <ele>463.00</ele>
        <time>2012-12-01T12:58:03Z</time>
      </trkpt>
      <trkpt lat="42.441928000" lon="-2.556846000">
        <ele>463.10</ele>
        <time>2012-12-01T12:58:06Z</time>
      </trkpt>
      <trkpt lat="42.441893000" lon="-2.556814000">
        <ele>463.10</ele>
        <time>2012-12-01T12:58:08Z</time>
      </trkpt>
      <trkpt lat="42.441258000" lon="-2.556251000">
        <ele>463.90</ele>
        <time>2012-12-01T12:58:25Z</time>
      </trkpt>
      <trkpt lat="42.441118000" lon="-2.556134000">
        <ele>463.90</ele>
        <time>2012-12-01T12:58:29Z</time>
      </trkpt>
      <trkpt lat="42.440836000" lon="-2.555843000">
        <ele>463.70</ele>
        <time>2012-12-01T12:58:38Z</time>
      </trkpt>
      <trkpt lat="42.440720000" lon="-2.555784000">
        <ele>463.70</ele>
        <time>2012-12-01T12:58:41Z</time>
      </trkpt>
      <trkpt lat="42.440461000" lon="-2.555746000">
        <ele>463.90</ele>
        <time>2012-12-01T12:58:48Z</time>
      </trkpt>
      <trkpt lat="42.440020000" lon="-2.555868000">
        <ele>464.20</ele>
        <time>2012-12-01T12:58:57Z</time>
      </trkpt>
      <trkpt lat="42.439975000" lon="-2.555868000">
        <ele>464.20</ele>
        <time>2012-12-01T12:58:59Z</time>
      </trkpt>
      <trkpt lat="42.439933000" lon="-2.555856000">
        <ele>464.20</ele>
        <time>2012-12-01T12:59:00Z</time>
      </trkpt>
      <trkpt lat="42.439900000" lon="-2.555828000">
        <ele>464.20</ele>
        <time>2012-12-01T12:59:00Z</time>
      </trkpt>
      <trkpt lat="42.439878000" lon="-2.555789000">
        <ele>464.20</ele>
        <time>2012-12-01T12:59:02Z</time>
      </trkpt>
      <trkpt lat="42.439868000" lon="-2.555746000">
        <ele>464.20</ele>
        <time>2012-12-01T12:59:02Z</time>
      </trkpt>
      <trkpt lat="42.439873000" lon="-2.555699000">
        <ele>464.20</ele>
        <time>2012-12-01T12:59:04Z</time>
      </trkpt>
      <trkpt lat="42.439883000" lon="-2.555656000">
        <ele>464.20</ele>
        <time>2012-12-01T12:59:04Z</time>
      </trkpt>
      <trkpt lat="42.440010000" lon="-2.555333000">
        <ele>463.90</ele>
        <time>2012-12-01T12:59:12Z</time>
      </trkpt>
      <trkpt lat="42.440020000" lon="-2.555294000">
        <ele>463.90</ele>
        <time>2012-12-01T12:59:14Z</time>
      </trkpt>
      <trkpt lat="42.440523000" lon="-2.554191000">
        <ele>463.50</ele>
        <time>2012-12-01T12:59:37Z</time>
      </trkpt>
      <trkpt lat="42.440543000" lon="-2.554129000">
        <ele>463.40</ele>
        <time>2012-12-01T12:59:37Z</time>
      </trkpt>
      <trkpt lat="42.440555000" lon="-2.554073000">
        <ele>463.30</ele>
        <time>2012-12-01T12:59:39Z</time>
      </trkpt>
      <trkpt lat="42.440556000" lon="-2.554026000">
        <ele>463.20</ele>
        <time>2012-12-01T12:59:40Z</time>
      </trkpt>
      <trkpt lat="42.440551000" lon="-2.553993000">
        <ele>463.20</ele>
        <time>2012-12-01T12:59:40Z</time>
      </trkpt>
      <trkpt lat="42.440533000" lon="-2.553968000">
        <ele>463.10</ele>
        <time>2012-12-01T12:59:42Z</time>
      </trkpt>
      <trkpt lat="42.440503000" lon="-2.553953000">
        <ele>463.10</ele>
        <time>2012-12-01T12:59:42Z</time>
      </trkpt>
      <trkpt lat="42.440466000" lon="-2.553954000">
        <ele>463.10</ele>
        <time>2012-12-01T12:59:44Z</time>
      </trkpt>
      <trkpt lat="42.440425000" lon="-2.553974000">
        <ele>463.20</ele>
        <time>2012-12-01T12:59:44Z</time>
      </trkpt>
      <trkpt lat="42.440221000" lon="-2.554138000">
        <ele>463.20</ele>
        <time>2012-12-01T12:59:49Z</time>
      </trkpt>
      <trkpt lat="42.440161000" lon="-2.554168000">
        <ele>463.20</ele>
        <time>2012-12-01T12:59:49Z</time>
      </trkpt>
      <trkpt lat="42.440035000" lon="-2.554168000">
        <ele>463.10</ele>
        <time>2012-12-01T12:59:51Z</time>
      </trkpt>
      <trkpt lat="42.439973000" lon="-2.554149000">
        <ele>463.00</ele>
        <time>2012-12-01T12:59:53Z</time>
      </trkpt>
      <trkpt lat="42.439683000" lon="-2.553953000">
        <ele>462.40</ele>
        <time>2012-12-01T12:59:58Z</time>
      </trkpt>
      <trkpt lat="42.438318000" lon="-2.552678000">
        <ele>463.80</ele>
        <time>2012-12-01T13:00:31Z</time>
      </trkpt>
      <trkpt lat="42.438285000" lon="-2.552636000">
        <ele>463.80</ele>
        <time>2012-12-01T13:00:33Z</time>
      </trkpt>
      <trkpt lat="42.436125000" lon="-2.550328000">
        <ele>465.10</ele>
        <time>2012-12-01T13:01:30Z</time>
      </trkpt>
      <trkpt lat="42.436018000" lon="-2.550149000">
        <ele>465.40</ele>
        <time>2012-12-01T13:01:35Z</time>
      </trkpt>
      <trkpt lat="42.436005000" lon="-2.550099000">
        <ele>465.40</ele>
        <time>2012-12-01T13:01:35Z</time>
      </trkpt>
      <trkpt lat="42.436001000" lon="-2.550046000">
        <ele>465.50</ele>
        <time>2012-12-01T13:01:37Z</time>
      </trkpt>
      <trkpt lat="42.436035000" lon="-2.549829000">
        <ele>465.70</ele>
        <time>2012-12-01T13:01:41Z</time>
      </trkpt>
      <trkpt lat="42.436095000" lon="-2.549566000">
        <ele>465.90</ele>
        <time>2012-12-01T13:01:46Z</time>
      </trkpt>
      <trkpt lat="42.436098000" lon="-2.549509000">
        <ele>465.90</ele>
        <time>2012-12-01T13:01:46Z</time>
      </trkpt>
      <trkpt lat="42.436076000" lon="-2.549398000">
        <ele>465.90</ele>
        <time>2012-12-01T13:01:49Z</time>
      </trkpt>
      <trkpt lat="42.436060000" lon="-2.549344000">
        <ele>465.90</ele>
        <time>2012-12-01T13:01:49Z</time>
      </trkpt>
      <trkpt lat="42.435983000" lon="-2.549201000">
        <ele>465.90</ele>
        <time>2012-12-01T13:01:53Z</time>
      </trkpt>
      <trkpt lat="42.435805000" lon="-2.548934000">
        <ele>465.90</ele>
        <time>2012-12-01T13:01:58Z</time>
      </trkpt>
      <trkpt lat="42.435598000" lon="-2.548514000">
        <ele>465.90</ele>
        <time>2012-12-01T13:02:07Z</time>
      </trkpt>
      <trkpt lat="42.435550000" lon="-2.548343000">
        <ele>465.90</ele>
        <time>2012-12-01T13:02:10Z</time>
      </trkpt>
      <trkpt lat="42.435536000" lon="-2.548228000">
        <ele>465.90</ele>
        <time>2012-12-01T13:02:12Z</time>
      </trkpt>
      <trkpt lat="42.435543000" lon="-2.548123000">
        <ele>465.90</ele>
        <time>2012-12-01T13:02:14Z</time>
      </trkpt>
      <trkpt lat="42.435535000" lon="-2.548074000">
        <ele>465.90</ele>
        <time>2012-12-01T13:02:15Z</time>
      </trkpt>
      <trkpt lat="42.435511000" lon="-2.548038000">
        <ele>465.90</ele>
        <time>2012-12-01T13:02:17Z</time>
      </trkpt>
      <trkpt lat="42.434080000" lon="-2.546848000">
        <ele>469.50</ele>
        <time>2012-12-01T13:02:57Z</time>
      </trkpt>
      <trkpt lat="42.434046000" lon="-2.546806000">
        <ele>469.60</ele>
        <time>2012-12-01T13:02:57Z</time>
      </trkpt>
      <trkpt lat="42.433778000" lon="-2.546344000">
        <ele>471.40</ele>
        <time>2012-12-01T13:03:08Z</time>
      </trkpt>
      <trkpt lat="42.433600000" lon="-2.545766000">
        <ele>472.20</ele>
        <time>2012-12-01T13:03:23Z</time>
      </trkpt>
      <trkpt lat="42.433435000" lon="-2.545003000">
        <ele>473.30</ele>
        <time>2012-12-01T13:03:46Z</time>
      </trkpt>
      <trkpt lat="42.433431000" lon="-2.544811000">
        <ele>473.50</ele>
        <time>2012-12-01T13:03:55Z</time>
      </trkpt>
      <trkpt lat="42.433413000" lon="-2.544694000">
        <ele>473.60</ele>
        <time>2012-12-01T13:03:58Z</time>
      </trkpt>
      <trkpt lat="42.433405000" lon="-2.544664000">
        <ele>473.70</ele>
        <time>2012-12-01T13:04:00Z</time>
      </trkpt>
      <trkpt lat="42.433380000" lon="-2.544361000">
        <ele>473.90</ele>
        <time>2012-12-01T13:04:07Z</time>
      </trkpt>
      <trkpt lat="42.433395000" lon="-2.544181000">
        <ele>474.00</ele>
        <time>2012-12-01T13:04:10Z</time>
      </trkpt>
      <trkpt lat="42.433453000" lon="-2.543983000">
        <ele>474.10</ele>
        <time>2012-12-01T13:04:12Z</time>
      </trkpt>
      <trkpt lat="42.433566000" lon="-2.543759000">
        <ele>474.10</ele>
        <time>2012-12-01T13:04:17Z</time>
      </trkpt>
      <trkpt lat="42.434705000" lon="-2.542268000">
        <ele>476.80</ele>
        <time>2012-12-01T13:04:57Z</time>
      </trkpt>
      <trkpt lat="42.434883000" lon="-2.541908000">
        <ele>478.40</ele>
        <time>2012-12-01T13:05:10Z</time>
      </trkpt>
      <trkpt lat="42.434895000" lon="-2.541876000">
        <ele>478.50</ele>
        <time>2012-12-01T13:05:11Z</time>
      </trkpt>
      <trkpt lat="42.435013000" lon="-2.541599000">
        <ele>480.10</ele>
        <time>2012-12-01T13:05:20Z</time>
      </trkpt>
      <trkpt lat="42.435056000" lon="-2.541444000">
        <ele>481.00</ele>
        <time>2012-12-01T13:05:25Z</time>
      </trkpt>
      <trkpt lat="42.435345000" lon="-2.540969000">
        <ele>483.20</ele>
        <time>2012-12-01T13:05:43Z</time>
      </trkpt>
      <trkpt lat="42.436226000" lon="-2.539708000">
        <ele>489.90</ele>
        <time>2012-12-01T13:06:33Z</time>
      </trkpt>
      <trkpt lat="42.436246000" lon="-2.539688000">
        <ele>490.00</ele>
        <time>2012-12-01T13:06:33Z</time>
      </trkpt>
      <trkpt lat="42.436808000" lon="-2.539244000">
        <ele>494.10</ele>
        <time>2012-12-01T13:06:59Z</time>
      </trkpt>
      <trkpt lat="42.437505000" lon="-2.538354000">
        <ele>499.00</ele>
        <time>2012-12-01T13:07:24Z</time>
      </trkpt>
      <trkpt lat="42.437538000" lon="-2.538296000">
        <ele>499.00</ele>
        <time>2012-12-01T13:07:24Z</time>
      </trkpt>
      <trkpt lat="42.437581000" lon="-2.538159000">
        <ele>499.10</ele>
        <time>2012-12-01T13:07:27Z</time>
      </trkpt>
      <trkpt lat="42.437623000" lon="-2.537973000">
        <ele>499.50</ele>
        <time>2012-12-01T13:07:29Z</time>
      </trkpt>
      <trkpt lat="42.437856000" lon="-2.537419000">
        <ele>498.80</ele>
        <time>2012-12-01T13:07:41Z</time>
      </trkpt>
      <trkpt lat="42.437878000" lon="-2.537293000">
        <ele>498.80</ele>
        <time>2012-12-01T13:07:46Z</time>
      </trkpt>
      <trkpt lat="42.437888000" lon="-2.537274000">
        <ele>498.80</ele>
        <time>2012-12-01T13:07:48Z</time>
      </trkpt>
      <trkpt lat="42.437888000" lon="-2.537268000">
        <ele>498.80</ele>
        <time>2012-12-01T13:07:50Z</time>
      </trkpt>
      <trkpt lat="42.437893000" lon="-2.537258000">
        <ele>498.70</ele>
        <time>2012-12-01T13:07:50Z</time>
      </trkpt>
      <trkpt lat="42.437900000" lon="-2.537244000">
        <ele>498.70</ele>
        <time>2012-12-01T13:07:52Z</time>
      </trkpt>
      <trkpt lat="42.437913000" lon="-2.537211000">
        <ele>498.60</ele>
        <time>2012-12-01T13:07:53Z</time>
      </trkpt>
      <trkpt lat="42.437921000" lon="-2.537203000">
        <ele>498.60</ele>
        <time>2012-12-01T13:07:55Z</time>
      </trkpt>
      <trkpt lat="42.437940000" lon="-2.537216000">
        <ele>498.40</ele>
        <time>2012-12-01T13:07:57Z</time>
      </trkpt>
      <trkpt lat="42.437950000" lon="-2.537213000">
        <ele>498.30</ele>
        <time>2012-12-01T13:07:57Z</time>
      </trkpt>
      <trkpt lat="42.437956000" lon="-2.537199000">
        <ele>498.20</ele>
        <time>2012-12-01T13:07:59Z</time>
      </trkpt>
      <trkpt lat="42.437960000" lon="-2.537186000">
        <ele>498.20</ele>
        <time>2012-12-01T13:08:00Z</time>
      </trkpt>
      <trkpt lat="42.437951000" lon="-2.537164000">
        <ele>498.30</ele>
        <time>2012-12-01T13:08:02Z</time>
      </trkpt>
      <trkpt lat="42.437946000" lon="-2.537156000">
        <ele>498.30</ele>
        <time>2012-12-01T13:08:02Z</time>
      </trkpt>
      <trkpt lat="42.437945000" lon="-2.537151000">
        <ele>498.40</ele>
        <time>2012-12-01T13:08:04Z</time>
      </trkpt>
      <trkpt lat="42.437945000" lon="-2.537149000">
        <ele>498.40</ele>
        <time>2012-12-01T13:08:04Z</time>
      </trkpt>
      <trkpt lat="42.437941000" lon="-2.537151000">
        <ele>498.40</ele>
        <time>2012-12-01T13:08:07Z</time>
      </trkpt>
      <trkpt lat="42.437940000" lon="-2.537136000">
        <ele>498.50</ele>
        <time>2012-12-01T13:08:09Z</time>
      </trkpt>
      <trkpt lat="42.437941000" lon="-2.537119000">
        <ele>498.50</ele>
        <time>2012-12-01T13:08:09Z</time>
      </trkpt>
      <trkpt lat="42.437941000" lon="-2.537101000">
        <ele>498.60</ele>
        <time>2012-12-01T13:08:11Z</time>
      </trkpt>
      <trkpt lat="42.438325000" lon="-2.535838000">
        <ele>498.50</ele>
        <time>2012-12-01T13:08:40Z</time>
      </trkpt>
      <trkpt lat="42.438423000" lon="-2.535609000">
        <ele>499.40</ele>
        <time>2012-12-01T13:08:44Z</time>
      </trkpt>
      <trkpt lat="42.438436000" lon="-2.535563000">
        <ele>499.50</ele>
        <time>2012-12-01T13:08:46Z</time>
      </trkpt>
      <trkpt lat="42.438790000" lon="-2.533108000">
        <ele>503.80</ele>
        <time>2012-12-01T13:09:33Z</time>
      </trkpt>
      <trkpt lat="42.438871000" lon="-2.532066000">
        <ele>504.60</ele>
        <time>2012-12-01T13:09:52Z</time>
      </trkpt>
      <trkpt lat="42.438881000" lon="-2.532016000">
        <ele>504.70</ele>
        <time>2012-12-01T13:09:54Z</time>
      </trkpt>
      <trkpt lat="42.439298000" lon="-2.530303000">
        <ele>508.50</ele>
        <time>2012-12-01T13:10:28Z</time>
      </trkpt>
      <trkpt lat="42.439300000" lon="-2.530196000">
        <ele>508.90</ele>
        <time>2012-12-01T13:10:30Z</time>
      </trkpt>
      <trkpt lat="42.439543000" lon="-2.529028000">
        <ele>512.00</ele>
        <time>2012-12-01T13:10:49Z</time>
      </trkpt>
      <trkpt lat="42.439570000" lon="-2.528646000">
        <ele>513.70</ele>
        <time>2012-12-01T13:10:58Z</time>
      </trkpt>
      <trkpt lat="42.439576000" lon="-2.528608000">
        <ele>513.70</ele>
        <time>2012-12-01T13:11:00Z</time>
      </trkpt>
      <trkpt lat="42.439885000" lon="-2.525094000">
        <ele>524.50</ele>
        <time>2012-12-01T13:12:27Z</time>
      </trkpt>
      <trkpt lat="42.439883000" lon="-2.525064000">
        <ele>524.50</ele>
        <time>2012-12-01T13:12:29Z</time>
      </trkpt>
      <trkpt lat="42.439888000" lon="-2.524946000">
        <ele>524.40</ele>
        <time>2012-12-01T13:12:34Z</time>
      </trkpt>
      <trkpt lat="42.439891000" lon="-2.524946000">
        <ele>524.40</ele>
        <time>2012-12-01T13:12:34Z</time>
      </trkpt>
      <trkpt lat="42.439890000" lon="-2.524944000">
        <ele>524.40</ele>
        <time>2012-12-01T13:12:36Z</time>
      </trkpt>
      <trkpt lat="42.439883000" lon="-2.524941000">
        <ele>524.40</ele>
        <time>2012-12-01T13:12:37Z</time>
      </trkpt>
      <trkpt lat="42.439885000" lon="-2.524939000">
        <ele>524.40</ele>
        <time>2012-12-01T13:12:39Z</time>
      </trkpt>
      <trkpt lat="42.439885000" lon="-2.524931000">
        <ele>524.40</ele>
        <time>2012-12-01T13:12:41Z</time>
      </trkpt>
      <trkpt lat="42.439885000" lon="-2.524931000">
        <ele>524.40</ele>
        <time>2012-12-01T13:12:42Z</time>
      </trkpt>
      <trkpt lat="42.439883000" lon="-2.524931000">
        <ele>524.50</ele>
        <time>2012-12-01T13:12:44Z</time>
      </trkpt>
      <trkpt lat="42.439883000" lon="-2.524928000">
        <ele>524.50</ele>
        <time>2012-12-01T13:12:46Z</time>
      </trkpt>
      <trkpt lat="42.439885000" lon="-2.524928000">
        <ele>524.50</ele>
        <time>2012-12-01T13:12:48Z</time>
      </trkpt>
      <trkpt lat="42.439883000" lon="-2.524928000">
        <ele>524.50</ele>
        <time>2012-12-01T13:12:51Z</time>
      </trkpt>
      <trkpt lat="42.439883000" lon="-2.524926000">
        <ele>524.50</ele>
        <time>2012-12-01T13:12:51Z</time>
      </trkpt>
      <trkpt lat="42.439885000" lon="-2.524924000">
        <ele>524.50</ele>
        <time>2012-12-01T13:12:53Z</time>
      </trkpt>
      <trkpt lat="42.439885000" lon="-2.524924000">
        <ele>524.50</ele>
        <time>2012-12-01T13:12:53Z</time>
      </trkpt>
      <trkpt lat="42.439885000" lon="-2.524929000">
        <ele>524.40</ele>
        <time>2012-12-01T13:13:30Z</time>
      </trkpt>
      <trkpt lat="42.439885000" lon="-2.524929000">
        <ele>524.40</ele>
        <time>2012-12-01T13:13:33Z</time>
      </trkpt>
      <trkpt lat="42.439883000" lon="-2.524929000">
        <ele>524.50</ele>
        <time>2012-12-01T13:13:33Z</time>
      </trkpt>
      <trkpt lat="42.439885000" lon="-2.524931000">
        <ele>524.40</ele>
        <time>2012-12-01T13:13:35Z</time>
      </trkpt>
      <trkpt lat="42.439883000" lon="-2.524931000">
        <ele>524.50</ele>
        <time>2012-12-01T13:13:35Z</time>
      </trkpt>
      <trkpt lat="42.439885000" lon="-2.524931000">
        <ele>524.50</ele>
        <time>2012-12-01T13:13:40Z</time>
      </trkpt>
      <trkpt lat="42.439883000" lon="-2.524931000">
        <ele>524.50</ele>
        <time>2012-12-01T13:13:42Z</time>
      </trkpt>
      <trkpt lat="42.439883000" lon="-2.524933000">
        <ele>524.50</ele>
        <time>2012-12-01T13:13:42Z</time>
      </trkpt>
      <trkpt lat="42.439885000" lon="-2.524933000">
        <ele>524.50</ele>
        <time>2012-12-01T13:13:43Z</time>
      </trkpt>
      <trkpt lat="42.439883000" lon="-2.524933000">
        <ele>524.50</ele>
        <time>2012-12-01T13:13:45Z</time>
      </trkpt>
      <trkpt lat="42.439885000" lon="-2.524943000">
        <ele>524.50</ele>
        <time>2012-12-01T13:14:01Z</time>
      </trkpt>
      <trkpt lat="42.439883000" lon="-2.524943000">
        <ele>524.50</ele>
        <time>2012-12-01T13:14:03Z</time>
      </trkpt>
      <trkpt lat="42.439883000" lon="-2.524938000">
        <ele>524.50</ele>
        <time>2012-12-01T13:14:15Z</time>
      </trkpt>
      <trkpt lat="42.439885000" lon="-2.524939000">
        <ele>524.50</ele>
        <time>2012-12-01T13:14:15Z</time>
      </trkpt>
      <trkpt lat="42.439883000" lon="-2.524936000">
        <ele>524.50</ele>
        <time>2012-12-01T13:14:29Z</time>
      </trkpt>
      <trkpt lat="42.439885000" lon="-2.524936000">
        <ele>524.50</ele>
        <time>2012-12-01T13:14:30Z</time>
      </trkpt>
      <trkpt lat="42.439886000" lon="-2.524938000">
        <ele>524.40</ele>
        <time>2012-12-01T13:14:32Z</time>
      </trkpt>
      <trkpt lat="42.439890000" lon="-2.524943000">
        <ele>524.40</ele>
        <time>2012-12-01T13:14:32Z</time>
      </trkpt>
      <trkpt lat="42.439891000" lon="-2.524946000">
        <ele>524.40</ele>
        <time>2012-12-01T13:14:34Z</time>
      </trkpt>
      <trkpt lat="42.439890000" lon="-2.524946000">
        <ele>524.40</ele>
        <time>2012-12-01T13:14:37Z</time>
      </trkpt>
      <trkpt lat="42.439893000" lon="-2.524943000">
        <ele>524.40</ele>
        <time>2012-12-01T13:14:53Z</time>
      </trkpt>
      <trkpt lat="42.439893000" lon="-2.524941000">
        <ele>524.30</ele>
        <time>2012-12-01T13:14:53Z</time>
      </trkpt>
      <trkpt lat="42.439893000" lon="-2.524944000">
        <ele>524.30</ele>
        <time>2012-12-01T13:14:58Z</time>
      </trkpt>
      <trkpt lat="42.439895000" lon="-2.524944000">
        <ele>524.30</ele>
        <time>2012-12-01T13:14:58Z</time>
      </trkpt>
      <trkpt lat="42.439895000" lon="-2.524946000">
        <ele>524.30</ele>
        <time>2012-12-01T13:15:00Z</time>
      </trkpt>
      <trkpt lat="42.439898000" lon="-2.524946000">
        <ele>524.30</ele>
        <time>2012-12-01T13:15:02Z</time>
      </trkpt>
      <trkpt lat="42.439898000" lon="-2.524949000">
        <ele>524.30</ele>
        <time>2012-12-01T13:15:09Z</time>
      </trkpt>
      <trkpt lat="42.439900000" lon="-2.524949000">
        <ele>524.30</ele>
        <time>2012-12-01T13:15:21Z</time>
      </trkpt>
      <trkpt lat="42.439901000" lon="-2.524949000">
        <ele>524.20</ele>
        <time>2012-12-01T13:15:23Z</time>
      </trkpt>
      <trkpt lat="42.439908000" lon="-2.524948000">
        <ele>524.20</ele>
        <time>2012-12-01T13:15:51Z</time>
      </trkpt>
      <trkpt lat="42.439908000" lon="-2.524948000">
        <ele>524.20</ele>
        <time>2012-12-01T13:15:54Z</time>
      </trkpt>
      <trkpt lat="42.439911000" lon="-2.524948000">
        <ele>524.10</ele>
        <time>2012-12-01T13:16:06Z</time>
      </trkpt>
      <trkpt lat="42.439911000" lon="-2.524946000">
        <ele>524.10</ele>
        <time>2012-12-01T13:16:13Z</time>
      </trkpt>
      <trkpt lat="42.439913000" lon="-2.524946000">
        <ele>524.10</ele>
        <time>2012-12-01T13:16:20Z</time>
      </trkpt>
      <trkpt lat="42.439913000" lon="-2.524948000">
        <ele>524.10</ele>
        <time>2012-12-01T13:16:20Z</time>
      </trkpt>
      <trkpt lat="42.439916000" lon="-2.524949000">
        <ele>524.10</ele>
        <time>2012-12-01T13:16:24Z</time>
      </trkpt>
      <trkpt lat="42.439916000" lon="-2.524951000">
        <ele>524.00</ele>
        <time>2012-12-01T13:16:25Z</time>
      </trkpt>
      <trkpt lat="42.439918000" lon="-2.524951000">
        <ele>524.00</ele>
        <time>2012-12-01T13:16:27Z</time>
      </trkpt>
      <trkpt lat="42.439918000" lon="-2.524954000">
        <ele>524.00</ele>
        <time>2012-12-01T13:16:31Z</time>
      </trkpt>
      <trkpt lat="42.439920000" lon="-2.524954000">
        <ele>524.00</ele>
        <time>2012-12-01T13:16:32Z</time>
      </trkpt>
      <trkpt lat="42.439920000" lon="-2.524956000">
        <ele>524.00</ele>
        <time>2012-12-01T13:16:36Z</time>
      </trkpt>
      <trkpt lat="42.439923000" lon="-2.524956000">
        <ele>524.00</ele>
        <time>2012-12-01T13:16:41Z</time>
      </trkpt>
      <trkpt lat="42.439923000" lon="-2.524958000">
        <ele>524.00</ele>
        <time>2012-12-01T13:16:46Z</time>
      </trkpt>
      <trkpt lat="42.439925000" lon="-2.524958000">
        <ele>523.90</ele>
        <time>2012-12-01T13:16:46Z</time>
      </trkpt>
      <trkpt lat="42.439928000" lon="-2.524959000">
        <ele>523.90</ele>
        <time>2012-12-01T13:17:00Z</time>
      </trkpt>
      <trkpt lat="42.439928000" lon="-2.524961000">
        <ele>523.90</ele>
        <time>2012-12-01T13:17:07Z</time>
      </trkpt>
      <trkpt lat="42.439931000" lon="-2.524961000">
        <ele>523.90</ele>
        <time>2012-12-01T13:17:16Z</time>
      </trkpt>
      <trkpt lat="42.439931000" lon="-2.524961000">
        <ele>523.90</ele>
        <time>2012-12-01T13:17:18Z</time>
      </trkpt>
      <trkpt lat="42.439935000" lon="-2.524961000">
        <ele>523.80</ele>
        <time>2012-12-01T13:17:37Z</time>
      </trkpt>
      <trkpt lat="42.439935000" lon="-2.524963000">
        <ele>523.80</ele>
        <time>2012-12-01T13:17:40Z</time>
      </trkpt>
      <trkpt lat="42.439935000" lon="-2.524961000">
        <ele>523.80</ele>
        <time>2012-12-01T13:17:47Z</time>
      </trkpt>
      <trkpt lat="42.439935000" lon="-2.524963000">
        <ele>523.80</ele>
        <time>2012-12-01T13:17:54Z</time>
      </trkpt>
      <trkpt lat="42.439935000" lon="-2.524961000">
        <ele>523.80</ele>
        <time>2012-12-01T13:17:56Z</time>
      </trkpt>
      <trkpt lat="42.439933000" lon="-2.524964000">
        <ele>523.80</ele>
        <time>2012-12-01T13:17:58Z</time>
      </trkpt>
      <trkpt lat="42.439931000" lon="-2.524964000">
        <ele>523.80</ele>
        <time>2012-12-01T13:17:59Z</time>
      </trkpt>
      <trkpt lat="42.439931000" lon="-2.524963000">
        <ele>523.80</ele>
        <time>2012-12-01T13:18:01Z</time>
      </trkpt>
      <trkpt lat="42.439928000" lon="-2.524954000">
        <ele>523.90</ele>
        <time>2012-12-01T13:18:01Z</time>
      </trkpt>
      <trkpt lat="42.439923000" lon="-2.524944000">
        <ele>523.90</ele>
        <time>2012-12-01T13:18:10Z</time>
      </trkpt>
      <trkpt lat="42.439921000" lon="-2.524944000">
        <ele>524.00</ele>
        <time>2012-12-01T13:18:10Z</time>
      </trkpt>
      <trkpt lat="42.439918000" lon="-2.524943000">
        <ele>524.00</ele>
        <time>2012-12-01T13:18:26Z</time>
      </trkpt>
      <trkpt lat="42.439918000" lon="-2.524936000">
        <ele>524.00</ele>
        <time>2012-12-01T13:18:34Z</time>
      </trkpt>
      <trkpt lat="42.439921000" lon="-2.524936000">
        <ele>524.00</ele>
        <time>2012-12-01T13:18:36Z</time>
      </trkpt>
      <trkpt lat="42.439918000" lon="-2.524931000">
        <ele>524.00</ele>
        <time>2012-12-01T13:18:38Z</time>
      </trkpt>
      <trkpt lat="42.439918000" lon="-2.524924000">
        <ele>524.00</ele>
        <time>2012-12-01T13:18:43Z</time>
      </trkpt>
      <trkpt lat="42.439916000" lon="-2.524923000">
        <ele>524.00</ele>
        <time>2012-12-01T13:18:48Z</time>
      </trkpt>
      <trkpt lat="42.439918000" lon="-2.524919000">
        <ele>524.00</ele>
        <time>2012-12-01T13:18:50Z</time>
      </trkpt>
      <trkpt lat="42.439918000" lon="-2.524911000">
        <ele>524.00</ele>
        <time>2012-12-01T13:18:50Z</time>
      </trkpt>
      <trkpt lat="42.439923000" lon="-2.524899000">
        <ele>524.00</ele>
        <time>2012-12-01T13:18:52Z</time>
      </trkpt>
      <trkpt lat="42.439926000" lon="-2.524886000">
        <ele>523.90</ele>
        <time>2012-12-01T13:18:52Z</time>
      </trkpt>
      <trkpt lat="42.440086000" lon="-2.523884000">
        <ele>520.10</ele>
        <time>2012-12-01T13:19:07Z</time>
      </trkpt>
      <trkpt lat="42.440078000" lon="-2.523771000">
        <ele>519.70</ele>
        <time>2012-12-01T13:19:09Z</time>
      </trkpt>
      <trkpt lat="42.439963000" lon="-2.523353000">
        <ele>518.10</ele>
        <time>2012-12-01T13:19:13Z</time>
      </trkpt>
      <trkpt lat="42.439878000" lon="-2.523169000">
        <ele>517.60</ele>
        <time>2012-12-01T13:19:14Z</time>
      </trkpt>
      <trkpt lat="42.439616000" lon="-2.522713000">
        <ele>516.10</ele>
        <time>2012-12-01T13:19:20Z</time>
      </trkpt>
      <trkpt lat="42.439445000" lon="-2.522269000">
        <ele>512.70</ele>
        <time>2012-12-01T13:19:23Z</time>
      </trkpt>
      <trkpt lat="42.439168000" lon="-2.521263000">
        <ele>507.60</ele>
        <time>2012-12-01T13:19:32Z</time>
      </trkpt>
      <trkpt lat="42.439066000" lon="-2.521064000">
        <ele>506.40</ele>
        <time>2012-12-01T13:19:34Z</time>
      </trkpt>
      <trkpt lat="42.438890000" lon="-2.520771000">
        <ele>504.60</ele>
        <time>2012-12-01T13:19:37Z</time>
      </trkpt>
      <trkpt lat="42.438841000" lon="-2.520659000">
        <ele>504.20</ele>
        <time>2012-12-01T13:19:37Z</time>
      </trkpt>
      <trkpt lat="42.438316000" lon="-2.519619000">
        <ele>497.80</ele>
        <time>2012-12-01T13:19:47Z</time>
      </trkpt>
      <trkpt lat="42.437983000" lon="-2.518888000">
        <ele>493.80</ele>
        <time>2012-12-01T13:19:53Z</time>
      </trkpt>
      <trkpt lat="42.437716000" lon="-2.518039000">
        <ele>490.50</ele>
        <time>2012-12-01T13:20:00Z</time>
      </trkpt>
      <trkpt lat="42.437318000" lon="-2.517351000">
        <ele>486.90</ele>
        <time>2012-12-01T13:20:05Z</time>
      </trkpt>
      <trkpt lat="42.436591000" lon="-2.516326000">
        <ele>486.30</ele>
        <time>2012-12-01T13:20:17Z</time>
      </trkpt>
      <trkpt lat="42.436575000" lon="-2.516244000">
        <ele>486.20</ele>
        <time>2012-12-01T13:20:19Z</time>
      </trkpt>
      <trkpt lat="42.436588000" lon="-2.516159000">
        <ele>485.60</ele>
        <time>2012-12-01T13:20:19Z</time>
      </trkpt>
      <trkpt lat="42.436780000" lon="-2.515816000">
        <ele>481.60</ele>
        <time>2012-12-01T13:20:24Z</time>
      </trkpt>
      <trkpt lat="42.436850000" lon="-2.515731000">
        <ele>480.20</ele>
        <time>2012-12-01T13:20:24Z</time>
      </trkpt>
      <trkpt lat="42.437116000" lon="-2.515506000">
        <ele>475.70</ele>
        <time>2012-12-01T13:20:28Z</time>
      </trkpt>
      <trkpt lat="42.437365000" lon="-2.515164000">
        <ele>469.90</ele>
        <time>2012-12-01T13:20:31Z</time>
      </trkpt>
      <trkpt lat="42.437680000" lon="-2.514489000">
        <ele>461.80</ele>
        <time>2012-12-01T13:20:36Z</time>
      </trkpt>
      <trkpt lat="42.437695000" lon="-2.514439000">
        <ele>461.20</ele>
        <time>2012-12-01T13:20:38Z</time>
      </trkpt>
      <trkpt lat="42.437696000" lon="-2.514411000">
        <ele>460.90</ele>
        <time>2012-12-01T13:20:38Z</time>
      </trkpt>
      <trkpt lat="42.437698000" lon="-2.514379000">
        <ele>460.10</ele>
        <time>2012-12-01T13:20:40Z</time>
      </trkpt>
      <trkpt lat="42.437698000" lon="-2.514376000">
        <ele>459.90</ele>
        <time>2012-12-01T13:20:42Z</time>
      </trkpt>
      <trkpt lat="42.437700000" lon="-2.514373000">
        <ele>459.80</ele>
        <time>2012-12-01T13:20:43Z</time>
      </trkpt>
      <trkpt lat="42.437701000" lon="-2.514371000">
        <ele>459.80</ele>
        <time>2012-12-01T13:20:43Z</time>
      </trkpt>
      <trkpt lat="42.437701000" lon="-2.514368000">
        <ele>459.70</ele>
        <time>2012-12-01T13:20:45Z</time>
      </trkpt>
      <trkpt lat="42.437703000" lon="-2.514363000">
        <ele>459.70</ele>
        <time>2012-12-01T13:20:47Z</time>
      </trkpt>
      <trkpt lat="42.437703000" lon="-2.514361000">
        <ele>459.60</ele>
        <time>2012-12-01T13:20:47Z</time>
      </trkpt>
      <trkpt lat="42.437700000" lon="-2.514363000">
        <ele>459.60</ele>
        <time>2012-12-01T13:20:50Z</time>
      </trkpt>
      <trkpt lat="42.437693000" lon="-2.514369000">
        <ele>459.70</ele>
        <time>2012-12-01T13:20:50Z</time>
      </trkpt>
      <trkpt lat="42.437688000" lon="-2.514378000">
        <ele>459.70</ele>
        <time>2012-12-01T13:20:52Z</time>
      </trkpt>
      <trkpt lat="42.437683000" lon="-2.514384000">
        <ele>459.80</ele>
        <time>2012-12-01T13:20:57Z</time>
      </trkpt>
      <trkpt lat="42.437686000" lon="-2.514391000">
        <ele>459.90</ele>
        <time>2012-12-01T13:20:59Z</time>
      </trkpt>
      <trkpt lat="42.437690000" lon="-2.514391000">
        <ele>459.90</ele>
        <time>2012-12-01T13:21:04Z</time>
      </trkpt>
      <trkpt lat="42.437688000" lon="-2.514398000">
        <ele>459.90</ele>
        <time>2012-12-01T13:21:09Z</time>
      </trkpt>
      <trkpt lat="42.437500000" lon="-2.514589000">
        <ele>461.70</ele>
        <time>2012-12-01T13:21:18Z</time>
      </trkpt>
      <trkpt lat="42.437335000" lon="-2.514691000">
        <ele>463.00</ele>
        <time>2012-12-01T13:21:23Z</time>
      </trkpt>
      <trkpt lat="42.437295000" lon="-2.514703000">
        <ele>463.20</ele>
        <time>2012-12-01T13:21:25Z</time>
      </trkpt>
      <trkpt lat="42.437250000" lon="-2.514706000">
        <ele>463.50</ele>
        <time>2012-12-01T13:21:25Z</time>
      </trkpt>
      <trkpt lat="42.437198000" lon="-2.514694000">
        <ele>463.70</ele>
        <time>2012-12-01T13:21:27Z</time>
      </trkpt>
      <trkpt lat="42.437146000" lon="-2.514663000">
        <ele>463.70</ele>
        <time>2012-12-01T13:21:27Z</time>
      </trkpt>
      <trkpt lat="42.437100000" lon="-2.514606000">
        <ele>463.50</ele>
        <time>2012-12-01T13:21:29Z</time>
      </trkpt>
      <trkpt lat="42.436500000" lon="-2.513221000">
        <ele>458.60</ele>
        <time>2012-12-01T13:21:42Z</time>
      </trkpt>
      <trkpt lat="42.436470000" lon="-2.513116000">
        <ele>458.50</ele>
        <time>2012-12-01T13:21:44Z</time>
      </trkpt>
      <trkpt lat="42.435998000" lon="-2.510991000">
        <ele>455.40</ele>
        <time>2012-12-01T13:22:10Z</time>
      </trkpt>
      <trkpt lat="42.436010000" lon="-2.510951000">
        <ele>455.20</ele>
        <time>2012-12-01T13:22:12Z</time>
      </trkpt>
      <trkpt lat="42.436036000" lon="-2.510921000">
        <ele>455.00</ele>
        <time>2012-12-01T13:22:12Z</time>
      </trkpt>
      <trkpt lat="42.436075000" lon="-2.510901000">
        <ele>454.70</ele>
        <time>2012-12-01T13:22:14Z</time>
      </trkpt>
      <trkpt lat="42.437931000" lon="-2.510236000">
        <ele>447.50</ele>
        <time>2012-12-01T13:22:47Z</time>
      </trkpt>
      <trkpt lat="42.437966000" lon="-2.510198000">
        <ele>447.50</ele>
        <time>2012-12-01T13:22:47Z</time>
      </trkpt>
      <trkpt lat="42.437986000" lon="-2.510144000">
        <ele>447.40</ele>
        <time>2012-12-01T13:22:49Z</time>
      </trkpt>
      <trkpt lat="42.437993000" lon="-2.510088000">
        <ele>447.40</ele>
        <time>2012-12-01T13:22:49Z</time>
      </trkpt>
      <trkpt lat="42.438020000" lon="-2.509689000">
        <ele>448.10</ele>
        <time>2012-12-01T13:22:56Z</time>
      </trkpt>
      <trkpt lat="42.438486000" lon="-2.507309000">
        <ele>452.70</ele>
        <time>2012-12-01T13:23:39Z</time>
      </trkpt>
      <trkpt lat="42.439210000" lon="-2.505738000">
        <ele>448.30</ele>
        <time>2012-12-01T13:24:04Z</time>
      </trkpt>
      <trkpt lat="42.439258000" lon="-2.505661000">
        <ele>448.00</ele>
        <time>2012-12-01T13:24:05Z</time>
      </trkpt>
      <trkpt lat="42.439741000" lon="-2.504906000">
        <ele>445.90</ele>
        <time>2012-12-01T13:24:18Z</time>
      </trkpt>
      <trkpt lat="42.440203000" lon="-2.502766000">
        <ele>446.30</ele>
        <time>2012-12-01T13:24:49Z</time>
      </trkpt>
      <trkpt lat="42.440345000" lon="-2.502036000">
        <ele>445.40</ele>
        <time>2012-12-01T13:25:01Z</time>
      </trkpt>
      <trkpt lat="42.440463000" lon="-2.501524000">
        <ele>447.40</ele>
        <time>2012-12-01T13:25:08Z</time>
      </trkpt>
      <trkpt lat="42.440485000" lon="-2.501466000">
        <ele>447.60</ele>
        <time>2012-12-01T13:25:10Z</time>
      </trkpt>
      <trkpt lat="42.441056000" lon="-2.500603000">
        <ele>448.50</ele>
        <time>2012-12-01T13:25:27Z</time>
      </trkpt>
      <trkpt lat="42.441301000" lon="-2.500063000">
        <ele>448.90</ele>
        <time>2012-12-01T13:25:36Z</time>
      </trkpt>
      <trkpt lat="42.441421000" lon="-2.499914000">
        <ele>448.50</ele>
        <time>2012-12-01T13:25:38Z</time>
      </trkpt>
      <trkpt lat="42.441753000" lon="-2.499636000">
        <ele>446.40</ele>
        <time>2012-12-01T13:25:46Z</time>
      </trkpt>
      <trkpt lat="42.441786000" lon="-2.499598000">
        <ele>446.10</ele>
        <time>2012-12-01T13:25:48Z</time>
      </trkpt>
      <trkpt lat="42.441811000" lon="-2.499553000">
        <ele>445.90</ele>
        <time>2012-12-01T13:25:48Z</time>
      </trkpt>
      <trkpt lat="42.441831000" lon="-2.499503000">
        <ele>445.80</ele>
        <time>2012-12-01T13:25:50Z</time>
      </trkpt>
      <trkpt lat="42.441845000" lon="-2.499449000">
        <ele>445.80</ele>
        <time>2012-12-01T13:25:50Z</time>
      </trkpt>
      <trkpt lat="42.441855000" lon="-2.499183000">
        <ele>446.60</ele>
        <time>2012-12-01T13:25:55Z</time>
      </trkpt>
      <trkpt lat="42.441866000" lon="-2.499141000">
        <ele>446.70</ele>
        <time>2012-12-01T13:25:57Z</time>
      </trkpt>
      <trkpt lat="42.441888000" lon="-2.499104000">
        <ele>446.80</ele>
        <time>2012-12-01T13:25:57Z</time>
      </trkpt>
      <trkpt lat="42.441921000" lon="-2.499074000">
        <ele>446.70</ele>
        <time>2012-12-01T13:25:59Z</time>
      </trkpt>
      <trkpt lat="42.442158000" lon="-2.498943000">
        <ele>445.30</ele>
        <time>2012-12-01T13:26:04Z</time>
      </trkpt>
      <trkpt lat="42.442235000" lon="-2.498931000">
        <ele>445.20</ele>
        <time>2012-12-01T13:26:07Z</time>
      </trkpt>
      <trkpt lat="42.442676000" lon="-2.498958000">
        <ele>444.40</ele>
        <time>2012-12-01T13:26:16Z</time>
      </trkpt>
      <trkpt lat="42.442721000" lon="-2.498958000">
        <ele>444.40</ele>
        <time>2012-12-01T13:26:18Z</time>
      </trkpt>
      <trkpt lat="42.442765000" lon="-2.498959000">
        <ele>444.30</ele>
        <time>2012-12-01T13:26:18Z</time>
      </trkpt>
      <trkpt lat="42.442948000" lon="-2.498943000">
        <ele>444.00</ele>
        <time>2012-12-01T13:26:23Z</time>
      </trkpt>
      <trkpt lat="42.442980000" lon="-2.498954000">
        <ele>443.90</ele>
        <time>2012-12-01T13:26:25Z</time>
      </trkpt>
      <trkpt lat="42.443013000" lon="-2.498981000">
        <ele>443.70</ele>
        <time>2012-12-01T13:26:25Z</time>
      </trkpt>
      <trkpt lat="42.443081000" lon="-2.499058000">
        <ele>443.20</ele>
        <time>2012-12-01T13:26:28Z</time>
      </trkpt>
      <trkpt lat="42.443126000" lon="-2.499078000">
        <ele>443.00</ele>
        <time>2012-12-01T13:26:28Z</time>
      </trkpt>
      <trkpt lat="42.443176000" lon="-2.499074000">
        <ele>442.80</ele>
        <time>2012-12-01T13:26:30Z</time>
      </trkpt>
      <trkpt lat="42.443281000" lon="-2.499031000">
        <ele>442.50</ele>
        <time>2012-12-01T13:26:32Z</time>
      </trkpt>
      <trkpt lat="42.443385000" lon="-2.498936000">
        <ele>442.30</ele>
        <time>2012-12-01T13:26:33Z</time>
      </trkpt>
      <trkpt lat="42.443526000" lon="-2.498761000">
        <ele>442.10</ele>
        <time>2012-12-01T13:26:37Z</time>
      </trkpt>
      <trkpt lat="42.443583000" lon="-2.498726000">
        <ele>442.00</ele>
        <time>2012-12-01T13:26:37Z</time>
      </trkpt>
      <trkpt lat="42.443643000" lon="-2.498711000">
        <ele>441.80</ele>
        <time>2012-12-01T13:26:39Z</time>
      </trkpt>
      <trkpt lat="42.443705000" lon="-2.498718000">
        <ele>441.60</ele>
        <time>2012-12-01T13:26:40Z</time>
      </trkpt>
      <trkpt lat="42.443891000" lon="-2.498791000">
        <ele>440.70</ele>
        <time>2012-12-01T13:26:42Z</time>
      </trkpt>
      <trkpt lat="42.444063000" lon="-2.498919000">
        <ele>440.00</ele>
        <time>2012-12-01T13:26:46Z</time>
      </trkpt>
      <trkpt lat="42.444425000" lon="-2.499431000">
        <ele>438.00</ele>
        <time>2012-12-01T13:26:54Z</time>
      </trkpt>
      <trkpt lat="42.444525000" lon="-2.499519000">
        <ele>437.50</ele>
        <time>2012-12-01T13:26:56Z</time>
      </trkpt>
      <trkpt lat="42.444625000" lon="-2.499574000">
        <ele>437.10</ele>
        <time>2012-12-01T13:26:58Z</time>
      </trkpt>
      <trkpt lat="42.444676000" lon="-2.499579000">
        <ele>436.90</ele>
        <time>2012-12-01T13:26:58Z</time>
      </trkpt>
      <trkpt lat="42.444725000" lon="-2.499569000">
        <ele>436.80</ele>
        <time>2012-12-01T13:27:00Z</time>
      </trkpt>
      <trkpt lat="42.444768000" lon="-2.499549000">
        <ele>436.70</ele>
        <time>2012-12-01T13:27:01Z</time>
      </trkpt>
      <trkpt lat="42.444963000" lon="-2.499401000">
        <ele>436.60</ele>
        <time>2012-12-01T13:27:05Z</time>
      </trkpt>
      <trkpt lat="42.445681000" lon="-2.499129000">
        <ele>435.80</ele>
        <time>2012-12-01T13:27:20Z</time>
      </trkpt>
      <trkpt lat="42.445731000" lon="-2.499121000">
        <ele>435.70</ele>
        <time>2012-12-01T13:27:22Z</time>
      </trkpt>
      <trkpt lat="42.446116000" lon="-2.499121000">
        <ele>433.30</ele>
        <time>2012-12-01T13:27:29Z</time>
      </trkpt>
      <trkpt lat="42.446161000" lon="-2.499144000">
        <ele>433.00</ele>
        <time>2012-12-01T13:27:31Z</time>
      </trkpt>
      <trkpt lat="42.446560000" lon="-2.499601000">
        <ele>432.60</ele>
        <time>2012-12-01T13:27:41Z</time>
      </trkpt>
      <trkpt lat="42.446725000" lon="-2.499754000">
        <ele>433.20</ele>
        <time>2012-12-01T13:27:45Z</time>
      </trkpt>
      <trkpt lat="42.447023000" lon="-2.500189000">
        <ele>434.10</ele>
        <time>2012-12-01T13:27:55Z</time>
      </trkpt>
      <trkpt lat="42.447140000" lon="-2.500298000">
        <ele>434.20</ele>
        <time>2012-12-01T13:27:59Z</time>
      </trkpt>
      <trkpt lat="42.447228000" lon="-2.500331000">
        <ele>433.90</ele>
        <time>2012-12-01T13:28:00Z</time>
      </trkpt>
      <trkpt lat="42.447281000" lon="-2.500333000">
        <ele>433.80</ele>
        <time>2012-12-01T13:28:02Z</time>
      </trkpt>
      <trkpt lat="42.447325000" lon="-2.500318000">
        <ele>433.70</ele>
        <time>2012-12-01T13:28:02Z</time>
      </trkpt>
      <trkpt lat="42.447401000" lon="-2.500264000">
        <ele>433.60</ele>
        <time>2012-12-01T13:28:04Z</time>
      </trkpt>
      <trkpt lat="42.447473000" lon="-2.500188000">
        <ele>433.50</ele>
        <time>2012-12-01T13:28:06Z</time>
      </trkpt>
      <trkpt lat="42.447601000" lon="-2.499963000">
        <ele>433.50</ele>
        <time>2012-12-01T13:28:11Z</time>
      </trkpt>
      <trkpt lat="42.447643000" lon="-2.499913000">
        <ele>433.40</ele>
        <time>2012-12-01T13:28:11Z</time>
      </trkpt>
      <trkpt lat="42.447688000" lon="-2.499876000">
        <ele>433.40</ele>
        <time>2012-12-01T13:28:13Z</time>
      </trkpt>
      <trkpt lat="42.447733000" lon="-2.499864000">
        <ele>433.30</ele>
        <time>2012-12-01T13:28:13Z</time>
      </trkpt>
      <trkpt lat="42.447775000" lon="-2.499871000">
        <ele>433.20</ele>
        <time>2012-12-01T13:28:14Z</time>
      </trkpt>
      <trkpt lat="42.447843000" lon="-2.499898000">
        <ele>433.00</ele>
        <time>2012-12-01T13:28:16Z</time>
      </trkpt>
      <trkpt lat="42.447878000" lon="-2.499896000">
        <ele>432.80</ele>
        <time>2012-12-01T13:28:18Z</time>
      </trkpt>
      <trkpt lat="42.448030000" lon="-2.499834000">
        <ele>432.20</ele>
        <time>2012-12-01T13:28:21Z</time>
      </trkpt>
      <trkpt lat="42.448066000" lon="-2.499801000">
        <ele>432.10</ele>
        <time>2012-12-01T13:28:23Z</time>
      </trkpt>
      <trkpt lat="42.448231000" lon="-2.499488000">
        <ele>431.30</ele>
        <time>2012-12-01T13:28:30Z</time>
      </trkpt>
      <trkpt lat="42.448303000" lon="-2.499264000">
        <ele>431.40</ele>
        <time>2012-12-01T13:28:34Z</time>
      </trkpt>
      <trkpt lat="42.448353000" lon="-2.499169000">
        <ele>431.40</ele>
        <time>2012-12-01T13:28:35Z</time>
      </trkpt>
      <trkpt lat="42.448383000" lon="-2.499129000">
        <ele>431.20</ele>
        <time>2012-12-01T13:28:37Z</time>
      </trkpt>
      <trkpt lat="42.448563000" lon="-2.498971000">
        <ele>430.10</ele>
        <time>2012-12-01T13:28:42Z</time>
      </trkpt>
      <trkpt lat="42.448653000" lon="-2.498849000">
        <ele>429.30</ele>
        <time>2012-12-01T13:28:44Z</time>
      </trkpt>
      <trkpt lat="42.448763000" lon="-2.498619000">
        <ele>428.20</ele>
        <time>2012-12-01T13:28:49Z</time>
      </trkpt>
      <trkpt lat="42.448790000" lon="-2.498468000">
        <ele>428.00</ele>
        <time>2012-12-01T13:28:53Z</time>
      </trkpt>
      <trkpt lat="42.448791000" lon="-2.498311000">
        <ele>427.90</ele>
        <time>2012-12-01T13:28:56Z</time>
      </trkpt>
      <trkpt lat="42.448806000" lon="-2.498264000">
        <ele>428.00</ele>
        <time>2012-12-01T13:28:56Z</time>
      </trkpt>
      <trkpt lat="42.448835000" lon="-2.498233000">
        <ele>428.00</ele>
        <time>2012-12-01T13:28:58Z</time>
      </trkpt>
      <trkpt lat="42.448871000" lon="-2.498211000">
        <ele>428.00</ele>
        <time>2012-12-01T13:28:58Z</time>
      </trkpt>
      <trkpt lat="42.448913000" lon="-2.498196000">
        <ele>428.00</ele>
        <time>2012-12-01T13:29:00Z</time>
      </trkpt>
      <trkpt lat="42.448998000" lon="-2.498191000">
        <ele>428.10</ele>
        <time>2012-12-01T13:29:01Z</time>
      </trkpt>
      <trkpt lat="42.449165000" lon="-2.498203000">
        <ele>428.20</ele>
        <time>2012-12-01T13:29:07Z</time>
      </trkpt>
      <trkpt lat="42.449221000" lon="-2.498188000">
        <ele>428.30</ele>
        <time>2012-12-01T13:29:08Z</time>
      </trkpt>
      <trkpt lat="42.449771000" lon="-2.497771000">
        <ele>428.40</ele>
        <time>2012-12-01T13:29:24Z</time>
      </trkpt>
      <trkpt lat="42.449813000" lon="-2.497728000">
        <ele>428.20</ele>
        <time>2012-12-01T13:29:26Z</time>
      </trkpt>
      <trkpt lat="42.449846000" lon="-2.497674000">
        <ele>427.60</ele>
        <time>2012-12-01T13:29:26Z</time>
      </trkpt>
      <trkpt lat="42.449875000" lon="-2.497613000">
        <ele>427.30</ele>
        <time>2012-12-01T13:29:28Z</time>
      </trkpt>
      <trkpt lat="42.449936000" lon="-2.497308000">
        <ele>426.20</ele>
        <time>2012-12-01T13:29:31Z</time>
      </trkpt>
      <trkpt lat="42.449998000" lon="-2.496061000">
        <ele>422.10</ele>
        <time>2012-12-01T13:29:45Z</time>
      </trkpt>
      <trkpt lat="42.449965000" lon="-2.495274000">
        <ele>421.50</ele>
        <time>2012-12-01T13:29:52Z</time>
      </trkpt>
      <trkpt lat="42.449985000" lon="-2.495079000">
        <ele>421.50</ele>
        <time>2012-12-01T13:29:54Z</time>
      </trkpt>
      <trkpt lat="42.450005000" lon="-2.494999000">
        <ele>421.50</ele>
        <time>2012-12-01T13:29:55Z</time>
      </trkpt>
      <trkpt lat="42.450030000" lon="-2.494944000">
        <ele>421.40</ele>
        <time>2012-12-01T13:29:57Z</time>
      </trkpt>
      <trkpt lat="42.450061000" lon="-2.494911000">
        <ele>421.40</ele>
        <time>2012-12-01T13:29:57Z</time>
      </trkpt>
      <trkpt lat="42.450095000" lon="-2.494894000">
        <ele>421.40</ele>
        <time>2012-12-01T13:29:59Z</time>
      </trkpt>
      <trkpt lat="42.450126000" lon="-2.494888000">
        <ele>421.30</ele>
        <time>2012-12-01T13:29:59Z</time>
      </trkpt>
      <trkpt lat="42.450151000" lon="-2.494891000">
        <ele>421.30</ele>
        <time>2012-12-01T13:30:01Z</time>
      </trkpt>
      <trkpt lat="42.450196000" lon="-2.494909000">
        <ele>421.20</ele>
        <time>2012-12-01T13:30:04Z</time>
      </trkpt>
      <trkpt lat="42.450210000" lon="-2.494918000">
        <ele>421.20</ele>
        <time>2012-12-01T13:30:04Z</time>
      </trkpt>
      <trkpt lat="42.450251000" lon="-2.494956000">
        <ele>421.20</ele>
        <time>2012-12-01T13:30:08Z</time>
      </trkpt>
      <trkpt lat="42.450256000" lon="-2.494961000">
        <ele>421.10</ele>
        <time>2012-12-01T13:30:11Z</time>
      </trkpt>
      <trkpt lat="42.450256000" lon="-2.494963000">
        <ele>421.10</ele>
        <time>2012-12-01T13:30:13Z</time>
      </trkpt>
      <trkpt lat="42.450261000" lon="-2.494963000">
        <ele>421.10</ele>
        <time>2012-12-01T13:30:20Z</time>
      </trkpt>
      <trkpt lat="42.450273000" lon="-2.494968000">
        <ele>421.10</ele>
        <time>2012-12-01T13:30:25Z</time>
      </trkpt>
      <trkpt lat="42.450310000" lon="-2.494989000">
        <ele>421.10</ele>
        <time>2012-12-01T13:30:29Z</time>
      </trkpt>
      <trkpt lat="42.450330000" lon="-2.494991000">
        <ele>421.10</ele>
        <time>2012-12-01T13:30:30Z</time>
      </trkpt>
      <trkpt lat="42.450353000" lon="-2.494981000">
        <ele>421.10</ele>
        <time>2012-12-01T13:30:30Z</time>
      </trkpt>
      <trkpt lat="42.450373000" lon="-2.494954000">
        <ele>421.00</ele>
        <time>2012-12-01T13:30:32Z</time>
      </trkpt>
      <trkpt lat="42.450461000" lon="-2.494681000">
        <ele>420.90</ele>
        <time>2012-12-01T13:30:37Z</time>
      </trkpt>
      <trkpt lat="42.450898000" lon="-2.493376000">
        <ele>417.80</ele>
        <time>2012-12-01T13:30:56Z</time>
      </trkpt>
      <trkpt lat="42.451748000" lon="-2.490038000">
        <ele>413.80</ele>
        <time>2012-12-01T13:31:38Z</time>
      </trkpt>
      <trkpt lat="42.451778000" lon="-2.489963000">
        <ele>413.70</ele>
        <time>2012-12-01T13:31:38Z</time>
      </trkpt>
      <trkpt lat="42.453030000" lon="-2.486639000">
        <ele>411.50</ele>
        <time>2012-12-01T13:32:22Z</time>
      </trkpt>
      <trkpt lat="42.453511000" lon="-2.483188000">
        <ele>408.70</ele>
        <time>2012-12-01T13:33:04Z</time>
      </trkpt>
      <trkpt lat="42.453530000" lon="-2.483113000">
        <ele>408.70</ele>
        <time>2012-12-01T13:33:05Z</time>
      </trkpt>
      <trkpt lat="42.454978000" lon="-2.479596000">
        <ele>407.50</ele>
        <time>2012-12-01T13:34:03Z</time>
      </trkpt>
      <trkpt lat="42.455146000" lon="-2.478503000">
        <ele>407.90</ele>
        <time>2012-12-01T13:34:20Z</time>
      </trkpt>
      <trkpt lat="42.455148000" lon="-2.478444000">
        <ele>407.90</ele>
        <time>2012-12-01T13:34:20Z</time>
      </trkpt>
      <trkpt lat="42.455291000" lon="-2.477759000">
        <ele>406.50</ele>
        <time>2012-12-01T13:34:31Z</time>
      </trkpt>
      <trkpt lat="42.455310000" lon="-2.477503000">
        <ele>405.70</ele>
        <time>2012-12-01T13:34:36Z</time>
      </trkpt>
      <trkpt lat="42.455323000" lon="-2.477444000">
        <ele>405.50</ele>
        <time>2012-12-01T13:34:36Z</time>
      </trkpt>
      <trkpt lat="42.455353000" lon="-2.477399000">
        <ele>405.30</ele>
        <time>2012-12-01T13:34:38Z</time>
      </trkpt>
      <trkpt lat="42.455759000" lon="-2.477339000">
        <ele>407.00</ele>
        <time>2012-12-01T13:34:46Z</time>
      </trkpt>
      <trkpt lat="42.455848000" lon="-2.477176000">
        <ele>408.40</ele>
        <time>2012-12-01T13:34:50Z</time>
      </trkpt>
      <trkpt lat="42.455975000" lon="-2.476601000">
        <ele>408.90</ele>
        <time>2012-12-01T13:35:02Z</time>
      </trkpt>
      <trkpt lat="42.456046000" lon="-2.475998000">
        <ele>409.00</ele>
        <time>2012-12-01T13:35:16Z</time>
      </trkpt>
      <trkpt lat="42.456080000" lon="-2.475848000">
        <ele>409.10</ele>
        <time>2012-12-01T13:35:21Z</time>
      </trkpt>
      <trkpt lat="42.456095000" lon="-2.475811000">
        <ele>409.10</ele>
        <time>2012-12-01T13:35:21Z</time>
      </trkpt>
      <trkpt lat="42.456275000" lon="-2.475404000">
        <ele>409.90</ele>
        <time>2012-12-01T13:35:33Z</time>
      </trkpt>
      <trkpt lat="42.456411000" lon="-2.475293000">
        <ele>410.30</ele>
        <time>2012-12-01T13:35:39Z</time>
      </trkpt>
      <trkpt lat="42.456430000" lon="-2.475271000">
        <ele>410.40</ele>
        <time>2012-12-01T13:35:40Z</time>
      </trkpt>
      <trkpt lat="42.456445000" lon="-2.475244000">
        <ele>410.40</ele>
        <time>2012-12-01T13:35:40Z</time>
      </trkpt>
      <trkpt lat="42.456506000" lon="-2.475086000">
        <ele>410.30</ele>
        <time>2012-12-01T13:35:46Z</time>
      </trkpt>
      <trkpt lat="42.456523000" lon="-2.475054000">
        <ele>410.30</ele>
        <time>2012-12-01T13:35:47Z</time>
      </trkpt>
      <trkpt lat="42.456543000" lon="-2.475026000">
        <ele>410.30</ele>
        <time>2012-12-01T13:35:47Z</time>
      </trkpt>
      <trkpt lat="42.456570000" lon="-2.475004000">
        <ele>410.30</ele>
        <time>2012-12-01T13:35:49Z</time>
      </trkpt>
      <trkpt lat="42.456601000" lon="-2.474989000">
        <ele>410.30</ele>
        <time>2012-12-01T13:35:49Z</time>
      </trkpt>
      <trkpt lat="42.456633000" lon="-2.474988000">
        <ele>410.40</ele>
        <time>2012-12-01T13:35:51Z</time>
      </trkpt>
      <trkpt lat="42.456746000" lon="-2.475013000">
        <ele>410.90</ele>
        <time>2012-12-01T13:35:54Z</time>
      </trkpt>
      <trkpt lat="42.456790000" lon="-2.475004000">
        <ele>411.10</ele>
        <time>2012-12-01T13:35:56Z</time>
      </trkpt>
      <trkpt lat="42.457146000" lon="-2.474786000">
        <ele>411.70</ele>
        <time>2012-12-01T13:36:08Z</time>
      </trkpt>
      <trkpt lat="42.458040000" lon="-2.473949000">
        <ele>409.80</ele>
        <time>2012-12-01T13:36:24Z</time>
      </trkpt>
      <trkpt lat="42.458076000" lon="-2.473896000">
        <ele>409.70</ele>
        <time>2012-12-01T13:36:24Z</time>
      </trkpt>
      <trkpt lat="42.458103000" lon="-2.473838000">
        <ele>409.60</ele>
        <time>2012-12-01T13:36:26Z</time>
      </trkpt>
      <trkpt lat="42.458180000" lon="-2.473538000">
        <ele>409.40</ele>
        <time>2012-12-01T13:36:31Z</time>
      </trkpt>
      <trkpt lat="42.458190000" lon="-2.473263000">
        <ele>409.30</ele>
        <time>2012-12-01T13:36:38Z</time>
      </trkpt>
      <trkpt lat="42.458195000" lon="-2.473231000">
        <ele>409.30</ele>
        <time>2012-12-01T13:36:40Z</time>
      </trkpt>
      <trkpt lat="42.458226000" lon="-2.473113000">
        <ele>409.20</ele>
        <time>2012-12-01T13:36:43Z</time>
      </trkpt>
      <trkpt lat="42.458243000" lon="-2.473073000">
        <ele>409.20</ele>
        <time>2012-12-01T13:36:45Z</time>
      </trkpt>
      <trkpt lat="42.458248000" lon="-2.473054000">
        <ele>409.20</ele>
        <time>2012-12-01T13:36:47Z</time>
      </trkpt>
      <trkpt lat="42.458276000" lon="-2.472974000">
        <ele>409.10</ele>
        <time>2012-12-01T13:36:52Z</time>
      </trkpt>
      <trkpt lat="42.458286000" lon="-2.472884000">
        <ele>409.10</ele>
        <time>2012-12-01T13:36:55Z</time>
      </trkpt>
      <trkpt lat="42.459870000" lon="-2.466401000">
        <ele>403.30</ele>
        <time>2012-12-01T13:38:33Z</time>
      </trkpt>
      <trkpt lat="42.459900000" lon="-2.466339000">
        <ele>403.20</ele>
        <time>2012-12-01T13:38:35Z</time>
      </trkpt>
      <trkpt lat="42.459950000" lon="-2.466261000">
        <ele>402.50</ele>
        <time>2012-12-01T13:38:36Z</time>
      </trkpt>
      <trkpt lat="42.459975000" lon="-2.466249000">
        <ele>402.30</ele>
        <time>2012-12-01T13:38:38Z</time>
      </trkpt>
      <trkpt lat="42.460028000" lon="-2.466241000">
        <ele>402.00</ele>
        <time>2012-12-01T13:38:40Z</time>
      </trkpt>
      <trkpt lat="42.460065000" lon="-2.466226000">
        <ele>401.80</ele>
        <time>2012-12-01T13:38:42Z</time>
      </trkpt>
      <trkpt lat="42.460070000" lon="-2.466228000">
        <ele>401.70</ele>
        <time>2012-12-01T13:38:43Z</time>
      </trkpt>
      <trkpt lat="42.460071000" lon="-2.466228000">
        <ele>401.70</ele>
        <time>2012-12-01T13:38:43Z</time>
      </trkpt>
      <trkpt lat="42.460071000" lon="-2.466224000">
        <ele>401.60</ele>
        <time>2012-12-01T13:38:45Z</time>
      </trkpt>
      <trkpt lat="42.460080000" lon="-2.466179000">
        <ele>401.60</ele>
        <time>2012-12-01T13:38:47Z</time>
      </trkpt>
      <trkpt lat="42.460081000" lon="-2.466141000">
        <ele>401.60</ele>
        <time>2012-12-01T13:38:50Z</time>
      </trkpt>
      <trkpt lat="42.460085000" lon="-2.466123000">
        <ele>401.60</ele>
        <time>2012-12-01T13:38:52Z</time>
      </trkpt>
      <trkpt lat="42.460085000" lon="-2.466083000">
        <ele>401.50</ele>
        <time>2012-12-01T13:38:54Z</time>
      </trkpt>
      <trkpt lat="42.460078000" lon="-2.466024000">
        <ele>401.60</ele>
        <time>2012-12-01T13:38:55Z</time>
      </trkpt>
      <trkpt lat="42.460081000" lon="-2.465991000">
        <ele>401.60</ele>
        <time>2012-12-01T13:38:57Z</time>
      </trkpt>
      <trkpt lat="42.460123000" lon="-2.465781000">
        <ele>401.50</ele>
        <time>2012-12-01T13:39:02Z</time>
      </trkpt>
      <trkpt lat="42.460130000" lon="-2.465658000">
        <ele>401.50</ele>
        <time>2012-12-01T13:39:06Z</time>
      </trkpt>
      <trkpt lat="42.460125000" lon="-2.465619000">
        <ele>401.50</ele>
        <time>2012-12-01T13:39:06Z</time>
      </trkpt>
      <trkpt lat="42.460138000" lon="-2.465309000">
        <ele>401.60</ele>
        <time>2012-12-01T13:39:13Z</time>
      </trkpt>
      <trkpt lat="42.460131000" lon="-2.465279000">
        <ele>401.60</ele>
        <time>2012-12-01T13:39:15Z</time>
      </trkpt>
      <trkpt lat="42.460128000" lon="-2.465248000">
        <ele>401.60</ele>
        <time>2012-12-01T13:39:16Z</time>
      </trkpt>
      <trkpt lat="42.460141000" lon="-2.464871000">
        <ele>401.60</ele>
        <time>2012-12-01T13:39:23Z</time>
      </trkpt>
      <trkpt lat="42.460205000" lon="-2.464549000">
        <ele>401.70</ele>
        <time>2012-12-01T13:39:30Z</time>
      </trkpt>
      <trkpt lat="42.460220000" lon="-2.464524000">
        <ele>401.70</ele>
        <time>2012-12-01T13:39:30Z</time>
      </trkpt>
      <trkpt lat="42.460243000" lon="-2.464509000">
        <ele>401.70</ele>
        <time>2012-12-01T13:39:32Z</time>
      </trkpt>
      <trkpt lat="42.460300000" lon="-2.464503000">
        <ele>401.70</ele>
        <time>2012-12-01T13:39:34Z</time>
      </trkpt>
      <trkpt lat="42.460643000" lon="-2.464579000">
        <ele>401.70</ele>
        <time>2012-12-01T13:39:46Z</time>
      </trkpt>
      <trkpt lat="42.460660000" lon="-2.464571000">
        <ele>401.70</ele>
        <time>2012-12-01T13:39:46Z</time>
      </trkpt>
      <trkpt lat="42.460796000" lon="-2.464406000">
        <ele>401.40</ele>
        <time>2012-12-01T13:39:55Z</time>
      </trkpt>
      <trkpt lat="42.460855000" lon="-2.464293000">
        <ele>401.30</ele>
        <time>2012-12-01T13:39:58Z</time>
      </trkpt>
      <trkpt lat="42.460865000" lon="-2.464279000">
        <ele>401.30</ele>
        <time>2012-12-01T13:40:00Z</time>
      </trkpt>
      <trkpt lat="42.460875000" lon="-2.464276000">
        <ele>401.30</ele>
        <time>2012-12-01T13:40:00Z</time>
      </trkpt>
      <trkpt lat="42.460885000" lon="-2.464273000">
        <ele>401.20</ele>
        <time>2012-12-01T13:40:02Z</time>
      </trkpt>
      <trkpt lat="42.460893000" lon="-2.464266000">
        <ele>401.20</ele>
        <time>2012-12-01T13:40:02Z</time>
      </trkpt>
      <trkpt lat="42.460905000" lon="-2.464259000">
        <ele>401.20</ele>
        <time>2012-12-01T13:40:03Z</time>
      </trkpt>
      <trkpt lat="42.460941000" lon="-2.464243000">
        <ele>401.20</ele>
        <time>2012-12-01T13:40:09Z</time>
      </trkpt>
      <trkpt lat="42.460950000" lon="-2.464241000">
        <ele>401.20</ele>
        <time>2012-12-01T13:40:10Z</time>
      </trkpt>
      <trkpt lat="42.460961000" lon="-2.464234000">
        <ele>401.20</ele>
        <time>2012-12-01T13:40:12Z</time>
      </trkpt>
      <trkpt lat="42.460971000" lon="-2.464231000">
        <ele>401.20</ele>
        <time>2012-12-01T13:40:12Z</time>
      </trkpt>
      <trkpt lat="42.460978000" lon="-2.464228000">
        <ele>401.10</ele>
        <time>2012-12-01T13:40:14Z</time>
      </trkpt>
      <trkpt lat="42.460985000" lon="-2.464224000">
        <ele>401.10</ele>
        <time>2012-12-01T13:40:14Z</time>
      </trkpt>
      <trkpt lat="42.460995000" lon="-2.464223000">
        <ele>401.10</ele>
        <time>2012-12-01T13:40:16Z</time>
      </trkpt>
      <trkpt lat="42.461043000" lon="-2.464209000">
        <ele>401.10</ele>
        <time>2012-12-01T13:40:19Z</time>
      </trkpt>
      <trkpt lat="42.461058000" lon="-2.464208000">
        <ele>401.10</ele>
        <time>2012-12-01T13:40:21Z</time>
      </trkpt>
      <trkpt lat="42.461096000" lon="-2.464198000">
        <ele>401.10</ele>
        <time>2012-12-01T13:40:24Z</time>
      </trkpt>
      <trkpt lat="42.461106000" lon="-2.464194000">
        <ele>401.10</ele>
        <time>2012-12-01T13:40:24Z</time>
      </trkpt>
      <trkpt lat="42.461113000" lon="-2.464191000">
        <ele>401.00</ele>
        <time>2012-12-01T13:40:26Z</time>
      </trkpt>
      <trkpt lat="42.461111000" lon="-2.464184000">
        <ele>401.00</ele>
        <time>2012-12-01T13:40:28Z</time>
      </trkpt>
      <trkpt lat="42.461118000" lon="-2.464176000">
        <ele>401.00</ele>
        <time>2012-12-01T13:40:31Z</time>
      </trkpt>
      <trkpt lat="42.461118000" lon="-2.464169000">
        <ele>401.00</ele>
        <time>2012-12-01T13:40:33Z</time>
      </trkpt>
    </trkseg>
  </trk>
</gpx>
